<?xml version="1.0" encoding="UTF-8" standalone="no" ?>
<gpx xmlns="http://www.topografix.com/GPX/1/1" xmlns:xsi="http://www.w3.org/2001/XMLSchema-instance" xsi:schemaLocation="http://www.topografix.com/GPX/1/1 http://www.topografix.com/GPX/1/1/gpx.xsd" version="1.1" creator="VisuGPX - https://www.visugpx.com">
  <metadata>
    <name>mtp-grabels-montarnaud_stpaul_vailauques</name>
    <desc><![CDATA[5h40]]></desc>
  </metadata>
  <trk>
    <name><![CDATA[mtp-grabels-montarnaud_stpaul_vailauques_1]]></name>
    <extensions>
      <line xmlns="http://www.topografix.com/GPX/gpx_style/0/2">
        <color>0000FF</color>
        <width>4</width>
      </line>
    </extensions>
    <trkseg>
      <trkpt lat="43.61177" lon="3.82903">
        <ele>64.873825</ele>
        <time>2021-04-17T07:45:48.911Z</time>
      </trkpt>
      <trkpt lat="43.61186" lon="3.82943">
        <ele>64.131439</ele>
        <time>2021-04-17T07:45:52.458Z</time>
      </trkpt>
      <trkpt lat="43.61193" lon="3.82981">
        <ele>64.135254</ele>
        <time>2021-04-17T07:45:57.342Z</time>
      </trkpt>
      <trkpt lat="43.61202" lon="3.82997">
        <ele>64.571938</ele>
        <time>2021-04-17T07:46:00.808Z</time>
      </trkpt>
      <trkpt lat="43.61229" lon="3.82994">
        <ele>64.528893</ele>
        <time>2021-04-17T07:46:05.353Z</time>
      </trkpt>
      <trkpt lat="43.61251" lon="3.82988">
        <ele>63.894123</ele>
        <time>2021-04-17T07:46:07.868Z</time>
      </trkpt>
      <trkpt lat="43.61271" lon="3.82984">
        <ele>63.679523</ele>
        <time>2021-04-17T07:46:10.663Z</time>
      </trkpt>
      <trkpt lat="43.61294" lon="3.82977">
        <ele>63.643719</ele>
        <time>2021-04-17T07:46:14.619Z</time>
      </trkpt>
      <trkpt lat="43.6132" lon="3.82975">
        <ele>63.643719</ele>
        <time>2021-04-17T07:46:19.094Z</time>
      </trkpt>
      <trkpt lat="43.61348" lon="3.82978">
        <ele>63.725422</ele>
        <time>2021-04-17T07:46:24.052Z</time>
      </trkpt>
      <trkpt lat="43.61371" lon="3.82979">
        <ele>64.125648</ele>
        <time>2021-04-17T07:46:28.756Z</time>
      </trkpt>
      <trkpt lat="43.61391" lon="3.82976">
        <ele>64.531929</ele>
        <time>2021-04-17T07:46:32.998Z</time>
      </trkpt>
      <trkpt lat="43.61406" lon="3.82977">
        <ele>65.235603</ele>
        <time>2021-04-17T07:46:37.419Z</time>
      </trkpt>
      <trkpt lat="43.61412" lon="3.8298">
        <ele>65.900116</ele>
        <time>2021-04-17T07:46:40.391Z</time>
      </trkpt>
      <trkpt lat="43.61424" lon="3.82978">
        <ele>66.221458</ele>
        <time>2021-04-17T07:46:43.137Z</time>
      </trkpt>
      <trkpt lat="43.61438" lon="3.82978">
        <ele>66.499893</ele>
        <time>2021-04-17T07:46:46.078Z</time>
      </trkpt>
      <trkpt lat="43.61443" lon="3.82964">
        <ele>67.05085</ele>
        <time>2021-04-17T07:46:49.447Z</time>
      </trkpt>
      <trkpt lat="43.61445" lon="3.82927">
        <ele>67.18692</ele>
        <time>2021-04-17T07:46:54.288Z</time>
      </trkpt>
      <trkpt lat="43.61453" lon="3.82921">
        <ele>67.153969</ele>
        <time>2021-04-17T07:46:55.770Z</time>
      </trkpt>
      <trkpt lat="43.61468" lon="3.82932">
        <ele>67.147461</ele>
        <time>2021-04-17T07:46:58.671Z</time>
      </trkpt>
      <trkpt lat="43.61492" lon="3.82951">
        <ele>67.521973</ele>
        <time>2021-04-17T07:47:04.098Z</time>
      </trkpt>
      <trkpt lat="43.61521" lon="3.8297">
        <ele>68.636444</ele>
        <time>2021-04-17T07:47:12.186Z</time>
      </trkpt>
      <trkpt lat="43.61547" lon="3.82986">
        <ele>69.79525</ele>
        <time>2021-04-17T07:47:19.987Z</time>
      </trkpt>
      <trkpt lat="43.6157" lon="3.83">
        <ele>70.42057</ele>
        <time>2021-04-17T07:47:25.581Z</time>
      </trkpt>
      <trkpt lat="43.61591" lon="3.83015">
        <ele>71.606186</ele>
        <time>2021-04-17T07:47:32.692Z</time>
      </trkpt>
      <trkpt lat="43.61611" lon="3.83029">
        <ele>72.515038</ele>
        <time>2021-04-17T07:47:38.821Z</time>
      </trkpt>
      <trkpt lat="43.61633" lon="3.83043">
        <ele>73.181625</ele>
        <time>2021-04-17T07:47:44.386Z</time>
      </trkpt>
      <trkpt lat="43.61652" lon="3.83059">
        <ele>73.756393</ele>
        <time>2021-04-17T07:47:49.395Z</time>
      </trkpt>
      <trkpt lat="43.61669" lon="3.83078">
        <ele>74.139091</ele>
        <time>2021-04-17T07:47:53.871Z</time>
      </trkpt>
      <trkpt lat="43.61684" lon="3.83097">
        <ele>74.391029</ele>
        <time>2021-04-17T07:47:57.816Z</time>
      </trkpt>
      <trkpt lat="43.617" lon="3.8311">
        <ele>74.557861</ele>
        <time>2021-04-17T07:48:01.292Z</time>
      </trkpt>
      <trkpt lat="43.61714" lon="3.83129">
        <ele>74.827477</ele>
        <time>2021-04-17T07:48:05.150Z</time>
      </trkpt>
      <trkpt lat="43.61729" lon="3.83143">
        <ele>74.99398</ele>
        <time>2021-04-17T07:48:08.547Z</time>
      </trkpt>
      <trkpt lat="43.61753" lon="3.83156">
        <ele>75.245079</ele>
        <time>2021-04-17T07:48:13.411Z</time>
      </trkpt>
      <trkpt lat="43.61773" lon="3.83171">
        <ele>75.547768</ele>
        <time>2021-04-17T07:48:17.865Z</time>
      </trkpt>
      <trkpt lat="43.61799" lon="3.83185">
        <ele>75.912834</ele>
        <time>2021-04-17T07:48:23.313Z</time>
      </trkpt>
      <trkpt lat="43.61821" lon="3.832">
        <ele>76.299805</ele>
        <time>2021-04-17T07:48:28.242Z</time>
      </trkpt>
      <trkpt lat="43.61844" lon="3.83213">
        <ele>77.028511</ele>
        <time>2021-04-17T07:48:34.080Z</time>
      </trkpt>
      <trkpt lat="43.61867" lon="3.83227">
        <ele>77.772881</ele>
        <time>2021-04-17T07:48:40.008Z</time>
      </trkpt>
      <trkpt lat="43.6189" lon="3.83238">
        <ele>78.421471</ele>
        <time>2021-04-17T07:48:45.541Z</time>
      </trkpt>
      <trkpt lat="43.6191" lon="3.8325">
        <ele>79.05957</ele>
        <time>2021-04-17T07:48:50.660Z</time>
      </trkpt>
      <trkpt lat="43.61932" lon="3.83261">
        <ele>79.784668</ele>
        <time>2021-04-17T07:48:56.275Z</time>
      </trkpt>
      <trkpt lat="43.6195" lon="3.83271">
        <ele>80.398598</ele>
        <time>2021-04-17T07:49:00.970Z</time>
      </trkpt>
      <trkpt lat="43.61974" lon="3.83283">
        <ele>80.835938</ele>
        <time>2021-04-17T07:49:06.173Z</time>
      </trkpt>
      <trkpt lat="43.61997" lon="3.83295">
        <ele>81.557457</ele>
        <time>2021-04-17T07:49:11.951Z</time>
      </trkpt>
      <trkpt lat="43.62016" lon="3.83315">
        <ele>82.152718</ele>
        <time>2021-04-17T07:49:17.270Z</time>
      </trkpt>
      <trkpt lat="43.62036" lon="3.83337">
        <ele>82.695</ele>
        <time>2021-04-17T07:49:22.723Z</time>
      </trkpt>
      <trkpt lat="43.62056" lon="3.83358">
        <ele>82.924355</ele>
        <time>2021-04-17T07:49:27.434Z</time>
      </trkpt>
      <trkpt lat="43.62075" lon="3.8338">
        <ele>83.023872</ele>
        <time>2021-04-17T07:49:31.858Z</time>
      </trkpt>
      <trkpt lat="43.62093" lon="3.83402">
        <ele>83.152771</ele>
        <time>2021-04-17T07:49:36.201Z</time>
      </trkpt>
      <trkpt lat="43.62112" lon="3.83422">
        <ele>83.172714</ele>
        <time>2021-04-17T07:49:40.338Z</time>
      </trkpt>
      <trkpt lat="43.6213" lon="3.83444">
        <ele>83.047935</ele>
        <time>2021-04-17T07:49:44.164Z</time>
      </trkpt>
      <trkpt lat="43.62148" lon="3.83464">
        <ele>82.830574</ele>
        <time>2021-04-17T07:49:47.411Z</time>
      </trkpt>
      <trkpt lat="43.62167" lon="3.83487">
        <ele>82.603668</ele>
        <time>2021-04-17T07:49:50.982Z</time>
      </trkpt>
      <trkpt lat="43.62185" lon="3.8351">
        <ele>82.36454</ele>
        <time>2021-04-17T07:49:54.413Z</time>
      </trkpt>
      <trkpt lat="43.62203" lon="3.83531">
        <ele>82.330078</ele>
        <time>2021-04-17T07:49:58.373Z</time>
      </trkpt>
      <trkpt lat="43.62222" lon="3.83538">
        <ele>82.333183</ele>
        <time>2021-04-17T07:50:01.757Z</time>
      </trkpt>
      <trkpt lat="43.62239" lon="3.83542">
        <ele>82.118217</ele>
        <time>2021-04-17T07:50:04.086Z</time>
      </trkpt>
      <trkpt lat="43.6226" lon="3.83534">
        <ele>81.841881</ele>
        <time>2021-04-17T07:50:07.019Z</time>
      </trkpt>
      <trkpt lat="43.62279" lon="3.83516">
        <ele>81.388069</ele>
        <time>2021-04-17T07:50:09.865Z</time>
      </trkpt>
      <trkpt lat="43.62291" lon="3.8349">
        <ele>80.772133</ele>
        <time>2021-04-17T07:50:12.388Z</time>
      </trkpt>
      <trkpt lat="43.62306" lon="3.83463">
        <ele>80.772133</ele>
        <time>2021-04-17T07:50:16.622Z</time>
      </trkpt>
      <trkpt lat="43.62326" lon="3.83444">
        <ele>80.159828</ele>
        <time>2021-04-17T07:50:19.438Z</time>
      </trkpt>
      <trkpt lat="43.62351" lon="3.83436">
        <ele>77.979683</ele>
        <time>2021-04-17T07:50:21.667Z</time>
      </trkpt>
      <trkpt lat="43.62376" lon="3.8344">
        <ele>75.368149</ele>
        <time>2021-04-17T07:50:23.852Z</time>
      </trkpt>
      <trkpt lat="43.62399" lon="3.83449">
        <ele>74.887123</ele>
        <time>2021-04-17T07:50:26.791Z</time>
      </trkpt>
      <trkpt lat="43.62419" lon="3.83469">
        <ele>74.862465</ele>
        <time>2021-04-17T07:50:30.970Z</time>
      </trkpt>
      <trkpt lat="43.62435" lon="3.83495">
        <ele>75.529541</ele>
        <time>2021-04-17T07:50:36.610Z</time>
      </trkpt>
      <trkpt lat="43.62447" lon="3.83527">
        <ele>76.541611</ele>
        <time>2021-04-17T07:50:43.564Z</time>
      </trkpt>
      <trkpt lat="43.62458" lon="3.83566">
        <ele>76.541611</ele>
        <time>2021-04-17T07:50:48.771Z</time>
      </trkpt>
      <trkpt lat="43.62465" lon="3.83591">
        <ele>76.705826</ele>
        <time>2021-04-17T07:50:52.386Z</time>
      </trkpt>
      <trkpt lat="43.62468" lon="3.83612">
        <ele>77.484985</ele>
        <time>2021-04-17T07:50:57.051Z</time>
      </trkpt>
      <trkpt lat="43.62459" lon="3.83636">
        <ele>78.335419</ele>
        <time>2021-04-17T07:51:02.637Z</time>
      </trkpt>
      <trkpt lat="43.6244" lon="3.83642">
        <ele>78.894814</ele>
        <time>2021-04-17T07:51:07.181Z</time>
      </trkpt>
      <trkpt lat="43.62422" lon="3.83648">
        <ele>79.87928</ele>
        <time>2021-04-17T07:51:12.863Z</time>
      </trkpt>
      <trkpt lat="43.6241" lon="3.83664">
        <ele>80.653183</ele>
        <time>2021-04-17T07:51:17.759Z</time>
      </trkpt>
      <trkpt lat="43.62415" lon="3.83674">
        <ele>81.402588</ele>
        <time>2021-04-17T07:51:21.195Z</time>
      </trkpt>
      <trkpt lat="43.62419" lon="3.83676">
        <ele>81.567032</ele>
        <time>2021-04-17T07:51:22.326Z</time>
      </trkpt>
      <trkpt lat="43.62417" lon="3.83671">
        <ele>81.866539</ele>
        <time>2021-04-17T07:51:23.783Z</time>
      </trkpt>
      <trkpt lat="43.62436" lon="3.83663">
        <ele>81.069183</ele>
        <time>2021-04-17T07:51:25.761Z</time>
      </trkpt>
      <trkpt lat="43.62449" lon="3.83659">
        <ele>80.598427</ele>
        <time>2021-04-17T07:51:27.150Z</time>
      </trkpt>
      <trkpt lat="43.62463" lon="3.83654">
        <ele>80.169823</ele>
        <time>2021-04-17T07:51:28.750Z</time>
      </trkpt>
      <trkpt lat="43.62479" lon="3.83647">
        <ele>79.669739</ele>
        <time>2021-04-17T07:51:30.603Z</time>
      </trkpt>
      <trkpt lat="43.62492" lon="3.83633">
        <ele>78.93206</ele>
        <time>2021-04-17T07:51:32.175Z</time>
      </trkpt>
      <trkpt lat="43.62501" lon="3.83615">
        <ele>78.412514</ele>
        <time>2021-04-17T07:51:33.870Z</time>
      </trkpt>
      <trkpt lat="43.62516" lon="3.83606">
        <ele>78.286713</ele>
        <time>2021-04-17T07:51:36.223Z</time>
      </trkpt>
      <trkpt lat="43.62534" lon="3.83615">
        <ele>78.195396</ele>
        <time>2021-04-17T07:51:39.289Z</time>
      </trkpt>
      <trkpt lat="43.62552" lon="3.8362">
        <ele>77.77179</ele>
        <time>2021-04-17T07:51:41.470Z</time>
      </trkpt>
      <trkpt lat="43.6257" lon="3.83613">
        <ele>77.232323</ele>
        <time>2021-04-17T07:51:43.556Z</time>
      </trkpt>
      <trkpt lat="43.62569" lon="3.83594">
        <ele>77.356506</ele>
        <time>2021-04-17T07:51:46.138Z</time>
      </trkpt>
      <trkpt lat="43.62561" lon="3.83576">
        <ele>77.496529</ele>
        <time>2021-04-17T07:51:49.007Z</time>
      </trkpt>
      <trkpt lat="43.62544" lon="3.83562">
        <ele>77.880455</ele>
        <time>2021-04-17T07:51:53.143Z</time>
      </trkpt>
      <trkpt lat="43.62534" lon="3.83543">
        <ele>78.073608</ele>
        <time>2021-04-17T07:51:56.404Z</time>
      </trkpt>
      <trkpt lat="43.62528" lon="3.83523">
        <ele>78.021507</ele>
        <time>2021-04-17T07:51:58.967Z</time>
      </trkpt>
      <trkpt lat="43.6252" lon="3.83503">
        <ele>77.95829</ele>
        <time>2021-04-17T07:52:01.652Z</time>
      </trkpt>
      <trkpt lat="43.62511" lon="3.83485">
        <ele>77.847023</ele>
        <time>2021-04-17T07:52:04.109Z</time>
      </trkpt>
      <trkpt lat="43.62505" lon="3.83466">
        <ele>77.735756</ele>
        <time>2021-04-17T07:52:06.276Z</time>
      </trkpt>
      <trkpt lat="43.6251" lon="3.83441">
        <ele>77.425209</ele>
        <time>2021-04-17T07:52:08.685Z</time>
      </trkpt>
      <trkpt lat="43.62517" lon="3.83413">
        <ele>77.202942</ele>
        <time>2021-04-17T07:52:11.661Z</time>
      </trkpt>
      <trkpt lat="43.62524" lon="3.83384">
        <ele>77.383537</ele>
        <time>2021-04-17T07:52:15.771Z</time>
      </trkpt>
      <trkpt lat="43.62532" lon="3.83357">
        <ele>77.619469</ele>
        <time>2021-04-17T07:52:19.814Z</time>
      </trkpt>
      <trkpt lat="43.62541" lon="3.83331">
        <ele>77.619469</ele>
        <time>2021-04-17T07:52:23.399Z</time>
      </trkpt>
      <trkpt lat="43.62549" lon="3.83305">
        <ele>77.903404</ele>
        <time>2021-04-17T07:52:27.425Z</time>
      </trkpt>
      <trkpt lat="43.62558" lon="3.8328">
        <ele>79.645836</ele>
        <time>2021-04-17T07:52:35.388Z</time>
      </trkpt>
      <trkpt lat="43.62573" lon="3.83265">
        <ele>81.192871</ele>
        <time>2021-04-17T07:52:42.519Z</time>
      </trkpt>
      <trkpt lat="43.62584" lon="3.83243">
        <ele>82.492027</ele>
        <time>2021-04-17T07:52:49.070Z</time>
      </trkpt>
      <trkpt lat="43.62585" lon="3.83219">
        <ele>83.307617</ele>
        <time>2021-04-17T07:52:54.194Z</time>
      </trkpt>
      <trkpt lat="43.62599" lon="3.83208">
        <ele>83.942604</ele>
        <time>2021-04-17T07:52:58.526Z</time>
      </trkpt>
      <trkpt lat="43.6261" lon="3.83188">
        <ele>84.619209</ele>
        <time>2021-04-17T07:53:03.267Z</time>
      </trkpt>
      <trkpt lat="43.62621" lon="3.83163">
        <ele>84.727173</ele>
        <time>2021-04-17T07:53:07.084Z</time>
      </trkpt>
      <trkpt lat="43.6263" lon="3.83141">
        <ele>84.81131</ele>
        <time>2021-04-17T07:53:10.366Z</time>
      </trkpt>
      <trkpt lat="43.62638" lon="3.83119">
        <ele>84.812927</ele>
        <time>2021-04-17T07:53:13.431Z</time>
      </trkpt>
      <trkpt lat="43.62639" lon="3.83092">
        <ele>84.812927</ele>
        <time>2021-04-17T07:53:16.794Z</time>
      </trkpt>
      <trkpt lat="43.62642" lon="3.83067">
        <ele>84.608871</ele>
        <time>2021-04-17T07:53:19.315Z</time>
      </trkpt>
      <trkpt lat="43.62644" lon="3.83043">
        <ele>83.995522</ele>
        <time>2021-04-17T07:53:21.144Z</time>
      </trkpt>
      <trkpt lat="43.62647" lon="3.8302">
        <ele>83.247459</ele>
        <time>2021-04-17T07:53:22.766Z</time>
      </trkpt>
      <trkpt lat="43.62661" lon="3.83014">
        <ele>81.076958</ele>
        <time>2021-04-17T07:53:24.039Z</time>
      </trkpt>
      <trkpt lat="43.62674" lon="3.83019">
        <ele>81.076958</ele>
        <time>2021-04-17T07:53:26.358Z</time>
      </trkpt>
      <trkpt lat="43.62687" lon="3.83022">
        <ele>77.500572</ele>
        <time>2021-04-17T07:53:27.502Z</time>
      </trkpt>
      <trkpt lat="43.62702" lon="3.83028">
        <ele>76.235466</ele>
        <time>2021-04-17T07:53:28.859Z</time>
      </trkpt>
      <trkpt lat="43.62719" lon="3.83034">
        <ele>76.235466</ele>
        <time>2021-04-17T07:53:31.874Z</time>
      </trkpt>
      <trkpt lat="43.62733" lon="3.83042">
        <ele>77.203156</ele>
        <time>2021-04-17T07:53:36.881Z</time>
      </trkpt>
      <trkpt lat="43.62745" lon="3.83052">
        <ele>78.233246</ele>
        <time>2021-04-17T07:53:41.859Z</time>
      </trkpt>
      <trkpt lat="43.62758" lon="3.83064">
        <ele>78.233246</ele>
        <time>2021-04-17T07:53:44.546Z</time>
      </trkpt>
      <trkpt lat="43.62768" lon="3.83079">
        <ele>79.405556</ele>
        <time>2021-04-17T07:53:50.041Z</time>
      </trkpt>
      <trkpt lat="43.62776" lon="3.83094">
        <ele>81.52179</ele>
        <time>2021-04-17T07:53:58.980Z</time>
      </trkpt>
      <trkpt lat="43.62792" lon="3.83096">
        <ele>82.79834</ele>
        <time>2021-04-17T07:54:04.962Z</time>
      </trkpt>
      <trkpt lat="43.6281" lon="3.83089">
        <ele>82.979294</ele>
        <time>2021-04-17T07:54:08.488Z</time>
      </trkpt>
      <trkpt lat="43.62828" lon="3.83086">
        <ele>82.704903</ele>
        <time>2021-04-17T07:54:10.855Z</time>
      </trkpt>
      <trkpt lat="43.62842" lon="3.83077">
        <ele>82.386009</ele>
        <time>2021-04-17T07:54:12.742Z</time>
      </trkpt>
      <trkpt lat="43.62841" lon="3.83048">
        <ele>81.692604</ele>
        <time>2021-04-17T07:54:14.986Z</time>
      </trkpt>
      <trkpt lat="43.62835" lon="3.83001">
        <ele>81.692604</ele>
        <time>2021-04-17T07:54:20.923Z</time>
      </trkpt>
      <trkpt lat="43.62832" lon="3.82961">
        <ele>80.959991</ele>
        <time>2021-04-17T07:54:24.301Z</time>
      </trkpt>
      <trkpt lat="43.62835" lon="3.8293">
        <ele>78.001244</ele>
        <time>2021-04-17T07:54:26.268Z</time>
      </trkpt>
      <trkpt lat="43.62841" lon="3.82892">
        <ele>78.001244</ele>
        <time>2021-04-17T07:54:31.105Z</time>
      </trkpt>
      <trkpt lat="43.62848" lon="3.82854">
        <ele>72.858589</ele>
        <time>2021-04-17T07:54:33.570Z</time>
      </trkpt>
      <trkpt lat="43.62857" lon="3.82823">
        <ele>65.691811</ele>
        <time>2021-04-17T07:54:35.670Z</time>
      </trkpt>
      <trkpt lat="43.62877" lon="3.82814">
        <ele>64.367279</ele>
        <time>2021-04-17T07:54:37.392Z</time>
      </trkpt>
      <trkpt lat="43.62899" lon="3.82807">
        <ele>64.363106</ele>
        <time>2021-04-17T07:54:41.260Z</time>
      </trkpt>
      <trkpt lat="43.62902" lon="3.82781">
        <ele>64.584053</ele>
        <time>2021-04-17T07:54:44.924Z</time>
      </trkpt>
      <trkpt lat="43.62909" lon="3.82753">
        <ele>64.490425</ele>
        <time>2021-04-17T07:54:48.378Z</time>
      </trkpt>
      <trkpt lat="43.62924" lon="3.82733">
        <ele>64.348183</ele>
        <time>2021-04-17T07:54:51.621Z</time>
      </trkpt>
      <trkpt lat="43.6294" lon="3.82715">
        <ele>63.173813</ele>
        <time>2021-04-17T07:54:53.394Z</time>
      </trkpt>
      <trkpt lat="43.62955" lon="3.82696">
        <ele>63.173813</ele>
        <time>2021-04-17T07:54:56.891Z</time>
      </trkpt>
      <trkpt lat="43.6297" lon="3.82677">
        <ele>62.90062</ele>
        <time>2021-04-17T07:54:59.606Z</time>
      </trkpt>
      <trkpt lat="43.62985" lon="3.82659">
        <ele>62.412354</ele>
        <time>2021-04-17T07:55:01.927Z</time>
      </trkpt>
      <trkpt lat="43.62999" lon="3.82641">
        <ele>61.898518</ele>
        <time>2021-04-17T07:55:04.106Z</time>
      </trkpt>
      <trkpt lat="43.63013" lon="3.82634">
        <ele>61.83952</ele>
        <time>2021-04-17T07:55:06.518Z</time>
      </trkpt>
      <trkpt lat="43.6303" lon="3.82637">
        <ele>61.990982</ele>
        <time>2021-04-17T07:55:09.722Z</time>
      </trkpt>
      <trkpt lat="43.63039" lon="3.82626">
        <ele>62.59343</ele>
        <time>2021-04-17T07:55:13.336Z</time>
      </trkpt>
      <trkpt lat="43.63041" lon="3.82593">
        <ele>62.624683</ele>
        <time>2021-04-17T07:55:17.505Z</time>
      </trkpt>
      <trkpt lat="43.63041" lon="3.82554">
        <ele>61.858307</ele>
        <time>2021-04-17T07:55:20.711Z</time>
      </trkpt>
      <trkpt lat="43.63042" lon="3.82516">
        <ele>60.344727</ele>
        <time>2021-04-17T07:55:23.114Z</time>
      </trkpt>
      <trkpt lat="43.63044" lon="3.82483">
        <ele>58.620483</ele>
        <time>2021-04-17T07:55:25.195Z</time>
      </trkpt>
      <trkpt lat="43.63044" lon="3.82455">
        <ele>58.056931</ele>
        <time>2021-04-17T07:55:27.481Z</time>
      </trkpt>
      <trkpt lat="43.63045" lon="3.82427">
        <ele>57.357708</ele>
        <time>2021-04-17T07:55:29.616Z</time>
      </trkpt>
      <trkpt lat="43.63049" lon="3.824">
        <ele>56.735394</ele>
        <time>2021-04-17T07:55:31.787Z</time>
      </trkpt>
      <trkpt lat="43.63049" lon="3.82372">
        <ele>56.308258</ele>
        <time>2021-04-17T07:55:34.251Z</time>
      </trkpt>
      <trkpt lat="43.6305" lon="3.82345">
        <ele>55.765705</ele>
        <time>2021-04-17T07:55:36.460Z</time>
      </trkpt>
      <trkpt lat="43.63049" lon="3.8232">
        <ele>55.375244</ele>
        <time>2021-04-17T07:55:38.651Z</time>
      </trkpt>
      <trkpt lat="43.6305" lon="3.82297">
        <ele>55.230305</ele>
        <time>2021-04-17T07:55:41.018Z</time>
      </trkpt>
      <trkpt lat="43.63054" lon="3.82275">
        <ele>55.372395</ele>
        <time>2021-04-17T07:55:44.082Z</time>
      </trkpt>
      <trkpt lat="43.63055" lon="3.82252">
        <ele>55.654217</ele>
        <time>2021-04-17T07:55:47.473Z</time>
      </trkpt>
      <trkpt lat="43.63055" lon="3.82228">
        <ele>56.048645</ele>
        <time>2021-04-17T07:55:51.242Z</time>
      </trkpt>
      <trkpt lat="43.63052" lon="3.82206">
        <ele>56.627308</ele>
        <time>2021-04-17T07:55:55.380Z</time>
      </trkpt>
      <trkpt lat="43.63057" lon="3.82181">
        <ele>57.042419</ele>
        <time>2021-04-17T07:55:59.426Z</time>
      </trkpt>
      <trkpt lat="43.63058" lon="3.82153">
        <ele>57.604752</ele>
        <time>2021-04-17T07:56:04.099Z</time>
      </trkpt>
      <trkpt lat="43.63059" lon="3.82121">
        <ele>58.562176</ele>
        <time>2021-04-17T07:56:10.507Z</time>
      </trkpt>
      <trkpt lat="43.6306" lon="3.82089">
        <ele>59.294147</ele>
        <time>2021-04-17T07:56:16.112Z</time>
      </trkpt>
      <trkpt lat="43.63065" lon="3.82058">
        <ele>60.241688</ele>
        <time>2021-04-17T07:56:22.459Z</time>
      </trkpt>
      <trkpt lat="43.6307" lon="3.82025">
        <ele>60.984028</ele>
        <time>2021-04-17T07:56:28.273Z</time>
      </trkpt>
      <trkpt lat="43.63073" lon="3.81993">
        <ele>61.262249</ele>
        <time>2021-04-17T07:56:32.778Z</time>
      </trkpt>
      <trkpt lat="43.63074" lon="3.81961">
        <ele>61.030704</ele>
        <time>2021-04-17T07:56:36.011Z</time>
      </trkpt>
      <trkpt lat="43.63073" lon="3.81932">
        <ele>60.406254</ele>
        <time>2021-04-17T07:56:38.334Z</time>
      </trkpt>
      <trkpt lat="43.63069" lon="3.81911">
        <ele>59.631756</ele>
        <time>2021-04-17T07:56:39.774Z</time>
      </trkpt>
      <trkpt lat="43.63069" lon="3.81891">
        <ele>59.31636</ele>
        <time>2021-04-17T07:56:41.519Z</time>
      </trkpt>
      <trkpt lat="43.63064" lon="3.81878">
        <ele>59.457523</ele>
        <time>2021-04-17T07:56:43.603Z</time>
      </trkpt>
      <trkpt lat="43.63049" lon="3.81865">
        <ele>59.707363</ele>
        <time>2021-04-17T07:56:47.098Z</time>
      </trkpt>
      <trkpt lat="43.63031" lon="3.81849">
        <ele>59.684895</ele>
        <time>2021-04-17T07:56:50.718Z</time>
      </trkpt>
      <trkpt lat="43.63014" lon="3.81832">
        <ele>59.608784</ele>
        <time>2021-04-17T07:56:54.135Z</time>
      </trkpt>
      <trkpt lat="43.62997" lon="3.81817">
        <ele>58.920452</ele>
        <time>2021-04-17T07:56:56.265Z</time>
      </trkpt>
      <trkpt lat="43.62993" lon="3.8181">
        <ele>58.11462</ele>
        <time>2021-04-17T07:56:56.825Z</time>
      </trkpt>
      <trkpt lat="43.62989" lon="3.81808">
        <ele>57.788406</ele>
        <time>2021-04-17T07:56:57.195Z</time>
      </trkpt>
      <trkpt lat="43.62979" lon="3.81797">
        <ele>57.59671</ele>
        <time>2021-04-17T07:56:58.866Z</time>
      </trkpt>
      <trkpt lat="43.62966" lon="3.81785">
        <ele>57.16074</ele>
        <time>2021-04-17T07:57:00.628Z</time>
      </trkpt>
      <trkpt lat="43.62951" lon="3.8177">
        <ele>56.456944</ele>
        <time>2021-04-17T07:57:02.510Z</time>
      </trkpt>
      <trkpt lat="43.62944" lon="3.81764">
        <ele>55.384338</ele>
        <time>2021-04-17T07:57:03.226Z</time>
      </trkpt>
      <trkpt lat="43.62948" lon="3.81764">
        <ele>54.835926</ele>
        <time>2021-04-17T07:57:03.573Z</time>
      </trkpt>
      <trkpt lat="43.62957" lon="3.81773">
        <ele>54.911743</ele>
        <time>2021-04-17T07:57:05.610Z</time>
      </trkpt>
      <trkpt lat="43.6296" lon="3.81778">
        <ele>55.299026</ele>
        <time>2021-04-17T07:57:07.403Z</time>
      </trkpt>
      <trkpt lat="43.6296" lon="3.81773">
        <ele>55.656254</ele>
        <time>2021-04-17T07:57:09.000Z</time>
      </trkpt>
      <trkpt lat="43.62944" lon="3.81761">
        <ele>55.578846</ele>
        <time>2021-04-17T07:57:11.937Z</time>
      </trkpt>
      <trkpt lat="43.62924" lon="3.81747">
        <ele>54.992046</ele>
        <time>2021-04-17T07:57:14.511Z</time>
      </trkpt>
      <trkpt lat="43.62911" lon="3.8174">
        <ele>54.178986</ele>
        <time>2021-04-17T07:57:15.696Z</time>
      </trkpt>
      <trkpt lat="43.62907" lon="3.81724">
        <ele>53.843521</ele>
        <time>2021-04-17T07:57:17.084Z</time>
      </trkpt>
      <trkpt lat="43.62903" lon="3.81718">
        <ele>53.592594</ele>
        <time>2021-04-17T07:57:17.660Z</time>
      </trkpt>
      <trkpt lat="43.62906" lon="3.81733">
        <ele>53.509476</ele>
        <time>2021-04-17T07:57:19.287Z</time>
      </trkpt>
      <trkpt lat="43.62919" lon="3.81744">
        <ele>53.542393</ele>
        <time>2021-04-17T07:57:21.960Z</time>
      </trkpt>
      <trkpt lat="43.62932" lon="3.8175">
        <ele>53.869354</ele>
        <time>2021-04-17T07:57:24.974Z</time>
      </trkpt>
      <trkpt lat="43.62944" lon="3.81761">
        <ele>54.360611</ele>
        <time>2021-04-17T07:57:28.573Z</time>
      </trkpt>
      <trkpt lat="43.62955" lon="3.81771">
        <ele>54.608006</ele>
        <time>2021-04-17T07:57:31.306Z</time>
      </trkpt>
      <trkpt lat="43.62966" lon="3.81769">
        <ele>55.266922</ele>
        <time>2021-04-17T07:57:34.859Z</time>
      </trkpt>
      <trkpt lat="43.6298" lon="3.81764">
        <ele>55.581783</ele>
        <time>2021-04-17T07:57:37.963Z</time>
      </trkpt>
      <trkpt lat="43.62993" lon="3.81767">
        <ele>55.581783</ele>
        <time>2021-04-17T07:57:40.228Z</time>
      </trkpt>
      <trkpt lat="43.63004" lon="3.81767">
        <ele>55.987293</ele>
        <time>2021-04-17T07:57:43.082Z</time>
      </trkpt>
      <trkpt lat="43.63015" lon="3.81756">
        <ele>57.265553</ele>
        <time>2021-04-17T07:57:48.822Z</time>
      </trkpt>
      <trkpt lat="43.63028" lon="3.81746">
        <ele>57.497772</ele>
        <time>2021-04-17T07:57:51.806Z</time>
      </trkpt>
      <trkpt lat="43.63042" lon="3.81743">
        <ele>57.784153</ele>
        <time>2021-04-17T07:57:54.794Z</time>
      </trkpt>
      <trkpt lat="43.63054" lon="3.81742">
        <ele>58.229061</ele>
        <time>2021-04-17T07:57:57.919Z</time>
      </trkpt>
      <trkpt lat="43.63069" lon="3.81741">
        <ele>58.649658</ele>
        <time>2021-04-17T07:58:01.390Z</time>
      </trkpt>
      <trkpt lat="43.63079" lon="3.8175">
        <ele>59.275494</ele>
        <time>2021-04-17T07:58:05.035Z</time>
      </trkpt>
      <trkpt lat="43.63091" lon="3.81756">
        <ele>60.230408</ele>
        <time>2021-04-17T07:58:09.614Z</time>
      </trkpt>
      <trkpt lat="43.63102" lon="3.81748">
        <ele>61.228867</ele>
        <time>2021-04-17T07:58:14.276Z</time>
      </trkpt>
      <trkpt lat="43.63097" lon="3.81731">
        <ele>61.362396</ele>
        <time>2021-04-17T07:58:16.790Z</time>
      </trkpt>
      <trkpt lat="43.63094" lon="3.81708">
        <ele>59.998875</ele>
        <time>2021-04-17T07:58:18.259Z</time>
      </trkpt>
      <trkpt lat="43.63092" lon="3.81693">
        <ele>59.647297</ele>
        <time>2021-04-17T07:58:19.452Z</time>
      </trkpt>
      <trkpt lat="43.63091" lon="3.81676">
        <ele>56.814438</ele>
        <time>2021-04-17T07:58:20.524Z</time>
      </trkpt>
      <trkpt lat="43.63091" lon="3.81662">
        <ele>56.12421</ele>
        <time>2021-04-17T07:58:21.404Z</time>
      </trkpt>
      <trkpt lat="43.631" lon="3.81654">
        <ele>55.479004</ele>
        <time>2021-04-17T07:58:22.299Z</time>
      </trkpt>
      <trkpt lat="43.63115" lon="3.81648">
        <ele>54.369244</ele>
        <time>2021-04-17T07:58:23.655Z</time>
      </trkpt>
      <trkpt lat="43.63134" lon="3.81643">
        <ele>54.339966</ele>
        <time>2021-04-17T07:58:26.904Z</time>
      </trkpt>
      <trkpt lat="43.63154" lon="3.81634">
        <ele>54.239574</ele>
        <time>2021-04-17T07:58:30.272Z</time>
      </trkpt>
      <trkpt lat="43.63172" lon="3.81625">
        <ele>54.134907</ele>
        <time>2021-04-17T07:58:33.307Z</time>
      </trkpt>
      <trkpt lat="43.63189" lon="3.81607">
        <ele>54.305126</ele>
        <time>2021-04-17T07:58:37.277Z</time>
      </trkpt>
      <trkpt lat="43.63204" lon="3.8159">
        <ele>54.365681</ele>
        <time>2021-04-17T07:58:40.709Z</time>
      </trkpt>
      <trkpt lat="43.63217" lon="3.81575">
        <ele>54.310425</ele>
        <time>2021-04-17T07:58:43.481Z</time>
      </trkpt>
      <trkpt lat="43.6323" lon="3.81558">
        <ele>54.188595</ele>
        <time>2021-04-17T07:58:46.267Z</time>
      </trkpt>
      <trkpt lat="43.63245" lon="3.8154">
        <ele>54.22916</ele>
        <time>2021-04-17T07:58:49.746Z</time>
      </trkpt>
      <trkpt lat="43.6326" lon="3.81519">
        <ele>54.414646</ele>
        <time>2021-04-17T07:58:53.733Z</time>
      </trkpt>
      <trkpt lat="43.63274" lon="3.81501">
        <ele>54.44981</ele>
        <time>2021-04-17T07:58:57.076Z</time>
      </trkpt>
      <trkpt lat="43.63288" lon="3.81485">
        <ele>54.442829</ele>
        <time>2021-04-17T07:59:00.180Z</time>
      </trkpt>
      <trkpt lat="43.633" lon="3.81467">
        <ele>55.235523</ele>
        <time>2021-04-17T07:59:05.325Z</time>
      </trkpt>
      <trkpt lat="43.63313" lon="3.81448">
        <ele>56.573715</ele>
        <time>2021-04-17T07:59:11.905Z</time>
      </trkpt>
      <trkpt lat="43.63329" lon="3.81428">
        <ele>57.947083</ele>
        <time>2021-04-17T07:59:19.025Z</time>
      </trkpt>
      <trkpt lat="43.63349" lon="3.81407">
        <ele>58.903126</ele>
        <time>2021-04-17T07:59:25.652Z</time>
      </trkpt>
      <trkpt lat="43.63371" lon="3.81388">
        <ele>60.243931</ele>
        <time>2021-04-17T07:59:33.535Z</time>
      </trkpt>
      <trkpt lat="43.63392" lon="3.81372">
        <ele>61.584011</ele>
        <time>2021-04-17T07:59:41.030Z</time>
      </trkpt>
      <trkpt lat="43.63411" lon="3.81355">
        <ele>63.273148</ele>
        <time>2021-04-17T07:59:49.140Z</time>
      </trkpt>
      <trkpt lat="43.6343" lon="3.81338">
        <ele>63.835423</ele>
        <time>2021-04-17T07:59:54.176Z</time>
      </trkpt>
      <trkpt lat="43.63444" lon="3.81318">
        <ele>63.854908</ele>
        <time>2021-04-17T07:59:57.667Z</time>
      </trkpt>
      <trkpt lat="43.63457" lon="3.81292">
        <ele>63.852734</ele>
        <time>2021-04-17T08:00:01.592Z</time>
      </trkpt>
      <trkpt lat="43.63461" lon="3.81256">
        <ele>63.415394</ele>
        <time>2021-04-17T08:00:04.972Z</time>
      </trkpt>
      <trkpt lat="43.63463" lon="3.81225">
        <ele>61.989223</ele>
        <time>2021-04-17T08:00:06.811Z</time>
      </trkpt>
      <trkpt lat="43.63463" lon="3.81192">
        <ele>60.945339</ele>
        <time>2021-04-17T08:00:09.111Z</time>
      </trkpt>
      <trkpt lat="43.63461" lon="3.8116">
        <ele>60.658875</ele>
        <time>2021-04-17T08:00:12.256Z</time>
      </trkpt>
      <trkpt lat="43.63459" lon="3.81127">
        <ele>60.960205</ele>
        <time>2021-04-17T08:00:16.911Z</time>
      </trkpt>
      <trkpt lat="43.63454" lon="3.81095">
        <ele>61.722855</ele>
        <time>2021-04-17T08:00:22.685Z</time>
      </trkpt>
      <trkpt lat="43.6345" lon="3.81065">
        <ele>62.595509</ele>
        <time>2021-04-17T08:00:28.633Z</time>
      </trkpt>
      <trkpt lat="43.63445" lon="3.81036">
        <ele>64.056496</ele>
        <time>2021-04-17T08:00:35.967Z</time>
      </trkpt>
      <trkpt lat="43.63439" lon="3.81005">
        <ele>65.12854</ele>
        <time>2021-04-17T08:00:42.775Z</time>
      </trkpt>
      <trkpt lat="43.63435" lon="3.80974">
        <ele>66.813194</ele>
        <time>2021-04-17T08:00:50.896Z</time>
      </trkpt>
      <trkpt lat="43.6343" lon="3.80941">
        <ele>68.18615</ele>
        <time>2021-04-17T08:00:58.542Z</time>
      </trkpt>
      <trkpt lat="43.63433" lon="3.8091">
        <ele>68.4851</ele>
        <time>2021-04-17T08:01:02.967Z</time>
      </trkpt>
      <trkpt lat="43.63445" lon="3.80884">
        <ele>67.299896</ele>
        <time>2021-04-17T08:01:04.946Z</time>
      </trkpt>
      <trkpt lat="43.63453" lon="3.80854">
        <ele>63.755634</ele>
        <time>2021-04-17T08:01:06.956Z</time>
      </trkpt>
      <trkpt lat="43.63453" lon="3.80821">
        <ele>60.490723</ele>
        <time>2021-04-17T08:01:09.030Z</time>
      </trkpt>
      <trkpt lat="43.63459" lon="3.80791">
        <ele>58.31514</ele>
        <time>2021-04-17T08:01:10.986Z</time>
      </trkpt>
      <trkpt lat="43.63477" lon="3.80778">
        <ele>57.446014</ele>
        <time>2021-04-17T08:01:12.959Z</time>
      </trkpt>
      <trkpt lat="43.63501" lon="3.80774">
        <ele>55.284653</ele>
        <time>2021-04-17T08:01:15.059Z</time>
      </trkpt>
      <trkpt lat="43.63523" lon="3.80784">
        <ele>53.243042</ele>
        <time>2021-04-17T08:01:17.070Z</time>
      </trkpt>
      <trkpt lat="43.63543" lon="3.80804">
        <ele>53.060711</ele>
        <time>2021-04-17T08:01:20.637Z</time>
      </trkpt>
      <trkpt lat="43.63562" lon="3.80822">
        <ele>52.99707</ele>
        <time>2021-04-17T08:01:24.435Z</time>
      </trkpt>
      <trkpt lat="43.63577" lon="3.80843">
        <ele>53.345181</ele>
        <time>2021-04-17T08:01:28.749Z</time>
      </trkpt>
      <trkpt lat="43.63595" lon="3.8086">
        <ele>55.825123</ele>
        <time>2021-04-17T08:01:39.999Z</time>
      </trkpt>
      <trkpt lat="43.63613" lon="3.80869">
        <ele>58.287857</ele>
        <time>2021-04-17T08:01:51.868Z</time>
      </trkpt>
      <trkpt lat="43.6363" lon="3.80877">
        <ele>60.383335</ele>
        <time>2021-04-17T08:02:01.451Z</time>
      </trkpt>
      <trkpt lat="43.63651" lon="3.80872">
        <ele>61.882538</ele>
        <time>2021-04-17T08:02:08.840Z</time>
      </trkpt>
      <trkpt lat="43.63673" lon="3.80862">
        <ele>61.579792</ele>
        <time>2021-04-17T08:02:11.943Z</time>
      </trkpt>
      <trkpt lat="43.63697" lon="3.8086">
        <ele>59.693592</ele>
        <time>2021-04-17T08:02:14.031Z</time>
      </trkpt>
      <trkpt lat="43.63722" lon="3.80857">
        <ele>58.628826</ele>
        <time>2021-04-17T08:02:16.477Z</time>
      </trkpt>
      <trkpt lat="43.63739" lon="3.80855">
        <ele>57.856567</ele>
        <time>2021-04-17T08:02:18.097Z</time>
      </trkpt>
      <trkpt lat="43.63758" lon="3.80853">
        <ele>57.302814</ele>
        <time>2021-04-17T08:02:20.217Z</time>
      </trkpt>
      <trkpt lat="43.63777" lon="3.8085">
        <ele>56.726074</ele>
        <time>2021-04-17T08:02:22.321Z</time>
      </trkpt>
      <trkpt lat="43.63801" lon="3.80839">
        <ele>56.823425</ele>
        <time>2021-04-17T08:02:26.825Z</time>
      </trkpt>
      <trkpt lat="43.63822" lon="3.80824">
        <ele>57.983196</ele>
        <time>2021-04-17T08:02:33.885Z</time>
      </trkpt>
      <trkpt lat="43.63829" lon="3.80808">
        <ele>58.032085</ele>
        <time>2021-04-17T08:02:36.290Z</time>
      </trkpt>
      <trkpt lat="43.63836" lon="3.80794">
        <ele>57.931042</ele>
        <time>2021-04-17T08:02:38.049Z</time>
      </trkpt>
      <trkpt lat="43.63839" lon="3.80793">
        <ele>58.159618</ele>
        <time>2021-04-17T08:02:39.150Z</time>
      </trkpt>
      <trkpt lat="43.63843" lon="3.80791">
        <ele>58.354691</ele>
        <time>2021-04-17T08:02:40.395Z</time>
      </trkpt>
      <trkpt lat="43.63847" lon="3.80785">
        <ele>58.544415</ele>
        <time>2021-04-17T08:02:41.833Z</time>
      </trkpt>
      <trkpt lat="43.6385" lon="3.80777">
        <ele>58.888046</ele>
        <time>2021-04-17T08:02:43.827Z</time>
      </trkpt>
      <trkpt lat="43.63853" lon="3.80771">
        <ele>59.063656</ele>
        <time>2021-04-17T08:02:45.132Z</time>
      </trkpt>
      <trkpt lat="43.63855" lon="3.80765">
        <ele>59.161373</ele>
        <time>2021-04-17T08:02:46.143Z</time>
      </trkpt>
      <trkpt lat="43.63858" lon="3.80758">
        <ele>59.201885</ele>
        <time>2021-04-17T08:02:47.222Z</time>
      </trkpt>
      <trkpt lat="43.63862" lon="3.80752">
        <ele>59.197216</ele>
        <time>2021-04-17T08:02:48.225Z</time>
      </trkpt>
      <trkpt lat="43.63863" lon="3.80743">
        <ele>59.168243</ele>
        <time>2021-04-17T08:02:49.286Z</time>
      </trkpt>
      <trkpt lat="43.63863" lon="3.80736">
        <ele>59.105839</ele>
        <time>2021-04-17T08:02:49.971Z</time>
      </trkpt>
      <trkpt lat="43.63865" lon="3.8073">
        <ele>59.151855</ele>
        <time>2021-04-17T08:02:50.872Z</time>
      </trkpt>
      <trkpt lat="43.63868" lon="3.80728">
        <ele>59.215363</ele>
        <time>2021-04-17T08:02:51.566Z</time>
      </trkpt>
      <trkpt lat="43.63876" lon="3.8072">
        <ele>59.17424</ele>
        <time>2021-04-17T08:02:53.161Z</time>
      </trkpt>
      <trkpt lat="43.6387" lon="3.80706">
        <ele>59.228809</ele>
        <time>2021-04-17T08:02:55.274Z</time>
      </trkpt>
      <trkpt lat="43.63868" lon="3.80697">
        <ele>59.361084</ele>
        <time>2021-04-17T08:02:56.698Z</time>
      </trkpt>
      <trkpt lat="43.63867" lon="3.80682">
        <ele>59.575855</ele>
        <time>2021-04-17T08:02:58.984Z</time>
      </trkpt>
      <trkpt lat="43.63869" lon="3.80659">
        <ele>59.805328</ele>
        <time>2021-04-17T08:03:02.278Z</time>
      </trkpt>
      <trkpt lat="43.63873" lon="3.80639">
        <ele>59.889771</ele>
        <time>2021-04-17T08:03:04.999Z</time>
      </trkpt>
      <trkpt lat="43.63873" lon="3.80614">
        <ele>60.607281</ele>
        <time>2021-04-17T08:03:09.882Z</time>
      </trkpt>
      <trkpt lat="43.63878" lon="3.80595">
        <ele>61.184284</ele>
        <time>2021-04-17T08:03:13.818Z</time>
      </trkpt>
      <trkpt lat="43.63883" lon="3.8058">
        <ele>61.912395</ele>
        <time>2021-04-17T08:03:17.686Z</time>
      </trkpt>
      <trkpt lat="43.63884" lon="3.80563">
        <ele>62.18269</ele>
        <time>2021-04-17T08:03:20.340Z</time>
      </trkpt>
      <trkpt lat="43.63881" lon="3.80542">
        <ele>62.355946</ele>
        <time>2021-04-17T08:03:23.306Z</time>
      </trkpt>
      <trkpt lat="43.63879" lon="3.80526">
        <ele>63.262234</ele>
        <time>2021-04-17T08:03:27.600Z</time>
      </trkpt>
      <trkpt lat="43.63884" lon="3.80514">
        <ele>63.784077</ele>
        <time>2021-04-17T08:03:30.653Z</time>
      </trkpt>
      <trkpt lat="43.6389" lon="3.80497">
        <ele>63.209747</ele>
        <time>2021-04-17T08:03:31.993Z</time>
      </trkpt>
      <trkpt lat="43.63885" lon="3.80478">
        <ele>62.39299</ele>
        <time>2021-04-17T08:03:33.261Z</time>
      </trkpt>
      <trkpt lat="43.63875" lon="3.80456">
        <ele>62.534527</ele>
        <time>2021-04-17T08:03:36.731Z</time>
      </trkpt>
      <trkpt lat="43.63863" lon="3.80439">
        <ele>62.987656</ele>
        <time>2021-04-17T08:03:40.625Z</time>
      </trkpt>
      <trkpt lat="43.6385" lon="3.8042">
        <ele>65.428825</ele>
        <time>2021-04-17T08:03:52.414Z</time>
      </trkpt>
      <trkpt lat="43.6384" lon="3.80402">
        <ele>66.468628</ele>
        <time>2021-04-17T08:03:57.820Z</time>
      </trkpt>
      <trkpt lat="43.6383" lon="3.80405">
        <ele>67.728722</ele>
        <time>2021-04-17T08:04:03.725Z</time>
      </trkpt>
      <trkpt lat="43.63817" lon="3.8039">
        <ele>70.319633</ele>
        <time>2021-04-17T08:04:14.951Z</time>
      </trkpt>
      <trkpt lat="43.6381" lon="3.80369">
        <ele>72.494385</ele>
        <time>2021-04-17T08:04:25.513Z</time>
      </trkpt>
      <trkpt lat="43.63801" lon="3.8035">
        <ele>74.226776</ele>
        <time>2021-04-17T08:04:33.267Z</time>
      </trkpt>
      <trkpt lat="43.6379" lon="3.80325">
        <ele>76.275169</ele>
        <time>2021-04-17T08:04:42.438Z</time>
      </trkpt>
      <trkpt lat="43.6378" lon="3.80296">
        <ele>77.335716</ele>
        <time>2021-04-17T08:04:49.229Z</time>
      </trkpt>
      <trkpt lat="43.63779" lon="3.8027">
        <ele>79.106133</ele>
        <time>2021-04-17T08:04:57.181Z</time>
      </trkpt>
      <trkpt lat="43.63774" lon="3.80242">
        <ele>79.145958</ele>
        <time>2021-04-17T08:05:00.832Z</time>
      </trkpt>
      <trkpt lat="43.63769" lon="3.80212">
        <ele>78.320717</ele>
        <time>2021-04-17T08:05:03.118Z</time>
      </trkpt>
      <trkpt lat="43.63773" lon="3.80189">
        <ele>78.320717</ele>
        <time>2021-04-17T08:05:06.060Z</time>
      </trkpt>
      <trkpt lat="43.63786" lon="3.80172">
        <ele>77.133575</ele>
        <time>2021-04-17T08:05:07.488Z</time>
      </trkpt>
      <trkpt lat="43.63805" lon="3.80153">
        <ele>75.138916</ele>
        <time>2021-04-17T08:05:09.524Z</time>
      </trkpt>
      <trkpt lat="43.63819" lon="3.80138">
        <ele>73.348549</ele>
        <time>2021-04-17T08:05:11.063Z</time>
      </trkpt>
      <trkpt lat="43.63831" lon="3.80129">
        <ele>69.381996</ele>
        <time>2021-04-17T08:05:12.249Z</time>
      </trkpt>
      <trkpt lat="43.63849" lon="3.80118">
        <ele>68.564697</ele>
        <time>2021-04-17T08:05:14.183Z</time>
      </trkpt>
      <trkpt lat="43.6386" lon="3.80112">
        <ele>66.45504</ele>
        <time>2021-04-17T08:05:15.210Z</time>
      </trkpt>
      <trkpt lat="43.6387" lon="3.80109">
        <ele>65.555244</ele>
        <time>2021-04-17T08:05:16.099Z</time>
      </trkpt>
      <trkpt lat="43.63889" lon="3.80104">
        <ele>64.516289</ele>
        <time>2021-04-17T08:05:17.805Z</time>
      </trkpt>
      <trkpt lat="43.63906" lon="3.80097">
        <ele>64.021416</ele>
        <time>2021-04-17T08:05:19.804Z</time>
      </trkpt>
      <trkpt lat="43.63922" lon="3.80088">
        <ele>63.285309</ele>
        <time>2021-04-17T08:05:21.485Z</time>
      </trkpt>
      <trkpt lat="43.63942" lon="3.80075">
        <ele>63.614452</ele>
        <time>2021-04-17T08:05:25.883Z</time>
      </trkpt>
      <trkpt lat="43.63963" lon="3.80063">
        <ele>64.677536</ele>
        <time>2021-04-17T08:05:32.570Z</time>
      </trkpt>
      <trkpt lat="43.63984" lon="3.8005">
        <ele>65.064354</ele>
        <time>2021-04-17T08:05:37.244Z</time>
      </trkpt>
      <trkpt lat="43.64001" lon="3.80036">
        <ele>65.960564</ele>
        <time>2021-04-17T08:05:43.013Z</time>
      </trkpt>
      <trkpt lat="43.64018" lon="3.80022">
        <ele>67.402931</ele>
        <time>2021-04-17T08:05:50.008Z</time>
      </trkpt>
      <trkpt lat="43.64037" lon="3.80008">
        <ele>68.895569</ele>
        <time>2021-04-17T08:05:57.417Z</time>
      </trkpt>
      <trkpt lat="43.64058" lon="3.79993">
        <ele>69.549034</ele>
        <time>2021-04-17T08:06:02.856Z</time>
      </trkpt>
      <trkpt lat="43.64079" lon="3.79979">
        <ele>70.00206</ele>
        <time>2021-04-17T08:06:07.731Z</time>
      </trkpt>
      <trkpt lat="43.64098" lon="3.79964">
        <ele>71.152893</ele>
        <time>2021-04-17T08:06:14.420Z</time>
      </trkpt>
      <trkpt lat="43.64114" lon="3.79952">
        <ele>72.520058</ele>
        <time>2021-04-17T08:06:20.967Z</time>
      </trkpt>
      <trkpt lat="43.64131" lon="3.7994">
        <ele>73.174187</ele>
        <time>2021-04-17T08:06:25.748Z</time>
      </trkpt>
      <trkpt lat="43.64147" lon="3.79926">
        <ele>73.365166</ele>
        <time>2021-04-17T08:06:29.334Z</time>
      </trkpt>
      <trkpt lat="43.64166" lon="3.79913">
        <ele>73.164009</ele>
        <time>2021-04-17T08:06:32.311Z</time>
      </trkpt>
      <trkpt lat="43.64183" lon="3.799">
        <ele>72.835503</ele>
        <time>2021-04-17T08:06:34.792Z</time>
      </trkpt>
      <trkpt lat="43.642" lon="3.79894">
        <ele>71.810783</ele>
        <time>2021-04-17T08:06:36.282Z</time>
      </trkpt>
      <trkpt lat="43.64216" lon="3.79892">
        <ele>70.314827</ele>
        <time>2021-04-17T08:06:37.677Z</time>
      </trkpt>
      <trkpt lat="43.64217" lon="3.79871">
        <ele>69.094452</ele>
        <time>2021-04-17T08:06:38.999Z</time>
      </trkpt>
      <trkpt lat="43.64227" lon="3.79861">
        <ele>68.83358</ele>
        <time>2021-04-17T08:06:40.499Z</time>
      </trkpt>
      <trkpt lat="43.64245" lon="3.79846">
        <ele>68.492699</ele>
        <time>2021-04-17T08:06:43.207Z</time>
      </trkpt>
      <trkpt lat="43.64263" lon="3.79834">
        <ele>66.916451</ele>
        <time>2021-04-17T08:06:44.942Z</time>
      </trkpt>
      <trkpt lat="43.64283" lon="3.79823">
        <ele>65.460854</ele>
        <time>2021-04-17T08:06:46.812Z</time>
      </trkpt>
      <trkpt lat="43.64302" lon="3.79818">
        <ele>63.969814</ele>
        <time>2021-04-17T08:06:48.491Z</time>
      </trkpt>
      <trkpt lat="43.64318" lon="3.79808">
        <ele>62.665462</ele>
        <time>2021-04-17T08:06:50.016Z</time>
      </trkpt>
      <trkpt lat="43.64335" lon="3.79794">
        <ele>60.979946</ele>
        <time>2021-04-17T08:06:51.735Z</time>
      </trkpt>
      <trkpt lat="43.64352" lon="3.7979">
        <ele>60.407063</ele>
        <time>2021-04-17T08:06:53.573Z</time>
      </trkpt>
      <trkpt lat="43.64375" lon="3.79785">
        <ele>59.968018</ele>
        <time>2021-04-17T08:06:56.478Z</time>
      </trkpt>
      <trkpt lat="43.64392" lon="3.7979">
        <ele>59.430584</ele>
        <time>2021-04-17T08:06:58.375Z</time>
      </trkpt>
      <trkpt lat="43.64415" lon="3.79793">
        <ele>58.991425</ele>
        <time>2021-04-17T08:07:01.252Z</time>
      </trkpt>
      <trkpt lat="43.64433" lon="3.79787">
        <ele>58.630234</ele>
        <time>2021-04-17T08:07:03.545Z</time>
      </trkpt>
      <trkpt lat="43.64448" lon="3.79785">
        <ele>58.375408</ele>
        <time>2021-04-17T08:07:05.470Z</time>
      </trkpt>
      <trkpt lat="43.64467" lon="3.79773">
        <ele>58.189514</ele>
        <time>2021-04-17T08:07:08.426Z</time>
      </trkpt>
      <trkpt lat="43.64488" lon="3.79754">
        <ele>58.015797</ele>
        <time>2021-04-17T08:07:12.326Z</time>
      </trkpt>
      <trkpt lat="43.64502" lon="3.79731">
        <ele>57.829693</ele>
        <time>2021-04-17T08:07:15.418Z</time>
      </trkpt>
      <trkpt lat="43.64513" lon="3.79707">
        <ele>57.526516</ele>
        <time>2021-04-17T08:07:18.115Z</time>
      </trkpt>
      <trkpt lat="43.64528" lon="3.79681">
        <ele>57.122738</ele>
        <time>2021-04-17T08:07:21.193Z</time>
      </trkpt>
      <trkpt lat="43.64538" lon="3.79652">
        <ele>56.706207</ele>
        <time>2021-04-17T08:07:24.127Z</time>
      </trkpt>
      <trkpt lat="43.64549" lon="3.79626">
        <ele>56.481354</ele>
        <time>2021-04-17T08:07:27.153Z</time>
      </trkpt>
      <trkpt lat="43.64561" lon="3.79596">
        <ele>56.702393</ele>
        <time>2021-04-17T08:07:31.795Z</time>
      </trkpt>
      <trkpt lat="43.64568" lon="3.79565">
        <ele>58.049824</ele>
        <time>2021-04-17T08:07:39.213Z</time>
      </trkpt>
      <trkpt lat="43.64574" lon="3.79539">
        <ele>59.612263</ele>
        <time>2021-04-17T08:07:46.546Z</time>
      </trkpt>
      <trkpt lat="43.64585" lon="3.79512">
        <ele>63.724186</ele>
        <time>2021-04-17T08:08:01.408Z</time>
      </trkpt>
      <trkpt lat="43.64597" lon="3.79486">
        <ele>67.741707</ele>
        <time>2021-04-17T08:08:16.199Z</time>
      </trkpt>
      <trkpt lat="43.64594" lon="3.79463">
        <ele>71.293571</ele>
        <time>2021-04-17T08:08:27.409Z</time>
      </trkpt>
      <trkpt lat="43.64595" lon="3.79447">
        <ele>75.903831</ele>
        <time>2021-04-17T08:08:35.112Z</time>
      </trkpt>
      <trkpt lat="43.64603" lon="3.79436">
        <ele>78.191078</ele>
        <time>2021-04-17T08:08:42.592Z</time>
      </trkpt>
      <trkpt lat="43.64616" lon="3.79421">
        <ele>80.67746</ele>
        <time>2021-04-17T08:08:53.818Z</time>
      </trkpt>
      <trkpt lat="43.64626" lon="3.79405">
        <ele>81.727806</ele>
        <time>2021-04-17T08:08:59.055Z</time>
      </trkpt>
      <trkpt lat="43.64632" lon="3.79386">
        <ele>82.330589</ele>
        <time>2021-04-17T08:09:03.135Z</time>
      </trkpt>
      <trkpt lat="43.6464" lon="3.79368">
        <ele>83.634796</ele>
        <time>2021-04-17T08:09:09.111Z</time>
      </trkpt>
      <trkpt lat="43.64644" lon="3.79347">
        <ele>84.828369</ele>
        <time>2021-04-17T08:09:14.800Z</time>
      </trkpt>
      <trkpt lat="43.64655" lon="3.79327">
        <ele>86.327415</ele>
        <time>2021-04-17T08:09:21.739Z</time>
      </trkpt>
      <trkpt lat="43.64668" lon="3.79304">
        <ele>86.873329</ele>
        <time>2021-04-17T08:09:26.494Z</time>
      </trkpt>
      <trkpt lat="43.64687" lon="3.79288">
        <ele>86.226555</ele>
        <time>2021-04-17T08:09:28.969Z</time>
      </trkpt>
      <trkpt lat="43.64702" lon="3.79273">
        <ele>83.878441</ele>
        <time>2021-04-17T08:09:30.577Z</time>
      </trkpt>
      <trkpt lat="43.64711" lon="3.79268">
        <ele>82.107353</ele>
        <time>2021-04-17T08:09:31.420Z</time>
      </trkpt>
      <trkpt lat="43.64713" lon="3.79246">
        <ele>81.942116</ele>
        <time>2021-04-17T08:09:33.648Z</time>
      </trkpt>
      <trkpt lat="43.64726" lon="3.79231">
        <ele>83.035484</ele>
        <time>2021-04-17T08:09:39.274Z</time>
      </trkpt>
      <trkpt lat="43.6474" lon="3.79212">
        <ele>83.152962</ele>
        <time>2021-04-17T08:09:42.842Z</time>
      </trkpt>
      <trkpt lat="43.64752" lon="3.79195">
        <ele>83.892242</ele>
        <time>2021-04-17T08:09:47.715Z</time>
      </trkpt>
      <trkpt lat="43.64766" lon="3.7918">
        <ele>85.44989</ele>
        <time>2021-04-17T08:09:54.799Z</time>
      </trkpt>
      <trkpt lat="43.64784" lon="3.79165">
        <ele>86.195007</ele>
        <time>2021-04-17T08:10:00.148Z</time>
      </trkpt>
      <trkpt lat="43.64799" lon="3.79149">
        <ele>85.977211</ele>
        <time>2021-04-17T08:10:02.739Z</time>
      </trkpt>
      <trkpt lat="43.64817" lon="3.7913">
        <ele>85.789589</ele>
        <time>2021-04-17T08:10:05.971Z</time>
      </trkpt>
      <trkpt lat="43.64833" lon="3.7911">
        <ele>85.786629</ele>
        <time>2021-04-17T08:10:09.671Z</time>
      </trkpt>
      <trkpt lat="43.6485" lon="3.79087">
        <ele>85.644623</ele>
        <time>2021-04-17T08:10:13.417Z</time>
      </trkpt>
      <trkpt lat="43.64867" lon="3.79071">
        <ele>85.059181</ele>
        <time>2021-04-17T08:10:15.720Z</time>
      </trkpt>
      <trkpt lat="43.64882" lon="3.79054">
        <ele>83.880737</ele>
        <time>2021-04-17T08:10:17.336Z</time>
      </trkpt>
      <trkpt lat="43.64891" lon="3.79049">
        <ele>83.081299</ele>
        <time>2021-04-17T08:10:18.178Z</time>
      </trkpt>
      <trkpt lat="43.64905" lon="3.79044">
        <ele>82.23484</ele>
        <time>2021-04-17T08:10:19.404Z</time>
      </trkpt>
      <trkpt lat="43.64927" lon="3.79024">
        <ele>80.642204</ele>
        <time>2021-04-17T08:10:21.602Z</time>
      </trkpt>
      <trkpt lat="43.64953" lon="3.79004">
        <ele>79.809731</ele>
        <time>2021-04-17T08:10:24.952Z</time>
      </trkpt>
      <trkpt lat="43.64975" lon="3.78997">
        <ele>78.844109</ele>
        <time>2021-04-17T08:10:27.145Z</time>
      </trkpt>
      <trkpt lat="43.64991" lon="3.78987">
        <ele>77.439949</ele>
        <time>2021-04-17T08:10:28.670Z</time>
      </trkpt>
      <trkpt lat="43.64999" lon="3.78981">
        <ele>76.825188</ele>
        <time>2021-04-17T08:10:29.461Z</time>
      </trkpt>
      <trkpt lat="43.65016" lon="3.78967">
        <ele>76.676605</ele>
        <time>2021-04-17T08:10:32.315Z</time>
      </trkpt>
      <trkpt lat="43.65028" lon="3.78966">
        <ele>76.696114</ele>
        <time>2021-04-17T08:10:34.412Z</time>
      </trkpt>
      <trkpt lat="43.6504" lon="3.78974">
        <ele>76.160301</ele>
        <time>2021-04-17T08:10:35.738Z</time>
      </trkpt>
      <trkpt lat="43.65059" lon="3.78961">
        <ele>73.564461</ele>
        <time>2021-04-17T08:10:37.579Z</time>
      </trkpt>
      <trkpt lat="43.65075" lon="3.78947">
        <ele>72.814644</ele>
        <time>2021-04-17T08:10:39.474Z</time>
      </trkpt>
      <trkpt lat="43.65085" lon="3.78932">
        <ele>72.748405</ele>
        <time>2021-04-17T08:10:41.847Z</time>
      </trkpt>
      <trkpt lat="43.65094" lon="3.78911">
        <ele>73.196037</ele>
        <time>2021-04-17T08:10:45.800Z</time>
      </trkpt>
      <trkpt lat="43.65109" lon="3.78894">
        <ele>74.278809</ele>
        <time>2021-04-17T08:10:51.860Z</time>
      </trkpt>
      <trkpt lat="43.65125" lon="3.78878">
        <ele>74.65493</ele>
        <time>2021-04-17T08:10:55.971Z</time>
      </trkpt>
      <trkpt lat="43.65141" lon="3.78864">
        <ele>74.272369</ele>
        <time>2021-04-17T08:10:58.297Z</time>
      </trkpt>
      <trkpt lat="43.65147" lon="3.78846">
        <ele>72.746147</ele>
        <time>2021-04-17T08:10:59.542Z</time>
      </trkpt>
      <trkpt lat="43.65148" lon="3.7883">
        <ele>72.736221</ele>
        <time>2021-04-17T08:11:01.513Z</time>
      </trkpt>
      <trkpt lat="43.65151" lon="3.78816">
        <ele>73.676598</ele>
        <time>2021-04-17T08:11:05.778Z</time>
      </trkpt>
      <trkpt lat="43.65164" lon="3.78806">
        <ele>74.542755</ele>
        <time>2021-04-17T08:11:10.503Z</time>
      </trkpt>
      <trkpt lat="43.65178" lon="3.78795">
        <ele>74.654869</ele>
        <time>2021-04-17T08:11:13.459Z</time>
      </trkpt>
      <trkpt lat="43.65193" lon="3.78784">
        <ele>74.368469</ele>
        <time>2021-04-17T08:11:15.629Z</time>
      </trkpt>
      <trkpt lat="43.65206" lon="3.78773">
        <ele>73.844185</ele>
        <time>2021-04-17T08:11:17.234Z</time>
      </trkpt>
      <trkpt lat="43.65218" lon="3.78757">
        <ele>73.269524</ele>
        <time>2021-04-17T08:11:18.989Z</time>
      </trkpt>
      <trkpt lat="43.65223" lon="3.78744">
        <ele>73.425171</ele>
        <time>2021-04-17T08:11:21.103Z</time>
      </trkpt>
      <trkpt lat="43.65232" lon="3.78738">
        <ele>73.617523</ele>
        <time>2021-04-17T08:11:23.187Z</time>
      </trkpt>
      <trkpt lat="43.65244" lon="3.78731">
        <ele>73.55394</ele>
        <time>2021-04-17T08:11:25.270Z</time>
      </trkpt>
      <trkpt lat="43.6526" lon="3.78723">
        <ele>73.13118</ele>
        <time>2021-04-17T08:11:27.252Z</time>
      </trkpt>
      <trkpt lat="43.65277" lon="3.78715">
        <ele>72.678894</ele>
        <time>2021-04-17T08:11:29.336Z</time>
      </trkpt>
      <trkpt lat="43.65294" lon="3.78706">
        <ele>72.272827</ele>
        <time>2021-04-17T08:11:31.518Z</time>
      </trkpt>
      <trkpt lat="43.6531" lon="3.78696">
        <ele>71.817871</ele>
        <time>2021-04-17T08:11:33.539Z</time>
      </trkpt>
      <trkpt lat="43.65327" lon="3.78682">
        <ele>71.482094</ele>
        <time>2021-04-17T08:11:36.065Z</time>
      </trkpt>
      <trkpt lat="43.65342" lon="3.78668">
        <ele>71.124672</ele>
        <time>2021-04-17T08:11:38.300Z</time>
      </trkpt>
      <trkpt lat="43.65366" lon="3.78652">
        <ele>70.861572</ele>
        <time>2021-04-17T08:11:42.022Z</time>
      </trkpt>
      <trkpt lat="43.65396" lon="3.78638">
        <ele>70.614548</ele>
        <time>2021-04-17T08:11:46.571Z</time>
      </trkpt>
      <trkpt lat="43.65425" lon="3.78621">
        <ele>70.527756</ele>
        <time>2021-04-17T08:11:51.765Z</time>
      </trkpt>
      <trkpt lat="43.65435" lon="3.78589">
        <ele>70.611732</ele>
        <time>2021-04-17T08:11:56.235Z</time>
      </trkpt>
      <trkpt lat="43.65432" lon="3.78562">
        <ele>71.196655</ele>
        <time>2021-04-17T08:12:00.895Z</time>
      </trkpt>
      <trkpt lat="43.65428" lon="3.78535">
        <ele>72.198807</ele>
        <time>2021-04-17T08:12:06.897Z</time>
      </trkpt>
      <trkpt lat="43.65433" lon="3.78506">
        <ele>73.605461</ele>
        <time>2021-04-17T08:12:14.096Z</time>
      </trkpt>
      <trkpt lat="43.65442" lon="3.78481">
        <ele>74.690918</ele>
        <time>2021-04-17T08:12:20.319Z</time>
      </trkpt>
      <trkpt lat="43.65451" lon="3.7846">
        <ele>75.039551</ele>
        <time>2021-04-17T08:12:24.023Z</time>
      </trkpt>
      <trkpt lat="43.65461" lon="3.78437">
        <ele>75.054359</ele>
        <time>2021-04-17T08:12:27.383Z</time>
      </trkpt>
      <trkpt lat="43.65474" lon="3.78417">
        <ele>74.756836</ele>
        <time>2021-04-17T08:12:29.918Z</time>
      </trkpt>
      <trkpt lat="43.65485" lon="3.78399">
        <ele>74.402992</ele>
        <time>2021-04-17T08:12:31.998Z</time>
      </trkpt>
      <trkpt lat="43.65494" lon="3.78385">
        <ele>74.149368</ele>
        <time>2021-04-17T08:12:33.691Z</time>
      </trkpt>
      <trkpt lat="43.65504" lon="3.7837">
        <ele>74.055565</ele>
        <time>2021-04-17T08:12:36.002Z</time>
      </trkpt>
      <trkpt lat="43.65516" lon="3.78357">
        <ele>74.139839</ele>
        <time>2021-04-17T08:12:38.762Z</time>
      </trkpt>
      <trkpt lat="43.65527" lon="3.7835">
        <ele>74.318214</ele>
        <time>2021-04-17T08:12:41.168Z</time>
      </trkpt>
      <trkpt lat="43.65534" lon="3.78336">
        <ele>74.503838</ele>
        <time>2021-04-17T08:12:43.623Z</time>
      </trkpt>
      <trkpt lat="43.65543" lon="3.78321">
        <ele>74.700279</ele>
        <time>2021-04-17T08:12:46.400Z</time>
      </trkpt>
      <trkpt lat="43.65552" lon="3.78306">
        <ele>75.013756</ele>
        <time>2021-04-17T08:12:49.442Z</time>
      </trkpt>
      <trkpt lat="43.65559" lon="3.78292">
        <ele>75.433922</ele>
        <time>2021-04-17T08:12:52.520Z</time>
      </trkpt>
      <trkpt lat="43.65565" lon="3.78275">
        <ele>75.851646</ele>
        <time>2021-04-17T08:12:55.785Z</time>
      </trkpt>
      <trkpt lat="43.65566" lon="3.78257">
        <ele>76.686523</ele>
        <time>2021-04-17T08:13:00.104Z</time>
      </trkpt>
      <trkpt lat="43.65568" lon="3.78237">
        <ele>77.138184</ele>
        <time>2021-04-17T08:13:03.606Z</time>
      </trkpt>
      <trkpt lat="43.65569" lon="3.7822">
        <ele>77.635582</ele>
        <time>2021-04-17T08:13:06.968Z</time>
      </trkpt>
      <trkpt lat="43.65566" lon="3.78199">
        <ele>77.941406</ele>
        <time>2021-04-17T08:13:10.217Z</time>
      </trkpt>
      <trkpt lat="43.65561" lon="3.78181">
        <ele>77.948204</ele>
        <time>2021-04-17T08:13:12.625Z</time>
      </trkpt>
      <trkpt lat="43.65552" lon="3.78166">
        <ele>77.609428</ele>
        <time>2021-04-17T08:13:14.282Z</time>
      </trkpt>
      <trkpt lat="43.65542" lon="3.78146">
        <ele>77.060112</ele>
        <time>2021-04-17T08:13:16.195Z</time>
      </trkpt>
      <trkpt lat="43.65539" lon="3.78124">
        <ele>76.810555</ele>
        <time>2021-04-17T08:13:18.303Z</time>
      </trkpt>
      <trkpt lat="43.65537" lon="3.78093">
        <ele>76.810356</ele>
        <time>2021-04-17T08:13:22.172Z</time>
      </trkpt>
      <trkpt lat="43.65537" lon="3.78058">
        <ele>76.850365</ele>
        <time>2021-04-17T08:13:26.587Z</time>
      </trkpt>
      <trkpt lat="43.65532" lon="3.78027">
        <ele>76.971008</ele>
        <time>2021-04-17T08:13:30.736Z</time>
      </trkpt>
      <trkpt lat="43.65523" lon="3.78002">
        <ele>77.142921</ele>
        <time>2021-04-17T08:13:34.501Z</time>
      </trkpt>
      <trkpt lat="43.65513" lon="3.77979">
        <ele>77.313744</ele>
        <time>2021-04-17T08:13:38.130Z</time>
      </trkpt>
      <trkpt lat="43.65493" lon="3.77967">
        <ele>77.793968</ele>
        <time>2021-04-17T08:13:42.824Z</time>
      </trkpt>
      <trkpt lat="43.65485" lon="3.77934">
        <ele>78.705452</ele>
        <time>2021-04-17T08:13:49.298Z</time>
      </trkpt>
      <trkpt lat="43.65491" lon="3.77905">
        <ele>79.576042</ele>
        <time>2021-04-17T08:13:55.207Z</time>
      </trkpt>
      <trkpt lat="43.65496" lon="3.77882">
        <ele>80.428596</ele>
        <time>2021-04-17T08:14:00.397Z</time>
      </trkpt>
      <trkpt lat="43.65502" lon="3.77858">
        <ele>80.933601</ele>
        <time>2021-04-17T08:14:04.616Z</time>
      </trkpt>
      <trkpt lat="43.65506" lon="3.7784">
        <ele>81.313324</ele>
        <time>2021-04-17T08:14:07.760Z</time>
      </trkpt>
      <trkpt lat="43.6551" lon="3.77817">
        <ele>81.903229</ele>
        <time>2021-04-17T08:14:12.058Z</time>
      </trkpt>
      <trkpt lat="43.65512" lon="3.77787">
        <ele>82.407249</ele>
        <time>2021-04-17T08:14:16.811Z</time>
      </trkpt>
      <trkpt lat="43.6551" lon="3.77759">
        <ele>83.475105</ele>
        <time>2021-04-17T08:14:23.028Z</time>
      </trkpt>
      <trkpt lat="43.65508" lon="3.77735">
        <ele>84.029091</ele>
        <time>2021-04-17T08:14:27.260Z</time>
      </trkpt>
      <trkpt lat="43.65503" lon="3.77707">
        <ele>85.026619</ele>
        <time>2021-04-17T08:14:33.441Z</time>
      </trkpt>
      <trkpt lat="43.65496" lon="3.77692">
        <ele>85.759827</ele>
        <time>2021-04-17T08:14:37.502Z</time>
      </trkpt>
      <trkpt lat="43.65496" lon="3.77672">
        <ele>87.043785</ele>
        <time>2021-04-17T08:14:43.329Z</time>
      </trkpt>
      <trkpt lat="43.65496" lon="3.77653">
        <ele>87.733727</ele>
        <time>2021-04-17T08:14:47.465Z</time>
      </trkpt>
      <trkpt lat="43.65493" lon="3.77634">
        <ele>88.327278</ele>
        <time>2021-04-17T08:14:51.406Z</time>
      </trkpt>
      <trkpt lat="43.65496" lon="3.77618">
        <ele>90.04837</ele>
        <time>2021-04-17T08:14:59.332Z</time>
      </trkpt>
      <trkpt lat="43.65499" lon="3.77598">
        <ele>91.172264</ele>
        <time>2021-04-17T08:15:04.687Z</time>
      </trkpt>
      <trkpt lat="43.655" lon="3.77577">
        <ele>92.233467</ele>
        <time>2021-04-17T08:15:09.940Z</time>
      </trkpt>
      <trkpt lat="43.65501" lon="3.77557">
        <ele>93.973877</ele>
        <time>2021-04-17T08:15:17.990Z</time>
      </trkpt>
      <trkpt lat="43.65506" lon="3.77538">
        <ele>95.233467</ele>
        <time>2021-04-17T08:15:23.748Z</time>
      </trkpt>
      <trkpt lat="43.6551" lon="3.77518">
        <ele>95.817619</ele>
        <time>2021-04-17T08:15:27.757Z</time>
      </trkpt>
      <trkpt lat="43.65513" lon="3.775">
        <ele>96.335884</ele>
        <time>2021-04-17T08:15:31.318Z</time>
      </trkpt>
      <trkpt lat="43.65519" lon="3.77478">
        <ele>96.916832</ele>
        <time>2021-04-17T08:15:35.572Z</time>
      </trkpt>
      <trkpt lat="43.65528" lon="3.77453">
        <ele>96.811852</ele>
        <time>2021-04-17T08:15:38.788Z</time>
      </trkpt>
      <trkpt lat="43.65538" lon="3.77432">
        <ele>96.60305</ele>
        <time>2021-04-17T08:15:41.276Z</time>
      </trkpt>
      <trkpt lat="43.65549" lon="3.77414">
        <ele>95.591499</ele>
        <time>2021-04-17T08:15:42.712Z</time>
      </trkpt>
      <trkpt lat="43.65559" lon="3.77397">
        <ele>94.390472</ele>
        <time>2021-04-17T08:15:44.089Z</time>
      </trkpt>
      <trkpt lat="43.65569" lon="3.7738">
        <ele>93.731102</ele>
        <time>2021-04-17T08:15:45.646Z</time>
      </trkpt>
      <trkpt lat="43.65577" lon="3.77361">
        <ele>93.568138</ele>
        <time>2021-04-17T08:15:47.857Z</time>
      </trkpt>
      <trkpt lat="43.65582" lon="3.77341">
        <ele>93.461731</ele>
        <time>2021-04-17T08:15:50.234Z</time>
      </trkpt>
      <trkpt lat="43.65584" lon="3.77323">
        <ele>93.440163</ele>
        <time>2021-04-17T08:15:52.443Z</time>
      </trkpt>
      <trkpt lat="43.6558" lon="3.77302">
        <ele>93.501106</ele>
        <time>2021-04-17T08:15:55.242Z</time>
      </trkpt>
      <trkpt lat="43.65582" lon="3.77278">
        <ele>93.609917</ele>
        <time>2021-04-17T08:15:58.428Z</time>
      </trkpt>
      <trkpt lat="43.65583" lon="3.77255">
        <ele>93.609047</ele>
        <time>2021-04-17T08:16:01.290Z</time>
      </trkpt>
      <trkpt lat="43.65578" lon="3.77235">
        <ele>93.603676</ele>
        <time>2021-04-17T08:16:03.907Z</time>
      </trkpt>
      <trkpt lat="43.65579" lon="3.77214">
        <ele>93.728539</ele>
        <time>2021-04-17T08:16:06.736Z</time>
      </trkpt>
      <trkpt lat="43.65572" lon="3.77203">
        <ele>94.039192</ele>
        <time>2021-04-17T08:16:09.226Z</time>
      </trkpt>
      <trkpt lat="43.65565" lon="3.77206">
        <ele>94.670959</ele>
        <time>2021-04-17T08:16:12.113Z</time>
      </trkpt>
      <trkpt lat="43.65567" lon="3.77203">
        <ele>94.862282</ele>
        <time>2021-04-17T08:16:13.096Z</time>
      </trkpt>
      <trkpt lat="43.65572" lon="3.7719">
        <ele>94.888611</ele>
        <time>2021-04-17T08:16:14.969Z</time>
      </trkpt>
      <trkpt lat="43.65574" lon="3.77172">
        <ele>95.06385</ele>
        <time>2021-04-17T08:16:17.547Z</time>
      </trkpt>
      <trkpt lat="43.65566" lon="3.77167">
        <ele>95.390404</ele>
        <time>2021-04-17T08:16:19.835Z</time>
      </trkpt>
      <trkpt lat="43.65555" lon="3.77164">
        <ele>95.799347</ele>
        <time>2021-04-17T08:16:22.729Z</time>
      </trkpt>
      <trkpt lat="43.65545" lon="3.77161">
        <ele>96.237511</ele>
        <time>2021-04-17T08:16:25.622Z</time>
      </trkpt>
      <trkpt lat="43.65533" lon="3.77154">
        <ele>96.55851</ele>
        <time>2021-04-17T08:16:28.513Z</time>
      </trkpt>
      <trkpt lat="43.65526" lon="3.77147">
        <ele>97.023354</ele>
        <time>2021-04-17T08:16:31.176Z</time>
      </trkpt>
      <trkpt lat="43.65519" lon="3.77142">
        <ele>97.425011</ele>
        <time>2021-04-17T08:16:33.558Z</time>
      </trkpt>
      <trkpt lat="43.65506" lon="3.77132">
        <ele>97.706749</ele>
        <time>2021-04-17T08:16:36.652Z</time>
      </trkpt>
      <trkpt lat="43.65496" lon="3.7712">
        <ele>98.148376</ele>
        <time>2021-04-17T08:16:39.928Z</time>
      </trkpt>
      <trkpt lat="43.65484" lon="3.77112">
        <ele>98.561829</ele>
        <time>2021-04-17T08:16:43.127Z</time>
      </trkpt>
      <trkpt lat="43.6547" lon="3.77108">
        <ele>98.984596</ele>
        <time>2021-04-17T08:16:46.497Z</time>
      </trkpt>
      <trkpt lat="43.65458" lon="3.77107">
        <ele>99.630791</ele>
        <time>2021-04-17T08:16:50.200Z</time>
      </trkpt>
      <trkpt lat="43.65446" lon="3.77106">
        <ele>100.093727</ele>
        <time>2021-04-17T08:16:53.392Z</time>
      </trkpt>
      <trkpt lat="43.65434" lon="3.77102">
        <ele>100.671501</ele>
        <time>2021-04-17T08:16:57.025Z</time>
      </trkpt>
      <trkpt lat="43.65423" lon="3.77098">
        <ele>101.272301</ele>
        <time>2021-04-17T08:17:00.507Z</time>
      </trkpt>
      <trkpt lat="43.65412" lon="3.77093">
        <ele>101.802979</ele>
        <time>2021-04-17T08:17:03.894Z</time>
      </trkpt>
      <trkpt lat="43.654" lon="3.77086">
        <ele>103.010658</ele>
        <time>2021-04-17T08:17:09.329Z</time>
      </trkpt>
      <trkpt lat="43.65385" lon="3.77088">
        <ele>105.300964</ele>
        <time>2021-04-17T08:17:19.318Z</time>
      </trkpt>
      <trkpt lat="43.65373" lon="3.77081">
        <ele>107.672112</ele>
        <time>2021-04-17T08:17:27.952Z</time>
      </trkpt>
      <trkpt lat="43.65366" lon="3.77072">
        <ele>109.586281</ele>
        <time>2021-04-17T08:17:34.289Z</time>
      </trkpt>
      <trkpt lat="43.6536" lon="3.77061">
        <ele>112.269707</ele>
        <time>2021-04-17T08:17:40.896Z</time>
      </trkpt>
      <trkpt lat="43.65355" lon="3.77048">
        <ele>113.581764</ele>
        <time>2021-04-17T08:17:47.045Z</time>
      </trkpt>
      <trkpt lat="43.6535" lon="3.77038">
        <ele>115.304893</ele>
        <time>2021-04-17T08:17:52.874Z</time>
      </trkpt>
      <trkpt lat="43.65347" lon="3.77029">
        <ele>116.583313</ele>
        <time>2021-04-17T08:17:57.626Z</time>
      </trkpt>
      <trkpt lat="43.65343" lon="3.77017">
        <ele>117.149513</ele>
        <time>2021-04-17T08:18:00.684Z</time>
      </trkpt>
      <trkpt lat="43.65339" lon="3.77008">
        <ele>118.845055</ele>
        <time>2021-04-17T08:18:05.749Z</time>
      </trkpt>
      <trkpt lat="43.65336" lon="3.76993">
        <ele>120.050331</ele>
        <time>2021-04-17T08:18:11.152Z</time>
      </trkpt>
      <trkpt lat="43.65331" lon="3.76979">
        <ele>121.232178</ele>
        <time>2021-04-17T08:18:16.439Z</time>
      </trkpt>
      <trkpt lat="43.65331" lon="3.76969">
        <ele>122.58535</ele>
        <time>2021-04-17T08:18:21.234Z</time>
      </trkpt>
      <trkpt lat="43.65343" lon="3.76961">
        <ele>123.30265</ele>
        <time>2021-04-17T08:18:25.341Z</time>
      </trkpt>
      <trkpt lat="43.6536" lon="3.76949">
        <ele>122.322182</ele>
        <time>2021-04-17T08:18:27.059Z</time>
      </trkpt>
      <trkpt lat="43.65366" lon="3.76935">
        <ele>119.096107</ele>
        <time>2021-04-17T08:18:28.081Z</time>
      </trkpt>
      <trkpt lat="43.65363" lon="3.76919">
        <ele>118.204613</ele>
        <time>2021-04-17T08:18:29.120Z</time>
      </trkpt>
      <trkpt lat="43.65361" lon="3.76905">
        <ele>119.129028</ele>
        <time>2021-04-17T08:18:33.307Z</time>
      </trkpt>
      <trkpt lat="43.65358" lon="3.76892">
        <ele>120.601631</ele>
        <time>2021-04-17T08:18:39.851Z</time>
      </trkpt>
      <trkpt lat="43.65355" lon="3.76874">
        <ele>121.826439</ele>
        <time>2021-04-17T08:18:45.374Z</time>
      </trkpt>
      <trkpt lat="43.65354" lon="3.76861">
        <ele>123.197174</ele>
        <time>2021-04-17T08:18:51.644Z</time>
      </trkpt>
      <trkpt lat="43.65351" lon="3.76843">
        <ele>124.47348</ele>
        <time>2021-04-17T08:18:57.365Z</time>
      </trkpt>
      <trkpt lat="43.65344" lon="3.76818">
        <ele>125.472496</ele>
        <time>2021-04-17T08:19:03.252Z</time>
      </trkpt>
      <trkpt lat="43.65341" lon="3.76796">
        <ele>127.436943</ele>
        <time>2021-04-17T08:19:12.384Z</time>
      </trkpt>
      <trkpt lat="43.65342" lon="3.76773">
        <ele>129.327316</ele>
        <time>2021-04-17T08:19:20.952Z</time>
      </trkpt>
      <trkpt lat="43.65347" lon="3.76753">
        <ele>129.866104</ele>
        <time>2021-04-17T08:19:24.835Z</time>
      </trkpt>
      <trkpt lat="43.65344" lon="3.76734">
        <ele>129.849121</ele>
        <time>2021-04-17T08:19:27.209Z</time>
      </trkpt>
      <trkpt lat="43.65341" lon="3.76724">
        <ele>130.110519</ele>
        <time>2021-04-17T08:19:29.148Z</time>
      </trkpt>
      <trkpt lat="43.65336" lon="3.76715">
        <ele>130.761063</ele>
        <time>2021-04-17T08:19:32.199Z</time>
      </trkpt>
      <trkpt lat="43.65334" lon="3.76707">
        <ele>131.47905</ele>
        <time>2021-04-17T08:19:35.489Z</time>
      </trkpt>
      <trkpt lat="43.65341" lon="3.76715">
        <ele>131.773178</ele>
        <time>2021-04-17T08:19:37.708Z</time>
      </trkpt>
      <trkpt lat="43.65348" lon="3.76737">
        <ele>131.267075</ele>
        <time>2021-04-17T08:19:39.642Z</time>
      </trkpt>
      <trkpt lat="43.65359" lon="3.76752">
        <ele>130.196945</ele>
        <time>2021-04-17T08:19:40.984Z</time>
      </trkpt>
      <trkpt lat="43.65369" lon="3.76765">
        <ele>127.860443</ele>
        <time>2021-04-17T08:19:42.176Z</time>
      </trkpt>
      <trkpt lat="43.65379" lon="3.76762">
        <ele>125.394508</ele>
        <time>2021-04-17T08:19:43.065Z</time>
      </trkpt>
      <trkpt lat="43.65388" lon="3.76753">
        <ele>123.683662</ele>
        <time>2021-04-17T08:19:44.030Z</time>
      </trkpt>
      <trkpt lat="43.65393" lon="3.76739">
        <ele>122.176842</ele>
        <time>2021-04-17T08:19:45.011Z</time>
      </trkpt>
      <trkpt lat="43.65397" lon="3.76724">
        <ele>121.727577</ele>
        <time>2021-04-17T08:19:46.177Z</time>
      </trkpt>
      <trkpt lat="43.65399" lon="3.76716">
        <ele>121.608513</ele>
        <time>2021-04-17T08:19:46.936Z</time>
      </trkpt>
      <trkpt lat="43.65393" lon="3.76744">
        <ele>121.563873</ele>
        <time>2021-04-17T08:19:50.453Z</time>
      </trkpt>
      <trkpt lat="43.65386" lon="3.76757">
        <ele>121.555756</ele>
        <time>2021-04-17T08:19:52.446Z</time>
      </trkpt>
      <trkpt lat="43.6539" lon="3.76771">
        <ele>121.72644</ele>
        <time>2021-04-17T08:19:54.632Z</time>
      </trkpt>
      <trkpt lat="43.65394" lon="3.76779">
        <ele>120.917725</ele>
        <time>2021-04-17T08:19:55.243Z</time>
      </trkpt>
      <trkpt lat="43.65398" lon="3.76788">
        <ele>119.677711</ele>
        <time>2021-04-17T08:19:55.906Z</time>
      </trkpt>
      <trkpt lat="43.65402" lon="3.76793">
        <ele>118.862785</ele>
        <time>2021-04-17T08:19:56.375Z</time>
      </trkpt>
      <trkpt lat="43.65408" lon="3.76801">
        <ele>117.719704</ele>
        <time>2021-04-17T08:19:57.099Z</time>
      </trkpt>
      <trkpt lat="43.65415" lon="3.76801">
        <ele>115.958961</ele>
        <time>2021-04-17T08:19:57.707Z</time>
      </trkpt>
      <trkpt lat="43.65424" lon="3.76794">
        <ele>114.486816</ele>
        <time>2021-04-17T08:19:58.603Z</time>
      </trkpt>
      <trkpt lat="43.65431" lon="3.76778">
        <ele>113.75634</ele>
        <time>2021-04-17T08:19:59.794Z</time>
      </trkpt>
      <trkpt lat="43.6544" lon="3.76756">
        <ele>113.779625</ele>
        <time>2021-04-17T08:20:02.974Z</time>
      </trkpt>
      <trkpt lat="43.65449" lon="3.76739">
        <ele>114.297119</ele>
        <time>2021-04-17T08:20:06.775Z</time>
      </trkpt>
      <trkpt lat="43.65452" lon="3.76723">
        <ele>114.760841</ele>
        <time>2021-04-17T08:20:09.962Z</time>
      </trkpt>
      <trkpt lat="43.65453" lon="3.76711">
        <ele>115.475731</ele>
        <time>2021-04-17T08:20:13.279Z</time>
      </trkpt>
      <trkpt lat="43.65455" lon="3.767">
        <ele>116.081329</ele>
        <time>2021-04-17T08:20:16.201Z</time>
      </trkpt>
      <trkpt lat="43.65456" lon="3.7669">
        <ele>116.723358</ele>
        <time>2021-04-17T08:20:19.121Z</time>
      </trkpt>
      <trkpt lat="43.65458" lon="3.7668">
        <ele>117.361794</ele>
        <time>2021-04-17T08:20:22.049Z</time>
      </trkpt>
      <trkpt lat="43.6546" lon="3.7667">
        <ele>117.822121</ele>
        <time>2021-04-17T08:20:24.485Z</time>
      </trkpt>
      <trkpt lat="43.65466" lon="3.76659">
        <ele>118.188652</ele>
        <time>2021-04-17T08:20:27.068Z</time>
      </trkpt>
      <trkpt lat="43.65471" lon="3.76641">
        <ele>118.813927</ele>
        <time>2021-04-17T08:20:31.122Z</time>
      </trkpt>
      <trkpt lat="43.65464" lon="3.76632">
        <ele>119.698273</ele>
        <time>2021-04-17T08:20:35.104Z</time>
      </trkpt>
      <trkpt lat="43.65467" lon="3.76625">
        <ele>120.506828</ele>
        <time>2021-04-17T08:20:39.006Z</time>
      </trkpt>
      <trkpt lat="43.65474" lon="3.76613">
        <ele>121.12809</ele>
        <time>2021-04-17T08:20:42.487Z</time>
      </trkpt>
      <trkpt lat="43.6548" lon="3.76597">
        <ele>121.108398</ele>
        <time>2021-04-17T08:20:44.677Z</time>
      </trkpt>
      <trkpt lat="43.65482" lon="3.76584">
        <ele>121.231934</ele>
        <time>2021-04-17T08:20:46.550Z</time>
      </trkpt>
      <trkpt lat="43.6549" lon="3.76572">
        <ele>121.30658</ele>
        <time>2021-04-17T08:20:48.703Z</time>
      </trkpt>
      <trkpt lat="43.65492" lon="3.76559">
        <ele>121.327843</ele>
        <time>2021-04-17T08:20:50.390Z</time>
      </trkpt>
      <trkpt lat="43.65496" lon="3.76549">
        <ele>121.311485</ele>
        <time>2021-04-17T08:20:51.769Z</time>
      </trkpt>
      <trkpt lat="43.65499" lon="3.76533">
        <ele>120.98584</ele>
        <time>2021-04-17T08:20:53.126Z</time>
      </trkpt>
      <trkpt lat="43.65502" lon="3.76516">
        <ele>120.031738</ele>
        <time>2021-04-17T08:20:54.225Z</time>
      </trkpt>
      <trkpt lat="43.65497" lon="3.76514">
        <ele>119.045654</ele>
        <time>2021-04-17T08:20:54.677Z</time>
      </trkpt>
      <trkpt lat="43.65493" lon="3.76517">
        <ele>119.068115</ele>
        <time>2021-04-17T08:20:55.497Z</time>
      </trkpt>
      <trkpt lat="43.65487" lon="3.76523">
        <ele>119.668457</ele>
        <time>2021-04-17T08:20:58.291Z</time>
      </trkpt>
      <trkpt lat="43.65481" lon="3.76526">
        <ele>120.406746</ele>
        <time>2021-04-17T08:21:01.657Z</time>
      </trkpt>
      <trkpt lat="43.65474" lon="3.7653">
        <ele>121.017296</ele>
        <time>2021-04-17T08:21:04.504Z</time>
      </trkpt>
      <trkpt lat="43.65467" lon="3.76529">
        <ele>121.581848</ele>
        <time>2021-04-17T08:21:07.141Z</time>
      </trkpt>
      <trkpt lat="43.65458" lon="3.76529">
        <ele>122.013367</ele>
        <time>2021-04-17T08:21:09.810Z</time>
      </trkpt>
      <trkpt lat="43.65448" lon="3.7653">
        <ele>122.395508</ele>
        <time>2021-04-17T08:21:12.457Z</time>
      </trkpt>
      <trkpt lat="43.65439" lon="3.76535">
        <ele>122.875519</ele>
        <time>2021-04-17T08:21:15.362Z</time>
      </trkpt>
      <trkpt lat="43.65433" lon="3.76538">
        <ele>123.881401</ele>
        <time>2021-04-17T08:21:19.591Z</time>
      </trkpt>
      <trkpt lat="43.65431" lon="3.76534">
        <ele>124.443398</ele>
        <time>2021-04-17T08:21:21.923Z</time>
      </trkpt>
      <trkpt lat="43.65432" lon="3.76524">
        <ele>124.479881</ele>
        <time>2021-04-17T08:21:23.238Z</time>
      </trkpt>
      <trkpt lat="43.65431" lon="3.76511">
        <ele>124.161125</ele>
        <time>2021-04-17T08:21:24.241Z</time>
      </trkpt>
      <trkpt lat="43.65429" lon="3.76494">
        <ele>123.787872</ele>
        <time>2021-04-17T08:21:25.615Z</time>
      </trkpt>
      <trkpt lat="43.65426" lon="3.76467">
        <ele>123.433479</ele>
        <time>2021-04-17T08:21:28.109Z</time>
      </trkpt>
      <trkpt lat="43.65431" lon="3.76437">
        <ele>122.296165</ele>
        <time>2021-04-17T08:21:30.118Z</time>
      </trkpt>
      <trkpt lat="43.6544" lon="3.76408">
        <ele>120.634949</ele>
        <time>2021-04-17T08:21:32.101Z</time>
      </trkpt>
      <trkpt lat="43.65435" lon="3.76385">
        <ele>118.382545</ele>
        <time>2021-04-17T08:21:33.610Z</time>
      </trkpt>
      <trkpt lat="43.65427" lon="3.76372">
        <ele>116.48304</ele>
        <time>2021-04-17T08:21:34.682Z</time>
      </trkpt>
      <trkpt lat="43.65419" lon="3.76363">
        <ele>116.307091</ele>
        <time>2021-04-17T08:21:35.998Z</time>
      </trkpt>
      <trkpt lat="43.65405" lon="3.7636">
        <ele>116.364067</ele>
        <time>2021-04-17T08:21:38.525Z</time>
      </trkpt>
      <trkpt lat="43.65384" lon="3.76354">
        <ele>117.574394</ele>
        <time>2021-04-17T08:21:45.253Z</time>
      </trkpt>
      <trkpt lat="43.65359" lon="3.76342">
        <ele>119.358131</ele>
        <time>2021-04-17T08:21:54.229Z</time>
      </trkpt>
      <trkpt lat="43.65344" lon="3.76329">
        <ele>121.164864</ele>
        <time>2021-04-17T08:22:02.302Z</time>
      </trkpt>
      <trkpt lat="43.65334" lon="3.76318">
        <ele>122.108459</ele>
        <time>2021-04-17T08:22:06.853Z</time>
      </trkpt>
      <trkpt lat="43.6533" lon="3.76311">
        <ele>122.197731</ele>
        <time>2021-04-17T08:22:08.123Z</time>
      </trkpt>
      <trkpt lat="43.65327" lon="3.76296">
        <ele>122.176323</ele>
        <time>2021-04-17T08:22:10.003Z</time>
      </trkpt>
      <trkpt lat="43.65325" lon="3.76283">
        <ele>121.685394</ele>
        <time>2021-04-17T08:22:10.871Z</time>
      </trkpt>
      <trkpt lat="43.65327" lon="3.76267">
        <ele>121.11615</ele>
        <time>2021-04-17T08:22:11.955Z</time>
      </trkpt>
      <trkpt lat="43.6532" lon="3.76261">
        <ele>120.443031</ele>
        <time>2021-04-17T08:22:12.671Z</time>
      </trkpt>
      <trkpt lat="43.65313" lon="3.76256">
        <ele>120.229332</ele>
        <time>2021-04-17T08:22:13.566Z</time>
      </trkpt>
      <trkpt lat="43.65305" lon="3.76249">
        <ele>120.508949</ele>
        <time>2021-04-17T08:22:15.796Z</time>
      </trkpt>
      <trkpt lat="43.65297" lon="3.76244">
        <ele>120.936523</ele>
        <time>2021-04-17T08:22:18.412Z</time>
      </trkpt>
      <trkpt lat="43.65283" lon="3.76226">
        <ele>121.228844</ele>
        <time>2021-04-17T08:22:22.233Z</time>
      </trkpt>
      <trkpt lat="43.65272" lon="3.76223">
        <ele>121.480125</ele>
        <time>2021-04-17T08:22:24.658Z</time>
      </trkpt>
      <trkpt lat="43.65264" lon="3.76217">
        <ele>121.772827</ele>
        <time>2021-04-17T08:22:26.875Z</time>
      </trkpt>
      <trkpt lat="43.65255" lon="3.76208">
        <ele>121.840393</ele>
        <time>2021-04-17T08:22:28.897Z</time>
      </trkpt>
      <trkpt lat="43.65247" lon="3.76203">
        <ele>121.82151</ele>
        <time>2021-04-17T08:22:30.357Z</time>
      </trkpt>
      <trkpt lat="43.65236" lon="3.76197">
        <ele>121.940468</ele>
        <time>2021-04-17T08:22:32.596Z</time>
      </trkpt>
      <trkpt lat="43.65225" lon="3.76177">
        <ele>122.270988</ele>
        <time>2021-04-17T08:22:36.344Z</time>
      </trkpt>
      <trkpt lat="43.65213" lon="3.76156">
        <ele>122.456116</ele>
        <time>2021-04-17T08:22:39.991Z</time>
      </trkpt>
      <trkpt lat="43.652" lon="3.76137">
        <ele>122.986748</ele>
        <time>2021-04-17T08:22:44.366Z</time>
      </trkpt>
      <trkpt lat="43.65188" lon="3.76128">
        <ele>123.430145</ele>
        <time>2021-04-17T08:22:47.706Z</time>
      </trkpt>
      <trkpt lat="43.6518" lon="3.76133">
        <ele>124.034058</ele>
        <time>2021-04-17T08:22:50.714Z</time>
      </trkpt>
      <trkpt lat="43.65173" lon="3.76142">
        <ele>124.890938</ele>
        <time>2021-04-17T08:22:54.595Z</time>
      </trkpt>
      <trkpt lat="43.65167" lon="3.76149">
        <ele>125.792671</ele>
        <time>2021-04-17T08:22:58.697Z</time>
      </trkpt>
      <trkpt lat="43.65162" lon="3.76158">
        <ele>126.814888</ele>
        <time>2021-04-17T08:23:03.517Z</time>
      </trkpt>
      <trkpt lat="43.65161" lon="3.76164">
        <ele>127.100487</ele>
        <time>2021-04-17T08:23:04.992Z</time>
      </trkpt>
      <trkpt lat="43.6516" lon="3.76171">
        <ele>127.102509</ele>
        <time>2021-04-17T08:23:05.882Z</time>
      </trkpt>
      <trkpt lat="43.6516" lon="3.7618">
        <ele>127.013733</ele>
        <time>2021-04-17T08:23:06.749Z</time>
      </trkpt>
      <trkpt lat="43.65164" lon="3.76184">
        <ele>126.839653</ele>
        <time>2021-04-17T08:23:07.264Z</time>
      </trkpt>
      <trkpt lat="43.65171" lon="3.7619">
        <ele>126.605103</ele>
        <time>2021-04-17T08:23:08.187Z</time>
      </trkpt>
      <trkpt lat="43.65176" lon="3.76194">
        <ele>126.116356</ele>
        <time>2021-04-17T08:23:08.688Z</time>
      </trkpt>
      <trkpt lat="43.65179" lon="3.762">
        <ele>125.735924</ele>
        <time>2021-04-17T08:23:09.147Z</time>
      </trkpt>
      <trkpt lat="43.65183" lon="3.76208">
        <ele>125.498436</ele>
        <time>2021-04-17T08:23:09.892Z</time>
      </trkpt>
      <trkpt lat="43.65186" lon="3.76216">
        <ele>125.296638</ele>
        <time>2021-04-17T08:23:10.604Z</time>
      </trkpt>
      <trkpt lat="43.65188" lon="3.76224">
        <ele>125.132668</ele>
        <time>2021-04-17T08:23:11.302Z</time>
      </trkpt>
      <trkpt lat="43.65192" lon="3.76233">
        <ele>125.062286</ele>
        <time>2021-04-17T08:23:12.379Z</time>
      </trkpt>
      <trkpt lat="43.65196" lon="3.7624">
        <ele>124.917122</ele>
        <time>2021-04-17T08:23:13.151Z</time>
      </trkpt>
      <trkpt lat="43.65198" lon="3.76251">
        <ele>124.835213</ele>
        <time>2021-04-17T08:23:14.296Z</time>
      </trkpt>
      <trkpt lat="43.65203" lon="3.76264">
        <ele>124.813011</ele>
        <time>2021-04-17T08:23:16.070Z</time>
      </trkpt>
      <trkpt lat="43.65204" lon="3.76279">
        <ele>124.84359</ele>
        <time>2021-04-17T08:23:17.992Z</time>
      </trkpt>
      <trkpt lat="43.6521" lon="3.76292">
        <ele>124.933716</ele>
        <time>2021-04-17T08:23:20.063Z</time>
      </trkpt>
      <trkpt lat="43.65213" lon="3.76308">
        <ele>125.347961</ele>
        <time>2021-04-17T08:23:23.073Z</time>
      </trkpt>
      <trkpt lat="43.65218" lon="3.76323">
        <ele>126.077576</ele>
        <time>2021-04-17T08:23:26.944Z</time>
      </trkpt>
      <trkpt lat="43.65217" lon="3.76336">
        <ele>126.763184</ele>
        <time>2021-04-17T08:23:30.277Z</time>
      </trkpt>
      <trkpt lat="43.6521" lon="3.76336">
        <ele>127.225342</ele>
        <time>2021-04-17T08:23:32.628Z</time>
      </trkpt>
      <trkpt lat="43.65203" lon="3.76336">
        <ele>127.367828</ele>
        <time>2021-04-17T08:23:34.106Z</time>
      </trkpt>
      <trkpt lat="43.65195" lon="3.76341">
        <ele>127.472137</ele>
        <time>2021-04-17T08:23:35.799Z</time>
      </trkpt>
      <trkpt lat="43.6519" lon="3.76346">
        <ele>127.776833</ele>
        <time>2021-04-17T08:23:37.646Z</time>
      </trkpt>
      <trkpt lat="43.65184" lon="3.76353">
        <ele>128.061829</ele>
        <time>2021-04-17T08:23:39.668Z</time>
      </trkpt>
      <trkpt lat="43.65177" lon="3.76358">
        <ele>128.498947</ele>
        <time>2021-04-17T08:23:42.123Z</time>
      </trkpt>
      <trkpt lat="43.6517" lon="3.76365">
        <ele>128.969543</ele>
        <time>2021-04-17T08:23:44.798Z</time>
      </trkpt>
      <trkpt lat="43.65162" lon="3.7637">
        <ele>129.560471</ele>
        <time>2021-04-17T08:23:47.774Z</time>
      </trkpt>
      <trkpt lat="43.65156" lon="3.76366">
        <ele>129.995193</ele>
        <time>2021-04-17T08:23:49.998Z</time>
      </trkpt>
      <trkpt lat="43.65149" lon="3.76362">
        <ele>129.913635</ele>
        <time>2021-04-17T08:23:51.043Z</time>
      </trkpt>
      <trkpt lat="43.65144" lon="3.76371">
        <ele>129.810364</ele>
        <time>2021-04-17T08:23:52.150Z</time>
      </trkpt>
      <trkpt lat="43.65139" lon="3.7638">
        <ele>130.404785</ele>
        <time>2021-04-17T08:23:55.042Z</time>
      </trkpt>
      <trkpt lat="43.65136" lon="3.76386">
        <ele>131.476944</ele>
        <time>2021-04-17T08:23:58.540Z</time>
      </trkpt>
      <trkpt lat="43.65127" lon="3.76404">
        <ele>133.118027</ele>
        <time>2021-04-17T08:24:05.876Z</time>
      </trkpt>
      <trkpt lat="43.65127" lon="3.76416">
        <ele>134.75885</ele>
        <time>2021-04-17T08:24:11.632Z</time>
      </trkpt>
      <trkpt lat="43.65125" lon="3.76422">
        <ele>135.812378</ele>
        <time>2021-04-17T08:24:14.800Z</time>
      </trkpt>
      <trkpt lat="43.65117" lon="3.76429">
        <ele>136.506393</ele>
        <time>2021-04-17T08:24:18.158Z</time>
      </trkpt>
      <trkpt lat="43.65112" lon="3.76439">
        <ele>137.406265</ele>
        <time>2021-04-17T08:24:22.179Z</time>
      </trkpt>
      <trkpt lat="43.65103" lon="3.76448">
        <ele>138.753738</ele>
        <time>2021-04-17T08:24:28.443Z</time>
      </trkpt>
      <trkpt lat="43.65089" lon="3.76455">
        <ele>140.239853</ele>
        <time>2021-04-17T08:24:35.085Z</time>
      </trkpt>
      <trkpt lat="43.65081" lon="3.76443">
        <ele>141.768433</ele>
        <time>2021-04-17T08:24:42.487Z</time>
      </trkpt>
      <trkpt lat="43.65075" lon="3.76425">
        <ele>142.864029</ele>
        <time>2021-04-17T08:24:47.697Z</time>
      </trkpt>
      <trkpt lat="43.65065" lon="3.76403">
        <ele>143.07933</ele>
        <time>2021-04-17T08:24:51.306Z</time>
      </trkpt>
      <trkpt lat="43.65056" lon="3.76378">
        <ele>143.204453</ele>
        <time>2021-04-17T08:24:54.987Z</time>
      </trkpt>
      <trkpt lat="43.6505" lon="3.76368">
        <ele>143.223434</ele>
        <time>2021-04-17T08:24:56.633Z</time>
      </trkpt>
      <trkpt lat="43.65045" lon="3.76359">
        <ele>143.30864</ele>
        <time>2021-04-17T08:24:58.192Z</time>
      </trkpt>
      <trkpt lat="43.6504" lon="3.7635">
        <ele>143.64064</ele>
        <time>2021-04-17T08:25:00.433Z</time>
      </trkpt>
      <trkpt lat="43.65037" lon="3.76337">
        <ele>143.909317</ele>
        <time>2021-04-17T08:25:02.693Z</time>
      </trkpt>
      <trkpt lat="43.65033" lon="3.76328">
        <ele>144.052246</ele>
        <time>2021-04-17T08:25:04.278Z</time>
      </trkpt>
      <trkpt lat="43.65028" lon="3.7632">
        <ele>144.353195</ele>
        <time>2021-04-17T08:25:06.333Z</time>
      </trkpt>
      <trkpt lat="43.65025" lon="3.76311">
        <ele>144.751785</ele>
        <time>2021-04-17T08:25:08.569Z</time>
      </trkpt>
      <trkpt lat="43.65022" lon="3.76302">
        <ele>144.942551</ele>
        <time>2021-04-17T08:25:10.199Z</time>
      </trkpt>
      <trkpt lat="43.65017" lon="3.76293">
        <ele>145.205734</ele>
        <time>2021-04-17T08:25:12.196Z</time>
      </trkpt>
      <trkpt lat="43.65016" lon="3.76282">
        <ele>145.460449</ele>
        <time>2021-04-17T08:25:14.140Z</time>
      </trkpt>
      <trkpt lat="43.65013" lon="3.76273">
        <ele>145.616592</ele>
        <time>2021-04-17T08:25:15.679Z</time>
      </trkpt>
      <trkpt lat="43.65011" lon="3.76262">
        <ele>145.770401</ele>
        <time>2021-04-17T08:25:17.382Z</time>
      </trkpt>
      <trkpt lat="43.65007" lon="3.76253">
        <ele>146.026566</ele>
        <time>2021-04-17T08:25:19.277Z</time>
      </trkpt>
      <trkpt lat="43.65004" lon="3.76243">
        <ele>146.283417</ele>
        <time>2021-04-17T08:25:21.201Z</time>
      </trkpt>
      <trkpt lat="43.65001" lon="3.76235">
        <ele>146.383438</ele>
        <time>2021-04-17T08:25:22.505Z</time>
      </trkpt>
      <trkpt lat="43.64998" lon="3.76227">
        <ele>146.274094</ele>
        <time>2021-04-17T08:25:23.339Z</time>
      </trkpt>
      <trkpt lat="43.64995" lon="3.76218">
        <ele>146.102219</ele>
        <time>2021-04-17T08:25:24.182Z</time>
      </trkpt>
      <trkpt lat="43.64995" lon="3.76207">
        <ele>145.96875</ele>
        <time>2021-04-17T08:25:25.200Z</time>
      </trkpt>
      <trkpt lat="43.64995" lon="3.76194">
        <ele>145.644424</ele>
        <time>2021-04-17T08:25:26.190Z</time>
      </trkpt>
      <trkpt lat="43.64994" lon="3.76181">
        <ele>145.132278</ele>
        <time>2021-04-17T08:25:27.022Z</time>
      </trkpt>
      <trkpt lat="43.64991" lon="3.76166">
        <ele>144.636063</ele>
        <time>2021-04-17T08:25:28.103Z</time>
      </trkpt>
      <trkpt lat="43.64988" lon="3.76155">
        <ele>144.299911</ele>
        <time>2021-04-17T08:25:28.955Z</time>
      </trkpt>
      <trkpt lat="43.64983" lon="3.76141">
        <ele>143.690598</ele>
        <time>2021-04-17T08:25:29.950Z</time>
      </trkpt>
      <trkpt lat="43.64975" lon="3.7613">
        <ele>143.174698</ele>
        <time>2021-04-17T08:25:31.017Z</time>
      </trkpt>
      <trkpt lat="43.64968" lon="3.76118">
        <ele>142.638123</ele>
        <time>2021-04-17T08:25:32.050Z</time>
      </trkpt>
      <trkpt lat="43.64957" lon="3.76101">
        <ele>142.083084</ele>
        <time>2021-04-17T08:25:33.801Z</time>
      </trkpt>
      <trkpt lat="43.64943" lon="3.7609">
        <ele>141.557571</ele>
        <time>2021-04-17T08:25:35.528Z</time>
      </trkpt>
      <trkpt lat="43.64931" lon="3.76095">
        <ele>141.483246</ele>
        <time>2021-04-17T08:25:37.502Z</time>
      </trkpt>
      <trkpt lat="43.64926" lon="3.76107">
        <ele>141.627457</ele>
        <time>2021-04-17T08:25:39.485Z</time>
      </trkpt>
      <trkpt lat="43.6492" lon="3.76117">
        <ele>141.944016</ele>
        <time>2021-04-17T08:25:41.821Z</time>
      </trkpt>
      <trkpt lat="43.64913" lon="3.76129">
        <ele>142.407684</ele>
        <time>2021-04-17T08:25:44.917Z</time>
      </trkpt>
      <trkpt lat="43.64909" lon="3.76134">
        <ele>142.824509</ele>
        <time>2021-04-17T08:25:46.890Z</time>
      </trkpt>
      <trkpt lat="43.64901" lon="3.76125">
        <ele>142.885269</ele>
        <time>2021-04-17T08:25:48.764Z</time>
      </trkpt>
      <trkpt lat="43.64898" lon="3.76136">
        <ele>142.718307</ele>
        <time>2021-04-17T08:25:49.816Z</time>
      </trkpt>
      <trkpt lat="43.64894" lon="3.76149">
        <ele>142.669876</ele>
        <time>2021-04-17T08:25:51.453Z</time>
      </trkpt>
      <trkpt lat="43.64886" lon="3.76143">
        <ele>142.805588</ele>
        <time>2021-04-17T08:25:53.265Z</time>
      </trkpt>
      <trkpt lat="43.64871" lon="3.76141">
        <ele>142.624466</ele>
        <time>2021-04-17T08:25:55.312Z</time>
      </trkpt>
      <trkpt lat="43.64867" lon="3.76132">
        <ele>142.162537</ele>
        <time>2021-04-17T08:25:55.950Z</time>
      </trkpt>
      <trkpt lat="43.64862" lon="3.76116">
        <ele>142.068985</ele>
        <time>2021-04-17T08:25:57.771Z</time>
      </trkpt>
      <trkpt lat="43.64861" lon="3.761">
        <ele>142.061417</ele>
        <time>2021-04-17T08:25:59.748Z</time>
      </trkpt>
      <trkpt lat="43.64858" lon="3.76084">
        <ele>142.109543</ele>
        <time>2021-04-17T08:26:01.882Z</time>
      </trkpt>
      <trkpt lat="43.64853" lon="3.76069">
        <ele>142.144699</ele>
        <time>2021-04-17T08:26:03.993Z</time>
      </trkpt>
      <trkpt lat="43.64847" lon="3.76057">
        <ele>142.213867</ele>
        <time>2021-04-17T08:26:05.922Z</time>
      </trkpt>
      <trkpt lat="43.64839" lon="3.76042">
        <ele>142.306396</ele>
        <time>2021-04-17T08:26:08.395Z</time>
      </trkpt>
      <trkpt lat="43.64831" lon="3.76029">
        <ele>142.388504</ele>
        <time>2021-04-17T08:26:10.654Z</time>
      </trkpt>
      <trkpt lat="43.64823" lon="3.7602">
        <ele>142.524246</ele>
        <time>2021-04-17T08:26:12.670Z</time>
      </trkpt>
      <trkpt lat="43.64812" lon="3.76007">
        <ele>142.644043</ele>
        <time>2021-04-17T08:26:15.361Z</time>
      </trkpt>
      <trkpt lat="43.64798" lon="3.75993">
        <ele>142.915726</ele>
        <time>2021-04-17T08:26:18.831Z</time>
      </trkpt>
      <trkpt lat="43.64786" lon="3.75983">
        <ele>143.676636</ele>
        <time>2021-04-17T08:26:23.163Z</time>
      </trkpt>
      <trkpt lat="43.64773" lon="3.75974">
        <ele>144.317032</ele>
        <time>2021-04-17T08:26:27.352Z</time>
      </trkpt>
      <trkpt lat="43.64762" lon="3.75967">
        <ele>145.599442</ele>
        <time>2021-04-17T08:26:33.094Z</time>
      </trkpt>
      <trkpt lat="43.64751" lon="3.75957">
        <ele>146.133713</ele>
        <time>2021-04-17T08:26:36.695Z</time>
      </trkpt>
      <trkpt lat="43.6474" lon="3.75943">
        <ele>146.990555</ele>
        <time>2021-04-17T08:26:41.414Z</time>
      </trkpt>
      <trkpt lat="43.64727" lon="3.75929">
        <ele>148.122879</ele>
        <time>2021-04-17T08:26:47.058Z</time>
      </trkpt>
      <trkpt lat="43.64713" lon="3.75914">
        <ele>149.46904</ele>
        <time>2021-04-17T08:26:53.474Z</time>
      </trkpt>
      <trkpt lat="43.64698" lon="3.75901">
        <ele>149.863846</ele>
        <time>2021-04-17T08:26:57.297Z</time>
      </trkpt>
      <trkpt lat="43.64682" lon="3.75888">
        <ele>149.995728</ele>
        <time>2021-04-17T08:27:00.709Z</time>
      </trkpt>
      <trkpt lat="43.64662" lon="3.75876">
        <ele>149.750916</ele>
        <time>2021-04-17T08:27:03.701Z</time>
      </trkpt>
      <trkpt lat="43.64641" lon="3.75864">
        <ele>148.869064</ele>
        <time>2021-04-17T08:27:05.993Z</time>
      </trkpt>
      <trkpt lat="43.64622" lon="3.75849">
        <ele>147.791275</ele>
        <time>2021-04-17T08:27:07.998Z</time>
      </trkpt>
      <trkpt lat="43.64608" lon="3.75827">
        <ele>146.340469</ele>
        <time>2021-04-17T08:27:09.839Z</time>
      </trkpt>
      <trkpt lat="43.64599" lon="3.75802">
        <ele>145.463516</ele>
        <time>2021-04-17T08:27:11.791Z</time>
      </trkpt>
      <trkpt lat="43.64588" lon="3.75777">
        <ele>144.691422</ele>
        <time>2021-04-17T08:27:13.976Z</time>
      </trkpt>
      <trkpt lat="43.64578" lon="3.75751">
        <ele>143.922134</ele>
        <time>2021-04-17T08:27:16.182Z</time>
      </trkpt>
      <trkpt lat="43.64566" lon="3.75726">
        <ele>143.630692</ele>
        <time>2021-04-17T08:27:19.077Z</time>
      </trkpt>
      <trkpt lat="43.64553" lon="3.75698">
        <ele>143.391434</ele>
        <time>2021-04-17T08:27:22.437Z</time>
      </trkpt>
      <trkpt lat="43.64532" lon="3.75673">
        <ele>143.308838</ele>
        <time>2021-04-17T08:27:26.993Z</time>
      </trkpt>
      <trkpt lat="43.64507" lon="3.75655">
        <ele>143.171219</ele>
        <time>2021-04-17T08:27:31.500Z</time>
      </trkpt>
      <trkpt lat="43.64484" lon="3.75637">
        <ele>142.841827</ele>
        <time>2021-04-17T08:27:35.069Z</time>
      </trkpt>
      <trkpt lat="43.64466" lon="3.75618">
        <ele>142.437271</ele>
        <time>2021-04-17T08:27:37.929Z</time>
      </trkpt>
      <trkpt lat="43.64453" lon="3.75606">
        <ele>142.086472</ele>
        <time>2021-04-17T08:27:39.800Z</time>
      </trkpt>
      <trkpt lat="43.64459" lon="3.7561">
        <ele>141.928696</ele>
        <time>2021-04-17T08:27:40.586Z</time>
      </trkpt>
      <trkpt lat="43.64477" lon="3.7563">
        <ele>141.905228</ele>
        <time>2021-04-17T08:27:44.495Z</time>
      </trkpt>
      <trkpt lat="43.64498" lon="3.75647">
        <ele>141.965759</ele>
        <time>2021-04-17T08:27:48.775Z</time>
      </trkpt>
      <trkpt lat="43.64518" lon="3.75655">
        <ele>142.396378</ele>
        <time>2021-04-17T08:27:53.189Z</time>
      </trkpt>
      <trkpt lat="43.6452" lon="3.7563">
        <ele>142.852097</ele>
        <time>2021-04-17T08:27:57.248Z</time>
      </trkpt>
      <trkpt lat="43.64517" lon="3.75604">
        <ele>143.327316</ele>
        <time>2021-04-17T08:28:01.491Z</time>
      </trkpt>
      <trkpt lat="43.64515" lon="3.75582">
        <ele>144.292313</ele>
        <time>2021-04-17T08:28:06.656Z</time>
      </trkpt>
      <trkpt lat="43.64514" lon="3.7556">
        <ele>144.922775</ele>
        <time>2021-04-17T08:28:10.953Z</time>
      </trkpt>
      <trkpt lat="43.64513" lon="3.75539">
        <ele>145.371262</ele>
        <time>2021-04-17T08:28:14.536Z</time>
      </trkpt>
      <trkpt lat="43.64525" lon="3.75527">
        <ele>145.855545</ele>
        <time>2021-04-17T08:28:18.170Z</time>
      </trkpt>
      <trkpt lat="43.64538" lon="3.75518">
        <ele>146.575272</ele>
        <time>2021-04-17T08:28:22.525Z</time>
      </trkpt>
      <trkpt lat="43.64551" lon="3.75509">
        <ele>147.471985</ele>
        <time>2021-04-17T08:28:27.256Z</time>
      </trkpt>
      <trkpt lat="43.64556" lon="3.75493">
        <ele>148.006958</ele>
        <time>2021-04-17T08:28:30.800Z</time>
      </trkpt>
      <trkpt lat="43.64561" lon="3.75485">
        <ele>148.557999</ele>
        <time>2021-04-17T08:28:33.487Z</time>
      </trkpt>
      <trkpt lat="43.64565" lon="3.7547">
        <ele>148.919312</ele>
        <time>2021-04-17T08:28:36.271Z</time>
      </trkpt>
      <trkpt lat="43.64567" lon="3.75452">
        <ele>149.135986</ele>
        <time>2021-04-17T08:28:38.938Z</time>
      </trkpt>
      <trkpt lat="43.6457" lon="3.75431">
        <ele>149.512222</ele>
        <time>2021-04-17T08:28:42.361Z</time>
      </trkpt>
      <trkpt lat="43.64571" lon="3.75405">
        <ele>149.727341</ele>
        <time>2021-04-17T08:28:45.977Z</time>
      </trkpt>
      <trkpt lat="43.64572" lon="3.75381">
        <ele>149.838837</ele>
        <time>2021-04-17T08:28:49.153Z</time>
      </trkpt>
      <trkpt lat="43.64574" lon="3.75359">
        <ele>149.94722</ele>
        <time>2021-04-17T08:28:52.092Z</time>
      </trkpt>
      <trkpt lat="43.64575" lon="3.75331">
        <ele>150</ele>
        <time>2021-04-17T08:28:55.663Z</time>
      </trkpt>
      <trkpt lat="43.64576" lon="3.75303">
        <ele>150</ele>
        <time>2021-04-17T08:28:59.149Z</time>
      </trkpt>
      <trkpt lat="43.64571" lon="3.75272">
        <ele>150.036789</ele>
        <time>2021-04-17T08:29:03.158Z</time>
      </trkpt>
      <trkpt lat="43.64569" lon="3.75242">
        <ele>150.169739</ele>
        <time>2021-04-17T08:29:07.126Z</time>
      </trkpt>
      <trkpt lat="43.64568" lon="3.75214">
        <ele>150.279358</ele>
        <time>2021-04-17T08:29:10.794Z</time>
      </trkpt>
      <trkpt lat="43.64565" lon="3.75189">
        <ele>150.274963</ele>
        <time>2021-04-17T08:29:13.933Z</time>
      </trkpt>
      <trkpt lat="43.64568" lon="3.75161">
        <ele>150.245132</ele>
        <time>2021-04-17T08:29:17.376Z</time>
      </trkpt>
      <trkpt lat="43.64566" lon="3.75137">
        <ele>150.202225</ele>
        <time>2021-04-17T08:29:20.272Z</time>
      </trkpt>
      <trkpt lat="43.64569" lon="3.75127">
        <ele>150.164551</ele>
        <time>2021-04-17T08:29:21.525Z</time>
      </trkpt>
      <trkpt lat="43.64573" lon="3.75112">
        <ele>150.10791</ele>
        <time>2021-04-17T08:29:23.375Z</time>
      </trkpt>
      <trkpt lat="43.6458" lon="3.75092">
        <ele>149.906509</ele>
        <time>2021-04-17T08:29:25.544Z</time>
      </trkpt>
      <trkpt lat="43.6458" lon="3.75066">
        <ele>149.518936</ele>
        <time>2021-04-17T08:29:27.844Z</time>
      </trkpt>
      <trkpt lat="43.64579" lon="3.75041">
        <ele>149.113388</ele>
        <time>2021-04-17T08:29:30.013Z</time>
      </trkpt>
      <trkpt lat="43.64574" lon="3.75013">
        <ele>148.976517</ele>
        <time>2021-04-17T08:29:33.272Z</time>
      </trkpt>
      <trkpt lat="43.6457" lon="3.74984">
        <ele>149.096237</ele>
        <time>2021-04-17T08:29:37.142Z</time>
      </trkpt>
      <trkpt lat="43.64563" lon="3.74958">
        <ele>149.514755</ele>
        <time>2021-04-17T08:29:41.406Z</time>
      </trkpt>
      <trkpt lat="43.64556" lon="3.74932">
        <ele>150.03447</ele>
        <time>2021-04-17T08:29:45.928Z</time>
      </trkpt>
      <trkpt lat="43.64548" lon="3.74901">
        <ele>150.29689</ele>
        <time>2021-04-17T08:29:50.480Z</time>
      </trkpt>
      <trkpt lat="43.64545" lon="3.74875">
        <ele>150.661682</ele>
        <time>2021-04-17T08:29:54.451Z</time>
      </trkpt>
      <trkpt lat="43.64534" lon="3.74859">
        <ele>150.976639</ele>
        <time>2021-04-17T08:29:57.800Z</time>
      </trkpt>
      <trkpt lat="43.64528" lon="3.74841">
        <ele>151.445145</ele>
        <time>2021-04-17T08:30:01.317Z</time>
      </trkpt>
      <trkpt lat="43.64525" lon="3.74814">
        <ele>151.710876</ele>
        <time>2021-04-17T08:30:05.191Z</time>
      </trkpt>
      <trkpt lat="43.64522" lon="3.74782">
        <ele>151.67421</ele>
        <time>2021-04-17T08:30:09.110Z</time>
      </trkpt>
      <trkpt lat="43.6452" lon="3.74754">
        <ele>151.487869</ele>
        <time>2021-04-17T08:30:11.981Z</time>
      </trkpt>
      <trkpt lat="43.64516" lon="3.74729">
        <ele>151.272903</ele>
        <time>2021-04-17T08:30:14.511Z</time>
      </trkpt>
      <trkpt lat="43.6451" lon="3.74704">
        <ele>151.05217</ele>
        <time>2021-04-17T08:30:17.115Z</time>
      </trkpt>
      <trkpt lat="43.64507" lon="3.74683">
        <ele>151.027267</ele>
        <time>2021-04-17T08:30:19.712Z</time>
      </trkpt>
      <trkpt lat="43.64504" lon="3.74657">
        <ele>150.998215</ele>
        <time>2021-04-17T08:30:22.912Z</time>
      </trkpt>
      <trkpt lat="43.6449" lon="3.74642">
        <ele>150.962158</ele>
        <time>2021-04-17T08:30:25.864Z</time>
      </trkpt>
      <trkpt lat="43.64477" lon="3.74625">
        <ele>151.397461</ele>
        <time>2021-04-17T08:30:29.821Z</time>
      </trkpt>
      <trkpt lat="43.64469" lon="3.74602">
        <ele>152.069412</ele>
        <time>2021-04-17T08:30:34.581Z</time>
      </trkpt>
      <trkpt lat="43.64457" lon="3.7458">
        <ele>152.152023</ele>
        <time>2021-04-17T08:30:38.142Z</time>
      </trkpt>
      <trkpt lat="43.64445" lon="3.74559">
        <ele>152.203018</ele>
        <time>2021-04-17T08:30:41.552Z</time>
      </trkpt>
      <trkpt lat="43.64434" lon="3.74535">
        <ele>152.293854</ele>
        <time>2021-04-17T08:30:45.234Z</time>
      </trkpt>
      <trkpt lat="43.64426" lon="3.74515">
        <ele>152.322174</ele>
        <time>2021-04-17T08:30:48.121Z</time>
      </trkpt>
      <trkpt lat="43.64421" lon="3.74494">
        <ele>152.419113</ele>
        <time>2021-04-17T08:30:51.032Z</time>
      </trkpt>
      <trkpt lat="43.64417" lon="3.74479">
        <ele>152.500031</ele>
        <time>2021-04-17T08:30:53.156Z</time>
      </trkpt>
      <trkpt lat="43.64409" lon="3.74458">
        <ele>152.570084</ele>
        <time>2021-04-17T08:30:56.222Z</time>
      </trkpt>
      <trkpt lat="43.64403" lon="3.74435">
        <ele>152.811432</ele>
        <time>2021-04-17T08:30:59.696Z</time>
      </trkpt>
      <trkpt lat="43.64399" lon="3.74408">
        <ele>153.07515</ele>
        <time>2021-04-17T08:31:03.596Z</time>
      </trkpt>
      <trkpt lat="43.64396" lon="3.74382">
        <ele>153.166336</ele>
        <time>2021-04-17T08:31:07.020Z</time>
      </trkpt>
      <trkpt lat="43.64393" lon="3.74363">
        <ele>153.338486</ele>
        <time>2021-04-17T08:31:09.744Z</time>
      </trkpt>
      <trkpt lat="43.64389" lon="3.74357">
        <ele>153.554886</ele>
        <time>2021-04-17T08:31:11.271Z</time>
      </trkpt>
      <trkpt lat="43.64382" lon="3.74356">
        <ele>153.769608</ele>
        <time>2021-04-17T08:31:12.950Z</time>
      </trkpt>
      <trkpt lat="43.64377" lon="3.74359">
        <ele>154.136887</ele>
        <time>2021-04-17T08:31:14.798Z</time>
      </trkpt>
      <trkpt lat="43.64365" lon="3.74363">
        <ele>154.590012</ele>
        <time>2021-04-17T08:31:17.994Z</time>
      </trkpt>
      <trkpt lat="43.64361" lon="3.74367">
        <ele>155.178055</ele>
        <time>2021-04-17T08:31:20.705Z</time>
      </trkpt>
      <trkpt lat="43.64355" lon="3.7436">
        <ele>155.457901</ele>
        <time>2021-04-17T08:31:22.708Z</time>
      </trkpt>
      <trkpt lat="43.64351" lon="3.74348">
        <ele>155.805252</ele>
        <time>2021-04-17T08:31:25.171Z</time>
      </trkpt>
      <trkpt lat="43.64348" lon="3.74336">
        <ele>155.924072</ele>
        <time>2021-04-17T08:31:26.962Z</time>
      </trkpt>
      <trkpt lat="43.64343" lon="3.74325">
        <ele>155.978439</ele>
        <time>2021-04-17T08:31:28.668Z</time>
      </trkpt>
      <trkpt lat="43.64339" lon="3.74312">
        <ele>156.07576</ele>
        <time>2021-04-17T08:31:30.592Z</time>
      </trkpt>
      <trkpt lat="43.64335" lon="3.74298">
        <ele>156.110107</ele>
        <time>2021-04-17T08:31:32.520Z</time>
      </trkpt>
      <trkpt lat="43.64331" lon="3.74283">
        <ele>156.163651</ele>
        <time>2021-04-17T08:31:34.596Z</time>
      </trkpt>
      <trkpt lat="43.64326" lon="3.74266">
        <ele>156.165695</ele>
        <time>2021-04-17T08:31:36.881Z</time>
      </trkpt>
      <trkpt lat="43.64317" lon="3.74251">
        <ele>156.197342</ele>
        <time>2021-04-17T08:31:39.355Z</time>
      </trkpt>
      <trkpt lat="43.64303" lon="3.7424">
        <ele>156.325195</ele>
        <time>2021-04-17T08:31:42.340Z</time>
      </trkpt>
      <trkpt lat="43.64289" lon="3.7423">
        <ele>156.280106</ele>
        <time>2021-04-17T08:31:44.934Z</time>
      </trkpt>
      <trkpt lat="43.64272" lon="3.7423">
        <ele>156.158035</ele>
        <time>2021-04-17T08:31:47.566Z</time>
      </trkpt>
      <trkpt lat="43.64267" lon="3.74217">
        <ele>156.110672</ele>
        <time>2021-04-17T08:31:49.280Z</time>
      </trkpt>
      <trkpt lat="43.64261" lon="3.74205">
        <ele>155.966476</ele>
        <time>2021-04-17T08:31:50.684Z</time>
      </trkpt>
      <trkpt lat="43.64251" lon="3.74193">
        <ele>155.81282</ele>
        <time>2021-04-17T08:31:52.492Z</time>
      </trkpt>
      <trkpt lat="43.64238" lon="3.74191">
        <ele>155.696854</ele>
        <time>2021-04-17T08:31:54.344Z</time>
      </trkpt>
      <trkpt lat="43.64222" lon="3.7418">
        <ele>155.464676</ele>
        <time>2021-04-17T08:31:56.741Z</time>
      </trkpt>
      <trkpt lat="43.6422" lon="3.74161">
        <ele>155.142654</ele>
        <time>2021-04-17T08:31:58.390Z</time>
      </trkpt>
      <trkpt lat="43.64222" lon="3.74146">
        <ele>154.79126</ele>
        <time>2021-04-17T08:31:59.583Z</time>
      </trkpt>
      <trkpt lat="43.64217" lon="3.74132">
        <ele>154.492508</ele>
        <time>2021-04-17T08:32:00.877Z</time>
      </trkpt>
      <trkpt lat="43.64211" lon="3.74116">
        <ele>154.286621</ele>
        <time>2021-04-17T08:32:02.565Z</time>
      </trkpt>
      <trkpt lat="43.64204" lon="3.741">
        <ele>154.002609</ele>
        <time>2021-04-17T08:32:04.212Z</time>
      </trkpt>
      <trkpt lat="43.642" lon="3.74093">
        <ele>153.663651</ele>
        <time>2021-04-17T08:32:04.787Z</time>
      </trkpt>
      <trkpt lat="43.64192" lon="3.74079">
        <ele>153.201981</ele>
        <time>2021-04-17T08:32:06.128Z</time>
      </trkpt>
      <trkpt lat="43.6419" lon="3.74066">
        <ele>153.143265</ele>
        <time>2021-04-17T08:32:07.640Z</time>
      </trkpt>
      <trkpt lat="43.64188" lon="3.74058">
        <ele>153.107544</ele>
        <time>2021-04-17T08:32:08.606Z</time>
      </trkpt>
      <trkpt lat="43.6418" lon="3.7404">
        <ele>153.045654</ele>
        <time>2021-04-17T08:32:11.079Z</time>
      </trkpt>
      <trkpt lat="43.6418" lon="3.7402">
        <ele>153.032883</ele>
        <time>2021-04-17T08:32:13.533Z</time>
      </trkpt>
      <trkpt lat="43.64179" lon="3.74001">
        <ele>153.042877</ele>
        <time>2021-04-17T08:32:15.918Z</time>
      </trkpt>
      <trkpt lat="43.64181" lon="3.73983">
        <ele>153.173233</ele>
        <time>2021-04-17T08:32:18.409Z</time>
      </trkpt>
      <trkpt lat="43.64182" lon="3.73964">
        <ele>153.402039</ele>
        <time>2021-04-17T08:32:21.203Z</time>
      </trkpt>
      <trkpt lat="43.64175" lon="3.7395">
        <ele>153.701599</ele>
        <time>2021-04-17T08:32:23.926Z</time>
      </trkpt>
      <trkpt lat="43.64174" lon="3.73929">
        <ele>153.887497</ele>
        <time>2021-04-17T08:32:26.872Z</time>
      </trkpt>
      <trkpt lat="43.64171" lon="3.73908">
        <ele>154.04129</ele>
        <time>2021-04-17T08:32:29.801Z</time>
      </trkpt>
      <trkpt lat="43.64168" lon="3.73888">
        <ele>154.146744</ele>
        <time>2021-04-17T08:32:32.518Z</time>
      </trkpt>
      <trkpt lat="43.64157" lon="3.73875">
        <ele>154.208145</ele>
        <time>2021-04-17T08:32:35.106Z</time>
      </trkpt>
      <trkpt lat="43.64151" lon="3.73856">
        <ele>154.117966</ele>
        <time>2021-04-17T08:32:37.467Z</time>
      </trkpt>
      <trkpt lat="43.64144" lon="3.73841">
        <ele>153.70668</ele>
        <time>2021-04-17T08:32:38.863Z</time>
      </trkpt>
      <trkpt lat="43.6415" lon="3.73826">
        <ele>153.154953</ele>
        <time>2021-04-17T08:32:40.049Z</time>
      </trkpt>
      <trkpt lat="43.64159" lon="3.73809">
        <ele>153.190262</ele>
        <time>2021-04-17T08:32:42.725Z</time>
      </trkpt>
      <trkpt lat="43.64156" lon="3.7379">
        <ele>153.60376</ele>
        <time>2021-04-17T08:32:46.035Z</time>
      </trkpt>
      <trkpt lat="43.64151" lon="3.7377">
        <ele>153.641525</ele>
        <time>2021-04-17T08:32:48.727Z</time>
      </trkpt>
      <trkpt lat="43.64146" lon="3.73748">
        <ele>153.388428</ele>
        <time>2021-04-17T08:32:50.905Z</time>
      </trkpt>
      <trkpt lat="43.6415" lon="3.7373">
        <ele>153.122757</ele>
        <time>2021-04-17T08:32:52.592Z</time>
      </trkpt>
      <trkpt lat="43.64146" lon="3.73713">
        <ele>153.058487</ele>
        <time>2021-04-17T08:32:54.658Z</time>
      </trkpt>
      <trkpt lat="43.64142" lon="3.73691">
        <ele>152.943359</ele>
        <time>2021-04-17T08:32:57.205Z</time>
      </trkpt>
      <trkpt lat="43.6413" lon="3.73679">
        <ele>152.603516</ele>
        <time>2021-04-17T08:32:58.968Z</time>
      </trkpt>
      <trkpt lat="43.64115" lon="3.73669">
        <ele>151.69873</ele>
        <time>2021-04-17T08:33:00.429Z</time>
      </trkpt>
      <trkpt lat="43.64102" lon="3.73651">
        <ele>150.282608</ele>
        <time>2021-04-17T08:33:02.028Z</time>
      </trkpt>
      <trkpt lat="43.64092" lon="3.73631">
        <ele>149.252701</ele>
        <time>2021-04-17T08:33:03.519Z</time>
      </trkpt>
      <trkpt lat="43.6408" lon="3.73607">
        <ele>148.011063</ele>
        <time>2021-04-17T08:33:05.305Z</time>
      </trkpt>
      <trkpt lat="43.64077" lon="3.73579">
        <ele>146.346024</ele>
        <time>2021-04-17T08:33:07.084Z</time>
      </trkpt>
      <trkpt lat="43.64075" lon="3.73551">
        <ele>145.447342</ele>
        <time>2021-04-17T08:33:09.037Z</time>
      </trkpt>
      <trkpt lat="43.64072" lon="3.7353">
        <ele>145.246506</ele>
        <time>2021-04-17T08:33:11.116Z</time>
      </trkpt>
      <trkpt lat="43.64066" lon="3.73512">
        <ele>144.927811</ele>
        <time>2021-04-17T08:33:12.836Z</time>
      </trkpt>
      <trkpt lat="43.64064" lon="3.73496">
        <ele>144.297379</ele>
        <time>2021-04-17T08:33:13.874Z</time>
      </trkpt>
      <trkpt lat="43.64067" lon="3.73483">
        <ele>143.776489</ele>
        <time>2021-04-17T08:33:14.752Z</time>
      </trkpt>
      <trkpt lat="43.64069" lon="3.73467">
        <ele>143.793442</ele>
        <time>2021-04-17T08:33:16.798Z</time>
      </trkpt>
      <trkpt lat="43.64077" lon="3.73461">
        <ele>143.935532</ele>
        <time>2021-04-17T08:33:18.623Z</time>
      </trkpt>
      <trkpt lat="43.64084" lon="3.73454">
        <ele>144.727219</ele>
        <time>2021-04-17T08:33:22.193Z</time>
      </trkpt>
      <trkpt lat="43.64085" lon="3.73439">
        <ele>145.485672</ele>
        <time>2021-04-17T08:33:25.951Z</time>
      </trkpt>
      <trkpt lat="43.64092" lon="3.73426">
        <ele>145.837234</ele>
        <time>2021-04-17T08:33:28.729Z</time>
      </trkpt>
      <trkpt lat="43.64099" lon="3.73424">
        <ele>146.270828</ele>
        <time>2021-04-17T08:33:31.038Z</time>
      </trkpt>
      <trkpt lat="43.64104" lon="3.73413">
        <ele>147.339188</ele>
        <time>2021-04-17T08:33:35.884Z</time>
      </trkpt>
      <trkpt lat="43.64111" lon="3.73411">
        <ele>147.923172</ele>
        <time>2021-04-17T08:33:38.595Z</time>
      </trkpt>
      <trkpt lat="43.64117" lon="3.73407">
        <ele>148.648117</ele>
        <time>2021-04-17T08:33:41.852Z</time>
      </trkpt>
      <trkpt lat="43.64121" lon="3.73399">
        <ele>149.198975</ele>
        <time>2021-04-17T08:33:44.447Z</time>
      </trkpt>
      <trkpt lat="43.64125" lon="3.73389">
        <ele>149.788086</ele>
        <time>2021-04-17T08:33:47.334Z</time>
      </trkpt>
      <trkpt lat="43.64127" lon="3.73376">
        <ele>150.060226</ele>
        <time>2021-04-17T08:33:49.565Z</time>
      </trkpt>
      <trkpt lat="43.64132" lon="3.73361">
        <ele>150.117111</ele>
        <time>2021-04-17T08:33:51.712Z</time>
      </trkpt>
      <trkpt lat="43.64137" lon="3.73347">
        <ele>150.195724</ele>
        <time>2021-04-17T08:33:53.786Z</time>
      </trkpt>
      <trkpt lat="43.64137" lon="3.73337">
        <ele>150.469315</ele>
        <time>2021-04-17T08:33:55.688Z</time>
      </trkpt>
      <trkpt lat="43.64134" lon="3.73323">
        <ele>150.545975</ele>
        <time>2021-04-17T08:33:57.633Z</time>
      </trkpt>
      <trkpt lat="43.64125" lon="3.73312">
        <ele>150.196411</ele>
        <time>2021-04-17T08:33:58.970Z</time>
      </trkpt>
      <trkpt lat="43.64114" lon="3.73313">
        <ele>149.273026</ele>
        <time>2021-04-17T08:33:59.927Z</time>
      </trkpt>
      <trkpt lat="43.6413" lon="3.73318">
        <ele>149.083206</ele>
        <time>2021-04-17T08:34:02.168Z</time>
      </trkpt>
      <trkpt lat="43.64136" lon="3.73322">
        <ele>149.655655</ele>
        <time>2021-04-17T08:34:04.786Z</time>
      </trkpt>
      <trkpt lat="43.64144" lon="3.73314">
        <ele>150.121857</ele>
        <time>2021-04-17T08:34:07.700Z</time>
      </trkpt>
      <trkpt lat="43.6415" lon="3.73313">
        <ele>150.971848</ele>
        <time>2021-04-17T08:34:11.706Z</time>
      </trkpt>
      <trkpt lat="43.64161" lon="3.73311">
        <ele>151.688171</ele>
        <time>2021-04-17T08:34:15.392Z</time>
      </trkpt>
      <trkpt lat="43.64166" lon="3.73319">
        <ele>152.60498</ele>
        <time>2021-04-17T08:34:19.630Z</time>
      </trkpt>
      <trkpt lat="43.64169" lon="3.73331">
        <ele>153.447388</ele>
        <time>2021-04-17T08:34:23.429Z</time>
      </trkpt>
      <trkpt lat="43.64172" lon="3.73341">
        <ele>153.681473</ele>
        <time>2021-04-17T08:34:25.282Z</time>
      </trkpt>
      <trkpt lat="43.64174" lon="3.73355">
        <ele>154.139572</ele>
        <time>2021-04-17T08:34:28.271Z</time>
      </trkpt>
      <trkpt lat="43.64177" lon="3.73366">
        <ele>154.601974</ele>
        <time>2021-04-17T08:34:30.903Z</time>
      </trkpt>
      <trkpt lat="43.64182" lon="3.73385">
        <ele>155.074631</ele>
        <time>2021-04-17T08:34:34.474Z</time>
      </trkpt>
      <trkpt lat="43.64189" lon="3.73403">
        <ele>155.488846</ele>
        <time>2021-04-17T08:34:37.892Z</time>
      </trkpt>
      <trkpt lat="43.64192" lon="3.73422">
        <ele>156.038803</ele>
        <time>2021-04-17T08:34:41.659Z</time>
      </trkpt>
      <trkpt lat="43.64201" lon="3.73435">
        <ele>156.206863</ele>
        <time>2021-04-17T08:34:44.196Z</time>
      </trkpt>
      <trkpt lat="43.64211" lon="3.73439">
        <ele>156.399414</ele>
        <time>2021-04-17T08:34:46.350Z</time>
      </trkpt>
      <trkpt lat="43.64228" lon="3.73431">
        <ele>156.915283</ele>
        <time>2021-04-17T08:34:50.538Z</time>
      </trkpt>
      <trkpt lat="43.64232" lon="3.73426">
        <ele>156.990662</ele>
        <time>2021-04-17T08:34:51.601Z</time>
      </trkpt>
      <trkpt lat="43.64241" lon="3.7343">
        <ele>157.007904</ele>
        <time>2021-04-17T08:34:53.254Z</time>
      </trkpt>
      <trkpt lat="43.6425" lon="3.7343">
        <ele>157.191208</ele>
        <time>2021-04-17T08:34:55.155Z</time>
      </trkpt>
      <trkpt lat="43.64262" lon="3.73431">
        <ele>157.395401</ele>
        <time>2021-04-17T08:34:57.602Z</time>
      </trkpt>
      <trkpt lat="43.64272" lon="3.73432">
        <ele>157.475998</ele>
        <time>2021-04-17T08:34:59.461Z</time>
      </trkpt>
      <trkpt lat="43.64282" lon="3.73436">
        <ele>157.489578</ele>
        <time>2021-04-17T08:35:01.272Z</time>
      </trkpt>
      <trkpt lat="43.6429" lon="3.7344">
        <ele>157.518967</ele>
        <time>2021-04-17T08:35:02.782Z</time>
      </trkpt>
      <trkpt lat="43.64305" lon="3.73441">
        <ele>157.635178</ele>
        <time>2021-04-17T08:35:05.560Z</time>
      </trkpt>
      <trkpt lat="43.64326" lon="3.73442">
        <ele>157.629227</ele>
        <time>2021-04-17T08:35:09.155Z</time>
      </trkpt>
      <trkpt lat="43.64344" lon="3.73444">
        <ele>157.493561</ele>
        <time>2021-04-17T08:35:11.759Z</time>
      </trkpt>
      <trkpt lat="43.64356" lon="3.73446">
        <ele>157.171219</ele>
        <time>2021-04-17T08:35:13.139Z</time>
      </trkpt>
      <trkpt lat="43.64367" lon="3.73451">
        <ele>156.897079</ele>
        <time>2021-04-17T08:35:14.506Z</time>
      </trkpt>
      <trkpt lat="43.64378" lon="3.73457">
        <ele>156.573242</ele>
        <time>2021-04-17T08:35:15.846Z</time>
      </trkpt>
      <trkpt lat="43.64392" lon="3.73465">
        <ele>156.399704</ele>
        <time>2021-04-17T08:35:17.918Z</time>
      </trkpt>
      <trkpt lat="43.64405" lon="3.73469">
        <ele>156.092529</ele>
        <time>2021-04-17T08:35:19.501Z</time>
      </trkpt>
      <trkpt lat="43.64416" lon="3.73469">
        <ele>156</ele>
        <time>2021-04-17T08:35:21.068Z</time>
      </trkpt>
      <trkpt lat="43.64424" lon="3.73461">
        <ele>156</ele>
        <time>2021-04-17T08:35:22.765Z</time>
      </trkpt>
      <trkpt lat="43.64434" lon="3.7345">
        <ele>156</ele>
        <time>2021-04-17T08:35:24.962Z</time>
      </trkpt>
      <trkpt lat="43.64442" lon="3.7344">
        <ele>156</ele>
        <time>2021-04-17T08:35:26.815Z</time>
      </trkpt>
      <trkpt lat="43.64452" lon="3.73431">
        <ele>156</ele>
        <time>2021-04-17T08:35:28.866Z</time>
      </trkpt>
      <trkpt lat="43.6446" lon="3.73419">
        <ele>156</ele>
        <time>2021-04-17T08:35:30.895Z</time>
      </trkpt>
      <trkpt lat="43.64467" lon="3.73405">
        <ele>156.451904</ele>
        <time>2021-04-17T08:35:34.083Z</time>
      </trkpt>
      <trkpt lat="43.64472" lon="3.73391">
        <ele>157.294189</ele>
        <time>2021-04-17T08:35:38.129Z</time>
      </trkpt>
      <trkpt lat="43.64476" lon="3.73383">
        <ele>158.036133</ele>
        <time>2021-04-17T08:35:41.449Z</time>
      </trkpt>
      <trkpt lat="43.64479" lon="3.73373">
        <ele>158.559814</ele>
        <time>2021-04-17T08:35:44.095Z</time>
      </trkpt>
      <trkpt lat="43.6448" lon="3.73358">
        <ele>158.853516</ele>
        <time>2021-04-17T08:35:46.582Z</time>
      </trkpt>
      <trkpt lat="43.64478" lon="3.73344">
        <ele>159.014648</ele>
        <time>2021-04-17T08:35:48.653Z</time>
      </trkpt>
      <trkpt lat="43.64473" lon="3.73331">
        <ele>158.904785</ele>
        <time>2021-04-17T08:35:50.132Z</time>
      </trkpt>
      <trkpt lat="43.64469" lon="3.73317">
        <ele>158.401382</ele>
        <time>2021-04-17T08:35:51.158Z</time>
      </trkpt>
      <trkpt lat="43.64464" lon="3.73303">
        <ele>157.591064</ele>
        <time>2021-04-17T08:35:52.139Z</time>
      </trkpt>
      <trkpt lat="43.64461" lon="3.73289">
        <ele>156.826584</ele>
        <time>2021-04-17T08:35:53.057Z</time>
      </trkpt>
      <trkpt lat="43.64457" lon="3.73274">
        <ele>156.133224</ele>
        <time>2021-04-17T08:35:54.026Z</time>
      </trkpt>
      <trkpt lat="43.64454" lon="3.73257">
        <ele>155.552765</ele>
        <time>2021-04-17T08:35:55.223Z</time>
      </trkpt>
      <trkpt lat="43.64453" lon="3.73241">
        <ele>154.931412</ele>
        <time>2021-04-17T08:35:56.250Z</time>
      </trkpt>
      <trkpt lat="43.64454" lon="3.73224">
        <ele>154.655441</ele>
        <time>2021-04-17T08:35:57.728Z</time>
      </trkpt>
      <trkpt lat="43.64457" lon="3.73207">
        <ele>154.467697</ele>
        <time>2021-04-17T08:35:59.388Z</time>
      </trkpt>
      <trkpt lat="43.6446" lon="3.73192">
        <ele>154.367432</ele>
        <time>2021-04-17T08:36:00.982Z</time>
      </trkpt>
      <trkpt lat="43.64463" lon="3.73176">
        <ele>154.496826</ele>
        <time>2021-04-17T08:36:03.263Z</time>
      </trkpt>
      <trkpt lat="43.64468" lon="3.73163">
        <ele>154.609238</ele>
        <time>2021-04-17T08:36:05.290Z</time>
      </trkpt>
      <trkpt lat="43.64475" lon="3.73149">
        <ele>154.95459</ele>
        <time>2021-04-17T08:36:08.137Z</time>
      </trkpt>
      <trkpt lat="43.64483" lon="3.73138">
        <ele>155.552246</ele>
        <time>2021-04-17T08:36:11.596Z</time>
      </trkpt>
      <trkpt lat="43.64492" lon="3.73131">
        <ele>156.489563</ele>
        <time>2021-04-17T08:36:15.830Z</time>
      </trkpt>
      <trkpt lat="43.64502" lon="3.73124">
        <ele>157.777023</ele>
        <time>2021-04-17T08:36:21.687Z</time>
      </trkpt>
      <trkpt lat="43.64512" lon="3.73118">
        <ele>158.919876</ele>
        <time>2021-04-17T08:36:26.799Z</time>
      </trkpt>
      <trkpt lat="43.64522" lon="3.73111">
        <ele>160.671143</ele>
        <time>2021-04-17T08:36:34.230Z</time>
      </trkpt>
      <trkpt lat="43.64533" lon="3.73106">
        <ele>162.251221</ele>
        <time>2021-04-17T08:36:41.905Z</time>
      </trkpt>
      <trkpt lat="43.64541" lon="3.73099">
        <ele>163.812988</ele>
        <time>2021-04-17T08:36:48.182Z</time>
      </trkpt>
      <trkpt lat="43.64553" lon="3.73091">
        <ele>165.144363</ele>
        <time>2021-04-17T08:36:54.132Z</time>
      </trkpt>
      <trkpt lat="43.64563" lon="3.73081">
        <ele>166.595535</ele>
        <time>2021-04-17T08:37:00.787Z</time>
      </trkpt>
      <trkpt lat="43.64573" lon="3.7307">
        <ele>168.391846</ele>
        <time>2021-04-17T08:37:09.259Z</time>
      </trkpt>
      <trkpt lat="43.64583" lon="3.73059">
        <ele>169.534012</ele>
        <time>2021-04-17T08:37:14.434Z</time>
      </trkpt>
      <trkpt lat="43.64593" lon="3.7305">
        <ele>171.198074</ele>
        <time>2021-04-17T08:37:22.345Z</time>
      </trkpt>
      <trkpt lat="43.64603" lon="3.73043">
        <ele>172.583084</ele>
        <time>2021-04-17T08:37:28.847Z</time>
      </trkpt>
      <trkpt lat="43.64614" lon="3.73038">
        <ele>173.148361</ele>
        <time>2021-04-17T08:37:32.299Z</time>
      </trkpt>
      <trkpt lat="43.64626" lon="3.73033">
        <ele>173.564697</ele>
        <time>2021-04-17T08:37:35.395Z</time>
      </trkpt>
      <trkpt lat="43.6464" lon="3.7303">
        <ele>174.07869</ele>
        <time>2021-04-17T08:37:39.042Z</time>
      </trkpt>
      <trkpt lat="43.64652" lon="3.73029">
        <ele>174.612381</ele>
        <time>2021-04-17T08:37:42.523Z</time>
      </trkpt>
      <trkpt lat="43.64665" lon="3.73029">
        <ele>175.150146</ele>
        <time>2021-04-17T08:37:46.120Z</time>
      </trkpt>
      <trkpt lat="43.64676" lon="3.7303">
        <ele>175.603439</ele>
        <time>2021-04-17T08:37:49.159Z</time>
      </trkpt>
      <trkpt lat="43.64688" lon="3.7303">
        <ele>175.734177</ele>
        <time>2021-04-17T08:37:51.450Z</time>
      </trkpt>
      <trkpt lat="43.64703" lon="3.73027">
        <ele>175.856812</ele>
        <time>2021-04-17T08:37:54.263Z</time>
      </trkpt>
      <trkpt lat="43.64716" lon="3.73022">
        <ele>175.949844</ele>
        <time>2021-04-17T08:37:56.739Z</time>
      </trkpt>
      <trkpt lat="43.6473" lon="3.73014">
        <ele>175.936096</ele>
        <time>2021-04-17T08:37:59.306Z</time>
      </trkpt>
      <trkpt lat="43.64743" lon="3.73006">
        <ele>175.920944</ele>
        <time>2021-04-17T08:38:01.713Z</time>
      </trkpt>
      <trkpt lat="43.64758" lon="3.72998">
        <ele>176.205811</ele>
        <time>2021-04-17T08:38:05.011Z</time>
      </trkpt>
      <trkpt lat="43.64771" lon="3.72989">
        <ele>176.779343</ele>
        <time>2021-04-17T08:38:08.923Z</time>
      </trkpt>
      <trkpt lat="43.64785" lon="3.72981">
        <ele>177.36467</ele>
        <time>2021-04-17T08:38:12.953Z</time>
      </trkpt>
      <trkpt lat="43.64798" lon="3.72973">
        <ele>178.169785</ele>
        <time>2021-04-17T08:38:17.421Z</time>
      </trkpt>
      <trkpt lat="43.6481" lon="3.72965">
        <ele>178.93721</ele>
        <time>2021-04-17T08:38:21.635Z</time>
      </trkpt>
      <trkpt lat="43.6481" lon="3.72952">
        <ele>179.817825</ele>
        <time>2021-04-17T08:38:25.592Z</time>
      </trkpt>
      <trkpt lat="43.64815" lon="3.72935">
        <ele>180.353836</ele>
        <time>2021-04-17T08:38:29.213Z</time>
      </trkpt>
      <trkpt lat="43.64819" lon="3.72934">
        <ele>180.820801</ele>
        <time>2021-04-17T08:38:31.337Z</time>
      </trkpt>
      <trkpt lat="43.64829" lon="3.72934">
        <ele>181.395004</ele>
        <time>2021-04-17T08:38:34.496Z</time>
      </trkpt>
      <trkpt lat="43.64835" lon="3.72925">
        <ele>181.484695</ele>
        <time>2021-04-17T08:38:36.173Z</time>
      </trkpt>
      <trkpt lat="43.64836" lon="3.7291">
        <ele>181.726517</ele>
        <time>2021-04-17T08:38:38.524Z</time>
      </trkpt>
      <trkpt lat="43.64839" lon="3.72902">
        <ele>182.106888</ele>
        <time>2021-04-17T08:38:40.596Z</time>
      </trkpt>
      <trkpt lat="43.64841" lon="3.72897">
        <ele>182.538742</ele>
        <time>2021-04-17T08:38:42.528Z</time>
      </trkpt>
      <trkpt lat="43.64843" lon="3.72891">
        <ele>182.717285</ele>
        <time>2021-04-17T08:38:43.776Z</time>
      </trkpt>
      <trkpt lat="43.64841" lon="3.72886">
        <ele>182.996094</ele>
        <time>2021-04-17T08:38:45.179Z</time>
      </trkpt>
      <trkpt lat="43.64842" lon="3.72874">
        <ele>183.077148</ele>
        <time>2021-04-17T08:38:46.820Z</time>
      </trkpt>
      <trkpt lat="43.64846" lon="3.72853">
        <ele>183.413086</ele>
        <time>2021-04-17T08:38:50.178Z</time>
      </trkpt>
      <trkpt lat="43.64851" lon="3.72835">
        <ele>184.139755</ele>
        <time>2021-04-17T08:38:54.429Z</time>
      </trkpt>
      <trkpt lat="43.64853" lon="3.72815">
        <ele>184.585037</ele>
        <time>2021-04-17T08:38:57.912Z</time>
      </trkpt>
      <trkpt lat="43.64856" lon="3.72794">
        <ele>184.729538</ele>
        <time>2021-04-17T08:39:00.822Z</time>
      </trkpt>
      <trkpt lat="43.64859" lon="3.72773">
        <ele>184.908569</ele>
        <time>2021-04-17T08:39:03.799Z</time>
      </trkpt>
      <trkpt lat="43.64864" lon="3.72752">
        <ele>185.000061</ele>
        <time>2021-04-17T08:39:06.700Z</time>
      </trkpt>
      <trkpt lat="43.64874" lon="3.72728">
        <ele>185.026718</ele>
        <time>2021-04-17T08:39:10.186Z</time>
      </trkpt>
      <trkpt lat="43.64886" lon="3.72709">
        <ele>184.736938</ele>
        <time>2021-04-17T08:39:12.547Z</time>
      </trkpt>
      <trkpt lat="43.64894" lon="3.72683">
        <ele>184.194321</ele>
        <time>2021-04-17T08:39:14.884Z</time>
      </trkpt>
      <trkpt lat="43.64903" lon="3.72657">
        <ele>183.542969</ele>
        <time>2021-04-17T08:39:17.152Z</time>
      </trkpt>
      <trkpt lat="43.64915" lon="3.72626">
        <ele>183.190109</ele>
        <time>2021-04-17T08:39:20.527Z</time>
      </trkpt>
      <trkpt lat="43.64931" lon="3.726">
        <ele>182.548141</ele>
        <time>2021-04-17T08:39:23.367Z</time>
      </trkpt>
      <trkpt lat="43.64945" lon="3.72573">
        <ele>181.456741</ele>
        <time>2021-04-17T08:39:25.647Z</time>
      </trkpt>
      <trkpt lat="43.64957" lon="3.72559">
        <ele>180.637436</ele>
        <time>2021-04-17T08:39:27.050Z</time>
      </trkpt>
      <trkpt lat="43.64962" lon="3.72545">
        <ele>178.882996</ele>
        <time>2021-04-17T08:39:28.031Z</time>
      </trkpt>
      <trkpt lat="43.64962" lon="3.72529">
        <ele>178.695419</ele>
        <time>2021-04-17T08:39:29.523Z</time>
      </trkpt>
      <trkpt lat="43.64967" lon="3.72516">
        <ele>178.155716</ele>
        <time>2021-04-17T08:39:30.487Z</time>
      </trkpt>
      <trkpt lat="43.64962" lon="3.72504">
        <ele>177.04985</ele>
        <time>2021-04-17T08:39:31.357Z</time>
      </trkpt>
      <trkpt lat="43.64961" lon="3.72495">
        <ele>176.251709</ele>
        <time>2021-04-17T08:39:31.930Z</time>
      </trkpt>
      <trkpt lat="43.64959" lon="3.72485">
        <ele>175.754227</ele>
        <time>2021-04-17T08:39:32.529Z</time>
      </trkpt>
      <trkpt lat="43.64958" lon="3.72469">
        <ele>175.116516</ele>
        <time>2021-04-17T08:39:33.544Z</time>
      </trkpt>
      <trkpt lat="43.6496" lon="3.72452">
        <ele>174.355759</ele>
        <time>2021-04-17T08:39:34.580Z</time>
      </trkpt>
      <trkpt lat="43.64961" lon="3.72439">
        <ele>173.167099</ele>
        <time>2021-04-17T08:39:35.401Z</time>
      </trkpt>
      <trkpt lat="43.64966" lon="3.72426">
        <ele>172.194199</ele>
        <time>2021-04-17T08:39:36.326Z</time>
      </trkpt>
      <trkpt lat="43.6497" lon="3.72409">
        <ele>171.365479</ele>
        <time>2021-04-17T08:39:37.376Z</time>
      </trkpt>
      <trkpt lat="43.64973" lon="3.72394">
        <ele>169.652893</ele>
        <time>2021-04-17T08:39:38.354Z</time>
      </trkpt>
      <trkpt lat="43.64979" lon="3.72374">
        <ele>168.038742</ele>
        <time>2021-04-17T08:39:39.714Z</time>
      </trkpt>
      <trkpt lat="43.64982" lon="3.72352">
        <ele>166.305771</ele>
        <time>2021-04-17T08:39:41.121Z</time>
      </trkpt>
      <trkpt lat="43.64982" lon="3.72328">
        <ele>165.1698</ele>
        <time>2021-04-17T08:39:42.516Z</time>
      </trkpt>
      <trkpt lat="43.64975" lon="3.72316">
        <ele>163.111679</ele>
        <time>2021-04-17T08:39:43.485Z</time>
      </trkpt>
      <trkpt lat="43.64965" lon="3.72311">
        <ele>160.892105</ele>
        <time>2021-04-17T08:39:44.408Z</time>
      </trkpt>
      <trkpt lat="43.64953" lon="3.72309">
        <ele>160.058212</ele>
        <time>2021-04-17T08:39:45.458Z</time>
      </trkpt>
      <trkpt lat="43.64943" lon="3.72305">
        <ele>159.536499</ele>
        <time>2021-04-17T08:39:46.405Z</time>
      </trkpt>
      <trkpt lat="43.64935" lon="3.72301">
        <ele>158.884171</ele>
        <time>2021-04-17T08:39:47.144Z</time>
      </trkpt>
      <trkpt lat="43.64927" lon="3.72293">
        <ele>158.1353</ele>
        <time>2021-04-17T08:39:48.001Z</time>
      </trkpt>
      <trkpt lat="43.6492" lon="3.72281">
        <ele>156.878586</ele>
        <time>2021-04-17T08:39:48.970Z</time>
      </trkpt>
      <trkpt lat="43.64928" lon="3.72267">
        <ele>156.093262</ele>
        <time>2021-04-17T08:39:50.044Z</time>
      </trkpt>
      <trkpt lat="43.64937" lon="3.72249">
        <ele>155.379959</ele>
        <time>2021-04-17T08:39:51.551Z</time>
      </trkpt>
      <trkpt lat="43.64951" lon="3.7223">
        <ele>154.515381</ele>
        <time>2021-04-17T08:39:53.434Z</time>
      </trkpt>
      <trkpt lat="43.64962" lon="3.72216">
        <ele>153.468216</ele>
        <time>2021-04-17T08:39:54.733Z</time>
      </trkpt>
      <trkpt lat="43.64972" lon="3.72199">
        <ele>152.614365</ele>
        <time>2021-04-17T08:39:56.130Z</time>
      </trkpt>
      <trkpt lat="43.64983" lon="3.7218">
        <ele>151.79863</ele>
        <time>2021-04-17T08:39:57.786Z</time>
      </trkpt>
      <trkpt lat="43.64992" lon="3.72161">
        <ele>150.566254</ele>
        <time>2021-04-17T08:39:59.213Z</time>
      </trkpt>
      <trkpt lat="43.65006" lon="3.72143">
        <ele>148.663956</ele>
        <time>2021-04-17T08:40:00.874Z</time>
      </trkpt>
      <trkpt lat="43.65015" lon="3.72129">
        <ele>147.382523</ele>
        <time>2021-04-17T08:40:02.050Z</time>
      </trkpt>
      <trkpt lat="43.65025" lon="3.72116">
        <ele>143.709534</ele>
        <time>2021-04-17T08:40:03.243Z</time>
      </trkpt>
      <trkpt lat="43.65029" lon="3.72099">
        <ele>141.247681</ele>
        <time>2021-04-17T08:40:04.366Z</time>
      </trkpt>
      <trkpt lat="43.65018" lon="3.72087">
        <ele>139.410446</ele>
        <time>2021-04-17T08:40:05.583Z</time>
      </trkpt>
      <trkpt lat="43.65005" lon="3.72082">
        <ele>137.455551</ele>
        <time>2021-04-17T08:40:06.755Z</time>
      </trkpt>
      <trkpt lat="43.64994" lon="3.72081">
        <ele>137.312363</ele>
        <time>2021-04-17T08:40:08.233Z</time>
      </trkpt>
      <trkpt lat="43.64985" lon="3.72073">
        <ele>137.393967</ele>
        <time>2021-04-17T08:40:10.210Z</time>
      </trkpt>
      <trkpt lat="43.64978" lon="3.72056">
        <ele>136.740402</ele>
        <time>2021-04-17T08:40:11.543Z</time>
      </trkpt>
      <trkpt lat="43.64969" lon="3.72045">
        <ele>134.423996</ele>
        <time>2021-04-17T08:40:12.587Z</time>
      </trkpt>
      <trkpt lat="43.64958" lon="3.72035">
        <ele>132.610428</ele>
        <time>2021-04-17T08:40:13.730Z</time>
      </trkpt>
      <trkpt lat="43.64947" lon="3.72022">
        <ele>131.818115</ele>
        <time>2021-04-17T08:40:14.996Z</time>
      </trkpt>
      <trkpt lat="43.64936" lon="3.72011">
        <ele>129.837357</ele>
        <time>2021-04-17T08:40:16.175Z</time>
      </trkpt>
      <trkpt lat="43.64922" lon="3.72001">
        <ele>128.503616</ele>
        <time>2021-04-17T08:40:17.544Z</time>
      </trkpt>
      <trkpt lat="43.64909" lon="3.71987">
        <ele>127.74485</ele>
        <time>2021-04-17T08:40:19.098Z</time>
      </trkpt>
      <trkpt lat="43.64903" lon="3.7198">
        <ele>126.382698</ele>
        <time>2021-04-17T08:40:19.780Z</time>
      </trkpt>
      <trkpt lat="43.64904" lon="3.71977">
        <ele>125.534584</ele>
        <time>2021-04-17T08:40:19.988Z</time>
      </trkpt>
      <trkpt lat="43.64909" lon="3.71947">
        <ele>124.691002</ele>
        <time>2021-04-17T08:40:22.255Z</time>
      </trkpt>
      <trkpt lat="43.64911" lon="3.71924">
        <ele>122.012146</ele>
        <time>2021-04-17T08:40:23.710Z</time>
      </trkpt>
      <trkpt lat="43.64912" lon="3.71911">
        <ele>120.932152</ele>
        <time>2021-04-17T08:40:24.532Z</time>
      </trkpt>
      <trkpt lat="43.64914" lon="3.71891">
        <ele>119.399231</ele>
        <time>2021-04-17T08:40:25.801Z</time>
      </trkpt>
      <trkpt lat="43.64913" lon="3.71867">
        <ele>118.11969</ele>
        <time>2021-04-17T08:40:27.311Z</time>
      </trkpt>
      <trkpt lat="43.64898" lon="3.71846">
        <ele>117.569557</ele>
        <time>2021-04-17T08:40:29.773Z</time>
      </trkpt>
      <trkpt lat="43.64887" lon="3.71817">
        <ele>117.940758</ele>
        <time>2021-04-17T08:40:34.527Z</time>
      </trkpt>
      <trkpt lat="43.64877" lon="3.71789">
        <ele>118.945747</ele>
        <time>2021-04-17T08:40:41.079Z</time>
      </trkpt>
      <trkpt lat="43.64872" lon="3.71769">
        <ele>119.973122</ele>
        <time>2021-04-17T08:40:46.261Z</time>
      </trkpt>
      <trkpt lat="43.64879" lon="3.71753">
        <ele>121.194252</ele>
        <time>2021-04-17T08:40:51.782Z</time>
      </trkpt>
      <trkpt lat="43.6489" lon="3.71741">
        <ele>121.405388</ele>
        <time>2021-04-17T08:40:54.576Z</time>
      </trkpt>
      <trkpt lat="43.64897" lon="3.71722">
        <ele>121.429726</ele>
        <time>2021-04-17T08:40:57.266Z</time>
      </trkpt>
      <trkpt lat="43.64898" lon="3.71704">
        <ele>121.660362</ele>
        <time>2021-04-17T08:40:59.944Z</time>
      </trkpt>
      <trkpt lat="43.64901" lon="3.71688">
        <ele>122.134895</ele>
        <time>2021-04-17T08:41:03.173Z</time>
      </trkpt>
      <trkpt lat="43.64908" lon="3.71672">
        <ele>122.644722</ele>
        <time>2021-04-17T08:41:06.724Z</time>
      </trkpt>
      <trkpt lat="43.64916" lon="3.71658">
        <ele>123.125832</ele>
        <time>2021-04-17T08:41:10.092Z</time>
      </trkpt>
      <trkpt lat="43.64924" lon="3.71643">
        <ele>123.48101</ele>
        <time>2021-04-17T08:41:13.146Z</time>
      </trkpt>
      <trkpt lat="43.64928" lon="3.71631">
        <ele>123.893471</ele>
        <time>2021-04-17T08:41:15.862Z</time>
      </trkpt>
      <trkpt lat="43.64933" lon="3.71618">
        <ele>124.26178</ele>
        <time>2021-04-17T08:41:18.541Z</time>
      </trkpt>
      <trkpt lat="43.64936" lon="3.71605">
        <ele>124.751747</ele>
        <time>2021-04-17T08:41:21.501Z</time>
      </trkpt>
      <trkpt lat="43.64941" lon="3.71591">
        <ele>124.840019</ele>
        <time>2021-04-17T08:41:23.592Z</time>
      </trkpt>
      <trkpt lat="43.64947" lon="3.71579">
        <ele>124.706139</ele>
        <time>2021-04-17T08:41:25.013Z</time>
      </trkpt>
      <trkpt lat="43.64951" lon="3.71565">
        <ele>124.450356</ele>
        <time>2021-04-17T08:41:26.301Z</time>
      </trkpt>
      <trkpt lat="43.64955" lon="3.7155">
        <ele>124.189537</ele>
        <time>2021-04-17T08:41:27.684Z</time>
      </trkpt>
      <trkpt lat="43.64956" lon="3.71537">
        <ele>123.867271</ele>
        <time>2021-04-17T08:41:28.683Z</time>
      </trkpt>
      <trkpt lat="43.6495" lon="3.71522">
        <ele>123.685463</ele>
        <time>2021-04-17T08:41:30.312Z</time>
      </trkpt>
      <trkpt lat="43.64945" lon="3.7152">
        <ele>123.448402</ele>
        <time>2021-04-17T08:41:30.805Z</time>
      </trkpt>
      <trkpt lat="43.64936" lon="3.71519">
        <ele>123.259277</ele>
        <time>2021-04-17T08:41:31.904Z</time>
      </trkpt>
      <trkpt lat="43.64931" lon="3.71515">
        <ele>123.244057</ele>
        <time>2021-04-17T08:41:32.858Z</time>
      </trkpt>
      <trkpt lat="43.6492" lon="3.71515">
        <ele>123.264648</ele>
        <time>2021-04-17T08:41:34.782Z</time>
      </trkpt>
      <trkpt lat="43.64911" lon="3.71514">
        <ele>123.36499</ele>
        <time>2021-04-17T08:41:36.509Z</time>
      </trkpt>
      <trkpt lat="43.64901" lon="3.71511">
        <ele>123.498047</ele>
        <time>2021-04-17T08:41:38.506Z</time>
      </trkpt>
      <trkpt lat="43.6489" lon="3.71506">
        <ele>123.553955</ele>
        <time>2021-04-17T08:41:40.588Z</time>
      </trkpt>
      <trkpt lat="43.6488" lon="3.71501">
        <ele>123.57666</ele>
        <time>2021-04-17T08:41:42.452Z</time>
      </trkpt>
      <trkpt lat="43.6487" lon="3.71495">
        <ele>123.582275</ele>
        <time>2021-04-17T08:41:44.334Z</time>
      </trkpt>
      <trkpt lat="43.6486" lon="3.71486">
        <ele>123.57373</ele>
        <time>2021-04-17T08:41:46.362Z</time>
      </trkpt>
      <trkpt lat="43.64848" lon="3.71479">
        <ele>123.558266</ele>
        <time>2021-04-17T08:41:48.561Z</time>
      </trkpt>
      <trkpt lat="43.64838" lon="3.71474">
        <ele>123.619141</ele>
        <time>2021-04-17T08:41:50.489Z</time>
      </trkpt>
      <trkpt lat="43.64827" lon="3.71469">
        <ele>123.799431</ele>
        <time>2021-04-17T08:41:52.810Z</time>
      </trkpt>
      <trkpt lat="43.64817" lon="3.71462">
        <ele>124.039131</ele>
        <time>2021-04-17T08:41:55.206Z</time>
      </trkpt>
      <trkpt lat="43.64812" lon="3.71456">
        <ele>124.220436</ele>
        <time>2021-04-17T08:41:56.725Z</time>
      </trkpt>
      <trkpt lat="43.64807" lon="3.7144">
        <ele>124.335609</ele>
        <time>2021-04-17T08:41:59.090Z</time>
      </trkpt>
      <trkpt lat="43.64812" lon="3.7143">
        <ele>124.24575</ele>
        <time>2021-04-17T08:42:00.313Z</time>
      </trkpt>
      <trkpt lat="43.64819" lon="3.71419">
        <ele>123.922005</ele>
        <time>2021-04-17T08:42:01.474Z</time>
      </trkpt>
      <trkpt lat="43.64821" lon="3.7141">
        <ele>123.545158</ele>
        <time>2021-04-17T08:42:02.067Z</time>
      </trkpt>
      <trkpt lat="43.64817" lon="3.71399">
        <ele>123.18148</ele>
        <time>2021-04-17T08:42:02.949Z</time>
      </trkpt>
      <trkpt lat="43.64814" lon="3.71394">
        <ele>123.026367</ele>
        <time>2021-04-17T08:42:03.451Z</time>
      </trkpt>
      <trkpt lat="43.64808" lon="3.71383">
        <ele>122.950111</ele>
        <time>2021-04-17T08:42:04.885Z</time>
      </trkpt>
      <trkpt lat="43.64799" lon="3.71376">
        <ele>122.944824</ele>
        <time>2021-04-17T08:42:06.646Z</time>
      </trkpt>
      <trkpt lat="43.6479" lon="3.71365">
        <ele>123.103691</ele>
        <time>2021-04-17T08:42:08.996Z</time>
      </trkpt>
      <trkpt lat="43.6478" lon="3.71355">
        <ele>123.408852</ele>
        <time>2021-04-17T08:42:11.738Z</time>
      </trkpt>
      <trkpt lat="43.64769" lon="3.71343">
        <ele>123.804726</ele>
        <time>2021-04-17T08:42:14.987Z</time>
      </trkpt>
      <trkpt lat="43.64758" lon="3.71332">
        <ele>124.246368</ele>
        <time>2021-04-17T08:42:18.310Z</time>
      </trkpt>
      <trkpt lat="43.64747" lon="3.71321">
        <ele>124.699806</ele>
        <time>2021-04-17T08:42:21.672Z</time>
      </trkpt>
      <trkpt lat="43.64736" lon="3.71309">
        <ele>124.834961</ele>
        <time>2021-04-17T08:42:24.314Z</time>
      </trkpt>
      <trkpt lat="43.64728" lon="3.71298">
        <ele>124.92318</ele>
        <time>2021-04-17T08:42:26.403Z</time>
      </trkpt>
      <trkpt lat="43.64726" lon="3.7129">
        <ele>124.904503</ele>
        <time>2021-04-17T08:42:27.408Z</time>
      </trkpt>
      <trkpt lat="43.64719" lon="3.71281">
        <ele>124.694733</ele>
        <time>2021-04-17T08:42:28.559Z</time>
      </trkpt>
      <trkpt lat="43.64709" lon="3.71272">
        <ele>124.692772</ele>
        <time>2021-04-17T08:42:30.605Z</time>
      </trkpt>
      <trkpt lat="43.64696" lon="3.7127">
        <ele>125.057762</ele>
        <time>2021-04-17T08:42:33.624Z</time>
      </trkpt>
      <trkpt lat="43.64685" lon="3.71266">
        <ele>125.998047</ele>
        <time>2021-04-17T08:42:37.973Z</time>
      </trkpt>
      <trkpt lat="43.64671" lon="3.71262">
        <ele>126.805672</ele>
        <time>2021-04-17T08:42:42.459Z</time>
      </trkpt>
      <trkpt lat="43.64661" lon="3.71251">
        <ele>127.442352</ele>
        <time>2021-04-17T08:42:46.295Z</time>
      </trkpt>
      <trkpt lat="43.64652" lon="3.71252">
        <ele>127.89328</ele>
        <time>2021-04-17T08:42:49.007Z</time>
      </trkpt>
      <trkpt lat="43.64647" lon="3.71253">
        <ele>128.221298</ele>
        <time>2021-04-17T08:42:50.690Z</time>
      </trkpt>
      <trkpt lat="43.64642" lon="3.71249">
        <ele>128.73407</ele>
        <time>2021-04-17T08:42:53.017Z</time>
      </trkpt>
      <trkpt lat="43.64632" lon="3.71234">
        <ele>128.897568</ele>
        <time>2021-04-17T08:42:55.840Z</time>
      </trkpt>
      <trkpt lat="43.64628" lon="3.71221">
        <ele>128.678528</ele>
        <time>2021-04-17T08:42:57.077Z</time>
      </trkpt>
      <trkpt lat="43.64623" lon="3.7121">
        <ele>128.283981</ele>
        <time>2021-04-17T08:42:57.997Z</time>
      </trkpt>
      <trkpt lat="43.64621" lon="3.71197">
        <ele>127.995483</ele>
        <time>2021-04-17T08:42:59.057Z</time>
      </trkpt>
      <trkpt lat="43.64615" lon="3.71185">
        <ele>127.470238</ele>
        <time>2021-04-17T08:43:00.020Z</time>
      </trkpt>
      <trkpt lat="43.64605" lon="3.71179">
        <ele>127.29557</ele>
        <time>2021-04-17T08:43:01.428Z</time>
      </trkpt>
      <trkpt lat="43.64598" lon="3.71173">
        <ele>127.635414</ele>
        <time>2021-04-17T08:43:03.703Z</time>
      </trkpt>
      <trkpt lat="43.64588" lon="3.71171">
        <ele>127.99707</ele>
        <time>2021-04-17T08:43:06.287Z</time>
      </trkpt>
      <trkpt lat="43.64578" lon="3.7117">
        <ele>128.301529</ele>
        <time>2021-04-17T08:43:08.674Z</time>
      </trkpt>
      <trkpt lat="43.6457" lon="3.71173">
        <ele>128.528519</ele>
        <time>2021-04-17T08:43:10.575Z</time>
      </trkpt>
      <trkpt lat="43.64566" lon="3.71183">
        <ele>128.812485</ele>
        <time>2021-04-17T08:43:12.648Z</time>
      </trkpt>
      <trkpt lat="43.64564" lon="3.71193">
        <ele>129.150558</ele>
        <time>2021-04-17T08:43:14.833Z</time>
      </trkpt>
      <trkpt lat="43.64561" lon="3.71204">
        <ele>129.749802</ele>
        <time>2021-04-17T08:43:17.784Z</time>
      </trkpt>
      <trkpt lat="43.64557" lon="3.71213">
        <ele>130.394821</ele>
        <time>2021-04-17T08:43:20.749Z</time>
      </trkpt>
      <trkpt lat="43.64554" lon="3.71222">
        <ele>131.011307</ele>
        <time>2021-04-17T08:43:23.568Z</time>
      </trkpt>
      <trkpt lat="43.64551" lon="3.71232">
        <ele>131.463058</ele>
        <time>2021-04-17T08:43:26.047Z</time>
      </trkpt>
      <trkpt lat="43.64548" lon="3.71241">
        <ele>131.915604</ele>
        <time>2021-04-17T08:43:28.404Z</time>
      </trkpt>
      <trkpt lat="43.64542" lon="3.71246">
        <ele>132.292313</ele>
        <time>2021-04-17T08:43:30.562Z</time>
      </trkpt>
      <trkpt lat="43.64532" lon="3.71248">
        <ele>132.679276</ele>
        <time>2021-04-17T08:43:33.237Z</time>
      </trkpt>
      <trkpt lat="43.64518" lon="3.71253">
        <ele>132.956467</ele>
        <time>2021-04-17T08:43:36.251Z</time>
      </trkpt>
      <trkpt lat="43.64503" lon="3.71255">
        <ele>133.208572</ele>
        <time>2021-04-17T08:43:39.310Z</time>
      </trkpt>
      <trkpt lat="43.64486" lon="3.71258">
        <ele>133.418655</ele>
        <time>2021-04-17T08:43:42.627Z</time>
      </trkpt>
      <trkpt lat="43.64466" lon="3.7126">
        <ele>133.583771</ele>
        <time>2021-04-17T08:43:46.354Z</time>
      </trkpt>
      <trkpt lat="43.64444" lon="3.71264">
        <ele>133.67659</ele>
        <time>2021-04-17T08:43:50.319Z</time>
      </trkpt>
      <trkpt lat="43.64428" lon="3.71276">
        <ele>134.154404</ele>
        <time>2021-04-17T08:43:54.438Z</time>
      </trkpt>
      <trkpt lat="43.64414" lon="3.7129">
        <ele>135.586746</ele>
        <time>2021-04-17T08:44:01.057Z</time>
      </trkpt>
      <trkpt lat="43.644" lon="3.71304">
        <ele>136.674728</ele>
        <time>2021-04-17T08:44:06.732Z</time>
      </trkpt>
      <trkpt lat="43.64389" lon="3.71319">
        <ele>137.669022</ele>
        <time>2021-04-17T08:44:11.857Z</time>
      </trkpt>
      <trkpt lat="43.64383" lon="3.71317">
        <ele>138.48584</ele>
        <time>2021-04-17T08:44:15.884Z</time>
      </trkpt>
      <trkpt lat="43.64372" lon="3.71311">
        <ele>138.888016</ele>
        <time>2021-04-17T08:44:18.836Z</time>
      </trkpt>
      <trkpt lat="43.64362" lon="3.71323">
        <ele>139.440109</ele>
        <time>2021-04-17T08:44:22.518Z</time>
      </trkpt>
      <trkpt lat="43.64357" lon="3.71336">
        <ele>140.192307</ele>
        <time>2021-04-17T08:44:26.219Z</time>
      </trkpt>
      <trkpt lat="43.64352" lon="3.7135">
        <ele>140.607101</ele>
        <time>2021-04-17T08:44:29.144Z</time>
      </trkpt>
      <trkpt lat="43.64346" lon="3.71365">
        <ele>140.866623</ele>
        <time>2021-04-17T08:44:31.781Z</time>
      </trkpt>
      <trkpt lat="43.64339" lon="3.71378">
        <ele>140.992676</ele>
        <time>2021-04-17T08:44:34.016Z</time>
      </trkpt>
      <trkpt lat="43.64332" lon="3.71391">
        <ele>141.196213</ele>
        <time>2021-04-17T08:44:36.412Z</time>
      </trkpt>
      <trkpt lat="43.64323" lon="3.71404">
        <ele>141.340256</ele>
        <time>2021-04-17T08:44:38.902Z</time>
      </trkpt>
      <trkpt lat="43.64315" lon="3.71418">
        <ele>141.613159</ele>
        <time>2021-04-17T08:44:41.653Z</time>
      </trkpt>
      <trkpt lat="43.64307" lon="3.71431">
        <ele>141.94455</ele>
        <time>2021-04-17T08:44:44.467Z</time>
      </trkpt>
      <trkpt lat="43.643" lon="3.71446">
        <ele>142.210342</ele>
        <time>2021-04-17T08:44:47.202Z</time>
      </trkpt>
      <trkpt lat="43.64294" lon="3.7146">
        <ele>142.52597</ele>
        <time>2021-04-17T08:44:49.884Z</time>
      </trkpt>
      <trkpt lat="43.6429" lon="3.71473">
        <ele>142.747467</ele>
        <time>2021-04-17T08:44:52.076Z</time>
      </trkpt>
      <trkpt lat="43.64287" lon="3.71484">
        <ele>142.981445</ele>
        <time>2021-04-17T08:44:54.030Z</time>
      </trkpt>
      <trkpt lat="43.64286" lon="3.71478">
        <ele>143.110016</ele>
        <time>2021-04-17T08:44:55.071Z</time>
      </trkpt>
      <trkpt lat="43.6429" lon="3.71465">
        <ele>143.151169</ele>
        <time>2021-04-17T08:44:56.895Z</time>
      </trkpt>
      <trkpt lat="43.64283" lon="3.71456">
        <ele>143.20903</ele>
        <time>2021-04-17T08:44:58.634Z</time>
      </trkpt>
      <trkpt lat="43.64273" lon="3.71457">
        <ele>143.780762</ele>
        <time>2021-04-17T08:45:01.792Z</time>
      </trkpt>
      <trkpt lat="43.64263" lon="3.71461">
        <ele>144.777054</ele>
        <time>2021-04-17T08:45:06.258Z</time>
      </trkpt>
      <trkpt lat="43.64254" lon="3.71466">
        <ele>145.321381</ele>
        <time>2021-04-17T08:45:09.294Z</time>
      </trkpt>
      <trkpt lat="43.64246" lon="3.71475">
        <ele>146.480713</ele>
        <time>2021-04-17T08:45:14.537Z</time>
      </trkpt>
      <trkpt lat="43.64237" lon="3.71482">
        <ele>147.134201</ele>
        <time>2021-04-17T08:45:17.936Z</time>
      </trkpt>
      <trkpt lat="43.6423" lon="3.71483">
        <ele>147.824783</ele>
        <time>2021-04-17T08:45:21.024Z</time>
      </trkpt>
      <trkpt lat="43.64222" lon="3.71483">
        <ele>148.410385</ele>
        <time>2021-04-17T08:45:23.859Z</time>
      </trkpt>
      <trkpt lat="43.64218" lon="3.71478">
        <ele>148.96965</ele>
        <time>2021-04-17T08:45:26.359Z</time>
      </trkpt>
      <trkpt lat="43.64212" lon="3.71473">
        <ele>149.345261</ele>
        <time>2021-04-17T08:45:28.516Z</time>
      </trkpt>
      <trkpt lat="43.64208" lon="3.71467">
        <ele>149.724762</ele>
        <time>2021-04-17T08:45:30.473Z</time>
      </trkpt>
      <trkpt lat="43.64204" lon="3.7146">
        <ele>149.844772</ele>
        <time>2021-04-17T08:45:31.810Z</time>
      </trkpt>
      <trkpt lat="43.64203" lon="3.71452">
        <ele>149.895264</ele>
        <time>2021-04-17T08:45:32.906Z</time>
      </trkpt>
      <trkpt lat="43.64205" lon="3.71443">
        <ele>149.753815</ele>
        <time>2021-04-17T08:45:33.737Z</time>
      </trkpt>
      <trkpt lat="43.64206" lon="3.71434">
        <ele>149.413437</ele>
        <time>2021-04-17T08:45:34.329Z</time>
      </trkpt>
      <trkpt lat="43.6421" lon="3.71427">
        <ele>149.138992</ele>
        <time>2021-04-17T08:45:34.957Z</time>
      </trkpt>
      <trkpt lat="43.64212" lon="3.71418">
        <ele>148.816544</ele>
        <time>2021-04-17T08:45:35.592Z</time>
      </trkpt>
      <trkpt lat="43.64215" lon="3.7141">
        <ele>148.49205</ele>
        <time>2021-04-17T08:45:36.187Z</time>
      </trkpt>
      <trkpt lat="43.64216" lon="3.71402">
        <ele>148.15036</ele>
        <time>2021-04-17T08:45:36.687Z</time>
      </trkpt>
      <trkpt lat="43.64219" lon="3.71394">
        <ele>147.859253</ele>
        <time>2021-04-17T08:45:37.310Z</time>
      </trkpt>
      <trkpt lat="43.64217" lon="3.71386">
        <ele>147.499054</ele>
        <time>2021-04-17T08:45:37.828Z</time>
      </trkpt>
      <trkpt lat="43.64214" lon="3.71378">
        <ele>147.274109</ele>
        <time>2021-04-17T08:45:38.514Z</time>
      </trkpt>
      <trkpt lat="43.64208" lon="3.71371">
        <ele>147.05661</ele>
        <time>2021-04-17T08:45:39.400Z</time>
      </trkpt>
      <trkpt lat="43.64203" lon="3.71367">
        <ele>146.882309</ele>
        <time>2021-04-17T08:45:40.036Z</time>
      </trkpt>
      <trkpt lat="43.64196" lon="3.71365">
        <ele>146.842575</ele>
        <time>2021-04-17T08:45:41.168Z</time>
      </trkpt>
      <trkpt lat="43.6419" lon="3.7137">
        <ele>146.869736</ele>
        <time>2021-04-17T08:45:42.416Z</time>
      </trkpt>
      <trkpt lat="43.64185" lon="3.71381">
        <ele>147.177414</ele>
        <time>2021-04-17T08:45:44.723Z</time>
      </trkpt>
      <trkpt lat="43.64183" lon="3.7139">
        <ele>147.715393</ele>
        <time>2021-04-17T08:45:47.250Z</time>
      </trkpt>
      <trkpt lat="43.64196" lon="3.7139">
        <ele>148.241119</ele>
        <time>2021-04-17T08:45:50.799Z</time>
      </trkpt>
      <trkpt lat="43.64204" lon="3.71378">
        <ele>147.940384</ele>
        <time>2021-04-17T08:45:52.164Z</time>
      </trkpt>
      <trkpt lat="43.6421" lon="3.71366">
        <ele>147.389862</ele>
        <time>2021-04-17T08:45:53.108Z</time>
      </trkpt>
      <trkpt lat="43.64216" lon="3.71358">
        <ele>146.671494</ele>
        <time>2021-04-17T08:45:53.832Z</time>
      </trkpt>
      <trkpt lat="43.64225" lon="3.71353">
        <ele>146.237823</ele>
        <time>2021-04-17T08:45:54.758Z</time>
      </trkpt>
      <trkpt lat="43.64228" lon="3.7135">
        <ele>145.925949</ele>
        <time>2021-04-17T08:45:55.079Z</time>
      </trkpt>
      <trkpt lat="43.64228" lon="3.71334">
        <ele>145.669022</ele>
        <time>2021-04-17T08:45:56.469Z</time>
      </trkpt>
      <trkpt lat="43.64224" lon="3.71321">
        <ele>145.181564</ele>
        <time>2021-04-17T08:45:57.419Z</time>
      </trkpt>
      <trkpt lat="43.64218" lon="3.71317">
        <ele>144.620178</ele>
        <time>2021-04-17T08:45:57.998Z</time>
      </trkpt>
      <trkpt lat="43.64225" lon="3.71307">
        <ele>144.111694</ele>
        <time>2021-04-17T08:45:58.911Z</time>
      </trkpt>
      <trkpt lat="43.64235" lon="3.71304">
        <ele>143.751556</ele>
        <time>2021-04-17T08:45:59.980Z</time>
      </trkpt>
      <trkpt lat="43.64247" lon="3.713">
        <ele>143.648636</ele>
        <time>2021-04-17T08:46:01.740Z</time>
      </trkpt>
      <trkpt lat="43.64256" lon="3.71289">
        <ele>143.393738</ele>
        <time>2021-04-17T08:46:03.198Z</time>
      </trkpt>
      <trkpt lat="43.64249" lon="3.71279">
        <ele>142.884354</ele>
        <time>2021-04-17T08:46:04.111Z</time>
      </trkpt>
      <trkpt lat="43.64244" lon="3.71259">
        <ele>142.44194</ele>
        <time>2021-04-17T08:46:05.817Z</time>
      </trkpt>
      <trkpt lat="43.6424" lon="3.71238">
        <ele>141.765427</ele>
        <time>2021-04-17T08:46:07.340Z</time>
      </trkpt>
      <trkpt lat="43.64238" lon="3.71228">
        <ele>140.587296</ele>
        <time>2021-04-17T08:46:07.992Z</time>
      </trkpt>
      <trkpt lat="43.64244" lon="3.71219">
        <ele>139.562103</ele>
        <time>2021-04-17T08:46:08.761Z</time>
      </trkpt>
      <trkpt lat="43.64242" lon="3.71212">
        <ele>139.079575</ele>
        <time>2021-04-17T08:46:09.234Z</time>
      </trkpt>
      <trkpt lat="43.64241" lon="3.71197">
        <ele>138.680954</ele>
        <time>2021-04-17T08:46:10.358Z</time>
      </trkpt>
      <trkpt lat="43.64245" lon="3.71182">
        <ele>137.918945</ele>
        <time>2021-04-17T08:46:11.284Z</time>
      </trkpt>
      <trkpt lat="43.6425" lon="3.71166">
        <ele>137.022324</ele>
        <time>2021-04-17T08:46:12.379Z</time>
      </trkpt>
      <trkpt lat="43.64248" lon="3.71149">
        <ele>136.076385</ele>
        <time>2021-04-17T08:46:13.462Z</time>
      </trkpt>
      <trkpt lat="43.64241" lon="3.71125">
        <ele>134.982315</ele>
        <time>2021-04-17T08:46:15.051Z</time>
      </trkpt>
      <trkpt lat="43.6424" lon="3.71108">
        <ele>133.753799</ele>
        <time>2021-04-17T08:46:16.123Z</time>
      </trkpt>
      <trkpt lat="43.6423" lon="3.71092">
        <ele>132.54541</ele>
        <time>2021-04-17T08:46:17.451Z</time>
      </trkpt>
      <trkpt lat="43.64228" lon="3.71077">
        <ele>131.690918</ele>
        <time>2021-04-17T08:46:18.410Z</time>
      </trkpt>
      <trkpt lat="43.64225" lon="3.7106">
        <ele>130.762451</ele>
        <time>2021-04-17T08:46:19.509Z</time>
      </trkpt>
      <trkpt lat="43.6422" lon="3.71038">
        <ele>130.003235</ele>
        <time>2021-04-17T08:46:21.091Z</time>
      </trkpt>
      <trkpt lat="43.64215" lon="3.71026">
        <ele>129.869095</ele>
        <time>2021-04-17T08:46:22.428Z</time>
      </trkpt>
      <trkpt lat="43.64208" lon="3.71023">
        <ele>129.744705</ele>
        <time>2021-04-17T08:46:23.364Z</time>
      </trkpt>
      <trkpt lat="43.64199" lon="3.71033">
        <ele>129.546875</ele>
        <time>2021-04-17T08:46:24.835Z</time>
      </trkpt>
      <trkpt lat="43.64185" lon="3.71052">
        <ele>129.126312</ele>
        <time>2021-04-17T08:46:27.210Z</time>
      </trkpt>
      <trkpt lat="43.64174" lon="3.7108">
        <ele>128.629837</ele>
        <time>2021-04-17T08:46:29.998Z</time>
      </trkpt>
      <trkpt lat="43.64159" lon="3.71103">
        <ele>129.24971</ele>
        <time>2021-04-17T08:46:35.156Z</time>
      </trkpt>
      <trkpt lat="43.64145" lon="3.71126">
        <ele>131.020508</ele>
        <time>2021-04-17T08:46:43.385Z</time>
      </trkpt>
      <trkpt lat="43.64135" lon="3.71146">
        <ele>133.174042</ele>
        <time>2021-04-17T08:46:53.444Z</time>
      </trkpt>
      <trkpt lat="43.64124" lon="3.71167">
        <ele>134.923279</ele>
        <time>2021-04-17T08:47:01.310Z</time>
      </trkpt>
      <trkpt lat="43.64115" lon="3.71186">
        <ele>136.376953</ele>
        <time>2021-04-17T08:47:07.912Z</time>
      </trkpt>
      <trkpt lat="43.64105" lon="3.712">
        <ele>137.412537</ele>
        <time>2021-04-17T08:47:12.938Z</time>
      </trkpt>
      <trkpt lat="43.64092" lon="3.71209">
        <ele>138.171127</ele>
        <time>2021-04-17T08:47:17.371Z</time>
      </trkpt>
      <trkpt lat="43.64081" lon="3.71214">
        <ele>138.5009</ele>
        <time>2021-04-17T08:47:20.063Z</time>
      </trkpt>
      <trkpt lat="43.6407" lon="3.7122">
        <ele>138.83252</ele>
        <time>2021-04-17T08:47:22.798Z</time>
      </trkpt>
      <trkpt lat="43.6406" lon="3.71232">
        <ele>138.949646</ele>
        <time>2021-04-17T08:47:25.274Z</time>
      </trkpt>
      <trkpt lat="43.6405" lon="3.71239">
        <ele>138.932037</ele>
        <time>2021-04-17T08:47:27.155Z</time>
      </trkpt>
      <trkpt lat="43.64047" lon="3.71217">
        <ele>138.899765</ele>
        <time>2021-04-17T08:47:29.857Z</time>
      </trkpt>
      <trkpt lat="43.64057" lon="3.71199">
        <ele>139.085464</ele>
        <time>2021-04-17T08:47:33.005Z</time>
      </trkpt>
      <trkpt lat="43.64052" lon="3.71175">
        <ele>139.6315</ele>
        <time>2021-04-17T08:47:37.300Z</time>
      </trkpt>
      <trkpt lat="43.64037" lon="3.71174">
        <ele>140.233292</ele>
        <time>2021-04-17T08:47:41.377Z</time>
      </trkpt>
      <trkpt lat="43.64023" lon="3.71179">
        <ele>140.94696</ele>
        <time>2021-04-17T08:47:45.704Z</time>
      </trkpt>
      <trkpt lat="43.64012" lon="3.71166">
        <ele>141.630936</ele>
        <time>2021-04-17T08:47:49.976Z</time>
      </trkpt>
      <trkpt lat="43.64" lon="3.71157">
        <ele>142.323669</ele>
        <time>2021-04-17T08:47:54.099Z</time>
      </trkpt>
      <trkpt lat="43.63986" lon="3.71153">
        <ele>142.856934</ele>
        <time>2021-04-17T08:47:57.831Z</time>
      </trkpt>
      <trkpt lat="43.63974" lon="3.71157">
        <ele>143.25679</ele>
        <time>2021-04-17T08:48:00.847Z</time>
      </trkpt>
      <trkpt lat="43.63964" lon="3.71158">
        <ele>143.958832</ele>
        <time>2021-04-17T08:48:04.315Z</time>
      </trkpt>
      <trkpt lat="43.63954" lon="3.71155">
        <ele>144.431213</ele>
        <time>2021-04-17T08:48:07.314Z</time>
      </trkpt>
      <trkpt lat="43.63945" lon="3.71154">
        <ele>144.811813</ele>
        <time>2021-04-17T08:48:09.842Z</time>
      </trkpt>
      <trkpt lat="43.63937" lon="3.71149">
        <ele>145.131165</ele>
        <time>2021-04-17T08:48:12.104Z</time>
      </trkpt>
      <trkpt lat="43.6393" lon="3.71137">
        <ele>145.345825</ele>
        <time>2021-04-17T08:48:14.432Z</time>
      </trkpt>
      <trkpt lat="43.63929" lon="3.71125">
        <ele>145.385864</ele>
        <time>2021-04-17T08:48:16.000Z</time>
      </trkpt>
      <trkpt lat="43.63925" lon="3.71117">
        <ele>145.234604</ele>
        <time>2021-04-17T08:48:16.851Z</time>
      </trkpt>
      <trkpt lat="43.63922" lon="3.71112">
        <ele>145.160568</ele>
        <time>2021-04-17T08:48:17.460Z</time>
      </trkpt>
      <trkpt lat="43.63916" lon="3.71104">
        <ele>145.111694</ele>
        <time>2021-04-17T08:48:18.775Z</time>
      </trkpt>
      <trkpt lat="43.63917" lon="3.71091">
        <ele>145.021255</ele>
        <time>2021-04-17T08:48:20.102Z</time>
      </trkpt>
      <trkpt lat="43.63922" lon="3.71076">
        <ele>144.791489</ele>
        <time>2021-04-17T08:48:21.587Z</time>
      </trkpt>
      <trkpt lat="43.63926" lon="3.71061">
        <ele>144.521194</ele>
        <time>2021-04-17T08:48:22.957Z</time>
      </trkpt>
      <trkpt lat="43.63931" lon="3.71048">
        <ele>144.089401</ele>
        <time>2021-04-17T08:48:24.014Z</time>
      </trkpt>
      <trkpt lat="43.63938" lon="3.71032">
        <ele>143.600388</ele>
        <time>2021-04-17T08:48:25.414Z</time>
      </trkpt>
      <trkpt lat="43.63946" lon="3.71017">
        <ele>143.330811</ele>
        <time>2021-04-17T08:48:27.074Z</time>
      </trkpt>
      <trkpt lat="43.63952" lon="3.70999">
        <ele>143.140442</ele>
        <time>2021-04-17T08:48:28.991Z</time>
      </trkpt>
      <trkpt lat="43.63957" lon="3.70986">
        <ele>143.045593</ele>
        <time>2021-04-17T08:48:30.499Z</time>
      </trkpt>
      <trkpt lat="43.6396" lon="3.70972">
        <ele>142.91008</ele>
        <time>2021-04-17T08:48:31.919Z</time>
      </trkpt>
      <trkpt lat="43.63965" lon="3.70956">
        <ele>142.698654</ele>
        <time>2021-04-17T08:48:33.533Z</time>
      </trkpt>
      <trkpt lat="43.63965" lon="3.70937">
        <ele>142.403641</ele>
        <time>2021-04-17T08:48:35.197Z</time>
      </trkpt>
      <trkpt lat="43.63969" lon="3.7092">
        <ele>141.894363</ele>
        <time>2021-04-17T08:48:36.495Z</time>
      </trkpt>
      <trkpt lat="43.63975" lon="3.70901">
        <ele>141.621689</ele>
        <time>2021-04-17T08:48:38.382Z</time>
      </trkpt>
      <trkpt lat="43.63981" lon="3.70879">
        <ele>141.60675</ele>
        <time>2021-04-17T08:48:41.267Z</time>
      </trkpt>
      <trkpt lat="43.63988" lon="3.70858">
        <ele>141.620911</ele>
        <time>2021-04-17T08:48:44.165Z</time>
      </trkpt>
      <trkpt lat="43.6399" lon="3.70835">
        <ele>141.719055</ele>
        <time>2021-04-17T08:48:47.210Z</time>
      </trkpt>
      <trkpt lat="43.63991" lon="3.70813">
        <ele>141.593719</ele>
        <time>2021-04-17T08:48:49.499Z</time>
      </trkpt>
      <trkpt lat="43.63992" lon="3.7079">
        <ele>141.206497</ele>
        <time>2021-04-17T08:48:51.477Z</time>
      </trkpt>
      <trkpt lat="43.63994" lon="3.70766">
        <ele>140.803268</ele>
        <time>2021-04-17T08:48:53.555Z</time>
      </trkpt>
      <trkpt lat="43.63998" lon="3.70741">
        <ele>140.522247</ele>
        <time>2021-04-17T08:48:55.973Z</time>
      </trkpt>
      <trkpt lat="43.64" lon="3.70717">
        <ele>140.417038</ele>
        <time>2021-04-17T08:48:58.724Z</time>
      </trkpt>
      <trkpt lat="43.64" lon="3.70697">
        <ele>140.047195</ele>
        <time>2021-04-17T08:49:00.397Z</time>
      </trkpt>
      <trkpt lat="43.64" lon="3.70682">
        <ele>139.763016</ele>
        <time>2021-04-17T08:49:01.643Z</time>
      </trkpt>
      <trkpt lat="43.63999" lon="3.70664">
        <ele>139.111984</ele>
        <time>2021-04-17T08:49:02.834Z</time>
      </trkpt>
      <trkpt lat="43.63999" lon="3.70645">
        <ele>138.584641</ele>
        <time>2021-04-17T08:49:04.227Z</time>
      </trkpt>
      <trkpt lat="43.63995" lon="3.70625">
        <ele>137.993515</ele>
        <time>2021-04-17T08:49:05.733Z</time>
      </trkpt>
      <trkpt lat="43.63988" lon="3.70607">
        <ele>137.718491</ele>
        <time>2021-04-17T08:49:07.584Z</time>
      </trkpt>
      <trkpt lat="43.63977" lon="3.70595">
        <ele>137.067276</ele>
        <time>2021-04-17T08:49:08.901Z</time>
      </trkpt>
      <trkpt lat="43.63966" lon="3.70584">
        <ele>135.751541</ele>
        <time>2021-04-17T08:49:10.080Z</time>
      </trkpt>
      <trkpt lat="43.63955" lon="3.70572">
        <ele>134.606125</ele>
        <time>2021-04-17T08:49:11.297Z</time>
      </trkpt>
      <trkpt lat="43.63944" lon="3.7056">
        <ele>133.702866</ele>
        <time>2021-04-17T08:49:12.431Z</time>
      </trkpt>
      <trkpt lat="43.63927" lon="3.70552">
        <ele>132.851868</ele>
        <time>2021-04-17T08:49:14.105Z</time>
      </trkpt>
      <trkpt lat="43.63918" lon="3.70551">
        <ele>131.993011</ele>
        <time>2021-04-17T08:49:14.889Z</time>
      </trkpt>
      <trkpt lat="43.63919" lon="3.70565">
        <ele>131.573227</ele>
        <time>2021-04-17T08:49:15.892Z</time>
      </trkpt>
      <trkpt lat="43.63919" lon="3.70581">
        <ele>131.564926</ele>
        <time>2021-04-17T08:49:17.860Z</time>
      </trkpt>
      <trkpt lat="43.6392" lon="3.70586">
        <ele>131.652267</ele>
        <time>2021-04-17T08:49:18.680Z</time>
      </trkpt>
      <trkpt lat="43.63918" lon="3.70565">
        <ele>131.675491</ele>
        <time>2021-04-17T08:49:21.352Z</time>
      </trkpt>
      <trkpt lat="43.63918" lon="3.70542">
        <ele>131.590439</ele>
        <time>2021-04-17T08:49:24.004Z</time>
      </trkpt>
      <trkpt lat="43.63892" lon="3.70525">
        <ele>131.355667</ele>
        <time>2021-04-17T08:49:28.116Z</time>
      </trkpt>
      <trkpt lat="43.63872" lon="3.70519">
        <ele>132.032059</ele>
        <time>2021-04-17T08:49:33.160Z</time>
      </trkpt>
      <trkpt lat="43.63856" lon="3.70512">
        <ele>134.297043</ele>
        <time>2021-04-17T08:49:44.285Z</time>
      </trkpt>
      <trkpt lat="43.63841" lon="3.70501">
        <ele>136.091873</ele>
        <time>2021-04-17T08:49:52.319Z</time>
      </trkpt>
      <trkpt lat="43.63826" lon="3.70489">
        <ele>137.778198</ele>
        <time>2021-04-17T08:49:59.866Z</time>
      </trkpt>
      <trkpt lat="43.63812" lon="3.70487">
        <ele>139.499542</ele>
        <time>2021-04-17T08:50:07.902Z</time>
      </trkpt>
      <trkpt lat="43.63803" lon="3.70506">
        <ele>141.07457</ele>
        <time>2021-04-17T08:50:14.960Z</time>
      </trkpt>
      <trkpt lat="43.63794" lon="3.70526">
        <ele>141.971085</ele>
        <time>2021-04-17T08:50:20.171Z</time>
      </trkpt>
      <trkpt lat="43.63785" lon="3.70543">
        <ele>142.906815</ele>
        <time>2021-04-17T08:50:25.120Z</time>
      </trkpt>
      <trkpt lat="43.63781" lon="3.70559">
        <ele>143.657547</ele>
        <time>2021-04-17T08:50:29.095Z</time>
      </trkpt>
      <trkpt lat="43.63778" lon="3.70578">
        <ele>143.951416</ele>
        <time>2021-04-17T08:50:32.086Z</time>
      </trkpt>
      <trkpt lat="43.63774" lon="3.706">
        <ele>144.060379</ele>
        <time>2021-04-17T08:50:35.090Z</time>
      </trkpt>
      <trkpt lat="43.63771" lon="3.70622">
        <ele>144.154129</ele>
        <time>2021-04-17T08:50:38.030Z</time>
      </trkpt>
      <trkpt lat="43.63768" lon="3.70644">
        <ele>144.298996</ele>
        <time>2021-04-17T08:50:41.063Z</time>
      </trkpt>
      <trkpt lat="43.63765" lon="3.70667">
        <ele>144.296112</ele>
        <time>2021-04-17T08:50:43.962Z</time>
      </trkpt>
      <trkpt lat="43.63762" lon="3.70692">
        <ele>144.232132</ele>
        <time>2021-04-17T08:50:46.953Z</time>
      </trkpt>
      <trkpt lat="43.63751" lon="3.70707">
        <ele>144.380905</ele>
        <time>2021-04-17T08:50:49.866Z</time>
      </trkpt>
      <trkpt lat="43.63741" lon="3.70719">
        <ele>145.158768</ele>
        <time>2021-04-17T08:50:54.087Z</time>
      </trkpt>
      <trkpt lat="43.63731" lon="3.70731">
        <ele>146.612137</ele>
        <time>2021-04-17T08:51:00.627Z</time>
      </trkpt>
      <trkpt lat="43.63722" lon="3.70729">
        <ele>147.580811</ele>
        <time>2021-04-17T08:51:04.965Z</time>
      </trkpt>
      <trkpt lat="43.63713" lon="3.70728">
        <ele>148.919601</ele>
        <time>2021-04-17T08:51:10.950Z</time>
      </trkpt>
      <trkpt lat="43.63702" lon="3.70731">
        <ele>150.239014</ele>
        <time>2021-04-17T08:51:17.003Z</time>
      </trkpt>
      <trkpt lat="43.63693" lon="3.70733">
        <ele>151.51799</ele>
        <time>2021-04-17T08:51:23.046Z</time>
      </trkpt>
      <trkpt lat="43.63685" lon="3.70736">
        <ele>152.553238</ele>
        <time>2021-04-17T08:51:27.936Z</time>
      </trkpt>
      <trkpt lat="43.63677" lon="3.70741">
        <ele>153.366318</ele>
        <time>2021-04-17T08:51:31.596Z</time>
      </trkpt>
      <trkpt lat="43.63673" lon="3.70741">
        <ele>154.007446</ele>
        <time>2021-04-17T08:51:34.248Z</time>
      </trkpt>
      <trkpt lat="43.63665" lon="3.7075">
        <ele>155.089493</ele>
        <time>2021-04-17T08:51:39.088Z</time>
      </trkpt>
      <trkpt lat="43.63659" lon="3.70756">
        <ele>155.400726</ele>
        <time>2021-04-17T08:51:41.158Z</time>
      </trkpt>
      <trkpt lat="43.63656" lon="3.70762">
        <ele>155.989517</ele>
        <time>2021-04-17T08:51:43.816Z</time>
      </trkpt>
      <trkpt lat="43.63652" lon="3.70779">
        <ele>156.395142</ele>
        <time>2021-04-17T08:51:46.935Z</time>
      </trkpt>
      <trkpt lat="43.63649" lon="3.70794">
        <ele>156.698196</ele>
        <time>2021-04-17T08:51:49.503Z</time>
      </trkpt>
      <trkpt lat="43.63647" lon="3.70806">
        <ele>156.927567</ele>
        <time>2021-04-17T08:51:51.507Z</time>
      </trkpt>
      <trkpt lat="43.63645" lon="3.70818">
        <ele>157.062668</ele>
        <time>2021-04-17T08:51:53.286Z</time>
      </trkpt>
      <trkpt lat="43.63642" lon="3.7083">
        <ele>157.15007</ele>
        <time>2021-04-17T08:51:55.016Z</time>
      </trkpt>
      <trkpt lat="43.63638" lon="3.7084">
        <ele>157.333664</ele>
        <time>2021-04-17T08:51:56.799Z</time>
      </trkpt>
      <trkpt lat="43.63635" lon="3.70851">
        <ele>157.569748</ele>
        <time>2021-04-17T08:51:58.760Z</time>
      </trkpt>
      <trkpt lat="43.6363" lon="3.70864">
        <ele>157.78804</ele>
        <time>2021-04-17T08:52:01.014Z</time>
      </trkpt>
      <trkpt lat="43.63625" lon="3.7088">
        <ele>157.843323</ele>
        <time>2021-04-17T08:52:03.272Z</time>
      </trkpt>
      <trkpt lat="43.63618" lon="3.70896">
        <ele>157.698654</ele>
        <time>2021-04-17T08:52:05.142Z</time>
      </trkpt>
      <trkpt lat="43.63612" lon="3.70914">
        <ele>157.377518</ele>
        <time>2021-04-17T08:52:06.859Z</time>
      </trkpt>
      <trkpt lat="43.63604" lon="3.70929">
        <ele>157.003738</ele>
        <time>2021-04-17T08:52:08.381Z</time>
      </trkpt>
      <trkpt lat="43.63596" lon="3.70945">
        <ele>156.563919</ele>
        <time>2021-04-17T08:52:09.912Z</time>
      </trkpt>
      <trkpt lat="43.63588" lon="3.70946">
        <ele>156.27182</ele>
        <time>2021-04-17T08:52:10.742Z</time>
      </trkpt>
      <trkpt lat="43.63585" lon="3.70932">
        <ele>156.075607</ele>
        <time>2021-04-17T08:52:12.065Z</time>
      </trkpt>
      <trkpt lat="43.63582" lon="3.70918">
        <ele>156.155518</ele>
        <time>2021-04-17T08:52:14.016Z</time>
      </trkpt>
      <trkpt lat="43.63579" lon="3.70903">
        <ele>156.371384</ele>
        <time>2021-04-17T08:52:16.363Z</time>
      </trkpt>
      <trkpt lat="43.63579" lon="3.70888">
        <ele>156.509766</ele>
        <time>2021-04-17T08:52:18.476Z</time>
      </trkpt>
      <trkpt lat="43.63577" lon="3.70872">
        <ele>156.703537</ele>
        <time>2021-04-17T08:52:20.854Z</time>
      </trkpt>
      <trkpt lat="43.63575" lon="3.70855">
        <ele>156.872726</ele>
        <time>2021-04-17T08:52:23.301Z</time>
      </trkpt>
      <trkpt lat="43.63569" lon="3.70837">
        <ele>157.121262</ele>
        <time>2021-04-17T08:52:26.231Z</time>
      </trkpt>
      <trkpt lat="43.63561" lon="3.70821">
        <ele>157.32283</ele>
        <time>2021-04-17T08:52:29.014Z</time>
      </trkpt>
      <trkpt lat="43.63551" lon="3.70807">
        <ele>157.354813</ele>
        <time>2021-04-17T08:52:31.512Z</time>
      </trkpt>
      <trkpt lat="43.63544" lon="3.70792">
        <ele>157.279053</ele>
        <time>2021-04-17T08:52:33.549Z</time>
      </trkpt>
      <trkpt lat="43.63538" lon="3.70768">
        <ele>157.113113</ele>
        <time>2021-04-17T08:52:36.145Z</time>
      </trkpt>
      <trkpt lat="43.63535" lon="3.70754">
        <ele>157.180984</ele>
        <time>2021-04-17T08:52:38.075Z</time>
      </trkpt>
      <trkpt lat="43.63533" lon="3.70739">
        <ele>157.273926</ele>
        <time>2021-04-17T08:52:40.130Z</time>
      </trkpt>
      <trkpt lat="43.63535" lon="3.70725">
        <ele>157.361328</ele>
        <time>2021-04-17T08:52:42.054Z</time>
      </trkpt>
      <trkpt lat="43.6354" lon="3.70713">
        <ele>157.65918</ele>
        <time>2021-04-17T08:52:44.421Z</time>
      </trkpt>
      <trkpt lat="43.63545" lon="3.70695">
        <ele>157.963135</ele>
        <time>2021-04-17T08:52:47.416Z</time>
      </trkpt>
      <trkpt lat="43.63545" lon="3.70677">
        <ele>158.164795</ele>
        <time>2021-04-17T08:52:50.025Z</time>
      </trkpt>
      <trkpt lat="43.63544" lon="3.70656">
        <ele>158.187256</ele>
        <time>2021-04-17T08:52:52.678Z</time>
      </trkpt>
      <trkpt lat="43.63542" lon="3.70632">
        <ele>158.160721</ele>
        <time>2021-04-17T08:52:55.615Z</time>
      </trkpt>
      <trkpt lat="43.63538" lon="3.70609">
        <ele>158.143845</ele>
        <time>2021-04-17T08:52:58.513Z</time>
      </trkpt>
      <trkpt lat="43.63535" lon="3.70586">
        <ele>158.139969</ele>
        <time>2021-04-17T08:53:01.410Z</time>
      </trkpt>
      <trkpt lat="43.63535" lon="3.7056">
        <ele>158.132935</ele>
        <time>2021-04-17T08:53:04.625Z</time>
      </trkpt>
      <trkpt lat="43.63535" lon="3.70531">
        <ele>158.00383</ele>
        <time>2021-04-17T08:53:07.921Z</time>
      </trkpt>
      <trkpt lat="43.63535" lon="3.70503">
        <ele>157.759521</ele>
        <time>2021-04-17T08:53:10.672Z</time>
      </trkpt>
      <trkpt lat="43.63536" lon="3.70476">
        <ele>157.688568</ele>
        <time>2021-04-17T08:53:13.858Z</time>
      </trkpt>
      <trkpt lat="43.63535" lon="3.70452">
        <ele>157.766861</ele>
        <time>2021-04-17T08:53:16.976Z</time>
      </trkpt>
      <trkpt lat="43.63528" lon="3.70428">
        <ele>157.940826</ele>
        <time>2021-04-17T08:53:20.494Z</time>
      </trkpt>
      <trkpt lat="43.63521" lon="3.70403">
        <ele>158</ele>
        <time>2021-04-17T08:53:23.924Z</time>
      </trkpt>
      <trkpt lat="43.63513" lon="3.7038">
        <ele>158</ele>
        <time>2021-04-17T08:53:27.097Z</time>
      </trkpt>
      <trkpt lat="43.63507" lon="3.70359">
        <ele>157.999405</ele>
        <time>2021-04-17T08:53:29.904Z</time>
      </trkpt>
      <trkpt lat="43.63504" lon="3.70348">
        <ele>157.967453</ele>
        <time>2021-04-17T08:53:31.286Z</time>
      </trkpt>
      <trkpt lat="43.63491" lon="3.70343">
        <ele>157.943649</ele>
        <time>2021-04-17T08:53:33.544Z</time>
      </trkpt>
      <trkpt lat="43.63482" lon="3.70341">
        <ele>157.817978</ele>
        <time>2021-04-17T08:53:34.755Z</time>
      </trkpt>
      <trkpt lat="43.63469" lon="3.70341">
        <ele>157.267899</ele>
        <time>2021-04-17T08:53:36.023Z</time>
      </trkpt>
      <trkpt lat="43.63458" lon="3.70337">
        <ele>156.59375</ele>
        <time>2021-04-17T08:53:36.982Z</time>
      </trkpt>
      <trkpt lat="43.63443" lon="3.70333">
        <ele>156.042648</ele>
        <time>2021-04-17T08:53:38.564Z</time>
      </trkpt>
      <trkpt lat="43.63428" lon="3.70327">
        <ele>155.086594</ele>
        <time>2021-04-17T08:53:39.860Z</time>
      </trkpt>
      <trkpt lat="43.6341" lon="3.70325">
        <ele>154.157883</ele>
        <time>2021-04-17T08:53:41.484Z</time>
      </trkpt>
      <trkpt lat="43.63394" lon="3.70327">
        <ele>153.266357</ele>
        <time>2021-04-17T08:53:42.881Z</time>
      </trkpt>
      <trkpt lat="43.63378" lon="3.70322">
        <ele>152.376053</ele>
        <time>2021-04-17T08:53:44.321Z</time>
      </trkpt>
      <trkpt lat="43.63368" lon="3.70303">
        <ele>151.041824</ele>
        <time>2021-04-17T08:53:45.798Z</time>
      </trkpt>
      <trkpt lat="43.63362" lon="3.7028">
        <ele>149.863037</ele>
        <time>2021-04-17T08:53:47.206Z</time>
      </trkpt>
      <trkpt lat="43.63354" lon="3.70256">
        <ele>149.356857</ele>
        <time>2021-04-17T08:53:49.394Z</time>
      </trkpt>
      <trkpt lat="43.63348" lon="3.70232">
        <ele>148.791824</ele>
        <time>2021-04-17T08:53:51.403Z</time>
      </trkpt>
      <trkpt lat="43.63345" lon="3.702">
        <ele>148.303909</ele>
        <time>2021-04-17T08:53:54.249Z</time>
      </trkpt>
      <trkpt lat="43.63342" lon="3.70167">
        <ele>147.672318</ele>
        <time>2021-04-17T08:53:57.010Z</time>
      </trkpt>
      <trkpt lat="43.63336" lon="3.70137">
        <ele>146.79924</ele>
        <time>2021-04-17T08:53:59.283Z</time>
      </trkpt>
      <trkpt lat="43.63334" lon="3.70106">
        <ele>145.576828</ele>
        <time>2021-04-17T08:54:01.261Z</time>
      </trkpt>
      <trkpt lat="43.63331" lon="3.70075">
        <ele>144.518967</ele>
        <time>2021-04-17T08:54:03.382Z</time>
      </trkpt>
      <trkpt lat="43.63331" lon="3.70044">
        <ele>143.868484</ele>
        <time>2021-04-17T08:54:05.881Z</time>
      </trkpt>
      <trkpt lat="43.6333" lon="3.70016">
        <ele>143.243729</ele>
        <time>2021-04-17T08:54:08.098Z</time>
      </trkpt>
      <trkpt lat="43.63332" lon="3.69984">
        <ele>142.665146</ele>
        <time>2021-04-17T08:54:10.805Z</time>
      </trkpt>
      <trkpt lat="43.63334" lon="3.69949">
        <ele>142.09404</ele>
        <time>2021-04-17T08:54:13.845Z</time>
      </trkpt>
      <trkpt lat="43.63325" lon="3.69917">
        <ele>141.449478</ele>
        <time>2021-04-17T08:54:16.704Z</time>
      </trkpt>
      <trkpt lat="43.63324" lon="3.69896">
        <ele>139.963867</ele>
        <time>2021-04-17T08:54:18.027Z</time>
      </trkpt>
      <trkpt lat="43.63321" lon="3.69877">
        <ele>139.06282</ele>
        <time>2021-04-17T08:54:19.170Z</time>
      </trkpt>
      <trkpt lat="43.63323" lon="3.69855">
        <ele>138.705566</ele>
        <time>2021-04-17T08:54:21.094Z</time>
      </trkpt>
      <trkpt lat="43.63325" lon="3.69832">
        <ele>137.873215</ele>
        <time>2021-04-17T08:54:22.626Z</time>
      </trkpt>
      <trkpt lat="43.63324" lon="3.69816">
        <ele>137.078781</ele>
        <time>2021-04-17T08:54:23.635Z</time>
      </trkpt>
      <trkpt lat="43.63322" lon="3.69812">
        <ele>136.888184</ele>
        <time>2021-04-17T08:54:23.944Z</time>
      </trkpt>
      <trkpt lat="43.63316" lon="3.69796">
        <ele>136.037598</ele>
        <time>2021-04-17T08:54:24.994Z</time>
      </trkpt>
      <trkpt lat="43.63316" lon="3.69788">
        <ele>135.667801</ele>
        <time>2021-04-17T08:54:25.464Z</time>
      </trkpt>
      <trkpt lat="43.63318" lon="3.69777">
        <ele>135.394531</ele>
        <time>2021-04-17T08:54:26.338Z</time>
      </trkpt>
      <trkpt lat="43.63319" lon="3.69774">
        <ele>135.299973</ele>
        <time>2021-04-17T08:54:26.578Z</time>
      </trkpt>
      <trkpt lat="43.63324" lon="3.69773">
        <ele>135.243332</ele>
        <time>2021-04-17T08:54:27.271Z</time>
      </trkpt>
      <trkpt lat="43.63329" lon="3.69774">
        <ele>135.443527</ele>
        <time>2021-04-17T08:54:28.634Z</time>
      </trkpt>
      <trkpt lat="43.63336" lon="3.69774">
        <ele>135.777664</ele>
        <time>2021-04-17T08:54:30.707Z</time>
      </trkpt>
      <trkpt lat="43.63345" lon="3.69777">
        <ele>136.465164</ele>
        <time>2021-04-17T08:54:34.014Z</time>
      </trkpt>
      <trkpt lat="43.63349" lon="3.69774">
        <ele>136.749512</ele>
        <time>2021-04-17T08:54:35.504Z</time>
      </trkpt>
      <trkpt lat="43.6335" lon="3.69765">
        <ele>136.893875</ele>
        <time>2021-04-17T08:54:36.921Z</time>
      </trkpt>
      <trkpt lat="43.6335" lon="3.69741">
        <ele>136.759277</ele>
        <time>2021-04-17T08:54:39.418Z</time>
      </trkpt>
      <trkpt lat="43.63347" lon="3.69714">
        <ele>136.194016</ele>
        <time>2021-04-17T08:54:41.629Z</time>
      </trkpt>
      <trkpt lat="43.6335" lon="3.69684">
        <ele>135.317551</ele>
        <time>2021-04-17T08:54:43.815Z</time>
      </trkpt>
      <trkpt lat="43.63351" lon="3.6968">
        <ele>134.594681</ele>
        <time>2021-04-17T08:54:44.081Z</time>
      </trkpt>
      <trkpt lat="43.63345" lon="3.69675">
        <ele>134.331009</ele>
        <time>2021-04-17T08:54:44.796Z</time>
      </trkpt>
      <trkpt lat="43.63348" lon="3.69668">
        <ele>134.073975</ele>
        <time>2021-04-17T08:54:45.363Z</time>
      </trkpt>
      <trkpt lat="43.63351" lon="3.69662">
        <ele>133.876846</ele>
        <time>2021-04-17T08:54:45.903Z</time>
      </trkpt>
      <trkpt lat="43.63355" lon="3.69648">
        <ele>133.823563</ele>
        <time>2021-04-17T08:54:47.644Z</time>
      </trkpt>
      <trkpt lat="43.63357" lon="3.69635">
        <ele>133.696609</ele>
        <time>2021-04-17T08:54:48.931Z</time>
      </trkpt>
      <trkpt lat="43.63359" lon="3.6963">
        <ele>133.422424</ele>
        <time>2021-04-17T08:54:49.261Z</time>
      </trkpt>
      <trkpt lat="43.63362" lon="3.69628">
        <ele>133.314575</ele>
        <time>2021-04-17T08:54:49.619Z</time>
      </trkpt>
      <trkpt lat="43.63366" lon="3.69614">
        <ele>133.354126</ele>
        <time>2021-04-17T08:54:51.556Z</time>
      </trkpt>
      <trkpt lat="43.63369" lon="3.69595">
        <ele>133.162064</ele>
        <time>2021-04-17T08:54:53.428Z</time>
      </trkpt>
      <trkpt lat="43.63375" lon="3.69569">
        <ele>132.643066</ele>
        <time>2021-04-17T08:54:55.692Z</time>
      </trkpt>
      <trkpt lat="43.63385" lon="3.69549">
        <ele>132.129883</ele>
        <time>2021-04-17T08:54:57.648Z</time>
      </trkpt>
      <trkpt lat="43.6339" lon="3.69519">
        <ele>131.76178</ele>
        <time>2021-04-17T08:55:00.507Z</time>
      </trkpt>
      <trkpt lat="43.63394" lon="3.69488">
        <ele>131.300308</ele>
        <time>2021-04-17T08:55:03.305Z</time>
      </trkpt>
      <trkpt lat="43.63399" lon="3.69452">
        <ele>130.900238</ele>
        <time>2021-04-17T08:55:06.771Z</time>
      </trkpt>
      <trkpt lat="43.63408" lon="3.6942">
        <ele>130.164337</ele>
        <time>2021-04-17T08:55:09.520Z</time>
      </trkpt>
      <trkpt lat="43.63425" lon="3.69395">
        <ele>129.52504</ele>
        <time>2021-04-17T08:55:12.383Z</time>
      </trkpt>
      <trkpt lat="43.63452" lon="3.69372">
        <ele>128.763885</ele>
        <time>2021-04-17T08:55:16.113Z</time>
      </trkpt>
      <trkpt lat="43.63464" lon="3.6934">
        <ele>128.254807</ele>
        <time>2021-04-17T08:55:19.342Z</time>
      </trkpt>
      <trkpt lat="43.63474" lon="3.6932">
        <ele>127.795326</ele>
        <time>2021-04-17T08:55:21.363Z</time>
      </trkpt>
      <trkpt lat="43.63479" lon="3.69309">
        <ele>127.328941</ele>
        <time>2021-04-17T08:55:22.222Z</time>
      </trkpt>
      <trkpt lat="43.63483" lon="3.69291">
        <ele>127.236572</ele>
        <time>2021-04-17T08:55:24.343Z</time>
      </trkpt>
      <trkpt lat="43.63488" lon="3.6927">
        <ele>127.193848</ele>
        <time>2021-04-17T08:55:26.985Z</time>
      </trkpt>
      <trkpt lat="43.63489" lon="3.69248">
        <ele>127.219856</ele>
        <time>2021-04-17T08:55:29.768Z</time>
      </trkpt>
      <trkpt lat="43.63492" lon="3.69229">
        <ele>127.453407</ele>
        <time>2021-04-17T08:55:32.620Z</time>
      </trkpt>
      <trkpt lat="43.63496" lon="3.69207">
        <ele>127.649925</ele>
        <time>2021-04-17T08:55:35.789Z</time>
      </trkpt>
      <trkpt lat="43.63503" lon="3.69186">
        <ele>127.896118</ele>
        <time>2021-04-17T08:55:39.113Z</time>
      </trkpt>
      <trkpt lat="43.63508" lon="3.69165">
        <ele>127.994629</ele>
        <time>2021-04-17T08:55:42.027Z</time>
      </trkpt>
      <trkpt lat="43.63514" lon="3.69144">
        <ele>128</ele>
        <time>2021-04-17T08:55:44.843Z</time>
      </trkpt>
      <trkpt lat="43.63519" lon="3.69122">
        <ele>128.212646</ele>
        <time>2021-04-17T08:55:48.090Z</time>
      </trkpt>
      <trkpt lat="43.63525" lon="3.69099">
        <ele>129.729736</ele>
        <time>2021-04-17T08:55:55.033Z</time>
      </trkpt>
      <trkpt lat="43.63531" lon="3.69077">
        <ele>134.037674</ele>
        <time>2021-04-17T08:56:06.311Z</time>
      </trkpt>
      <trkpt lat="43.63537" lon="3.69054">
        <ele>139.57283</ele>
        <time>2021-04-17T08:56:18.040Z</time>
      </trkpt>
      <trkpt lat="43.63543" lon="3.69031">
        <ele>140.993652</ele>
        <time>2021-04-17T08:56:24.674Z</time>
      </trkpt>
      <trkpt lat="43.63548" lon="3.69008">
        <ele>141</ele>
        <time>2021-04-17T08:56:27.671Z</time>
      </trkpt>
      <trkpt lat="43.63554" lon="3.68986">
        <ele>141.010498</ele>
        <time>2021-04-17T08:56:30.612Z</time>
      </trkpt>
      <trkpt lat="43.6356" lon="3.68964">
        <ele>141.221115</ele>
        <time>2021-04-17T08:56:33.910Z</time>
      </trkpt>
      <trkpt lat="43.63566" lon="3.68943">
        <ele>141.474609</ele>
        <time>2021-04-17T08:56:37.183Z</time>
      </trkpt>
      <trkpt lat="43.63572" lon="3.68919">
        <ele>141.937195</ele>
        <time>2021-04-17T08:56:41.287Z</time>
      </trkpt>
      <trkpt lat="43.63578" lon="3.68902">
        <ele>142.513565</ele>
        <time>2021-04-17T08:56:45.116Z</time>
      </trkpt>
      <trkpt lat="43.63584" lon="3.68886">
        <ele>143.665665</ele>
        <time>2021-04-17T08:56:50.350Z</time>
      </trkpt>
      <trkpt lat="43.63588" lon="3.68872">
        <ele>144.53273</ele>
        <time>2021-04-17T08:56:54.411Z</time>
      </trkpt>
      <trkpt lat="43.63592" lon="3.68865">
        <ele>145.129105</ele>
        <time>2021-04-17T08:56:57.096Z</time>
      </trkpt>
      <trkpt lat="43.63591" lon="3.68873">
        <ele>145.389084</ele>
        <time>2021-04-17T08:56:58.794Z</time>
      </trkpt>
      <trkpt lat="43.63585" lon="3.68876">
        <ele>145.352859</ele>
        <time>2021-04-17T08:56:59.803Z</time>
      </trkpt>
      <trkpt lat="43.63576" lon="3.68867">
        <ele>145.260483</ele>
        <time>2021-04-17T08:57:01.388Z</time>
      </trkpt>
      <trkpt lat="43.63562" lon="3.68866">
        <ele>145.714417</ele>
        <time>2021-04-17T08:57:04.813Z</time>
      </trkpt>
      <trkpt lat="43.63549" lon="3.68866">
        <ele>145.982269</ele>
        <time>2021-04-17T08:57:07.566Z</time>
      </trkpt>
      <trkpt lat="43.63538" lon="3.68866">
        <ele>146.070969</ele>
        <time>2021-04-17T08:57:09.608Z</time>
      </trkpt>
      <trkpt lat="43.63527" lon="3.68866">
        <ele>146.049957</ele>
        <time>2021-04-17T08:57:11.444Z</time>
      </trkpt>
      <trkpt lat="43.63514" lon="3.68868">
        <ele>145.99617</ele>
        <time>2021-04-17T08:57:13.559Z</time>
      </trkpt>
      <trkpt lat="43.63501" lon="3.68873">
        <ele>145.872391</ele>
        <time>2021-04-17T08:57:15.462Z</time>
      </trkpt>
      <trkpt lat="43.63491" lon="3.68873">
        <ele>145.6595</ele>
        <time>2021-04-17T08:57:16.674Z</time>
      </trkpt>
      <trkpt lat="43.63485" lon="3.68856">
        <ele>146.554947</ele>
        <time>2021-04-17T08:57:21.250Z</time>
      </trkpt>
      <trkpt lat="43.63487" lon="3.68843">
        <ele>147.743042</ele>
        <time>2021-04-17T08:57:26.826Z</time>
      </trkpt>
      <trkpt lat="43.63487" lon="3.68835">
        <ele>150.23378</ele>
        <time>2021-04-17T08:57:30.664Z</time>
      </trkpt>
      <trkpt lat="43.6348" lon="3.68826">
        <ele>152.555603</ele>
        <time>2021-04-17T08:57:37.002Z</time>
      </trkpt>
      <trkpt lat="43.63483" lon="3.68822">
        <ele>153.68541</ele>
        <time>2021-04-17T08:57:39.766Z</time>
      </trkpt>
      <trkpt lat="43.63485" lon="3.68816">
        <ele>154.664825</ele>
        <time>2021-04-17T08:57:42.935Z</time>
      </trkpt>
      <trkpt lat="43.63482" lon="3.68813">
        <ele>155.803467</ele>
        <time>2021-04-17T08:57:45.389Z</time>
      </trkpt>
      <trkpt lat="43.63479" lon="3.68812">
        <ele>156.574997</ele>
        <time>2021-04-17T08:57:47.435Z</time>
      </trkpt>
      <trkpt lat="43.63475" lon="3.68812">
        <ele>156.617584</ele>
        <time>2021-04-17T08:57:48.197Z</time>
      </trkpt>
      <trkpt lat="43.6347" lon="3.6881">
        <ele>156.646255</ele>
        <time>2021-04-17T08:57:49.139Z</time>
      </trkpt>
      <trkpt lat="43.63466" lon="3.6881">
        <ele>156.694855</ele>
        <time>2021-04-17T08:57:49.912Z</time>
      </trkpt>
      <trkpt lat="43.63462" lon="3.68807">
        <ele>156.723267</ele>
        <time>2021-04-17T08:57:50.742Z</time>
      </trkpt>
      <trkpt lat="43.63459" lon="3.68804">
        <ele>157.07576</ele>
        <time>2021-04-17T08:57:52.322Z</time>
      </trkpt>
      <trkpt lat="43.63456" lon="3.688">
        <ele>157.650192</ele>
        <time>2021-04-17T08:57:55.086Z</time>
      </trkpt>
      <trkpt lat="43.63453" lon="3.68798">
        <ele>158.063309</ele>
        <time>2021-04-17T08:57:57.029Z</time>
      </trkpt>
      <trkpt lat="43.63449" lon="3.68786">
        <ele>159.638412</ele>
        <time>2021-04-17T08:58:03.368Z</time>
      </trkpt>
      <trkpt lat="43.63437" lon="3.68783">
        <ele>161.664307</ele>
        <time>2021-04-17T08:58:11.451Z</time>
      </trkpt>
      <trkpt lat="43.63427" lon="3.68783">
        <ele>161.490433</ele>
        <time>2021-04-17T08:58:12.721Z</time>
      </trkpt>
      <trkpt lat="43.63414" lon="3.68785">
        <ele>161.199112</ele>
        <time>2021-04-17T08:58:14.289Z</time>
      </trkpt>
      <trkpt lat="43.63397" lon="3.68789">
        <ele>160.397568</ele>
        <time>2021-04-17T08:58:15.909Z</time>
      </trkpt>
      <trkpt lat="43.63381" lon="3.68792">
        <ele>158.637451</ele>
        <time>2021-04-17T08:58:17.311Z</time>
      </trkpt>
      <trkpt lat="43.6336" lon="3.68799">
        <ele>157.097305</ele>
        <time>2021-04-17T08:58:19.187Z</time>
      </trkpt>
      <trkpt lat="43.6334" lon="3.68803">
        <ele>155.181091</ele>
        <time>2021-04-17T08:58:20.942Z</time>
      </trkpt>
      <trkpt lat="43.63324" lon="3.68807">
        <ele>153.767273</ele>
        <time>2021-04-17T08:58:22.354Z</time>
      </trkpt>
      <trkpt lat="43.63307" lon="3.68809">
        <ele>152.665588</ele>
        <time>2021-04-17T08:58:23.734Z</time>
      </trkpt>
      <trkpt lat="43.6329" lon="3.68807">
        <ele>152.024597</ele>
        <time>2021-04-17T08:58:25.475Z</time>
      </trkpt>
      <trkpt lat="43.63272" lon="3.68804">
        <ele>151.525818</ele>
        <time>2021-04-17T08:58:27.526Z</time>
      </trkpt>
      <trkpt lat="43.63253" lon="3.68793">
        <ele>151.475052</ele>
        <time>2021-04-17T08:58:30.938Z</time>
      </trkpt>
      <trkpt lat="43.63234" lon="3.68783">
        <ele>151.904785</ele>
        <time>2021-04-17T08:58:35.271Z</time>
      </trkpt>
      <trkpt lat="43.63213" lon="3.68774">
        <ele>152.44548</ele>
        <time>2021-04-17T08:58:40.148Z</time>
      </trkpt>
      <trkpt lat="43.63193" lon="3.68761">
        <ele>152.882706</ele>
        <time>2021-04-17T08:58:44.787Z</time>
      </trkpt>
      <trkpt lat="43.63172" lon="3.68749">
        <ele>153.261719</ele>
        <time>2021-04-17T08:58:49.396Z</time>
      </trkpt>
      <trkpt lat="43.63149" lon="3.68737">
        <ele>153.359848</ele>
        <time>2021-04-17T08:58:53.781Z</time>
      </trkpt>
      <trkpt lat="43.63129" lon="3.68725">
        <ele>153.013519</ele>
        <time>2021-04-17T08:58:56.602Z</time>
      </trkpt>
      <trkpt lat="43.6311" lon="3.68715">
        <ele>152.409988</ele>
        <time>2021-04-17T08:58:58.849Z</time>
      </trkpt>
      <trkpt lat="43.63091" lon="3.68704">
        <ele>151.772629</ele>
        <time>2021-04-17T08:59:01.097Z</time>
      </trkpt>
      <trkpt lat="43.63032" lon="3.6867">
        <ele>150.052536</ele>
        <time>2021-04-17T08:59:08.377Z</time>
      </trkpt>
      <trkpt lat="43.63016" lon="3.68659">
        <ele>150.892502</ele>
        <time>2021-04-17T08:59:13.643Z</time>
      </trkpt>
      <trkpt lat="43.63" lon="3.68649">
        <ele>151.966354</ele>
        <time>2021-04-17T08:59:19.336Z</time>
      </trkpt>
      <trkpt lat="43.62983" lon="3.68639">
        <ele>152.805557</ele>
        <time>2021-04-17T08:59:24.726Z</time>
      </trkpt>
      <trkpt lat="43.6297" lon="3.68623">
        <ele>153.919785</ele>
        <time>2021-04-17T08:59:30.486Z</time>
      </trkpt>
      <trkpt lat="43.62968" lon="3.68611">
        <ele>155.111557</ele>
        <time>2021-04-17T08:59:36.394Z</time>
      </trkpt>
      <trkpt lat="43.62959" lon="3.68644">
        <ele>156.145966</ele>
        <time>2021-04-17T08:59:43.370Z</time>
      </trkpt>
      <trkpt lat="43.62947" lon="3.68666">
        <ele>155.057571</ele>
        <time>2021-04-17T08:59:45.116Z</time>
      </trkpt>
      <trkpt lat="43.62928" lon="3.68672">
        <ele>154.449585</ele>
        <time>2021-04-17T08:59:47.237Z</time>
      </trkpt>
      <trkpt lat="43.62916" lon="3.68681">
        <ele>153.094894</ele>
        <time>2021-04-17T08:59:48.423Z</time>
      </trkpt>
      <trkpt lat="43.62928" lon="3.68693">
        <ele>152.417679</ele>
        <time>2021-04-17T08:59:49.824Z</time>
      </trkpt>
      <trkpt lat="43.6293" lon="3.68712">
        <ele>151.556046</ele>
        <time>2021-04-17T08:59:50.970Z</time>
      </trkpt>
      <trkpt lat="43.62918" lon="3.68736">
        <ele>150.282883</ele>
        <time>2021-04-17T08:59:52.735Z</time>
      </trkpt>
      <trkpt lat="43.62906" lon="3.68762">
        <ele>149.684692</ele>
        <time>2021-04-17T08:59:55.280Z</time>
      </trkpt>
      <trkpt lat="43.62896" lon="3.68783">
        <ele>147.275055</ele>
        <time>2021-04-17T08:59:56.860Z</time>
      </trkpt>
      <trkpt lat="43.62886" lon="3.6881">
        <ele>146.887314</ele>
        <time>2021-04-17T08:59:59.639Z</time>
      </trkpt>
      <trkpt lat="43.62887" lon="3.68825">
        <ele>145.48645</ele>
        <time>2021-04-17T09:00:00.586Z</time>
      </trkpt>
      <trkpt lat="43.62872" lon="3.68834">
        <ele>144.559402</ele>
        <time>2021-04-17T09:00:01.993Z</time>
      </trkpt>
      <trkpt lat="43.62858" lon="3.68857">
        <ele>144.480972</ele>
        <time>2021-04-17T09:00:05.535Z</time>
      </trkpt>
      <trkpt lat="43.62842" lon="3.6888">
        <ele>144.008972</ele>
        <time>2021-04-17T09:00:08.363Z</time>
      </trkpt>
      <trkpt lat="43.6283" lon="3.68895">
        <ele>143.946091</ele>
        <time>2021-04-17T09:00:10.988Z</time>
      </trkpt>
      <trkpt lat="43.62823" lon="3.68913">
        <ele>144.137436</ele>
        <time>2021-04-17T09:00:13.871Z</time>
      </trkpt>
      <trkpt lat="43.6281" lon="3.68931">
        <ele>144.346054</ele>
        <time>2021-04-17T09:00:17.401Z</time>
      </trkpt>
      <trkpt lat="43.62801" lon="3.6894">
        <ele>144.80278</ele>
        <time>2021-04-17T09:00:20.463Z</time>
      </trkpt>
      <trkpt lat="43.62786" lon="3.6895">
        <ele>145.143631</ele>
        <time>2021-04-17T09:00:23.986Z</time>
      </trkpt>
      <trkpt lat="43.62772" lon="3.68965">
        <ele>145.466141</ele>
        <time>2021-04-17T09:00:27.640Z</time>
      </trkpt>
      <trkpt lat="43.62759" lon="3.6898">
        <ele>145.824371</ele>
        <time>2021-04-17T09:00:31.250Z</time>
      </trkpt>
      <trkpt lat="43.62745" lon="3.68995">
        <ele>146.141907</ele>
        <time>2021-04-17T09:00:34.892Z</time>
      </trkpt>
      <trkpt lat="43.62739" lon="3.6902">
        <ele>146.450058</ele>
        <time>2021-04-17T09:00:38.738Z</time>
      </trkpt>
      <trkpt lat="43.62739" lon="3.69049">
        <ele>147.000412</ele>
        <time>2021-04-17T09:00:43.485Z</time>
      </trkpt>
      <trkpt lat="43.62738" lon="3.69081">
        <ele>147.006348</ele>
        <time>2021-04-17T09:00:47.479Z</time>
      </trkpt>
      <trkpt lat="43.62738" lon="3.69113">
        <ele>146.674149</ele>
        <time>2021-04-17T09:00:50.533Z</time>
      </trkpt>
      <trkpt lat="43.62738" lon="3.69145">
        <ele>142.900391</ele>
        <time>2021-04-17T09:00:52.545Z</time>
      </trkpt>
      <trkpt lat="43.62737" lon="3.69178">
        <ele>140.009933</ele>
        <time>2021-04-17T09:00:54.621Z</time>
      </trkpt>
      <trkpt lat="43.62737" lon="3.69212">
        <ele>138.642502</ele>
        <time>2021-04-17T09:00:56.759Z</time>
      </trkpt>
      <trkpt lat="43.62737" lon="3.69246">
        <ele>138.08168</ele>
        <time>2021-04-17T09:00:59.693Z</time>
      </trkpt>
      <trkpt lat="43.62737" lon="3.6928">
        <ele>137.663452</ele>
        <time>2021-04-17T09:01:02.833Z</time>
      </trkpt>
      <trkpt lat="43.62737" lon="3.69313">
        <ele>137.190857</ele>
        <time>2021-04-17T09:01:05.781Z</time>
      </trkpt>
      <trkpt lat="43.62745" lon="3.69335">
        <ele>137.071838</ele>
        <time>2021-04-17T09:01:08.559Z</time>
      </trkpt>
      <trkpt lat="43.62746" lon="3.69351">
        <ele>136.961014</ele>
        <time>2021-04-17T09:01:10.190Z</time>
      </trkpt>
      <trkpt lat="43.62751" lon="3.69351">
        <ele>136.889084</ele>
        <time>2021-04-17T09:01:10.849Z</time>
      </trkpt>
      <trkpt lat="43.62746" lon="3.69336">
        <ele>136.865189</ele>
        <time>2021-04-17T09:01:12.842Z</time>
      </trkpt>
      <trkpt lat="43.62739" lon="3.69319">
        <ele>136.90387</ele>
        <time>2021-04-17T09:01:15.338Z</time>
      </trkpt>
      <trkpt lat="43.62739" lon="3.69297">
        <ele>136.986221</ele>
        <time>2021-04-17T09:01:18.210Z</time>
      </trkpt>
      <trkpt lat="43.62741" lon="3.69279">
        <ele>137.010208</ele>
        <time>2021-04-17T09:01:20.514Z</time>
      </trkpt>
      <trkpt lat="43.6274" lon="3.69263">
        <ele>137.021683</ele>
        <time>2021-04-17T09:01:22.530Z</time>
      </trkpt>
      <trkpt lat="43.62739" lon="3.6924">
        <ele>137.19957</ele>
        <time>2021-04-17T09:01:25.706Z</time>
      </trkpt>
      <trkpt lat="43.6274" lon="3.69214">
        <ele>137.528183</ele>
        <time>2021-04-17T09:01:29.561Z</time>
      </trkpt>
      <trkpt lat="43.6274" lon="3.69187">
        <ele>137.84465</ele>
        <time>2021-04-17T09:01:33.504Z</time>
      </trkpt>
      <trkpt lat="43.6274" lon="3.6916">
        <ele>138.275833</ele>
        <time>2021-04-17T09:01:37.713Z</time>
      </trkpt>
      <trkpt lat="43.6274" lon="3.69132">
        <ele>138.587952</ele>
        <time>2021-04-17T09:01:41.768Z</time>
      </trkpt>
      <trkpt lat="43.62742" lon="3.69102">
        <ele>139.856903</ele>
        <time>2021-04-17T09:01:48.693Z</time>
      </trkpt>
      <trkpt lat="43.62742" lon="3.69072">
        <ele>143.119186</ele>
        <time>2021-04-17T09:02:03.087Z</time>
      </trkpt>
      <trkpt lat="43.62742" lon="3.69042">
        <ele>145.206451</ele>
        <time>2021-04-17T09:02:12.437Z</time>
      </trkpt>
      <trkpt lat="43.62742" lon="3.69013">
        <ele>146.900391</ele>
        <time>2021-04-17T09:02:20.333Z</time>
      </trkpt>
      <trkpt lat="43.62751" lon="3.68988">
        <ele>146.888199</ele>
        <time>2021-04-17T09:02:23.775Z</time>
      </trkpt>
      <trkpt lat="43.62769" lon="3.68968">
        <ele>146.64827</ele>
        <time>2021-04-17T09:02:26.979Z</time>
      </trkpt>
      <trkpt lat="43.62787" lon="3.68949">
        <ele>145.981339</ele>
        <time>2021-04-17T09:02:29.490Z</time>
      </trkpt>
      <trkpt lat="43.62798" lon="3.68932">
        <ele>145.583801</ele>
        <time>2021-04-17T09:02:31.429Z</time>
      </trkpt>
      <trkpt lat="43.62795" lon="3.68906">
        <ele>145.347717</ele>
        <time>2021-04-17T09:02:34.005Z</time>
      </trkpt>
      <trkpt lat="43.62789" lon="3.6888">
        <ele>145.408279</ele>
        <time>2021-04-17T09:02:37.497Z</time>
      </trkpt>
      <trkpt lat="43.62782" lon="3.68854">
        <ele>145.745956</ele>
        <time>2021-04-17T09:02:41.576Z</time>
      </trkpt>
      <trkpt lat="43.62776" lon="3.68829">
        <ele>146.327866</ele>
        <time>2021-04-17T09:02:46.124Z</time>
      </trkpt>
      <trkpt lat="43.62771" lon="3.68803">
        <ele>147.020004</ele>
        <time>2021-04-17T09:02:51.086Z</time>
      </trkpt>
      <trkpt lat="43.62765" lon="3.68773">
        <ele>147.931183</ele>
        <time>2021-04-17T09:02:57.236Z</time>
      </trkpt>
      <trkpt lat="43.62761" lon="3.68748">
        <ele>148.525528</ele>
        <time>2021-04-17T09:03:01.745Z</time>
      </trkpt>
      <trkpt lat="43.62757" lon="3.68725">
        <ele>149.85791</ele>
        <time>2021-04-17T09:03:08.037Z</time>
      </trkpt>
      <trkpt lat="43.62754" lon="3.68704">
        <ele>150.782364</ele>
        <time>2021-04-17T09:03:13.008Z</time>
      </trkpt>
      <trkpt lat="43.62751" lon="3.68683">
        <ele>151.514175</ele>
        <time>2021-04-17T09:03:17.580Z</time>
      </trkpt>
      <trkpt lat="43.6275" lon="3.68662">
        <ele>152.210403</ele>
        <time>2021-04-17T09:03:22.032Z</time>
      </trkpt>
      <trkpt lat="43.62746" lon="3.68642">
        <ele>152.803787</ele>
        <time>2021-04-17T09:03:26.077Z</time>
      </trkpt>
      <trkpt lat="43.62754" lon="3.6863">
        <ele>153.521729</ele>
        <time>2021-04-17T09:03:29.896Z</time>
      </trkpt>
      <trkpt lat="43.62772" lon="3.6864">
        <ele>154.104736</ele>
        <time>2021-04-17T09:03:34.496Z</time>
      </trkpt>
      <trkpt lat="43.62788" lon="3.6865">
        <ele>153.940674</ele>
        <time>2021-04-17T09:03:36.967Z</time>
      </trkpt>
      <trkpt lat="43.62796" lon="3.6865">
        <ele>153.51123</ele>
        <time>2021-04-17T09:03:37.673Z</time>
      </trkpt>
      <trkpt lat="43.62811" lon="3.68655">
        <ele>153.438721</ele>
        <time>2021-04-17T09:03:40.146Z</time>
      </trkpt>
      <trkpt lat="43.62832" lon="3.68661">
        <ele>153.274734</ele>
        <time>2021-04-17T09:03:43.233Z</time>
      </trkpt>
      <trkpt lat="43.62853" lon="3.68664">
        <ele>152.979141</ele>
        <time>2021-04-17T09:03:46.029Z</time>
      </trkpt>
      <trkpt lat="43.62873" lon="3.68669">
        <ele>152.805557</ele>
        <time>2021-04-17T09:03:48.919Z</time>
      </trkpt>
      <trkpt lat="43.62894" lon="3.68674">
        <ele>152.545471</ele>
        <time>2021-04-17T09:03:51.807Z</time>
      </trkpt>
      <trkpt lat="43.62914" lon="3.68676">
        <ele>152.410172</ele>
        <time>2021-04-17T09:03:54.930Z</time>
      </trkpt>
      <trkpt lat="43.62932" lon="3.68669">
        <ele>152.497025</ele>
        <time>2021-04-17T09:03:58.286Z</time>
      </trkpt>
      <trkpt lat="43.62948" lon="3.6866">
        <ele>152.937485</ele>
        <time>2021-04-17T09:04:02.159Z</time>
      </trkpt>
      <trkpt lat="43.62958" lon="3.6864">
        <ele>153.833328</ele>
        <time>2021-04-17T09:04:07.478Z</time>
      </trkpt>
      <trkpt lat="43.62964" lon="3.68621">
        <ele>154.572327</ele>
        <time>2021-04-17T09:04:11.965Z</time>
      </trkpt>
      <trkpt lat="43.62967" lon="3.68604">
        <ele>155.607101</ele>
        <time>2021-04-17T09:04:16.768Z</time>
      </trkpt>
      <trkpt lat="43.62967" lon="3.68591">
        <ele>156.795456</ele>
        <time>2021-04-17T09:04:22.422Z</time>
      </trkpt>
      <trkpt lat="43.62969" lon="3.68578">
        <ele>157.589371</ele>
        <time>2021-04-17T09:04:26.096Z</time>
      </trkpt>
      <trkpt lat="43.6297" lon="3.68563">
        <ele>158.091141</ele>
        <time>2021-04-17T09:04:29.289Z</time>
      </trkpt>
      <trkpt lat="43.6297" lon="3.68549">
        <ele>158.789474</ele>
        <time>2021-04-17T09:04:32.764Z</time>
      </trkpt>
      <trkpt lat="43.6297" lon="3.68536">
        <ele>159.176834</ele>
        <time>2021-04-17T09:04:35.360Z</time>
      </trkpt>
      <trkpt lat="43.62968" lon="3.68521">
        <ele>159.799805</ele>
        <time>2021-04-17T09:04:38.823Z</time>
      </trkpt>
      <trkpt lat="43.62968" lon="3.68506">
        <ele>160.448318</ele>
        <time>2021-04-17T09:04:42.308Z</time>
      </trkpt>
      <trkpt lat="43.62967" lon="3.68491">
        <ele>161.166931</ele>
        <time>2021-04-17T09:04:45.965Z</time>
      </trkpt>
      <trkpt lat="43.62967" lon="3.68474">
        <ele>161.716843</ele>
        <time>2021-04-17T09:04:49.539Z</time>
      </trkpt>
      <trkpt lat="43.62966" lon="3.68461">
        <ele>162.16774</ele>
        <time>2021-04-17T09:04:52.339Z</time>
      </trkpt>
      <trkpt lat="43.62964" lon="3.68448">
        <ele>162.518066</ele>
        <time>2021-04-17T09:04:54.820Z</time>
      </trkpt>
      <trkpt lat="43.62961" lon="3.68433">
        <ele>162.990524</ele>
        <time>2021-04-17T09:04:57.963Z</time>
      </trkpt>
      <trkpt lat="43.62959" lon="3.6842">
        <ele>163.609268</ele>
        <time>2021-04-17T09:05:01.153Z</time>
      </trkpt>
      <trkpt lat="43.62956" lon="3.68406">
        <ele>164.0448</ele>
        <time>2021-04-17T09:05:04.070Z</time>
      </trkpt>
      <trkpt lat="43.62953" lon="3.68391">
        <ele>164.368271</ele>
        <time>2021-04-17T09:05:06.697Z</time>
      </trkpt>
      <trkpt lat="43.62951" lon="3.68375">
        <ele>164.786285</ele>
        <time>2021-04-17T09:05:09.693Z</time>
      </trkpt>
      <trkpt lat="43.62949" lon="3.68359">
        <ele>165.091232</ele>
        <time>2021-04-17T09:05:12.342Z</time>
      </trkpt>
      <trkpt lat="43.62947" lon="3.68342">
        <ele>165.446304</ele>
        <time>2021-04-17T09:05:15.240Z</time>
      </trkpt>
      <trkpt lat="43.62944" lon="3.68326">
        <ele>165.654251</ele>
        <time>2021-04-17T09:05:17.686Z</time>
      </trkpt>
      <trkpt lat="43.62941" lon="3.6831">
        <ele>165.829895</ele>
        <time>2021-04-17T09:05:20.061Z</time>
      </trkpt>
      <trkpt lat="43.6294" lon="3.68293">
        <ele>166.086655</ele>
        <time>2021-04-17T09:05:22.682Z</time>
      </trkpt>
      <trkpt lat="43.62948" lon="3.68283">
        <ele>166.361496</ele>
        <time>2021-04-17T09:05:25.100Z</time>
      </trkpt>
      <trkpt lat="43.62964" lon="3.68286">
        <ele>166.635513</ele>
        <time>2021-04-17T09:05:28.386Z</time>
      </trkpt>
      <trkpt lat="43.62981" lon="3.68287">
        <ele>167.531631</ele>
        <time>2021-04-17T09:05:33.589Z</time>
      </trkpt>
      <trkpt lat="43.63001" lon="3.68287">
        <ele>168.630188</ele>
        <time>2021-04-17T09:05:39.800Z</time>
      </trkpt>
      <trkpt lat="43.63019" lon="3.68287">
        <ele>169.867828</ele>
        <time>2021-04-17T09:05:45.966Z</time>
      </trkpt>
      <trkpt lat="43.63038" lon="3.68289">
        <ele>170.845413</ele>
        <time>2021-04-17T09:05:51.741Z</time>
      </trkpt>
      <trkpt lat="43.63056" lon="3.6829">
        <ele>172.166336</ele>
        <time>2021-04-17T09:05:58.131Z</time>
      </trkpt>
      <trkpt lat="43.63072" lon="3.68287">
        <ele>173.330933</ele>
        <time>2021-04-17T09:06:03.806Z</time>
      </trkpt>
      <trkpt lat="43.63086" lon="3.6828">
        <ele>174.281128</ele>
        <time>2021-04-17T09:06:08.725Z</time>
      </trkpt>
      <trkpt lat="43.63098" lon="3.6827">
        <ele>175.610428</ele>
        <time>2021-04-17T09:06:14.689Z</time>
      </trkpt>
      <trkpt lat="43.63107" lon="3.68255">
        <ele>176.567932</ele>
        <time>2021-04-17T09:06:19.489Z</time>
      </trkpt>
      <trkpt lat="43.63117" lon="3.68246">
        <ele>177.439697</ele>
        <time>2021-04-17T09:06:23.713Z</time>
      </trkpt>
      <trkpt lat="43.63125" lon="3.68237">
        <ele>178.477707</ele>
        <time>2021-04-17T09:06:28.352Z</time>
      </trkpt>
      <trkpt lat="43.63132" lon="3.68227">
        <ele>179.256836</ele>
        <time>2021-04-17T09:06:32.039Z</time>
      </trkpt>
      <trkpt lat="43.6314" lon="3.68218">
        <ele>179.936386</ele>
        <time>2021-04-17T09:06:35.498Z</time>
      </trkpt>
      <trkpt lat="43.63148" lon="3.68211">
        <ele>180.970139</ele>
        <time>2021-04-17T09:06:40.145Z</time>
      </trkpt>
      <trkpt lat="43.63154" lon="3.68205">
        <ele>181.845154</ele>
        <time>2021-04-17T09:06:44.166Z</time>
      </trkpt>
      <trkpt lat="43.63158" lon="3.68198">
        <ele>182.554276</ele>
        <time>2021-04-17T09:06:47.357Z</time>
      </trkpt>
      <trkpt lat="43.63163" lon="3.68192">
        <ele>183.206863</ele>
        <time>2021-04-17T09:06:50.275Z</time>
      </trkpt>
      <trkpt lat="43.6317" lon="3.68187">
        <ele>183.747116</ele>
        <time>2021-04-17T09:06:52.971Z</time>
      </trkpt>
      <trkpt lat="43.63175" lon="3.68183">
        <ele>184.465775</ele>
        <time>2021-04-17T09:06:56.358Z</time>
      </trkpt>
      <trkpt lat="43.63181" lon="3.68177">
        <ele>184.87709</ele>
        <time>2021-04-17T09:06:58.667Z</time>
      </trkpt>
      <trkpt lat="43.63186" lon="3.68171">
        <ele>185.536118</ele>
        <time>2021-04-17T09:07:01.613Z</time>
      </trkpt>
      <trkpt lat="43.63191" lon="3.68164">
        <ele>186.308167</ele>
        <time>2021-04-17T09:07:05.080Z</time>
      </trkpt>
      <trkpt lat="43.63194" lon="3.68156">
        <ele>186.984558</ele>
        <time>2021-04-17T09:07:08.103Z</time>
      </trkpt>
      <trkpt lat="43.63197" lon="3.68147">
        <ele>187.507568</ele>
        <time>2021-04-17T09:07:10.639Z</time>
      </trkpt>
      <trkpt lat="43.632" lon="3.68138">
        <ele>188.255249</ele>
        <time>2021-04-17T09:07:13.983Z</time>
      </trkpt>
      <trkpt lat="43.63202" lon="3.68129">
        <ele>189.011536</ele>
        <time>2021-04-17T09:07:17.393Z</time>
      </trkpt>
      <trkpt lat="43.63205" lon="3.6812">
        <ele>189.53241</ele>
        <time>2021-04-17T09:07:19.924Z</time>
      </trkpt>
      <trkpt lat="43.63207" lon="3.6811">
        <ele>190.150024</ele>
        <time>2021-04-17T09:07:22.784Z</time>
      </trkpt>
      <trkpt lat="43.63208" lon="3.68101">
        <ele>190.961136</ele>
        <time>2021-04-17T09:07:26.584Z</time>
      </trkpt>
      <trkpt lat="43.6321" lon="3.68092">
        <ele>191.716232</ele>
        <time>2021-04-17T09:07:29.988Z</time>
      </trkpt>
      <trkpt lat="43.6321" lon="3.68083">
        <ele>192.332932</ele>
        <time>2021-04-17T09:07:32.755Z</time>
      </trkpt>
      <trkpt lat="43.63211" lon="3.68074">
        <ele>192.980042</ele>
        <time>2021-04-17T09:07:35.649Z</time>
      </trkpt>
      <trkpt lat="43.63212" lon="3.68065">
        <ele>193.75206</ele>
        <time>2021-04-17T09:07:39.185Z</time>
      </trkpt>
      <trkpt lat="43.63218" lon="3.68063">
        <ele>194.463623</ele>
        <time>2021-04-17T09:07:42.426Z</time>
      </trkpt>
      <trkpt lat="43.6322" lon="3.68077">
        <ele>194.922318</ele>
        <time>2021-04-17T09:07:45.418Z</time>
      </trkpt>
      <trkpt lat="43.63223" lon="3.68095">
        <ele>194.62944</ele>
        <time>2021-04-17T09:07:47.028Z</time>
      </trkpt>
      <trkpt lat="43.63226" lon="3.68111">
        <ele>193.537521</ele>
        <time>2021-04-17T09:07:48.067Z</time>
      </trkpt>
      <trkpt lat="43.63232" lon="3.68117">
        <ele>193.058731</ele>
        <time>2021-04-17T09:07:48.666Z</time>
      </trkpt>
      <trkpt lat="43.63236" lon="3.68123">
        <ele>192.937637</ele>
        <time>2021-04-17T09:07:49.388Z</time>
      </trkpt>
      <trkpt lat="43.63239" lon="3.68131">
        <ele>193.003601</ele>
        <time>2021-04-17T09:07:50.623Z</time>
      </trkpt>
      <trkpt lat="43.6324" lon="3.68139">
        <ele>192.901733</ele>
        <time>2021-04-17T09:07:51.370Z</time>
      </trkpt>
      <trkpt lat="43.63239" lon="3.68148">
        <ele>192.65889</ele>
        <time>2021-04-17T09:07:52.047Z</time>
      </trkpt>
      <trkpt lat="43.63237" lon="3.68157">
        <ele>191.85585</ele>
        <time>2021-04-17T09:07:52.639Z</time>
      </trkpt>
      <trkpt lat="43.63236" lon="3.68165">
        <ele>191.01355</ele>
        <time>2021-04-17T09:07:53.149Z</time>
      </trkpt>
      <trkpt lat="43.63235" lon="3.68175">
        <ele>190.591537</ele>
        <time>2021-04-17T09:07:53.773Z</time>
      </trkpt>
      <trkpt lat="43.63235" lon="3.68185">
        <ele>189.87471</ele>
        <time>2021-04-17T09:07:54.401Z</time>
      </trkpt>
      <trkpt lat="43.63234" lon="3.68195">
        <ele>188.985611</ele>
        <time>2021-04-17T09:07:55.036Z</time>
      </trkpt>
      <trkpt lat="43.63237" lon="3.68202">
        <ele>188.327316</ele>
        <time>2021-04-17T09:07:55.547Z</time>
      </trkpt>
      <trkpt lat="43.63244" lon="3.68201">
        <ele>188.055664</ele>
        <time>2021-04-17T09:07:56.258Z</time>
      </trkpt>
      <trkpt lat="43.63246" lon="3.68193">
        <ele>188.431442</ele>
        <time>2021-04-17T09:07:58.247Z</time>
      </trkpt>
      <trkpt lat="43.63249" lon="3.68188">
        <ele>189.273819</ele>
        <time>2021-04-17T09:08:01.363Z</time>
      </trkpt>
      <trkpt lat="43.63261" lon="3.68187">
        <ele>190.633057</ele>
        <time>2021-04-17T09:08:07.519Z</time>
      </trkpt>
      <trkpt lat="43.63267" lon="3.68187">
        <ele>190.97496</ele>
        <time>2021-04-17T09:08:09.408Z</time>
      </trkpt>
      <trkpt lat="43.63273" lon="3.68181">
        <ele>191.553528</ele>
        <time>2021-04-17T09:08:12.136Z</time>
      </trkpt>
      <trkpt lat="43.63277" lon="3.68179">
        <ele>192.378174</ele>
        <time>2021-04-17T09:08:14.956Z</time>
      </trkpt>
      <trkpt lat="43.6328" lon="3.68173">
        <ele>192.896851</ele>
        <time>2021-04-17T09:08:17.276Z</time>
      </trkpt>
      <trkpt lat="43.63281" lon="3.68166">
        <ele>193.685867</ele>
        <time>2021-04-17T09:08:20.699Z</time>
      </trkpt>
      <trkpt lat="43.6328" lon="3.68157">
        <ele>194.248535</ele>
        <time>2021-04-17T09:08:23.277Z</time>
      </trkpt>
      <trkpt lat="43.63282" lon="3.6815">
        <ele>195.000687</ele>
        <time>2021-04-17T09:08:26.887Z</time>
      </trkpt>
      <trkpt lat="43.63285" lon="3.68142">
        <ele>195.871872</ele>
        <time>2021-04-17T09:08:31.210Z</time>
      </trkpt>
      <trkpt lat="43.63286" lon="3.68138">
        <ele>196.74707</ele>
        <time>2021-04-17T09:08:33.240Z</time>
      </trkpt>
      <trkpt lat="43.63289" lon="3.68124">
        <ele>197.653549</ele>
        <time>2021-04-17T09:08:37.388Z</time>
      </trkpt>
      <trkpt lat="43.63293" lon="3.68113">
        <ele>198.420822</ele>
        <time>2021-04-17T09:08:40.895Z</time>
      </trkpt>
      <trkpt lat="43.63295" lon="3.68104">
        <ele>199.848831</ele>
        <time>2021-04-17T09:08:45.412Z</time>
      </trkpt>
      <trkpt lat="43.63308" lon="3.68085">
        <ele>202.712967</ele>
        <time>2021-04-17T09:08:57.955Z</time>
      </trkpt>
      <trkpt lat="43.6331" lon="3.68077">
        <ele>203.709213</ele>
        <time>2021-04-17T09:09:02.016Z</time>
      </trkpt>
      <trkpt lat="43.63312" lon="3.68069">
        <ele>204.682678</ele>
        <time>2021-04-17T09:09:06.076Z</time>
      </trkpt>
      <trkpt lat="43.63313" lon="3.68063">
        <ele>205.615372</ele>
        <time>2021-04-17T09:09:09.030Z</time>
      </trkpt>
      <trkpt lat="43.63314" lon="3.68055">
        <ele>206.27681</ele>
        <time>2021-04-17T09:09:12.022Z</time>
      </trkpt>
      <trkpt lat="43.63322" lon="3.68042">
        <ele>208.665512</ele>
        <time>2021-04-17T09:09:20.209Z</time>
      </trkpt>
      <trkpt lat="43.63324" lon="3.68039">
        <ele>209.257263</ele>
        <time>2021-04-17T09:09:22.166Z</time>
      </trkpt>
      <trkpt lat="43.63332" lon="3.68032">
        <ele>210.675705</ele>
        <time>2021-04-17T09:09:28.442Z</time>
      </trkpt>
      <trkpt lat="43.63336" lon="3.68029">
        <ele>211.421066</ele>
        <time>2021-04-17T09:09:31.459Z</time>
      </trkpt>
      <trkpt lat="43.6334" lon="3.68027">
        <ele>212.04509</ele>
        <time>2021-04-17T09:09:34.279Z</time>
      </trkpt>
      <trkpt lat="43.63348" lon="3.6802">
        <ele>213.70549</ele>
        <time>2021-04-17T09:09:40.556Z</time>
      </trkpt>
      <trkpt lat="43.63356" lon="3.68006">
        <ele>215.885605</ele>
        <time>2021-04-17T09:09:49.113Z</time>
      </trkpt>
      <trkpt lat="43.63362" lon="3.67992">
        <ele>217.639282</ele>
        <time>2021-04-17T09:09:56.919Z</time>
      </trkpt>
      <trkpt lat="43.63364" lon="3.67987">
        <ele>218.083633</ele>
        <time>2021-04-17T09:09:58.911Z</time>
      </trkpt>
      <trkpt lat="43.63366" lon="3.67983">
        <ele>218.478577</ele>
        <time>2021-04-17T09:10:00.697Z</time>
      </trkpt>
      <trkpt lat="43.63369" lon="3.67978">
        <ele>219.031204</ele>
        <time>2021-04-17T09:10:03.231Z</time>
      </trkpt>
      <trkpt lat="43.63375" lon="3.67964">
        <ele>220.336914</ele>
        <time>2021-04-17T09:10:09.118Z</time>
      </trkpt>
      <trkpt lat="43.6338" lon="3.67954">
        <ele>221.210266</ele>
        <time>2021-04-17T09:10:13.022Z</time>
      </trkpt>
      <trkpt lat="43.63383" lon="3.67944">
        <ele>222.402969</ele>
        <time>2021-04-17T09:10:18.215Z</time>
      </trkpt>
      <trkpt lat="43.63384" lon="3.67934">
        <ele>223.485519</ele>
        <time>2021-04-17T09:10:23.058Z</time>
      </trkpt>
      <trkpt lat="43.63385" lon="3.67927">
        <ele>224.940109</ele>
        <time>2021-04-17T09:10:26.481Z</time>
      </trkpt>
      <trkpt lat="43.63387" lon="3.67921">
        <ele>225.884506</ele>
        <time>2021-04-17T09:10:29.650Z</time>
      </trkpt>
      <trkpt lat="43.6339" lon="3.67913">
        <ele>226.703796</ele>
        <time>2021-04-17T09:10:33.535Z</time>
      </trkpt>
      <trkpt lat="43.63393" lon="3.67904">
        <ele>227.575546</ele>
        <time>2021-04-17T09:10:37.592Z</time>
      </trkpt>
      <trkpt lat="43.63397" lon="3.67895">
        <ele>229.063293</ele>
        <time>2021-04-17T09:10:42.659Z</time>
      </trkpt>
      <trkpt lat="43.63398" lon="3.67888">
        <ele>230.336655</ele>
        <time>2021-04-17T09:10:46.082Z</time>
      </trkpt>
      <trkpt lat="43.634" lon="3.67883">
        <ele>231.887009</ele>
        <time>2021-04-17T09:10:48.823Z</time>
      </trkpt>
      <trkpt lat="43.63405" lon="3.67876">
        <ele>232.921692</ele>
        <time>2021-04-17T09:10:53.541Z</time>
      </trkpt>
      <trkpt lat="43.63409" lon="3.67871">
        <ele>234.12178</ele>
        <time>2021-04-17T09:10:57.116Z</time>
      </trkpt>
      <trkpt lat="43.63412" lon="3.67866">
        <ele>235.089432</ele>
        <time>2021-04-17T09:11:00.232Z</time>
      </trkpt>
      <trkpt lat="43.63417" lon="3.67863">
        <ele>236.344376</ele>
        <time>2021-04-17T09:11:03.845Z</time>
      </trkpt>
      <trkpt lat="43.63424" lon="3.6786">
        <ele>237.433823</ele>
        <time>2021-04-17T09:11:08.703Z</time>
      </trkpt>
      <trkpt lat="43.63431" lon="3.6786">
        <ele>238.470215</ele>
        <time>2021-04-17T09:11:13.343Z</time>
      </trkpt>
      <trkpt lat="43.63438" lon="3.67859">
        <ele>238.960129</ele>
        <time>2021-04-17T09:11:15.770Z</time>
      </trkpt>
      <trkpt lat="43.63441" lon="3.6786">
        <ele>239.571045</ele>
        <time>2021-04-17T09:11:17.815Z</time>
      </trkpt>
      <trkpt lat="43.63448" lon="3.67858">
        <ele>239.78035</ele>
        <time>2021-04-17T09:11:19.494Z</time>
      </trkpt>
      <trkpt lat="43.63459" lon="3.67853">
        <ele>241.216919</ele>
        <time>2021-04-17T09:11:26.254Z</time>
      </trkpt>
      <trkpt lat="43.63471" lon="3.67845">
        <ele>243.219284</ele>
        <time>2021-04-17T09:11:35.085Z</time>
      </trkpt>
      <trkpt lat="43.63475" lon="3.67842">
        <ele>244.401123</ele>
        <time>2021-04-17T09:11:38.102Z</time>
      </trkpt>
      <trkpt lat="43.63482" lon="3.67839">
        <ele>245.324814</ele>
        <time>2021-04-17T09:11:42.491Z</time>
      </trkpt>
      <trkpt lat="43.63488" lon="3.67836">
        <ele>246.284973</ele>
        <time>2021-04-17T09:11:46.720Z</time>
      </trkpt>
      <trkpt lat="43.63495" lon="3.67831">
        <ele>247.520676</ele>
        <time>2021-04-17T09:11:51.943Z</time>
      </trkpt>
      <trkpt lat="43.635" lon="3.67826">
        <ele>248.721619</ele>
        <time>2021-04-17T09:11:56.034Z</time>
      </trkpt>
      <trkpt lat="43.63508" lon="3.67823">
        <ele>250.151932</ele>
        <time>2021-04-17T09:12:01.529Z</time>
      </trkpt>
      <trkpt lat="43.63514" lon="3.67819">
        <ele>250.757492</ele>
        <time>2021-04-17T09:12:04.264Z</time>
      </trkpt>
      <trkpt lat="43.63523" lon="3.67816">
        <ele>252.233322</ele>
        <time>2021-04-17T09:12:10.400Z</time>
      </trkpt>
      <trkpt lat="43.63532" lon="3.67813">
        <ele>253.252121</ele>
        <time>2021-04-17T09:12:14.987Z</time>
      </trkpt>
      <trkpt lat="43.63537" lon="3.67812">
        <ele>253.876877</ele>
        <time>2021-04-17T09:12:17.921Z</time>
      </trkpt>
      <trkpt lat="43.63542" lon="3.67812">
        <ele>254.306961</ele>
        <time>2021-04-17T09:12:19.888Z</time>
      </trkpt>
      <trkpt lat="43.6355" lon="3.67808">
        <ele>254.539474</ele>
        <time>2021-04-17T09:12:21.838Z</time>
      </trkpt>
      <trkpt lat="43.63555" lon="3.67808">
        <ele>255.468994</ele>
        <time>2021-04-17T09:12:25.152Z</time>
      </trkpt>
      <trkpt lat="43.63562" lon="3.67805">
        <ele>255.961105</ele>
        <time>2021-04-17T09:12:27.633Z</time>
      </trkpt>
      <trkpt lat="43.63571" lon="3.67801">
        <ele>256.623596</ele>
        <time>2021-04-17T09:12:30.904Z</time>
      </trkpt>
      <trkpt lat="43.6358" lon="3.67792">
        <ele>258.749725</ele>
        <time>2021-04-17T09:12:38.268Z</time>
      </trkpt>
      <trkpt lat="43.63588" lon="3.67787">
        <ele>259.624237</ele>
        <time>2021-04-17T09:12:42.177Z</time>
      </trkpt>
      <trkpt lat="43.636" lon="3.67785">
        <ele>260.966522</ele>
        <time>2021-04-17T09:12:48.230Z</time>
      </trkpt>
      <trkpt lat="43.63606" lon="3.67782">
        <ele>261.500702</ele>
        <time>2021-04-17T09:12:50.691Z</time>
      </trkpt>
      <trkpt lat="43.63615" lon="3.67777">
        <ele>262.69751</ele>
        <time>2021-04-17T09:12:56.305Z</time>
      </trkpt>
      <trkpt lat="43.63627" lon="3.67772">
        <ele>263.993286</ele>
        <time>2021-04-17T09:13:02.098Z</time>
      </trkpt>
      <trkpt lat="43.63633" lon="3.67766">
        <ele>264.61734</ele>
        <time>2021-04-17T09:13:04.967Z</time>
      </trkpt>
      <trkpt lat="43.6364" lon="3.67761">
        <ele>265.692841</ele>
        <time>2021-04-17T09:13:10.191Z</time>
      </trkpt>
      <trkpt lat="43.63644" lon="3.67756">
        <ele>266.515472</ele>
        <time>2021-04-17T09:13:13.766Z</time>
      </trkpt>
      <trkpt lat="43.63647" lon="3.67754">
        <ele>266.907227</ele>
        <time>2021-04-17T09:13:15.563Z</time>
      </trkpt>
      <trkpt lat="43.63652" lon="3.67751">
        <ele>267.118744</ele>
        <time>2021-04-17T09:13:17.016Z</time>
      </trkpt>
      <trkpt lat="43.63658" lon="3.67746">
        <ele>267.360107</ele>
        <time>2021-04-17T09:13:18.775Z</time>
      </trkpt>
      <trkpt lat="43.63668" lon="3.67738">
        <ele>268.20224</ele>
        <time>2021-04-17T09:13:22.860Z</time>
      </trkpt>
      <trkpt lat="43.6368" lon="3.67727">
        <ele>268.871094</ele>
        <time>2021-04-17T09:13:27.089Z</time>
      </trkpt>
      <trkpt lat="43.63687" lon="3.67722">
        <ele>269.252594</ele>
        <time>2021-04-17T09:13:29.432Z</time>
      </trkpt>
      <trkpt lat="43.63694" lon="3.67716">
        <ele>269.660065</ele>
        <time>2021-04-17T09:13:31.899Z</time>
      </trkpt>
      <trkpt lat="43.63702" lon="3.67709">
        <ele>270.299805</ele>
        <time>2021-04-17T09:13:35.114Z</time>
      </trkpt>
      <trkpt lat="43.6371" lon="3.67702">
        <ele>270.851227</ele>
        <time>2021-04-17T09:13:38.122Z</time>
      </trkpt>
      <trkpt lat="43.63716" lon="3.67697">
        <ele>271.34906</ele>
        <time>2021-04-17T09:13:40.564Z</time>
      </trkpt>
      <trkpt lat="43.63728" lon="3.6769">
        <ele>271.594452</ele>
        <time>2021-04-17T09:13:43.269Z</time>
      </trkpt>
      <trkpt lat="43.63736" lon="3.67688">
        <ele>271.441742</ele>
        <time>2021-04-17T09:13:44.284Z</time>
      </trkpt>
      <trkpt lat="43.63746" lon="3.67686">
        <ele>271.205505</ele>
        <time>2021-04-17T09:13:45.481Z</time>
      </trkpt>
      <trkpt lat="43.63755" lon="3.67685">
        <ele>271.001892</ele>
        <time>2021-04-17T09:13:46.560Z</time>
      </trkpt>
      <trkpt lat="43.63764" lon="3.67683">
        <ele>270.726898</ele>
        <time>2021-04-17T09:13:47.563Z</time>
      </trkpt>
      <trkpt lat="43.63773" lon="3.67683">
        <ele>270.440155</ele>
        <time>2021-04-17T09:13:48.535Z</time>
      </trkpt>
      <trkpt lat="43.63783" lon="3.67685">
        <ele>270.253662</ele>
        <time>2021-04-17T09:13:49.802Z</time>
      </trkpt>
      <trkpt lat="43.63793" lon="3.67685">
        <ele>270.249115</ele>
        <time>2021-04-17T09:13:51.509Z</time>
      </trkpt>
      <trkpt lat="43.638" lon="3.67687">
        <ele>270.259369</ele>
        <time>2021-04-17T09:13:52.753Z</time>
      </trkpt>
      <trkpt lat="43.63808" lon="3.67688">
        <ele>270.24649</ele>
        <time>2021-04-17T09:13:54.101Z</time>
      </trkpt>
      <trkpt lat="43.63817" lon="3.67689">
        <ele>270.239594</ele>
        <time>2021-04-17T09:13:55.634Z</time>
      </trkpt>
      <trkpt lat="43.63825" lon="3.67691">
        <ele>270.233002</ele>
        <time>2021-04-17T09:13:57.014Z</time>
      </trkpt>
      <trkpt lat="43.63833" lon="3.67692">
        <ele>270.211975</ele>
        <time>2021-04-17T09:13:58.342Z</time>
      </trkpt>
      <trkpt lat="43.63841" lon="3.67694">
        <ele>270.192352</ele>
        <time>2021-04-17T09:13:59.689Z</time>
      </trkpt>
      <trkpt lat="43.63849" lon="3.67696">
        <ele>270.175934</ele>
        <time>2021-04-17T09:14:01.044Z</time>
      </trkpt>
      <trkpt lat="43.63858" lon="3.67698">
        <ele>270.22583</ele>
        <time>2021-04-17T09:14:02.693Z</time>
      </trkpt>
      <trkpt lat="43.63867" lon="3.67698">
        <ele>270.283844</ele>
        <time>2021-04-17T09:14:04.337Z</time>
      </trkpt>
      <trkpt lat="43.63876" lon="3.67692">
        <ele>270.401215</ele>
        <time>2021-04-17T09:14:06.261Z</time>
      </trkpt>
      <trkpt lat="43.63883" lon="3.67686">
        <ele>270.700439</ele>
        <time>2021-04-17T09:14:08.383Z</time>
      </trkpt>
      <trkpt lat="43.63892" lon="3.67679">
        <ele>271.004242</ele>
        <time>2021-04-17T09:14:10.812Z</time>
      </trkpt>
      <trkpt lat="43.63902" lon="3.67672">
        <ele>271.323639</ele>
        <time>2021-04-17T09:14:13.419Z</time>
      </trkpt>
      <trkpt lat="43.6391" lon="3.67666">
        <ele>271.67627</ele>
        <time>2021-04-17T09:14:15.843Z</time>
      </trkpt>
      <trkpt lat="43.63922" lon="3.67663">
        <ele>271.857574</ele>
        <time>2021-04-17T09:14:18.270Z</time>
      </trkpt>
      <trkpt lat="43.63935" lon="3.67659">
        <ele>271.844391</ele>
        <time>2021-04-17T09:14:20.524Z</time>
      </trkpt>
      <trkpt lat="43.63947" lon="3.67653">
        <ele>271.770599</ele>
        <time>2021-04-17T09:14:22.539Z</time>
      </trkpt>
      <trkpt lat="43.63961" lon="3.67647">
        <ele>271.746002</ele>
        <time>2021-04-17T09:14:24.994Z</time>
      </trkpt>
      <trkpt lat="43.63975" lon="3.6764">
        <ele>271.736481</ele>
        <time>2021-04-17T09:14:27.528Z</time>
      </trkpt>
      <trkpt lat="43.63989" lon="3.67633">
        <ele>271.728729</ele>
        <time>2021-04-17T09:14:30.066Z</time>
      </trkpt>
      <trkpt lat="43.64003" lon="3.67626">
        <ele>271.722626</ele>
        <time>2021-04-17T09:14:32.609Z</time>
      </trkpt>
      <trkpt lat="43.64013" lon="3.67632">
        <ele>271.626556</ele>
        <time>2021-04-17T09:14:34.154Z</time>
      </trkpt>
      <trkpt lat="43.64019" lon="3.67651">
        <ele>271.466461</ele>
        <time>2021-04-17T09:14:36.227Z</time>
      </trkpt>
      <trkpt lat="43.64029" lon="3.67673">
        <ele>271.028168</ele>
        <time>2021-04-17T09:14:38.455Z</time>
      </trkpt>
      <trkpt lat="43.64039" lon="3.67694">
        <ele>270.602783</ele>
        <time>2021-04-17T09:14:40.609Z</time>
      </trkpt>
      <trkpt lat="43.64049" lon="3.6771">
        <ele>270.125519</ele>
        <time>2021-04-17T09:14:42.274Z</time>
      </trkpt>
      <trkpt lat="43.64059" lon="3.67724">
        <ele>269.630951</ele>
        <time>2021-04-17T09:14:43.768Z</time>
      </trkpt>
      <trkpt lat="43.64068" lon="3.6774">
        <ele>269.08078</ele>
        <time>2021-04-17T09:14:45.266Z</time>
      </trkpt>
      <trkpt lat="43.64073" lon="3.67757">
        <ele>268.716553</ele>
        <time>2021-04-17T09:14:46.770Z</time>
      </trkpt>
      <trkpt lat="43.64077" lon="3.6777">
        <ele>268.420807</ele>
        <time>2021-04-17T09:14:47.909Z</time>
      </trkpt>
      <trkpt lat="43.64082" lon="3.67783">
        <ele>268.011383</ele>
        <time>2021-04-17T09:14:48.987Z</time>
      </trkpt>
      <trkpt lat="43.64091" lon="3.67797">
        <ele>267.609344</ele>
        <time>2021-04-17T09:14:50.486Z</time>
      </trkpt>
      <trkpt lat="43.6411" lon="3.67807">
        <ele>267.521057</ele>
        <time>2021-04-17T09:14:53.762Z</time>
      </trkpt>
      <trkpt lat="43.64127" lon="3.67819">
        <ele>267.689331</ele>
        <time>2021-04-17T09:14:57.330Z</time>
      </trkpt>
      <trkpt lat="43.64143" lon="3.67833">
        <ele>268.111328</ele>
        <time>2021-04-17T09:15:01.419Z</time>
      </trkpt>
      <trkpt lat="43.64159" lon="3.67844">
        <ele>268.313263</ele>
        <time>2021-04-17T09:15:04.845Z</time>
      </trkpt>
      <trkpt lat="43.64173" lon="3.67851">
        <ele>268.560364</ele>
        <time>2021-04-17T09:15:07.862Z</time>
      </trkpt>
      <trkpt lat="43.64189" lon="3.67858">
        <ele>268.775421</ele>
        <time>2021-04-17T09:15:11.130Z</time>
      </trkpt>
      <trkpt lat="43.64203" lon="3.67866">
        <ele>268.707275</ele>
        <time>2021-04-17T09:15:13.566Z</time>
      </trkpt>
      <trkpt lat="43.64219" lon="3.67868">
        <ele>268.223877</ele>
        <time>2021-04-17T09:15:15.334Z</time>
      </trkpt>
      <trkpt lat="43.64233" lon="3.67877">
        <ele>267.978821</ele>
        <time>2021-04-17T09:15:17.332Z</time>
      </trkpt>
      <trkpt lat="43.64248" lon="3.67887">
        <ele>267.094482</ele>
        <time>2021-04-17T09:15:18.808Z</time>
      </trkpt>
      <trkpt lat="43.64261" lon="3.67897">
        <ele>266.49118</ele>
        <time>2021-04-17T09:15:20.284Z</time>
      </trkpt>
      <trkpt lat="43.64278" lon="3.67907">
        <ele>264.608795</ele>
        <time>2021-04-17T09:15:21.889Z</time>
      </trkpt>
      <trkpt lat="43.64298" lon="3.67918">
        <ele>262.99646</ele>
        <time>2021-04-17T09:15:23.758Z</time>
      </trkpt>
      <trkpt lat="43.6432" lon="3.67926">
        <ele>260.504913</ele>
        <time>2021-04-17T09:15:25.734Z</time>
      </trkpt>
      <trkpt lat="43.64345" lon="3.67933">
        <ele>258.33609</ele>
        <time>2021-04-17T09:15:27.949Z</time>
      </trkpt>
      <trkpt lat="43.64357" lon="3.67928">
        <ele>257.737946</ele>
        <time>2021-04-17T09:15:29.114Z</time>
      </trkpt>
      <trkpt lat="43.64353" lon="3.67922">
        <ele>258.127563</ele>
        <time>2021-04-17T09:15:31.095Z</time>
      </trkpt>
      <trkpt lat="43.64357" lon="3.67914">
        <ele>259.324524</ele>
        <time>2021-04-17T09:15:35.759Z</time>
      </trkpt>
      <trkpt lat="43.64382" lon="3.67896">
        <ele>257.9</ele>
        <time>2021-04-17T09:15:38.315Z</time>
      </trkpt>
      <trkpt lat="43.64385" lon="3.67855">
        <ele>261.5</ele>
        <time>2021-04-17T09:15:55.013Z</time>
      </trkpt>
      <trkpt lat="43.64418" lon="3.67707">
        <ele>265.5</ele>
        <time>2021-04-17T09:16:23.627Z</time>
      </trkpt>
      <trkpt lat="43.64401" lon="3.67538">
        <ele>257.7</ele>
        <time>2021-04-17T09:16:33.717Z</time>
      </trkpt>
      <trkpt lat="43.64401" lon="3.67538">
        <ele>257.7</ele>
        <time>2021-04-17T09:16:33.717Z</time>
      </trkpt>
      <trkpt lat="43.64401" lon="3.67538">
        <ele>257.7</ele>
        <time>2021-04-17T09:16:33.717Z</time>
      </trkpt>
      <trkpt lat="43.64389" lon="3.67497">
        <ele>254.4</ele>
        <time>2021-04-17T09:16:36.496Z</time>
      </trkpt>
      <trkpt lat="43.64389" lon="3.67475">
        <ele>253</ele>
        <time>2021-04-17T09:16:37.879Z</time>
      </trkpt>
      <trkpt lat="43.64387" lon="3.6747">
        <ele>252.6</ele>
        <time>2021-04-17T09:16:38.238Z</time>
      </trkpt>
      <trkpt lat="43.64393" lon="3.67453">
        <ele>251.6</ele>
        <time>2021-04-17T09:16:39.427Z</time>
      </trkpt>
      <trkpt lat="43.64387" lon="3.67463">
        <ele>252.1</ele>
        <time>2021-04-17T09:16:42.312Z</time>
      </trkpt>
      <trkpt lat="43.64394" lon="3.67445">
        <ele>251</ele>
        <time>2021-04-17T09:16:43.596Z</time>
      </trkpt>
      <trkpt lat="43.64397" lon="3.67432">
        <ele>250.3</ele>
        <time>2021-04-17T09:16:44.453Z</time>
      </trkpt>
      <trkpt lat="43.64401" lon="3.67419">
        <ele>249.6</ele>
        <time>2021-04-17T09:16:45.341Z</time>
      </trkpt>
      <trkpt lat="43.64402" lon="3.67398">
        <ele>248.8</ele>
        <time>2021-04-17T09:16:46.698Z</time>
      </trkpt>
      <trkpt lat="43.64424" lon="3.67376">
        <ele>248.2</ele>
        <time>2021-04-17T09:16:49.961Z</time>
      </trkpt>
      <trkpt lat="43.64447" lon="3.67358">
        <ele>251.466553</ele>
        <time>2021-04-17T09:17:05.298Z</time>
      </trkpt>
      <trkpt lat="43.64473" lon="3.67341">
        <ele>252.345322</ele>
        <time>2021-04-17T09:17:12.162Z</time>
      </trkpt>
      <trkpt lat="43.64499" lon="3.67322">
        <ele>253.186523</ele>
        <time>2021-04-17T09:17:19.010Z</time>
      </trkpt>
      <trkpt lat="43.64519" lon="3.67298">
        <ele>253.408035</ele>
        <time>2021-04-17T09:17:23.940Z</time>
      </trkpt>
      <trkpt lat="43.64535" lon="3.67263">
        <ele>253.736404</ele>
        <time>2021-04-17T09:17:29.662Z</time>
      </trkpt>
      <trkpt lat="43.64541" lon="3.67228">
        <ele>253.645996</ele>
        <time>2021-04-17T09:17:33.909Z</time>
      </trkpt>
      <trkpt lat="43.64555" lon="3.67204">
        <ele>253.392578</ele>
        <time>2021-04-17T09:17:36.965Z</time>
      </trkpt>
      <trkpt lat="43.64571" lon="3.67177">
        <ele>252.954285</ele>
        <time>2021-04-17T09:17:40.173Z</time>
      </trkpt>
      <trkpt lat="43.64586" lon="3.67138">
        <ele>251.436401</ele>
        <time>2021-04-17T09:17:43.148Z</time>
      </trkpt>
      <trkpt lat="43.64602" lon="3.67109">
        <ele>250.355423</ele>
        <time>2021-04-17T09:17:45.756Z</time>
      </trkpt>
      <trkpt lat="43.64624" lon="3.67076">
        <ele>248.643982</ele>
        <time>2021-04-17T09:17:48.644Z</time>
      </trkpt>
      <trkpt lat="43.6465" lon="3.67047">
        <ele>245.572586</ele>
        <time>2021-04-17T09:17:51.546Z</time>
      </trkpt>
      <trkpt lat="43.64677" lon="3.67017">
        <ele>243.255051</ele>
        <time>2021-04-17T09:17:54.555Z</time>
      </trkpt>
      <trkpt lat="43.64695" lon="3.66994">
        <ele>238.356934</ele>
        <time>2021-04-17T09:17:56.684Z</time>
      </trkpt>
      <trkpt lat="43.64707" lon="3.66977">
        <ele>235.559753</ele>
        <time>2021-04-17T09:17:58.176Z</time>
      </trkpt>
      <trkpt lat="43.64718" lon="3.66984">
        <ele>232.695801</ele>
        <time>2021-04-17T09:17:59.228Z</time>
      </trkpt>
      <trkpt lat="43.64724" lon="3.67003">
        <ele>231.428055</ele>
        <time>2021-04-17T09:18:00.531Z</time>
      </trkpt>
      <trkpt lat="43.64728" lon="3.6702">
        <ele>230.832764</ele>
        <time>2021-04-17T09:18:01.751Z</time>
      </trkpt>
      <trkpt lat="43.64731" lon="3.67036">
        <ele>230.810471</ele>
        <time>2021-04-17T09:18:03.749Z</time>
      </trkpt>
      <trkpt lat="43.6473" lon="3.67049">
        <ele>231.142624</ele>
        <time>2021-04-17T09:18:06.145Z</time>
      </trkpt>
      <trkpt lat="43.64727" lon="3.67062">
        <ele>231.718918</ele>
        <time>2021-04-17T09:18:09.284Z</time>
      </trkpt>
      <trkpt lat="43.64726" lon="3.67077">
        <ele>232.774277</ele>
        <time>2021-04-17T09:18:14.009Z</time>
      </trkpt>
      <trkpt lat="43.64727" lon="3.67087">
        <ele>234.120621</ele>
        <time>2021-04-17T09:18:18.851Z</time>
      </trkpt>
      <trkpt lat="43.64727" lon="3.67098">
        <ele>234.652267</ele>
        <time>2021-04-17T09:18:21.539Z</time>
      </trkpt>
      <trkpt lat="43.64727" lon="3.67111">
        <ele>235.159164</ele>
        <time>2021-04-17T09:18:24.439Z</time>
      </trkpt>
      <trkpt lat="43.64727" lon="3.67123">
        <ele>235.658768</ele>
        <time>2021-04-17T09:18:27.184Z</time>
      </trkpt>
      <trkpt lat="43.64725" lon="3.67132">
        <ele>236.168961</ele>
        <time>2021-04-17T09:18:29.630Z</time>
      </trkpt>
      <trkpt lat="43.64722" lon="3.67145">
        <ele>236.616714</ele>
        <time>2021-04-17T09:18:32.509Z</time>
      </trkpt>
      <trkpt lat="43.64718" lon="3.6716">
        <ele>237.287415</ele>
        <time>2021-04-17T09:18:36.177Z</time>
      </trkpt>
      <trkpt lat="43.64716" lon="3.67174">
        <ele>238.49617</ele>
        <time>2021-04-17T09:18:41.711Z</time>
      </trkpt>
      <trkpt lat="43.6472" lon="3.67181">
        <ele>239.30748</ele>
        <time>2021-04-17T09:18:45.559Z</time>
      </trkpt>
      <trkpt lat="43.64725" lon="3.67181">
        <ele>239.577682</ele>
        <time>2021-04-17T09:18:47.103Z</time>
      </trkpt>
      <trkpt lat="43.64731" lon="3.67181">
        <ele>239.562271</ele>
        <time>2021-04-17T09:18:48.095Z</time>
      </trkpt>
      <trkpt lat="43.64735" lon="3.67181">
        <ele>239.094681</ele>
        <time>2021-04-17T09:18:48.442Z</time>
      </trkpt>
      <trkpt lat="43.64741" lon="3.67181">
        <ele>239.007156</ele>
        <time>2021-04-17T09:18:49.231Z</time>
      </trkpt>
      <trkpt lat="43.64747" lon="3.6718">
        <ele>239.237473</ele>
        <time>2021-04-17T09:18:50.826Z</time>
      </trkpt>
      <trkpt lat="43.64753" lon="3.67179">
        <ele>239.454178</ele>
        <time>2021-04-17T09:18:52.373Z</time>
      </trkpt>
      <trkpt lat="43.64758" lon="3.67178">
        <ele>239.615555</ele>
        <time>2021-04-17T09:18:53.600Z</time>
      </trkpt>
      <trkpt lat="43.64764" lon="3.6718">
        <ele>239.84285</ele>
        <time>2021-04-17T09:18:55.201Z</time>
      </trkpt>
      <trkpt lat="43.64769" lon="3.67181">
        <ele>240.169846</ele>
        <time>2021-04-17T09:18:56.881Z</time>
      </trkpt>
      <trkpt lat="43.64775" lon="3.67181">
        <ele>240.481934</ele>
        <time>2021-04-17T09:18:58.708Z</time>
      </trkpt>
      <trkpt lat="43.64781" lon="3.6718">
        <ele>240.704025</ele>
        <time>2021-04-17T09:19:00.274Z</time>
      </trkpt>
      <trkpt lat="43.64786" lon="3.67181">
        <ele>240.864746</ele>
        <time>2021-04-17T09:19:01.499Z</time>
      </trkpt>
      <trkpt lat="43.64792" lon="3.67181">
        <ele>241.198975</ele>
        <time>2021-04-17T09:19:03.372Z</time>
      </trkpt>
      <trkpt lat="43.64796" lon="3.67181">
        <ele>241.425858</ele>
        <time>2021-04-17T09:19:04.629Z</time>
      </trkpt>
      <trkpt lat="43.64803" lon="3.6718">
        <ele>241.703537</ele>
        <time>2021-04-17T09:19:06.523Z</time>
      </trkpt>
      <trkpt lat="43.6481" lon="3.67176">
        <ele>241.923508</ele>
        <time>2021-04-17T09:19:08.296Z</time>
      </trkpt>
      <trkpt lat="43.64819" lon="3.67169">
        <ele>242.010422</ele>
        <time>2021-04-17T09:19:10.219Z</time>
      </trkpt>
      <trkpt lat="43.6483" lon="3.67161">
        <ele>242.023193</ele>
        <time>2021-04-17T09:19:12.376Z</time>
      </trkpt>
      <trkpt lat="43.64842" lon="3.67154">
        <ele>242.034668</ele>
        <time>2021-04-17T09:19:14.632Z</time>
      </trkpt>
      <trkpt lat="43.64855" lon="3.6715">
        <ele>242.102463</ele>
        <time>2021-04-17T09:19:17.033Z</time>
      </trkpt>
      <trkpt lat="43.6487" lon="3.67148">
        <ele>242.408859</ele>
        <time>2021-04-17T09:19:20.215Z</time>
      </trkpt>
      <trkpt lat="43.64883" lon="3.67144">
        <ele>242.668106</ele>
        <time>2021-04-17T09:19:23.001Z</time>
      </trkpt>
      <trkpt lat="43.64895" lon="3.67146">
        <ele>242.493896</ele>
        <time>2021-04-17T09:19:24.593Z</time>
      </trkpt>
      <trkpt lat="43.64908" lon="3.67136">
        <ele>242.339417</ele>
        <time>2021-04-17T09:19:26.657Z</time>
      </trkpt>
      <trkpt lat="43.64914" lon="3.67112">
        <ele>241.752579</ele>
        <time>2021-04-17T09:19:28.641Z</time>
      </trkpt>
      <trkpt lat="43.64925" lon="3.67085">
        <ele>240.697525</ele>
        <time>2021-04-17T09:19:30.736Z</time>
      </trkpt>
      <trkpt lat="43.64943" lon="3.67063">
        <ele>239.422043</ele>
        <time>2021-04-17T09:19:32.868Z</time>
      </trkpt>
      <trkpt lat="43.64967" lon="3.67049">
        <ele>238.083008</ele>
        <time>2021-04-17T09:19:35.211Z</time>
      </trkpt>
      <trkpt lat="43.64999" lon="3.67033">
        <ele>237.369568</ele>
        <time>2021-04-17T09:19:39.354Z</time>
      </trkpt>
      <trkpt lat="43.65029" lon="3.67037">
        <ele>237.181885</ele>
        <time>2021-04-17T09:19:44.082Z</time>
      </trkpt>
      <trkpt lat="43.65059" lon="3.67031">
        <ele>236.232971</ele>
        <time>2021-04-17T09:19:47.377Z</time>
      </trkpt>
      <trkpt lat="43.65085" lon="3.6704">
        <ele>234.275818</ele>
        <time>2021-04-17T09:19:49.704Z</time>
      </trkpt>
      <trkpt lat="43.65099" lon="3.67064">
        <ele>233.665268</ele>
        <time>2021-04-17T09:19:52.232Z</time>
      </trkpt>
      <trkpt lat="43.65112" lon="3.67084">
        <ele>233.64357</ele>
        <time>2021-04-17T09:19:55.518Z</time>
      </trkpt>
      <trkpt lat="43.65124" lon="3.67102">
        <ele>233.980484</ele>
        <time>2021-04-17T09:19:59.204Z</time>
      </trkpt>
      <trkpt lat="43.65135" lon="3.67119">
        <ele>234.363815</ele>
        <time>2021-04-17T09:20:02.806Z</time>
      </trkpt>
      <trkpt lat="43.65146" lon="3.67139">
        <ele>234.811768</ele>
        <time>2021-04-17T09:20:06.841Z</time>
      </trkpt>
      <trkpt lat="43.65157" lon="3.67158">
        <ele>235.368362</ele>
        <time>2021-04-17T09:20:11.100Z</time>
      </trkpt>
      <trkpt lat="43.65168" lon="3.67176">
        <ele>236.136353</ele>
        <time>2021-04-17T09:20:16.061Z</time>
      </trkpt>
      <trkpt lat="43.65178" lon="3.67196">
        <ele>237.926758</ele>
        <time>2021-04-17T09:20:24.061Z</time>
      </trkpt>
      <trkpt lat="43.65178" lon="3.67216">
        <ele>239.085495</ele>
        <time>2021-04-17T09:20:29.477Z</time>
      </trkpt>
      <trkpt lat="43.65176" lon="3.67232">
        <ele>239.872757</ele>
        <time>2021-04-17T09:20:33.450Z</time>
      </trkpt>
      <trkpt lat="43.65172" lon="3.67246">
        <ele>240.240036</ele>
        <time>2021-04-17T09:20:36.158Z</time>
      </trkpt>
      <trkpt lat="43.65169" lon="3.67258">
        <ele>240.474121</ele>
        <time>2021-04-17T09:20:38.217Z</time>
      </trkpt>
      <trkpt lat="43.65168" lon="3.67274">
        <ele>240.642868</ele>
        <time>2021-04-17T09:20:40.521Z</time>
      </trkpt>
      <trkpt lat="43.65166" lon="3.6729">
        <ele>241.006104</ele>
        <time>2021-04-17T09:20:43.337Z</time>
      </trkpt>
      <trkpt lat="43.65165" lon="3.67305">
        <ele>241.399658</ele>
        <time>2021-04-17T09:20:46.136Z</time>
      </trkpt>
      <trkpt lat="43.65167" lon="3.67317">
        <ele>241.725662</ele>
        <time>2021-04-17T09:20:48.439Z</time>
      </trkpt>
      <trkpt lat="43.65171" lon="3.6733">
        <ele>242.139648</ele>
        <time>2021-04-17T09:20:51.231Z</time>
      </trkpt>
      <trkpt lat="43.65179" lon="3.6734">
        <ele>242.49855</ele>
        <time>2021-04-17T09:20:53.898Z</time>
      </trkpt>
      <trkpt lat="43.65187" lon="3.67348">
        <ele>242.618271</ele>
        <time>2021-04-17T09:20:55.807Z</time>
      </trkpt>
      <trkpt lat="43.65199" lon="3.67356">
        <ele>242.607712</ele>
        <time>2021-04-17T09:20:58.069Z</time>
      </trkpt>
      <trkpt lat="43.65207" lon="3.67371">
        <ele>242.43634</ele>
        <time>2021-04-17T09:20:59.884Z</time>
      </trkpt>
      <trkpt lat="43.65215" lon="3.67392">
        <ele>242.399536</ele>
        <time>2021-04-17T09:21:02.741Z</time>
      </trkpt>
      <trkpt lat="43.6522" lon="3.67413">
        <ele>242.431168</ele>
        <time>2021-04-17T09:21:05.540Z</time>
      </trkpt>
      <trkpt lat="43.65227" lon="3.67433">
        <ele>242.491882</ele>
        <time>2021-04-17T09:21:08.402Z</time>
      </trkpt>
      <trkpt lat="43.65233" lon="3.67451">
        <ele>242.578293</ele>
        <time>2021-04-17T09:21:11.010Z</time>
      </trkpt>
      <trkpt lat="43.6524" lon="3.67464">
        <ele>242.713913</ele>
        <time>2021-04-17T09:21:13.264Z</time>
      </trkpt>
      <trkpt lat="43.65248" lon="3.67474">
        <ele>242.662659</ele>
        <time>2021-04-17T09:21:14.992Z</time>
      </trkpt>
      <trkpt lat="43.65255" lon="3.67487">
        <ele>242.504883</ele>
        <time>2021-04-17T09:21:16.555Z</time>
      </trkpt>
      <trkpt lat="43.65263" lon="3.675">
        <ele>242.406662</ele>
        <time>2021-04-17T09:21:18.325Z</time>
      </trkpt>
      <trkpt lat="43.65269" lon="3.67513">
        <ele>242.702957</ele>
        <time>2021-04-17T09:21:20.859Z</time>
      </trkpt>
      <trkpt lat="43.65275" lon="3.67526">
        <ele>243.834717</ele>
        <time>2021-04-17T09:21:25.916Z</time>
      </trkpt>
      <trkpt lat="43.65282" lon="3.67539">
        <ele>244.954361</ele>
        <time>2021-04-17T09:21:30.935Z</time>
      </trkpt>
      <trkpt lat="43.65288" lon="3.67551">
        <ele>246.037552</ele>
        <time>2021-04-17T09:21:35.776Z</time>
      </trkpt>
      <trkpt lat="43.65293" lon="3.67561">
        <ele>247.869446</ele>
        <time>2021-04-17T09:21:41.605Z</time>
      </trkpt>
      <trkpt lat="43.65299" lon="3.6757">
        <ele>249.237595</ele>
        <time>2021-04-17T09:21:47.475Z</time>
      </trkpt>
      <trkpt lat="43.65303" lon="3.67579">
        <ele>250.551498</ele>
        <time>2021-04-17T09:21:52.540Z</time>
      </trkpt>
      <trkpt lat="43.65309" lon="3.67587">
        <ele>251.552444</ele>
        <time>2021-04-17T09:21:57.171Z</time>
      </trkpt>
      <trkpt lat="43.65312" lon="3.67597">
        <ele>253.18602</ele>
        <time>2021-04-17T09:22:02.363Z</time>
      </trkpt>
      <trkpt lat="43.65316" lon="3.67608">
        <ele>253.701233</ele>
        <time>2021-04-17T09:22:05.185Z</time>
      </trkpt>
      <trkpt lat="43.65319" lon="3.67618">
        <ele>255.398392</ele>
        <time>2021-04-17T09:22:10.376Z</time>
      </trkpt>
      <trkpt lat="43.65324" lon="3.67627">
        <ele>256.878143</ele>
        <time>2021-04-17T09:22:15.818Z</time>
      </trkpt>
      <trkpt lat="43.6533" lon="3.67636">
        <ele>257.917389</ele>
        <time>2021-04-17T09:22:20.582Z</time>
      </trkpt>
      <trkpt lat="43.65337" lon="3.67643">
        <ele>258.67038</ele>
        <time>2021-04-17T09:22:24.013Z</time>
      </trkpt>
      <trkpt lat="43.65345" lon="3.67645">
        <ele>259.312531</ele>
        <time>2021-04-17T09:22:27.029Z</time>
      </trkpt>
      <trkpt lat="43.65353" lon="3.67645">
        <ele>259.493347</ele>
        <time>2021-04-17T09:22:28.762Z</time>
      </trkpt>
      <trkpt lat="43.65356" lon="3.67646">
        <ele>259.649506</ele>
        <time>2021-04-17T09:22:29.693Z</time>
      </trkpt>
      <trkpt lat="43.65355" lon="3.67669">
        <ele>260.779388</ele>
        <time>2021-04-17T09:22:35.363Z</time>
      </trkpt>
      <trkpt lat="43.65353" lon="3.67681">
        <ele>261.880493</ele>
        <time>2021-04-17T09:22:40.533Z</time>
      </trkpt>
      <trkpt lat="43.65353" lon="3.67691">
        <ele>262.933258</ele>
        <time>2021-04-17T09:22:45.329Z</time>
      </trkpt>
      <trkpt lat="43.6535" lon="3.67704">
        <ele>263.930634</ele>
        <time>2021-04-17T09:22:49.785Z</time>
      </trkpt>
      <trkpt lat="43.65348" lon="3.67715">
        <ele>265.067505</ele>
        <time>2021-04-17T09:22:55.225Z</time>
      </trkpt>
      <trkpt lat="43.65346" lon="3.67729">
        <ele>265.702515</ele>
        <time>2021-04-17T09:22:58.580Z</time>
      </trkpt>
      <trkpt lat="43.65344" lon="3.67737">
        <ele>266.362579</ele>
        <time>2021-04-17T09:23:01.542Z</time>
      </trkpt>
      <trkpt lat="43.65343" lon="3.67745">
        <ele>266.711212</ele>
        <time>2021-04-17T09:23:03.422Z</time>
      </trkpt>
      <trkpt lat="43.65344" lon="3.67751">
        <ele>267.166809</ele>
        <time>2021-04-17T09:23:05.458Z</time>
      </trkpt>
      <trkpt lat="43.65343" lon="3.67759">
        <ele>267.530945</ele>
        <time>2021-04-17T09:23:07.373Z</time>
      </trkpt>
      <trkpt lat="43.65341" lon="3.67768">
        <ele>267.96048</ele>
        <time>2021-04-17T09:23:09.612Z</time>
      </trkpt>
      <trkpt lat="43.65338" lon="3.67777">
        <ele>268.236542</ele>
        <time>2021-04-17T09:23:11.515Z</time>
      </trkpt>
      <trkpt lat="43.65337" lon="3.67785">
        <ele>268.225952</ele>
        <time>2021-04-17T09:23:12.498Z</time>
      </trkpt>
      <trkpt lat="43.65336" lon="3.67793">
        <ele>267.94101</ele>
        <time>2021-04-17T09:23:13.039Z</time>
      </trkpt>
      <trkpt lat="43.65335" lon="3.67805">
        <ele>267.647766</ele>
        <time>2021-04-17T09:23:13.968Z</time>
      </trkpt>
      <trkpt lat="43.65341" lon="3.6781">
        <ele>267.26828</ele>
        <time>2021-04-17T09:23:14.584Z</time>
      </trkpt>
      <trkpt lat="43.65348" lon="3.67807">
        <ele>266.611237</ele>
        <time>2021-04-17T09:23:15.220Z</time>
      </trkpt>
      <trkpt lat="43.65355" lon="3.67803">
        <ele>266.347412</ele>
        <time>2021-04-17T09:23:16.014Z</time>
      </trkpt>
      <trkpt lat="43.65361" lon="3.67796">
        <ele>266.325287</ele>
        <time>2021-04-17T09:23:17.308Z</time>
      </trkpt>
      <trkpt lat="43.65367" lon="3.67788">
        <ele>266.453979</ele>
        <time>2021-04-17T09:23:18.976Z</time>
      </trkpt>
      <trkpt lat="43.65373" lon="3.67782">
        <ele>266.614044</ele>
        <time>2021-04-17T09:23:20.563Z</time>
      </trkpt>
      <trkpt lat="43.65379" lon="3.67774">
        <ele>266.71167</ele>
        <time>2021-04-17T09:23:22.168Z</time>
      </trkpt>
      <trkpt lat="43.65386" lon="3.67769">
        <ele>266.828339</ele>
        <time>2021-04-17T09:23:23.735Z</time>
      </trkpt>
      <trkpt lat="43.65393" lon="3.67762">
        <ele>266.851105</ele>
        <time>2021-04-17T09:23:25.256Z</time>
      </trkpt>
      <trkpt lat="43.654" lon="3.67755">
        <ele>266.637482</ele>
        <time>2021-04-17T09:23:26.264Z</time>
      </trkpt>
      <trkpt lat="43.65406" lon="3.67749">
        <ele>266.22818</ele>
        <time>2021-04-17T09:23:26.909Z</time>
      </trkpt>
      <trkpt lat="43.65413" lon="3.67743">
        <ele>265.768158</ele>
        <time>2021-04-17T09:23:27.623Z</time>
      </trkpt>
      <trkpt lat="43.6542" lon="3.67738">
        <ele>265.433929</ele>
        <time>2021-04-17T09:23:28.391Z</time>
      </trkpt>
      <trkpt lat="43.65427" lon="3.67736">
        <ele>265.422241</ele>
        <time>2021-04-17T09:23:29.589Z</time>
      </trkpt>
      <trkpt lat="43.65435" lon="3.67738">
        <ele>265.957672</ele>
        <time>2021-04-17T09:23:32.315Z</time>
      </trkpt>
      <trkpt lat="43.65443" lon="3.67734">
        <ele>266.551361</ele>
        <time>2021-04-17T09:23:35.252Z</time>
      </trkpt>
      <trkpt lat="43.65451" lon="3.67733">
        <ele>267.35376</ele>
        <time>2021-04-17T09:23:38.838Z</time>
      </trkpt>
      <trkpt lat="43.65459" lon="3.67734">
        <ele>268.088593</ele>
        <time>2021-04-17T09:23:42.153Z</time>
      </trkpt>
      <trkpt lat="43.65466" lon="3.67734">
        <ele>268.827759</ele>
        <time>2021-04-17T09:23:45.462Z</time>
      </trkpt>
      <trkpt lat="43.65474" lon="3.67733">
        <ele>269.559113</ele>
        <time>2021-04-17T09:23:48.763Z</time>
      </trkpt>
      <trkpt lat="43.65482" lon="3.67734">
        <ele>270.286133</ele>
        <time>2021-04-17T09:23:52.049Z</time>
      </trkpt>
      <trkpt lat="43.6549" lon="3.67732">
        <ele>270.900055</ele>
        <time>2021-04-17T09:23:54.982Z</time>
      </trkpt>
      <trkpt lat="43.65498" lon="3.67734">
        <ele>271.620422</ele>
        <time>2021-04-17T09:23:58.253Z</time>
      </trkpt>
      <trkpt lat="43.65506" lon="3.67736">
        <ele>272.502686</ele>
        <time>2021-04-17T09:24:02.215Z</time>
      </trkpt>
      <trkpt lat="43.65514" lon="3.67737">
        <ele>273.236969</ele>
        <time>2021-04-17T09:24:05.527Z</time>
      </trkpt>
      <trkpt lat="43.65522" lon="3.67738">
        <ele>273.947601</ele>
        <time>2021-04-17T09:24:08.754Z</time>
      </trkpt>
      <trkpt lat="43.65531" lon="3.67738">
        <ele>274.626465</ele>
        <time>2021-04-17T09:24:11.999Z</time>
      </trkpt>
      <trkpt lat="43.6554" lon="3.67739">
        <ele>275.433746</ele>
        <time>2021-04-17T09:24:15.657Z</time>
      </trkpt>
      <trkpt lat="43.6555" lon="3.67743">
        <ele>276.240387</ele>
        <time>2021-04-17T09:24:19.472Z</time>
      </trkpt>
      <trkpt lat="43.65561" lon="3.67748">
        <ele>277.132141</ele>
        <time>2021-04-17T09:24:23.700Z</time>
      </trkpt>
      <trkpt lat="43.65571" lon="3.67753">
        <ele>277.515656</ele>
        <time>2021-04-17T09:24:26.429Z</time>
      </trkpt>
      <trkpt lat="43.65583" lon="3.67757">
        <ele>277.425537</ele>
        <time>2021-04-17T09:24:28.214Z</time>
      </trkpt>
      <trkpt lat="43.65599" lon="3.67764">
        <ele>277.130493</ele>
        <time>2021-04-17T09:24:30.341Z</time>
      </trkpt>
      <trkpt lat="43.65622" lon="3.67771">
        <ele>276.727692</ele>
        <time>2021-04-17T09:24:33.342Z</time>
      </trkpt>
      <trkpt lat="43.65652" lon="3.67779">
        <ele>276.435883</ele>
        <time>2021-04-17T09:24:37.628Z</time>
      </trkpt>
      <trkpt lat="43.65681" lon="3.67786">
        <ele>275.758972</ele>
        <time>2021-04-17T09:24:41.129Z</time>
      </trkpt>
      <trkpt lat="43.65698" lon="3.67787">
        <ele>275.016815</ele>
        <time>2021-04-17T09:24:42.770Z</time>
      </trkpt>
      <trkpt lat="43.65686" lon="3.67811">
        <ele>274.434418</ele>
        <time>2021-04-17T09:24:45.155Z</time>
      </trkpt>
      <trkpt lat="43.65676" lon="3.67825">
        <ele>274.73587</ele>
        <time>2021-04-17T09:24:48.190Z</time>
      </trkpt>
      <trkpt lat="43.6567" lon="3.67831">
        <ele>275.44812</ele>
        <time>2021-04-17T09:24:51.381Z</time>
      </trkpt>
      <trkpt lat="43.65661" lon="3.67826">
        <ele>275.890167</ele>
        <time>2021-04-17T09:24:54.213Z</time>
      </trkpt>
      <trkpt lat="43.65648" lon="3.67831">
        <ele>276.134125</ele>
        <time>2021-04-17T09:24:56.992Z</time>
      </trkpt>
      <trkpt lat="43.65639" lon="3.67829">
        <ele>276.710449</ele>
        <time>2021-04-17T09:24:59.991Z</time>
      </trkpt>
      <trkpt lat="43.65631" lon="3.67834">
        <ele>277.096344</ele>
        <time>2021-04-17T09:25:02.517Z</time>
      </trkpt>
      <trkpt lat="43.65628" lon="3.67849">
        <ele>277.327515</ele>
        <time>2021-04-17T09:25:04.900Z</time>
      </trkpt>
      <trkpt lat="43.65629" lon="3.67854">
        <ele>277.414948</ele>
        <time>2021-04-17T09:25:05.720Z</time>
      </trkpt>
      <trkpt lat="43.65633" lon="3.67862">
        <ele>277.29361</ele>
        <time>2021-04-17T09:25:06.615Z</time>
      </trkpt>
      <trkpt lat="43.6564" lon="3.67897">
        <ele>276.655182</ele>
        <time>2021-04-17T09:25:09.694Z</time>
      </trkpt>
      <trkpt lat="43.65637" lon="3.67922">
        <ele>275.846497</ele>
        <time>2021-04-17T09:25:11.453Z</time>
      </trkpt>
      <trkpt lat="43.65631" lon="3.67948">
        <ele>273.160187</ele>
        <time>2021-04-17T09:25:13.168Z</time>
      </trkpt>
      <trkpt lat="43.65627" lon="3.67974">
        <ele>268.88504</ele>
        <time>2021-04-17T09:25:14.838Z</time>
      </trkpt>
      <trkpt lat="43.65617" lon="3.67997">
        <ele>266.998444</ele>
        <time>2021-04-17T09:25:16.524Z</time>
      </trkpt>
      <trkpt lat="43.65614" lon="3.68016">
        <ele>263.698242</ele>
        <time>2021-04-17T09:25:17.746Z</time>
      </trkpt>
      <trkpt lat="43.65613" lon="3.6804">
        <ele>258.597321</ele>
        <time>2021-04-17T09:25:19.257Z</time>
      </trkpt>
      <trkpt lat="43.65606" lon="3.68057">
        <ele>256.59024</ele>
        <time>2021-04-17T09:25:20.486Z</time>
      </trkpt>
      <trkpt lat="43.65609" lon="3.68077">
        <ele>252.831787</ele>
        <time>2021-04-17T09:25:21.769Z</time>
      </trkpt>
      <trkpt lat="43.65617" lon="3.68095">
        <ele>247.477463</ele>
        <time>2021-04-17T09:25:23.096Z</time>
      </trkpt>
      <trkpt lat="43.65632" lon="3.6809">
        <ele>244.164169</ele>
        <time>2021-04-17T09:25:24.436Z</time>
      </trkpt>
      <trkpt lat="43.65642" lon="3.68087">
        <ele>242.347733</ele>
        <time>2021-04-17T09:25:25.325Z</time>
      </trkpt>
      <trkpt lat="43.65653" lon="3.68078">
        <ele>242.101852</ele>
        <time>2021-04-17T09:25:26.913Z</time>
      </trkpt>
      <trkpt lat="43.65662" lon="3.6808">
        <ele>242.252441</ele>
        <time>2021-04-17T09:25:28.759Z</time>
      </trkpt>
      <trkpt lat="43.65669" lon="3.68084">
        <ele>241.885498</ele>
        <time>2021-04-17T09:25:29.458Z</time>
      </trkpt>
      <trkpt lat="43.65677" lon="3.68089">
        <ele>240.81218</ele>
        <time>2021-04-17T09:25:30.220Z</time>
      </trkpt>
      <trkpt lat="43.65683" lon="3.68095">
        <ele>239.116959</ele>
        <time>2021-04-17T09:25:30.864Z</time>
      </trkpt>
      <trkpt lat="43.6569" lon="3.68101">
        <ele>237.545715</ele>
        <time>2021-04-17T09:25:31.579Z</time>
      </trkpt>
      <trkpt lat="43.65699" lon="3.68106">
        <ele>236.165405</ele>
        <time>2021-04-17T09:25:32.421Z</time>
      </trkpt>
      <trkpt lat="43.65706" lon="3.68111">
        <ele>236.015015</ele>
        <time>2021-04-17T09:25:33.402Z</time>
      </trkpt>
      <trkpt lat="43.65714" lon="3.68117">
        <ele>236.461365</ele>
        <time>2021-04-17T09:25:36.120Z</time>
      </trkpt>
      <trkpt lat="43.6572" lon="3.68125">
        <ele>236.847763</ele>
        <time>2021-04-17T09:25:38.566Z</time>
      </trkpt>
      <trkpt lat="43.65725" lon="3.68133">
        <ele>236.799301</ele>
        <time>2021-04-17T09:25:39.764Z</time>
      </trkpt>
      <trkpt lat="43.65731" lon="3.68138">
        <ele>236.549911</ele>
        <time>2021-04-17T09:25:40.493Z</time>
      </trkpt>
      <trkpt lat="43.6574" lon="3.6815">
        <ele>236.530823</ele>
        <time>2021-04-17T09:25:42.593Z</time>
      </trkpt>
      <trkpt lat="43.65747" lon="3.68163">
        <ele>236.4198</ele>
        <time>2021-04-17T09:25:44.240Z</time>
      </trkpt>
      <trkpt lat="43.65748" lon="3.68168">
        <ele>235.78009</ele>
        <time>2021-04-17T09:25:44.566Z</time>
      </trkpt>
      <trkpt lat="43.6575" lon="3.6817">
        <ele>235.075134</ele>
        <time>2021-04-17T09:25:44.780Z</time>
      </trkpt>
      <trkpt lat="43.65752" lon="3.68175">
        <ele>234.622559</ele>
        <time>2021-04-17T09:25:45.139Z</time>
      </trkpt>
      <trkpt lat="43.65754" lon="3.68179">
        <ele>234.327271</ele>
        <time>2021-04-17T09:25:45.445Z</time>
      </trkpt>
      <trkpt lat="43.65764" lon="3.68197">
        <ele>232.270767</ele>
        <time>2021-04-17T09:25:46.871Z</time>
      </trkpt>
      <trkpt lat="43.65768" lon="3.68206">
        <ele>232.141983</ele>
        <time>2021-04-17T09:25:47.847Z</time>
      </trkpt>
      <trkpt lat="43.65777" lon="3.68219">
        <ele>231.643356</ele>
        <time>2021-04-17T09:25:49.167Z</time>
      </trkpt>
      <trkpt lat="43.65787" lon="3.68231">
        <ele>230.393509</ele>
        <time>2021-04-17T09:25:50.317Z</time>
      </trkpt>
      <trkpt lat="43.65796" lon="3.68241">
        <ele>230.063156</ele>
        <time>2021-04-17T09:25:51.608Z</time>
      </trkpt>
      <trkpt lat="43.65806" lon="3.68252">
        <ele>229.747391</ele>
        <time>2021-04-17T09:25:53.099Z</time>
      </trkpt>
      <trkpt lat="43.65811" lon="3.68263">
        <ele>229.210083</ele>
        <time>2021-04-17T09:25:53.905Z</time>
      </trkpt>
      <trkpt lat="43.65824" lon="3.68274">
        <ele>228.990005</ele>
        <time>2021-04-17T09:25:55.912Z</time>
      </trkpt>
      <trkpt lat="43.65832" lon="3.68289">
        <ele>228.513443</ele>
        <time>2021-04-17T09:25:57.318Z</time>
      </trkpt>
      <trkpt lat="43.65848" lon="3.68309">
        <ele>227.116714</ele>
        <time>2021-04-17T09:25:59.060Z</time>
      </trkpt>
      <trkpt lat="43.6586" lon="3.68329">
        <ele>226.001816</ele>
        <time>2021-04-17T09:26:00.644Z</time>
      </trkpt>
      <trkpt lat="43.65871" lon="3.68344">
        <ele>224.38176</ele>
        <time>2021-04-17T09:26:01.986Z</time>
      </trkpt>
      <trkpt lat="43.65877" lon="3.68365">
        <ele>223.702576</ele>
        <time>2021-04-17T09:26:03.590Z</time>
      </trkpt>
      <trkpt lat="43.6589" lon="3.68377">
        <ele>221.174072</ele>
        <time>2021-04-17T09:26:04.948Z</time>
      </trkpt>
      <trkpt lat="43.65907" lon="3.68382">
        <ele>219.902649</ele>
        <time>2021-04-17T09:26:06.457Z</time>
      </trkpt>
      <trkpt lat="43.65919" lon="3.68394">
        <ele>220.011353</ele>
        <time>2021-04-17T09:26:09.186Z</time>
      </trkpt>
      <trkpt lat="43.65924" lon="3.68405">
        <ele>219.504654</ele>
        <time>2021-04-17T09:26:10.014Z</time>
      </trkpt>
      <trkpt lat="43.65927" lon="3.68422">
        <ele>218.372696</ele>
        <time>2021-04-17T09:26:11.113Z</time>
      </trkpt>
      <trkpt lat="43.65929" lon="3.68434">
        <ele>216.160461</ele>
        <time>2021-04-17T09:26:11.887Z</time>
      </trkpt>
      <trkpt lat="43.65926" lon="3.68448">
        <ele>213.501755</ele>
        <time>2021-04-17T09:26:12.804Z</time>
      </trkpt>
      <trkpt lat="43.65932" lon="3.68454">
        <ele>211.480759</ele>
        <time>2021-04-17T09:26:13.447Z</time>
      </trkpt>
      <trkpt lat="43.65943" lon="3.68461">
        <ele>209.092667</ele>
        <time>2021-04-17T09:26:14.499Z</time>
      </trkpt>
      <trkpt lat="43.65956" lon="3.6847">
        <ele>208.606613</ele>
        <time>2021-04-17T09:26:16.045Z</time>
      </trkpt>
      <trkpt lat="43.65966" lon="3.68468">
        <ele>208.526382</ele>
        <time>2021-04-17T09:26:17.494Z</time>
      </trkpt>
      <trkpt lat="43.65972" lon="3.68482">
        <ele>208.763046</ele>
        <time>2021-04-17T09:26:19.974Z</time>
      </trkpt>
      <trkpt lat="43.65961" lon="3.68491">
        <ele>207.453415</ele>
        <time>2021-04-17T09:26:21.084Z</time>
      </trkpt>
      <trkpt lat="43.6595" lon="3.68494">
        <ele>204.462234</ele>
        <time>2021-04-17T09:26:22.058Z</time>
      </trkpt>
      <trkpt lat="43.65937" lon="3.68495">
        <ele>202.787766</ele>
        <time>2021-04-17T09:26:23.188Z</time>
      </trkpt>
      <trkpt lat="43.65926" lon="3.68493">
        <ele>201.808456</ele>
        <time>2021-04-17T09:26:24.152Z</time>
      </trkpt>
      <trkpt lat="43.6592" lon="3.685">
        <ele>201.187057</ele>
        <time>2021-04-17T09:26:24.834Z</time>
      </trkpt>
      <trkpt lat="43.6593" lon="3.68513">
        <ele>200.334717</ele>
        <time>2021-04-17T09:26:25.965Z</time>
      </trkpt>
      <trkpt lat="43.65949" lon="3.68514">
        <ele>198.909912</ele>
        <time>2021-04-17T09:26:27.616Z</time>
      </trkpt>
      <trkpt lat="43.65971" lon="3.68521">
        <ele>198.573898</ele>
        <time>2021-04-17T09:26:30.573Z</time>
      </trkpt>
      <trkpt lat="43.6599" lon="3.68526">
        <ele>198.242874</ele>
        <time>2021-04-17T09:26:33.037Z</time>
      </trkpt>
      <trkpt lat="43.66004" lon="3.68527">
        <ele>196.835312</ele>
        <time>2021-04-17T09:26:34.255Z</time>
      </trkpt>
      <trkpt lat="43.66014" lon="3.68514">
        <ele>196.289719</ele>
        <time>2021-04-17T09:26:35.627Z</time>
      </trkpt>
      <trkpt lat="43.66018" lon="3.68527">
        <ele>196.402176</ele>
        <time>2021-04-17T09:26:37.580Z</time>
      </trkpt>
      <trkpt lat="43.66015" lon="3.68545">
        <ele>195.869873</ele>
        <time>2021-04-17T09:26:38.915Z</time>
      </trkpt>
      <trkpt lat="43.66021" lon="3.68565">
        <ele>193.880295</ele>
        <time>2021-04-17T09:26:40.275Z</time>
      </trkpt>
      <trkpt lat="43.66011" lon="3.68577">
        <ele>189.806961</ele>
        <time>2021-04-17T09:26:41.425Z</time>
      </trkpt>
      <trkpt lat="43.65996" lon="3.68587">
        <ele>187.446609</ele>
        <time>2021-04-17T09:26:42.871Z</time>
      </trkpt>
      <trkpt lat="43.65986" lon="3.68596">
        <ele>186.573898</ele>
        <time>2021-04-17T09:26:43.908Z</time>
      </trkpt>
      <trkpt lat="43.66004" lon="3.68599">
        <ele>184.677505</ele>
        <time>2021-04-17T09:26:45.482Z</time>
      </trkpt>
      <trkpt lat="43.66016" lon="3.68596">
        <ele>184.567398</ele>
        <time>2021-04-17T09:26:47.205Z</time>
      </trkpt>
      <trkpt lat="43.66026" lon="3.68597">
        <ele>184.349045</ele>
        <time>2021-04-17T09:26:48.414Z</time>
      </trkpt>
      <trkpt lat="43.66039" lon="3.68591">
        <ele>183.961853</ele>
        <time>2021-04-17T09:26:49.952Z</time>
      </trkpt>
      <trkpt lat="43.66056" lon="3.68589">
        <ele>183.789124</ele>
        <time>2021-04-17T09:26:52.328Z</time>
      </trkpt>
      <trkpt lat="43.66068" lon="3.68603">
        <ele>183.457474</ele>
        <time>2021-04-17T09:26:54.236Z</time>
      </trkpt>
      <trkpt lat="43.66076" lon="3.68618">
        <ele>181.865158</ele>
        <time>2021-04-17T09:26:55.407Z</time>
      </trkpt>
      <trkpt lat="43.66076" lon="3.68631">
        <ele>179.777756</ele>
        <time>2021-04-17T09:26:56.223Z</time>
      </trkpt>
      <trkpt lat="43.66073" lon="3.68639">
        <ele>178.012451</ele>
        <time>2021-04-17T09:26:56.789Z</time>
      </trkpt>
      <trkpt lat="43.66073" lon="3.68644">
        <ele>177.196701</ele>
        <time>2021-04-17T09:26:57.104Z</time>
      </trkpt>
      <trkpt lat="43.66073" lon="3.68659">
        <ele>176.57959</ele>
        <time>2021-04-17T09:26:58.036Z</time>
      </trkpt>
      <trkpt lat="43.66073" lon="3.6868">
        <ele>175.319656</ele>
        <time>2021-04-17T09:26:59.356Z</time>
      </trkpt>
      <trkpt lat="43.6607" lon="3.6871">
        <ele>173.475098</ele>
        <time>2021-04-17T09:27:01.258Z</time>
      </trkpt>
      <trkpt lat="43.66063" lon="3.68737">
        <ele>171.364578</ele>
        <time>2021-04-17T09:27:03.060Z</time>
      </trkpt>
      <trkpt lat="43.66064" lon="3.68753">
        <ele>169.354004</ele>
        <time>2021-04-17T09:27:04.069Z</time>
      </trkpt>
      <trkpt lat="43.66061" lon="3.68763">
        <ele>168.758789</ele>
        <time>2021-04-17T09:27:04.749Z</time>
      </trkpt>
      <trkpt lat="43.66052" lon="3.68774">
        <ele>168.592941</ele>
        <time>2021-04-17T09:27:06.344Z</time>
      </trkpt>
      <trkpt lat="43.66041" lon="3.68786">
        <ele>168.659668</ele>
        <time>2021-04-17T09:27:08.862Z</time>
      </trkpt>
      <trkpt lat="43.66033" lon="3.68797">
        <ele>168.949051</ele>
        <time>2021-04-17T09:27:11.397Z</time>
      </trkpt>
      <trkpt lat="43.66018" lon="3.68819">
        <ele>168.999451</ele>
        <time>2021-04-17T09:27:15.236Z</time>
      </trkpt>
      <trkpt lat="43.66014" lon="3.68851">
        <ele>168.654037</ele>
        <time>2021-04-17T09:27:18.320Z</time>
      </trkpt>
      <trkpt lat="43.66011" lon="3.68887">
        <ele>167.672134</ele>
        <time>2021-04-17T09:27:20.999Z</time>
      </trkpt>
      <trkpt lat="43.66014" lon="3.68929">
        <ele>164.587021</ele>
        <time>2021-04-17T09:27:23.650Z</time>
      </trkpt>
      <trkpt lat="43.66019" lon="3.68966">
        <ele>161.327469</ele>
        <time>2021-04-17T09:27:26.015Z</time>
      </trkpt>
      <trkpt lat="43.66026" lon="3.68991">
        <ele>154.82103</ele>
        <time>2021-04-17T09:27:27.699Z</time>
      </trkpt>
      <trkpt lat="43.66029" lon="3.69018">
        <ele>151.06543</ele>
        <time>2021-04-17T09:27:29.416Z</time>
      </trkpt>
      <trkpt lat="43.66026" lon="3.69049">
        <ele>148.702316</ele>
        <time>2021-04-17T09:27:31.381Z</time>
      </trkpt>
      <trkpt lat="43.66019" lon="3.69081">
        <ele>148.233566</ele>
        <time>2021-04-17T09:27:34.380Z</time>
      </trkpt>
      <trkpt lat="43.66012" lon="3.6911">
        <ele>147.355881</ele>
        <time>2021-04-17T09:27:36.592Z</time>
      </trkpt>
      <trkpt lat="43.66002" lon="3.69131">
        <ele>146.328476</ele>
        <time>2021-04-17T09:27:38.160Z</time>
      </trkpt>
      <trkpt lat="43.65992" lon="3.69141">
        <ele>145.179428</ele>
        <time>2021-04-17T09:27:39.231Z</time>
      </trkpt>
      <trkpt lat="43.65976" lon="3.69148">
        <ele>144.466385</ele>
        <time>2021-04-17T09:27:40.866Z</time>
      </trkpt>
      <trkpt lat="43.65953" lon="3.69156">
        <ele>144.190567</ele>
        <time>2021-04-17T09:27:44.104Z</time>
      </trkpt>
      <trkpt lat="43.65928" lon="3.69161">
        <ele>143.698364</ele>
        <time>2021-04-17T09:27:47.232Z</time>
      </trkpt>
      <trkpt lat="43.65905" lon="3.6917">
        <ele>142.582016</ele>
        <time>2021-04-17T09:27:49.473Z</time>
      </trkpt>
      <trkpt lat="43.65881" lon="3.69182">
        <ele>141.895432</ele>
        <time>2021-04-17T09:27:52.379Z</time>
      </trkpt>
      <trkpt lat="43.65858" lon="3.69192">
        <ele>141.023361</ele>
        <time>2021-04-17T09:27:54.874Z</time>
      </trkpt>
      <trkpt lat="43.65834" lon="3.69196">
        <ele>140.203354</ele>
        <time>2021-04-17T09:27:57.433Z</time>
      </trkpt>
      <trkpt lat="43.65809" lon="3.69201">
        <ele>139.4384</ele>
        <time>2021-04-17T09:28:00.208Z</time>
      </trkpt>
      <trkpt lat="43.65785" lon="3.69206">
        <ele>138.451096</ele>
        <time>2021-04-17T09:28:02.612Z</time>
      </trkpt>
      <trkpt lat="43.65761" lon="3.69214">
        <ele>137.744125</ele>
        <time>2021-04-17T09:28:05.372Z</time>
      </trkpt>
      <trkpt lat="43.65743" lon="3.69246">
        <ele>137.215698</ele>
        <time>2021-04-17T09:28:09.068Z</time>
      </trkpt>
      <trkpt lat="43.65722" lon="3.69275">
        <ele>136.547531</ele>
        <time>2021-04-17T09:28:12.618Z</time>
      </trkpt>
      <trkpt lat="43.65712" lon="3.69314">
        <ele>136.152023</ele>
        <time>2021-04-17T09:28:16.621Z</time>
      </trkpt>
      <trkpt lat="43.65707" lon="3.69354">
        <ele>135.704758</ele>
        <time>2021-04-17T09:28:20.451Z</time>
      </trkpt>
      <trkpt lat="43.65691" lon="3.69383">
        <ele>135.485886</ele>
        <time>2021-04-17T09:28:24.216Z</time>
      </trkpt>
      <trkpt lat="43.65668" lon="3.69402">
        <ele>135.34938</ele>
        <time>2021-04-17T09:28:28.487Z</time>
      </trkpt>
      <trkpt lat="43.65646" lon="3.69421">
        <ele>135.485855</ele>
        <time>2021-04-17T09:28:33.171Z</time>
      </trkpt>
      <trkpt lat="43.65623" lon="3.69439">
        <ele>136.459473</ele>
        <time>2021-04-17T09:28:40.026Z</time>
      </trkpt>
      <trkpt lat="43.65604" lon="3.69461">
        <ele>136.917328</ele>
        <time>2021-04-17T09:28:45.153Z</time>
      </trkpt>
      <trkpt lat="43.65602" lon="3.69504">
        <ele>136.81337</ele>
        <time>2021-04-17T09:28:50.250Z</time>
      </trkpt>
      <trkpt lat="43.65603" lon="3.69553">
        <ele>134.506531</ele>
        <time>2021-04-17T09:28:53.107Z</time>
      </trkpt>
      <trkpt lat="43.65604" lon="3.696">
        <ele>131.554153</ele>
        <time>2021-04-17T09:28:56.061Z</time>
      </trkpt>
      <trkpt lat="43.65604" lon="3.69641">
        <ele>128.439713</ele>
        <time>2021-04-17T09:28:58.637Z</time>
      </trkpt>
      <trkpt lat="43.65604" lon="3.69677">
        <ele>125.926598</ele>
        <time>2021-04-17T09:29:00.899Z</time>
      </trkpt>
      <trkpt lat="43.65621" lon="3.6969">
        <ele>124.181877</ele>
        <time>2021-04-17T09:29:02.586Z</time>
      </trkpt>
      <trkpt lat="43.6565" lon="3.69687">
        <ele>123.123047</ele>
        <time>2021-04-17T09:29:05.588Z</time>
      </trkpt>
      <trkpt lat="43.65681" lon="3.69686">
        <ele>123.114571</ele>
        <time>2021-04-17T09:29:10.895Z</time>
      </trkpt>
      <trkpt lat="43.6571" lon="3.69681">
        <ele>123.130341</ele>
        <time>2021-04-17T09:29:15.942Z</time>
      </trkpt>
      <trkpt lat="43.65739" lon="3.69678">
        <ele>123.086731</ele>
        <time>2021-04-17T09:29:20.828Z</time>
      </trkpt>
      <trkpt lat="43.65766" lon="3.69679">
        <ele>122.955544</ele>
        <time>2021-04-17T09:29:25.148Z</time>
      </trkpt>
      <trkpt lat="43.65791" lon="3.69685">
        <ele>122.544952</ele>
        <time>2021-04-17T09:29:28.418Z</time>
      </trkpt>
      <trkpt lat="43.65813" lon="3.69694">
        <ele>122.259033</ele>
        <time>2021-04-17T09:29:31.516Z</time>
      </trkpt>
      <trkpt lat="43.6582" lon="3.69707">
        <ele>122.163368</ele>
        <time>2021-04-17T09:29:33.192Z</time>
      </trkpt>
      <trkpt lat="43.65829" lon="3.69723">
        <ele>122.261299</ele>
        <time>2021-04-17T09:29:35.876Z</time>
      </trkpt>
      <trkpt lat="43.65845" lon="3.69727">
        <ele>122.433113</ele>
        <time>2021-04-17T09:29:38.970Z</time>
      </trkpt>
      <trkpt lat="43.65862" lon="3.69729">
        <ele>122.433159</ele>
        <time>2021-04-17T09:29:41.902Z</time>
      </trkpt>
      <trkpt lat="43.65879" lon="3.69734">
        <ele>122.380211</ele>
        <time>2021-04-17T09:29:44.755Z</time>
      </trkpt>
      <trkpt lat="43.65895" lon="3.69737">
        <ele>122.375549</ele>
        <time>2021-04-17T09:29:47.518Z</time>
      </trkpt>
      <trkpt lat="43.65909" lon="3.6974">
        <ele>122.396324</ele>
        <time>2021-04-17T09:29:49.986Z</time>
      </trkpt>
      <trkpt lat="43.65918" lon="3.69744">
        <ele>122.610268</ele>
        <time>2021-04-17T09:29:52.035Z</time>
      </trkpt>
      <trkpt lat="43.65925" lon="3.69748">
        <ele>122.782471</ele>
        <time>2021-04-17T09:29:53.679Z</time>
      </trkpt>
      <trkpt lat="43.65931" lon="3.69754">
        <ele>123.003746</ele>
        <time>2021-04-17T09:29:55.431Z</time>
      </trkpt>
      <trkpt lat="43.65938" lon="3.69757">
        <ele>123.276855</ele>
        <time>2021-04-17T09:29:57.343Z</time>
      </trkpt>
      <trkpt lat="43.65945" lon="3.69757">
        <ele>123.501305</ele>
        <time>2021-04-17T09:29:59.047Z</time>
      </trkpt>
      <trkpt lat="43.65953" lon="3.69758">
        <ele>123.62484</ele>
        <time>2021-04-17T09:30:00.653Z</time>
      </trkpt>
      <trkpt lat="43.6596" lon="3.69758">
        <ele>123.760254</ele>
        <time>2021-04-17T09:30:02.115Z</time>
      </trkpt>
      <trkpt lat="43.65968" lon="3.69762">
        <ele>123.885902</ele>
        <time>2021-04-17T09:30:03.806Z</time>
      </trkpt>
      <trkpt lat="43.65973" lon="3.6977">
        <ele>124.257133</ele>
        <time>2021-04-17T09:30:06.082Z</time>
      </trkpt>
      <trkpt lat="43.65981" lon="3.69778">
        <ele>125.018929</ele>
        <time>2021-04-17T09:30:09.691Z</time>
      </trkpt>
      <trkpt lat="43.65989" lon="3.69784">
        <ele>125.844856</ele>
        <time>2021-04-17T09:30:13.422Z</time>
      </trkpt>
      <trkpt lat="43.65995" lon="3.69791">
        <ele>126.611938</ele>
        <time>2021-04-17T09:30:16.854Z</time>
      </trkpt>
      <trkpt lat="43.66002" lon="3.69794">
        <ele>127.207458</ele>
        <time>2021-04-17T09:30:19.624Z</time>
      </trkpt>
      <trkpt lat="43.6601" lon="3.69799">
        <ele>127.841736</ele>
        <time>2021-04-17T09:30:22.712Z</time>
      </trkpt>
      <trkpt lat="43.66016" lon="3.69807">
        <ele>128.439835</ele>
        <time>2021-04-17T09:30:25.633Z</time>
      </trkpt>
      <trkpt lat="43.6602" lon="3.69815">
        <ele>128.97644</ele>
        <time>2021-04-17T09:30:28.187Z</time>
      </trkpt>
      <trkpt lat="43.66024" lon="3.69823">
        <ele>129.574875</ele>
        <time>2021-04-17T09:30:30.931Z</time>
      </trkpt>
      <trkpt lat="43.6603" lon="3.6983">
        <ele>130.326233</ele>
        <time>2021-04-17T09:30:34.299Z</time>
      </trkpt>
      <trkpt lat="43.66038" lon="3.69837">
        <ele>130.861069</ele>
        <time>2021-04-17T09:30:37.270Z</time>
      </trkpt>
      <trkpt lat="43.66045" lon="3.69844">
        <ele>131.667068</ele>
        <time>2021-04-17T09:30:40.894Z</time>
      </trkpt>
      <trkpt lat="43.66054" lon="3.69849">
        <ele>132.345505</ele>
        <time>2021-04-17T09:30:44.247Z</time>
      </trkpt>
      <trkpt lat="43.66064" lon="3.69855">
        <ele>132.977951</ele>
        <time>2021-04-17T09:30:47.704Z</time>
      </trkpt>
      <trkpt lat="43.66072" lon="3.69864">
        <ele>133.416672</ele>
        <time>2021-04-17T09:30:50.608Z</time>
      </trkpt>
      <trkpt lat="43.6608" lon="3.69874">
        <ele>134.3535</ele>
        <time>2021-04-17T09:30:54.881Z</time>
      </trkpt>
      <trkpt lat="43.66087" lon="3.69885">
        <ele>135.018402</ele>
        <time>2021-04-17T09:30:58.356Z</time>
      </trkpt>
      <trkpt lat="43.66093" lon="3.69896">
        <ele>135.681442</ele>
        <time>2021-04-17T09:31:01.714Z</time>
      </trkpt>
      <trkpt lat="43.66101" lon="3.69908">
        <ele>136.565659</ele>
        <time>2021-04-17T09:31:05.953Z</time>
      </trkpt>
      <trkpt lat="43.66108" lon="3.69919">
        <ele>137.714325</ele>
        <time>2021-04-17T09:31:11.111Z</time>
      </trkpt>
      <trkpt lat="43.66114" lon="3.69932">
        <ele>138.262268</ele>
        <time>2021-04-17T09:31:14.444Z</time>
      </trkpt>
      <trkpt lat="43.66119" lon="3.69944">
        <ele>139.499786</ele>
        <time>2021-04-17T09:31:20.252Z</time>
      </trkpt>
      <trkpt lat="43.66122" lon="3.69958">
        <ele>140.49501</ele>
        <time>2021-04-17T09:31:24.721Z</time>
      </trkpt>
      <trkpt lat="43.66126" lon="3.69971">
        <ele>141.437454</ele>
        <time>2021-04-17T09:31:28.966Z</time>
      </trkpt>
      <trkpt lat="43.66132" lon="3.69983">
        <ele>142.327469</ele>
        <time>2021-04-17T09:31:33.058Z</time>
      </trkpt>
      <trkpt lat="43.66139" lon="3.69993">
        <ele>143.280777</ele>
        <time>2021-04-17T09:31:37.336Z</time>
      </trkpt>
      <trkpt lat="43.66145" lon="3.70002">
        <ele>144.483078</ele>
        <time>2021-04-17T09:31:43.205Z</time>
      </trkpt>
      <trkpt lat="43.66151" lon="3.70011">
        <ele>145.450638</ele>
        <time>2021-04-17T09:31:47.555Z</time>
      </trkpt>
      <trkpt lat="43.66158" lon="3.70019">
        <ele>146.273438</ele>
        <time>2021-04-17T09:31:51.273Z</time>
      </trkpt>
      <trkpt lat="43.66165" lon="3.70026">
        <ele>147.060287</ele>
        <time>2021-04-17T09:31:54.825Z</time>
      </trkpt>
      <trkpt lat="43.66172" lon="3.70033">
        <ele>147.572678</ele>
        <time>2021-04-17T09:31:57.590Z</time>
      </trkpt>
      <trkpt lat="43.6618" lon="3.70037">
        <ele>147.927322</ele>
        <time>2021-04-17T09:31:59.955Z</time>
      </trkpt>
      <trkpt lat="43.66188" lon="3.70042">
        <ele>148.090088</ele>
        <time>2021-04-17T09:32:01.772Z</time>
      </trkpt>
      <trkpt lat="43.66198" lon="3.70046">
        <ele>148.141037</ele>
        <time>2021-04-17T09:32:03.645Z</time>
      </trkpt>
      <trkpt lat="43.66207" lon="3.70049">
        <ele>148.202469</ele>
        <time>2021-04-17T09:32:05.339Z</time>
      </trkpt>
      <trkpt lat="43.66216" lon="3.70053">
        <ele>148.168869</ele>
        <time>2021-04-17T09:32:06.880Z</time>
      </trkpt>
      <trkpt lat="43.66224" lon="3.70058">
        <ele>148.131348</ele>
        <time>2021-04-17T09:32:08.296Z</time>
      </trkpt>
      <trkpt lat="43.66233" lon="3.70063">
        <ele>148.217453</ele>
        <time>2021-04-17T09:32:10.110Z</time>
      </trkpt>
      <trkpt lat="43.66242" lon="3.70068">
        <ele>148.322998</ele>
        <time>2021-04-17T09:32:11.962Z</time>
      </trkpt>
      <trkpt lat="43.66251" lon="3.70073">
        <ele>148.506638</ele>
        <time>2021-04-17T09:32:13.978Z</time>
      </trkpt>
      <trkpt lat="43.66261" lon="3.70075">
        <ele>148.697678</ele>
        <time>2021-04-17T09:32:16.078Z</time>
      </trkpt>
      <trkpt lat="43.6627" lon="3.70078">
        <ele>148.818466</ele>
        <time>2021-04-17T09:32:17.885Z</time>
      </trkpt>
      <trkpt lat="43.6628" lon="3.70082">
        <ele>148.892548</ele>
        <time>2021-04-17T09:32:19.799Z</time>
      </trkpt>
      <trkpt lat="43.66289" lon="3.70086">
        <ele>148.973938</ele>
        <time>2021-04-17T09:32:21.563Z</time>
      </trkpt>
      <trkpt lat="43.66296" lon="3.70091">
        <ele>149.107422</ele>
        <time>2021-04-17T09:32:23.165Z</time>
      </trkpt>
      <trkpt lat="43.66299" lon="3.70099">
        <ele>149.399643</ele>
        <time>2021-04-17T09:32:25.060Z</time>
      </trkpt>
      <trkpt lat="43.66301" lon="3.70107">
        <ele>149.580521</ele>
        <time>2021-04-17T09:32:26.503Z</time>
      </trkpt>
      <trkpt lat="43.66302" lon="3.70114">
        <ele>150.122269</ele>
        <time>2021-04-17T09:32:28.926Z</time>
      </trkpt>
      <trkpt lat="43.66301" lon="3.70122">
        <ele>151.48761</ele>
        <time>2021-04-17T09:32:32.819Z</time>
      </trkpt>
      <trkpt lat="43.66302" lon="3.70131">
        <ele>152.320145</ele>
        <time>2021-04-17T09:32:36.782Z</time>
      </trkpt>
      <trkpt lat="43.66303" lon="3.70138">
        <ele>153.352402</ele>
        <time>2021-04-17T09:32:40.203Z</time>
      </trkpt>
      <trkpt lat="43.66304" lon="3.70143">
        <ele>154.232101</ele>
        <time>2021-04-17T09:32:42.691Z</time>
      </trkpt>
      <trkpt lat="43.66307" lon="3.70162">
        <ele>156.394058</ele>
        <time>2021-04-17T09:32:52.016Z</time>
      </trkpt>
      <trkpt lat="43.66308" lon="3.70167">
        <ele>156.982971</ele>
        <time>2021-04-17T09:32:54.504Z</time>
      </trkpt>
      <trkpt lat="43.66308" lon="3.70171">
        <ele>157.588974</ele>
        <time>2021-04-17T09:32:56.422Z</time>
      </trkpt>
      <trkpt lat="43.66307" lon="3.70177">
        <ele>157.996231</ele>
        <time>2021-04-17T09:32:58.259Z</time>
      </trkpt>
      <trkpt lat="43.6631" lon="3.70181">
        <ele>158.80925</ele>
        <time>2021-04-17T09:33:01.022Z</time>
      </trkpt>
      <trkpt lat="43.66313" lon="3.70185">
        <ele>159.473129</ele>
        <time>2021-04-17T09:33:03.784Z</time>
      </trkpt>
      <trkpt lat="43.66315" lon="3.7019">
        <ele>159.9198</ele>
        <time>2021-04-17T09:33:05.789Z</time>
      </trkpt>
      <trkpt lat="43.66316" lon="3.70195">
        <ele>160.602463</ele>
        <time>2021-04-17T09:33:08.277Z</time>
      </trkpt>
      <trkpt lat="43.66319" lon="3.70201">
        <ele>161.289246</ele>
        <time>2021-04-17T09:33:11.616Z</time>
      </trkpt>
      <trkpt lat="43.66322" lon="3.70205">
        <ele>161.816544</ele>
        <time>2021-04-17T09:33:14.128Z</time>
      </trkpt>
      <trkpt lat="43.66324" lon="3.70209">
        <ele>162.42038</ele>
        <time>2021-04-17T09:33:16.459Z</time>
      </trkpt>
      <trkpt lat="43.66327" lon="3.70214">
        <ele>162.942307</ele>
        <time>2021-04-17T09:33:18.813Z</time>
      </trkpt>
      <trkpt lat="43.66328" lon="3.70218">
        <ele>163.35083</ele>
        <time>2021-04-17T09:33:20.842Z</time>
      </trkpt>
      <trkpt lat="43.66333" lon="3.70234">
        <ele>164.605118</ele>
        <time>2021-04-17T09:33:26.449Z</time>
      </trkpt>
      <trkpt lat="43.66335" lon="3.70243">
        <ele>165.796585</ele>
        <time>2021-04-17T09:33:30.963Z</time>
      </trkpt>
      <trkpt lat="43.66337" lon="3.70251">
        <ele>166.668564</ele>
        <time>2021-04-17T09:33:35.022Z</time>
      </trkpt>
      <trkpt lat="43.66338" lon="3.70258">
        <ele>167.682938</ele>
        <time>2021-04-17T09:33:38.443Z</time>
      </trkpt>
      <trkpt lat="43.6634" lon="3.70266">
        <ele>168.761642</ele>
        <time>2021-04-17T09:33:42.502Z</time>
      </trkpt>
      <trkpt lat="43.66341" lon="3.70272">
        <ele>169.669113</ele>
        <time>2021-04-17T09:33:45.454Z</time>
      </trkpt>
      <trkpt lat="43.66344" lon="3.70278">
        <ele>170.318436</ele>
        <time>2021-04-17T09:33:48.496Z</time>
      </trkpt>
      <trkpt lat="43.66346" lon="3.70284">
        <ele>171.147461</ele>
        <time>2021-04-17T09:33:51.664Z</time>
      </trkpt>
      <trkpt lat="43.66348" lon="3.70288">
        <ele>171.741943</ele>
        <time>2021-04-17T09:33:53.995Z</time>
      </trkpt>
      <trkpt lat="43.66354" lon="3.70299">
        <ele>172.805008</ele>
        <time>2021-04-17T09:33:58.759Z</time>
      </trkpt>
      <trkpt lat="43.66356" lon="3.70303">
        <ele>173.205154</ele>
        <time>2021-04-17T09:34:00.574Z</time>
      </trkpt>
      <trkpt lat="43.66358" lon="3.70306">
        <ele>173.519363</ele>
        <time>2021-04-17T09:34:01.982Z</time>
      </trkpt>
      <trkpt lat="43.66361" lon="3.7031">
        <ele>173.758865</ele>
        <time>2021-04-17T09:34:03.298Z</time>
      </trkpt>
      <trkpt lat="43.66361" lon="3.70313">
        <ele>174.174622</ele>
        <time>2021-04-17T09:34:04.737Z</time>
      </trkpt>
      <trkpt lat="43.66361" lon="3.70317">
        <ele>174.539444</ele>
        <time>2021-04-17T09:34:06.471Z</time>
      </trkpt>
      <trkpt lat="43.66361" lon="3.70321">
        <ele>174.858383</ele>
        <time>2021-04-17T09:34:07.907Z</time>
      </trkpt>
      <trkpt lat="43.66362" lon="3.70325">
        <ele>175.195908</ele>
        <time>2021-04-17T09:34:09.427Z</time>
      </trkpt>
      <trkpt lat="43.66369" lon="3.70352">
        <ele>177.548233</ele>
        <time>2021-04-17T09:34:20.089Z</time>
      </trkpt>
      <trkpt lat="43.66369" lon="3.70357">
        <ele>177.912064</ele>
        <time>2021-04-17T09:34:21.714Z</time>
      </trkpt>
      <trkpt lat="43.66369" lon="3.70361">
        <ele>178.190659</ele>
        <time>2021-04-17T09:34:22.962Z</time>
      </trkpt>
      <trkpt lat="43.66368" lon="3.70365">
        <ele>178.788254</ele>
        <time>2021-04-17T09:34:24.991Z</time>
      </trkpt>
      <trkpt lat="43.66369" lon="3.7037">
        <ele>179.278732</ele>
        <time>2021-04-17T09:34:27.384Z</time>
      </trkpt>
      <trkpt lat="43.6637" lon="3.70374">
        <ele>179.613647</ele>
        <time>2021-04-17T09:34:28.890Z</time>
      </trkpt>
      <trkpt lat="43.66372" lon="3.70379">
        <ele>180.07338</ele>
        <time>2021-04-17T09:34:30.964Z</time>
      </trkpt>
      <trkpt lat="43.66377" lon="3.70396">
        <ele>180.754349</ele>
        <time>2021-04-17T09:34:34.988Z</time>
      </trkpt>
      <trkpt lat="43.66383" lon="3.70401">
        <ele>180.993469</ele>
        <time>2021-04-17T09:34:36.739Z</time>
      </trkpt>
      <trkpt lat="43.66389" lon="3.70403">
        <ele>181.287048</ele>
        <time>2021-04-17T09:34:38.565Z</time>
      </trkpt>
      <trkpt lat="43.6638" lon="3.70412">
        <ele>181.823929</ele>
        <time>2021-04-17T09:34:41.867Z</time>
      </trkpt>
      <trkpt lat="43.66377" lon="3.70415">
        <ele>181.971634</ele>
        <time>2021-04-17T09:34:42.869Z</time>
      </trkpt>
      <trkpt lat="43.66367" lon="3.70426">
        <ele>182.587936</ele>
        <time>2021-04-17T09:34:46.665Z</time>
      </trkpt>
      <trkpt lat="43.66364" lon="3.7043">
        <ele>182.768936</ele>
        <time>2021-04-17T09:34:47.855Z</time>
      </trkpt>
      <trkpt lat="43.66351" lon="3.70437">
        <ele>182.947769</ele>
        <time>2021-04-17T09:34:50.571Z</time>
      </trkpt>
      <trkpt lat="43.66343" lon="3.70439">
        <ele>182.950867</ele>
        <time>2021-04-17T09:34:51.973Z</time>
      </trkpt>
      <trkpt lat="43.66333" lon="3.70433">
        <ele>182.868301</ele>
        <time>2021-04-17T09:34:53.544Z</time>
      </trkpt>
      <trkpt lat="43.66325" lon="3.70434">
        <ele>182.576111</ele>
        <time>2021-04-17T09:34:54.374Z</time>
      </trkpt>
      <trkpt lat="43.66314" lon="3.70414">
        <ele>182.394363</ele>
        <time>2021-04-17T09:34:56.908Z</time>
      </trkpt>
      <trkpt lat="43.66304" lon="3.70413">
        <ele>182.405151</ele>
        <time>2021-04-17T09:34:58.648Z</time>
      </trkpt>
      <trkpt lat="43.66293" lon="3.70404">
        <ele>182.306747</ele>
        <time>2021-04-17T09:35:00.487Z</time>
      </trkpt>
      <trkpt lat="43.66279" lon="3.704">
        <ele>182.349121</ele>
        <time>2021-04-17T09:35:03.012Z</time>
      </trkpt>
      <trkpt lat="43.66273" lon="3.70408">
        <ele>182.321701</ele>
        <time>2021-04-17T09:35:04.376Z</time>
      </trkpt>
      <trkpt lat="43.66272" lon="3.70417">
        <ele>181.955032</ele>
        <time>2021-04-17T09:35:04.948Z</time>
      </trkpt>
      <trkpt lat="43.66266" lon="3.70425">
        <ele>181.345093</ele>
        <time>2021-04-17T09:35:05.672Z</time>
      </trkpt>
      <trkpt lat="43.66259" lon="3.70433">
        <ele>180.79985</ele>
        <time>2021-04-17T09:35:06.433Z</time>
      </trkpt>
      <trkpt lat="43.66245" lon="3.70443">
        <ele>179.857132</ele>
        <time>2021-04-17T09:35:07.755Z</time>
      </trkpt>
      <trkpt lat="43.66233" lon="3.70452">
        <ele>178.606934</ele>
        <time>2021-04-17T09:35:08.941Z</time>
      </trkpt>
      <trkpt lat="43.66221" lon="3.7046">
        <ele>177.020996</ele>
        <time>2021-04-17T09:35:10.098Z</time>
      </trkpt>
      <trkpt lat="43.66211" lon="3.70459">
        <ele>175.623047</ele>
        <time>2021-04-17T09:35:10.969Z</time>
      </trkpt>
      <trkpt lat="43.66195" lon="3.70447">
        <ele>175.674805</ele>
        <time>2021-04-17T09:35:14.180Z</time>
      </trkpt>
      <trkpt lat="43.66184" lon="3.70457">
        <ele>175.734863</ele>
        <time>2021-04-17T09:35:16.542Z</time>
      </trkpt>
      <trkpt lat="43.66171" lon="3.70466">
        <ele>174.285156</ele>
        <time>2021-04-17T09:35:17.804Z</time>
      </trkpt>
      <trkpt lat="43.66156" lon="3.70478">
        <ele>172.263321</ele>
        <time>2021-04-17T09:35:19.309Z</time>
      </trkpt>
      <trkpt lat="43.66142" lon="3.70487">
        <ele>170.358582</ele>
        <time>2021-04-17T09:35:20.650Z</time>
      </trkpt>
      <trkpt lat="43.66126" lon="3.70489">
        <ele>168.429916</ele>
        <time>2021-04-17T09:35:22.045Z</time>
      </trkpt>
      <trkpt lat="43.66107" lon="3.70503">
        <ele>167.169846</ele>
        <time>2021-04-17T09:35:23.871Z</time>
      </trkpt>
      <trkpt lat="43.66089" lon="3.70505">
        <ele>164.015228</ele>
        <time>2021-04-17T09:35:25.439Z</time>
      </trkpt>
      <trkpt lat="43.66071" lon="3.70499">
        <ele>162.540848</ele>
        <time>2021-04-17T09:35:27.047Z</time>
      </trkpt>
      <trkpt lat="43.66053" lon="3.70494">
        <ele>160.789597</ele>
        <time>2021-04-17T09:35:28.642Z</time>
      </trkpt>
      <trkpt lat="43.66028" lon="3.70483">
        <ele>158.03157</ele>
        <time>2021-04-17T09:35:30.920Z</time>
      </trkpt>
      <trkpt lat="43.66007" lon="3.70471">
        <ele>156.565582</ele>
        <time>2021-04-17T09:35:32.758Z</time>
      </trkpt>
      <trkpt lat="43.65984" lon="3.70463">
        <ele>152.928787</ele>
        <time>2021-04-17T09:35:34.818Z</time>
      </trkpt>
      <trkpt lat="43.6596" lon="3.70452">
        <ele>149.913406</ele>
        <time>2021-04-17T09:35:37.014Z</time>
      </trkpt>
      <trkpt lat="43.65939" lon="3.70435">
        <ele>146.968948</ele>
        <time>2021-04-17T09:35:39.127Z</time>
      </trkpt>
      <trkpt lat="43.65926" lon="3.70422">
        <ele>145.169739</ele>
        <time>2021-04-17T09:35:40.521Z</time>
      </trkpt>
      <trkpt lat="43.65912" lon="3.70422">
        <ele>144.588318</ele>
        <time>2021-04-17T09:35:41.897Z</time>
      </trkpt>
      <trkpt lat="43.65897" lon="3.70421">
        <ele>143.228439</ele>
        <time>2021-04-17T09:35:43.201Z</time>
      </trkpt>
      <trkpt lat="43.65878" lon="3.70421">
        <ele>141.525192</ele>
        <time>2021-04-17T09:35:44.851Z</time>
      </trkpt>
      <trkpt lat="43.65854" lon="3.70422">
        <ele>139.162354</ele>
        <time>2021-04-17T09:35:46.936Z</time>
      </trkpt>
      <trkpt lat="43.65839" lon="3.70421">
        <ele>135.633545</ele>
        <time>2021-04-17T09:35:48.240Z</time>
      </trkpt>
      <trkpt lat="43.65817" lon="3.70427">
        <ele>132.778809</ele>
        <time>2021-04-17T09:35:50.188Z</time>
      </trkpt>
      <trkpt lat="43.65805" lon="3.70431">
        <ele>129.612549</ele>
        <time>2021-04-17T09:35:51.260Z</time>
      </trkpt>
      <trkpt lat="43.65794" lon="3.70433">
        <ele>127.039795</ele>
        <time>2021-04-17T09:35:52.223Z</time>
      </trkpt>
      <trkpt lat="43.65786" lon="3.70435">
        <ele>124.716064</ele>
        <time>2021-04-17T09:35:52.929Z</time>
      </trkpt>
      <trkpt lat="43.65772" lon="3.70436">
        <ele>123.171631</ele>
        <time>2021-04-17T09:35:54.147Z</time>
      </trkpt>
      <trkpt lat="43.65755" lon="3.70441">
        <ele>120.38208</ele>
        <time>2021-04-17T09:35:55.656Z</time>
      </trkpt>
      <trkpt lat="43.65735" lon="3.70442">
        <ele>117.813721</ele>
        <time>2021-04-17T09:35:57.394Z</time>
      </trkpt>
      <trkpt lat="43.65715" lon="3.70431">
        <ele>114.830498</ele>
        <time>2021-04-17T09:35:59.264Z</time>
      </trkpt>
      <trkpt lat="43.65706" lon="3.70423">
        <ele>113.363403</ele>
        <time>2021-04-17T09:36:00.193Z</time>
      </trkpt>
      <trkpt lat="43.65688" lon="3.70415">
        <ele>112.229454</ele>
        <time>2021-04-17T09:36:01.778Z</time>
      </trkpt>
      <trkpt lat="43.65664" lon="3.70407">
        <ele>111.261902</ele>
        <time>2021-04-17T09:36:04.258Z</time>
      </trkpt>
      <trkpt lat="43.65651" lon="3.70395">
        <ele>110.615509</ele>
        <time>2021-04-17T09:36:05.797Z</time>
      </trkpt>
      <trkpt lat="43.65642" lon="3.70381">
        <ele>110.560791</ele>
        <time>2021-04-17T09:36:07.990Z</time>
      </trkpt>
      <trkpt lat="43.65632" lon="3.70361">
        <ele>110.795898</ele>
        <time>2021-04-17T09:36:11.435Z</time>
      </trkpt>
      <trkpt lat="43.65622" lon="3.70337">
        <ele>110.814522</ele>
        <time>2021-04-17T09:36:14.908Z</time>
      </trkpt>
      <trkpt lat="43.65613" lon="3.70314">
        <ele>110.7006</ele>
        <time>2021-04-17T09:36:17.884Z</time>
      </trkpt>
      <trkpt lat="43.65603" lon="3.703">
        <ele>110.697258</ele>
        <time>2021-04-17T09:36:20.321Z</time>
      </trkpt>
      <trkpt lat="43.65593" lon="3.70313">
        <ele>110.763191</ele>
        <time>2021-04-17T09:36:22.789Z</time>
      </trkpt>
      <trkpt lat="43.65593" lon="3.70344">
        <ele>110.633339</ele>
        <time>2021-04-17T09:36:26.329Z</time>
      </trkpt>
      <trkpt lat="43.65592" lon="3.70371">
        <ele>110.317261</ele>
        <time>2021-04-17T09:36:28.851Z</time>
      </trkpt>
      <trkpt lat="43.65592" lon="3.70392">
        <ele>110.055237</ele>
        <time>2021-04-17T09:36:30.784Z</time>
      </trkpt>
      <trkpt lat="43.65587" lon="3.70407">
        <ele>109.688972</ele>
        <time>2021-04-17T09:36:32.091Z</time>
      </trkpt>
      <trkpt lat="43.65575" lon="3.7042">
        <ele>109.439575</ele>
        <time>2021-04-17T09:36:34.052Z</time>
      </trkpt>
      <trkpt lat="43.65563" lon="3.70435">
        <ele>109.435265</ele>
        <time>2021-04-17T09:36:36.821Z</time>
      </trkpt>
      <trkpt lat="43.65555" lon="3.70457">
        <ele>109.665367</ele>
        <time>2021-04-17T09:36:40.293Z</time>
      </trkpt>
      <trkpt lat="43.65549" lon="3.70479">
        <ele>109.799644</ele>
        <time>2021-04-17T09:36:43.444Z</time>
      </trkpt>
      <trkpt lat="43.65542" lon="3.705">
        <ele>109.843895</ele>
        <time>2021-04-17T09:36:46.390Z</time>
      </trkpt>
      <trkpt lat="43.65534" lon="3.70523">
        <ele>109.948814</ele>
        <time>2021-04-17T09:36:49.738Z</time>
      </trkpt>
      <trkpt lat="43.65522" lon="3.70542">
        <ele>110.006493</ele>
        <time>2021-04-17T09:36:52.967Z</time>
      </trkpt>
      <trkpt lat="43.65506" lon="3.70527">
        <ele>111.107628</ele>
        <time>2021-04-17T09:36:59.054Z</time>
      </trkpt>
      <trkpt lat="43.65504" lon="3.70515">
        <ele>111.6717</ele>
        <time>2021-04-17T09:37:01.987Z</time>
      </trkpt>
      <trkpt lat="43.65504" lon="3.70506">
        <ele>111.941429</ele>
        <time>2021-04-17T09:37:03.790Z</time>
      </trkpt>
      <trkpt lat="43.655" lon="3.70498">
        <ele>112.058266</ele>
        <time>2021-04-17T09:37:05.216Z</time>
      </trkpt>
      <trkpt lat="43.65494" lon="3.70494">
        <ele>112.37606</ele>
        <time>2021-04-17T09:37:07.188Z</time>
      </trkpt>
      <trkpt lat="43.655" lon="3.70512">
        <ele>112.486328</ele>
        <time>2021-04-17T09:37:09.839Z</time>
      </trkpt>
      <trkpt lat="43.65504" lon="3.70528">
        <ele>112.222618</ele>
        <time>2021-04-17T09:37:11.320Z</time>
      </trkpt>
      <trkpt lat="43.65512" lon="3.70536">
        <ele>111.854759</ele>
        <time>2021-04-17T09:37:12.331Z</time>
      </trkpt>
      <trkpt lat="43.65516" lon="3.70548">
        <ele>111.356468</ele>
        <time>2021-04-17T09:37:13.186Z</time>
      </trkpt>
      <trkpt lat="43.65508" lon="3.70559">
        <ele>111.15081</ele>
        <time>2021-04-17T09:37:14.604Z</time>
      </trkpt>
      <trkpt lat="43.65505" lon="3.70575">
        <ele>111.233147</ele>
        <time>2021-04-17T09:37:16.798Z</time>
      </trkpt>
      <trkpt lat="43.65509" lon="3.70592">
        <ele>111.26181</ele>
        <time>2021-04-17T09:37:19.066Z</time>
      </trkpt>
      <trkpt lat="43.6552" lon="3.70605">
        <ele>111.042946</ele>
        <time>2021-04-17T09:37:20.956Z</time>
      </trkpt>
      <trkpt lat="43.65532" lon="3.70616">
        <ele>110.554688</ele>
        <time>2021-04-17T09:37:22.480Z</time>
      </trkpt>
      <trkpt lat="43.65545" lon="3.70628">
        <ele>110.037842</ele>
        <time>2021-04-17T09:37:24.149Z</time>
      </trkpt>
      <trkpt lat="43.65559" lon="3.7064">
        <ele>109.480469</ele>
        <time>2021-04-17T09:37:25.894Z</time>
      </trkpt>
      <trkpt lat="43.65572" lon="3.70653">
        <ele>108.991859</ele>
        <time>2021-04-17T09:37:27.653Z</time>
      </trkpt>
      <trkpt lat="43.65582" lon="3.7067">
        <ele>108.305382</ele>
        <time>2021-04-17T09:37:29.186Z</time>
      </trkpt>
      <trkpt lat="43.65593" lon="3.70686">
        <ele>107.537239</ele>
        <time>2021-04-17T09:37:30.664Z</time>
      </trkpt>
      <trkpt lat="43.65601" lon="3.70703">
        <ele>107.091667</ele>
        <time>2021-04-17T09:37:32.275Z</time>
      </trkpt>
      <trkpt lat="43.65604" lon="3.70721">
        <ele>106.860168</ele>
        <time>2021-04-17T09:37:33.973Z</time>
      </trkpt>
      <trkpt lat="43.65608" lon="3.70735">
        <ele>106.827995</ele>
        <time>2021-04-17T09:37:35.763Z</time>
      </trkpt>
      <trkpt lat="43.65611" lon="3.70745">
        <ele>106.748535</ele>
        <time>2021-04-17T09:37:36.854Z</time>
      </trkpt>
      <trkpt lat="43.65614" lon="3.70753">
        <ele>106.556641</ele>
        <time>2021-04-17T09:37:37.576Z</time>
      </trkpt>
      <trkpt lat="43.65627" lon="3.70752">
        <ele>106.077484</ele>
        <time>2021-04-17T09:37:38.915Z</time>
      </trkpt>
      <trkpt lat="43.65629" lon="3.70758">
        <ele>105.955498</ele>
        <time>2021-04-17T09:37:39.468Z</time>
      </trkpt>
      <trkpt lat="43.65628" lon="3.70761">
        <ele>105.911736</ele>
        <time>2021-04-17T09:37:39.768Z</time>
      </trkpt>
      <trkpt lat="43.65607" lon="3.70771">
        <ele>105.988495</ele>
        <time>2021-04-17T09:37:43.710Z</time>
      </trkpt>
      <trkpt lat="43.65591" lon="3.7078">
        <ele>106.625977</ele>
        <time>2021-04-17T09:37:48.194Z</time>
      </trkpt>
      <trkpt lat="43.65581" lon="3.70797">
        <ele>107.329102</ele>
        <time>2021-04-17T09:37:52.782Z</time>
      </trkpt>
      <trkpt lat="43.65572" lon="3.70818">
        <ele>107.737549</ele>
        <time>2021-04-17T09:37:56.633Z</time>
      </trkpt>
      <trkpt lat="43.65565" lon="3.70837">
        <ele>108.214111</ele>
        <time>2021-04-17T09:38:00.330Z</time>
      </trkpt>
      <trkpt lat="43.6556" lon="3.70859">
        <ele>108.486572</ele>
        <time>2021-04-17T09:38:03.701Z</time>
      </trkpt>
      <trkpt lat="43.65562" lon="3.70885">
        <ele>108.718262</ele>
        <time>2021-04-17T09:38:07.363Z</time>
      </trkpt>
      <trkpt lat="43.65571" lon="3.70908">
        <ele>108.719971</ele>
        <time>2021-04-17T09:38:10.617Z</time>
      </trkpt>
      <trkpt lat="43.65578" lon="3.70929">
        <ele>108.455811</ele>
        <time>2021-04-17T09:38:12.783Z</time>
      </trkpt>
      <trkpt lat="43.65585" lon="3.70951">
        <ele>108.07917</ele>
        <time>2021-04-17T09:38:14.883Z</time>
      </trkpt>
      <trkpt lat="43.65591" lon="3.70973">
        <ele>107.637695</ele>
        <time>2021-04-17T09:38:16.840Z</time>
      </trkpt>
      <trkpt lat="43.65595" lon="3.70996">
        <ele>107.163597</ele>
        <time>2021-04-17T09:38:18.772Z</time>
      </trkpt>
      <trkpt lat="43.65596" lon="3.71021">
        <ele>106.714661</ele>
        <time>2021-04-17T09:38:20.884Z</time>
      </trkpt>
      <trkpt lat="43.65598" lon="3.71045">
        <ele>106.483025</ele>
        <time>2021-04-17T09:38:23.221Z</time>
      </trkpt>
      <trkpt lat="43.65608" lon="3.71058">
        <ele>106.28833</ele>
        <time>2021-04-17T09:38:25.034Z</time>
      </trkpt>
      <trkpt lat="43.65617" lon="3.71061">
        <ele>105.580536</ele>
        <time>2021-04-17T09:38:25.838Z</time>
      </trkpt>
      <trkpt lat="43.6563" lon="3.7106">
        <ele>105.320381</ele>
        <time>2021-04-17T09:38:27.441Z</time>
      </trkpt>
      <trkpt lat="43.65643" lon="3.7106">
        <ele>104.868248</ele>
        <time>2021-04-17T09:38:28.805Z</time>
      </trkpt>
      <trkpt lat="43.65656" lon="3.7106">
        <ele>104.547325</ele>
        <time>2021-04-17T09:38:30.322Z</time>
      </trkpt>
      <trkpt lat="43.65669" lon="3.71061">
        <ele>104.104271</ele>
        <time>2021-04-17T09:38:31.699Z</time>
      </trkpt>
      <trkpt lat="43.65678" lon="3.71069">
        <ele>103.728752</ele>
        <time>2021-04-17T09:38:32.818Z</time>
      </trkpt>
      <trkpt lat="43.65684" lon="3.71082">
        <ele>103.5093</ele>
        <time>2021-04-17T09:38:34.196Z</time>
      </trkpt>
      <trkpt lat="43.65683" lon="3.71099">
        <ele>103.471947</ele>
        <time>2021-04-17T09:38:36.223Z</time>
      </trkpt>
      <trkpt lat="43.65683" lon="3.71117">
        <ele>103.62365</ele>
        <time>2021-04-17T09:38:38.728Z</time>
      </trkpt>
      <trkpt lat="43.65682" lon="3.71135">
        <ele>103.786873</ele>
        <time>2021-04-17T09:38:41.263Z</time>
      </trkpt>
      <trkpt lat="43.65682" lon="3.71155">
        <ele>103.945709</ele>
        <time>2021-04-17T09:38:44.028Z</time>
      </trkpt>
      <trkpt lat="43.65681" lon="3.71181">
        <ele>104</ele>
        <time>2021-04-17T09:38:47.353Z</time>
      </trkpt>
      <trkpt lat="43.65681" lon="3.71207">
        <ele>104</ele>
        <time>2021-04-17T09:38:50.585Z</time>
      </trkpt>
      <trkpt lat="43.65682" lon="3.71232">
        <ele>104.024178</ele>
        <time>2021-04-17T09:38:53.737Z</time>
      </trkpt>
      <trkpt lat="43.65683" lon="3.71248">
        <ele>104.324013</ele>
        <time>2021-04-17T09:38:56.351Z</time>
      </trkpt>
      <trkpt lat="43.65687" lon="3.71269">
        <ele>104.584961</ele>
        <time>2021-04-17T09:38:59.536Z</time>
      </trkpt>
      <trkpt lat="43.65699" lon="3.71285">
        <ele>104.689484</ele>
        <time>2021-04-17T09:39:02.576Z</time>
      </trkpt>
      <trkpt lat="43.65709" lon="3.71299">
        <ele>105.083809</ele>
        <time>2021-04-17T09:39:05.853Z</time>
      </trkpt>
      <trkpt lat="43.65715" lon="3.71316">
        <ele>105.347145</ele>
        <time>2021-04-17T09:39:08.708Z</time>
      </trkpt>
      <trkpt lat="43.65719" lon="3.71341">
        <ele>105.41925</ele>
        <time>2021-04-17T09:39:12.009Z</time>
      </trkpt>
      <trkpt lat="43.65723" lon="3.71368">
        <ele>105.373573</ele>
        <time>2021-04-17T09:39:15.320Z</time>
      </trkpt>
      <trkpt lat="43.65727" lon="3.71394">
        <ele>104.852608</ele>
        <time>2021-04-17T09:39:17.505Z</time>
      </trkpt>
      <trkpt lat="43.65731" lon="3.71422">
        <ele>104.415352</ele>
        <time>2021-04-17T09:39:20.013Z</time>
      </trkpt>
      <trkpt lat="43.65736" lon="3.7145">
        <ele>103.831322</ele>
        <time>2021-04-17T09:39:22.361Z</time>
      </trkpt>
      <trkpt lat="43.65747" lon="3.7147">
        <ele>103.516693</ele>
        <time>2021-04-17T09:39:24.672Z</time>
      </trkpt>
      <trkpt lat="43.6576" lon="3.71487">
        <ele>103.093925</ele>
        <time>2021-04-17T09:39:26.785Z</time>
      </trkpt>
      <trkpt lat="43.6577" lon="3.71512">
        <ele>102.832634</ele>
        <time>2021-04-17T09:39:29.569Z</time>
      </trkpt>
      <trkpt lat="43.6578" lon="3.71537">
        <ele>102.791451</ele>
        <time>2021-04-17T09:39:33.016Z</time>
      </trkpt>
      <trkpt lat="43.65788" lon="3.71561">
        <ele>102.869942</ele>
        <time>2021-04-17T09:39:36.429Z</time>
      </trkpt>
      <trkpt lat="43.65783" lon="3.71584">
        <ele>103.045937</ele>
        <time>2021-04-17T09:39:39.721Z</time>
      </trkpt>
      <trkpt lat="43.65772" lon="3.71604">
        <ele>103.039795</ele>
        <time>2021-04-17T09:39:42.828Z</time>
      </trkpt>
      <trkpt lat="43.65762" lon="3.71628">
        <ele>102.585449</ele>
        <time>2021-04-17T09:39:45.220Z</time>
      </trkpt>
      <trkpt lat="43.6576" lon="3.71656">
        <ele>102.055687</ele>
        <time>2021-04-17T09:39:47.560Z</time>
      </trkpt>
      <trkpt lat="43.65762" lon="3.71682">
        <ele>101.516724</ele>
        <time>2021-04-17T09:39:49.678Z</time>
      </trkpt>
      <trkpt lat="43.65769" lon="3.71699">
        <ele>101.197899</ele>
        <time>2021-04-17T09:39:51.370Z</time>
      </trkpt>
      <trkpt lat="43.65775" lon="3.7172">
        <ele>101.152283</ele>
        <time>2021-04-17T09:39:54.062Z</time>
      </trkpt>
      <trkpt lat="43.65782" lon="3.71743">
        <ele>101.168915</ele>
        <time>2021-04-17T09:39:57.190Z</time>
      </trkpt>
      <trkpt lat="43.65792" lon="3.71766">
        <ele>101.097466</ele>
        <time>2021-04-17T09:40:00.349Z</time>
      </trkpt>
      <trkpt lat="43.65805" lon="3.71792">
        <ele>101.008209</ele>
        <time>2021-04-17T09:40:04.056Z</time>
      </trkpt>
      <trkpt lat="43.65822" lon="3.71815">
        <ele>100.897804</ele>
        <time>2021-04-17T09:40:07.873Z</time>
      </trkpt>
      <trkpt lat="43.65838" lon="3.7183">
        <ele>100.483376</ele>
        <time>2021-04-17T09:40:10.213Z</time>
      </trkpt>
      <trkpt lat="43.65857" lon="3.71845">
        <ele>100.168404</ele>
        <time>2021-04-17T09:40:13.096Z</time>
      </trkpt>
      <trkpt lat="43.65875" lon="3.7186">
        <ele>100.06192</ele>
        <time>2021-04-17T09:40:16.448Z</time>
      </trkpt>
      <trkpt lat="43.65894" lon="3.71873">
        <ele>99.853325</ele>
        <time>2021-04-17T09:40:19.411Z</time>
      </trkpt>
      <trkpt lat="43.65915" lon="3.7187">
        <ele>99.284706</ele>
        <time>2021-04-17T09:40:21.815Z</time>
      </trkpt>
      <trkpt lat="43.65931" lon="3.71862">
        <ele>98.922485</ele>
        <time>2021-04-17T09:40:23.878Z</time>
      </trkpt>
      <trkpt lat="43.65952" lon="3.71865">
        <ele>98.862854</ele>
        <time>2021-04-17T09:40:27.355Z</time>
      </trkpt>
      <trkpt lat="43.65973" lon="3.71868">
        <ele>98.744179</ele>
        <time>2021-04-17T09:40:30.696Z</time>
      </trkpt>
      <trkpt lat="43.65994" lon="3.7187">
        <ele>98.700371</ele>
        <time>2021-04-17T09:40:34.201Z</time>
      </trkpt>
      <trkpt lat="43.66015" lon="3.71871">
        <ele>98.889</ele>
        <time>2021-04-17T09:40:38.136Z</time>
      </trkpt>
      <trkpt lat="43.66036" lon="3.71877">
        <ele>99.135902</ele>
        <time>2021-04-17T09:40:42.255Z</time>
      </trkpt>
      <trkpt lat="43.66054" lon="3.71893">
        <ele>99.312172</ele>
        <time>2021-04-17T09:40:46.233Z</time>
      </trkpt>
      <trkpt lat="43.66072" lon="3.71912">
        <ele>99.442329</ele>
        <time>2021-04-17T09:40:50.342Z</time>
      </trkpt>
      <trkpt lat="43.66089" lon="3.71933">
        <ele>99.930206</ele>
        <time>2021-04-17T09:40:55.215Z</time>
      </trkpt>
      <trkpt lat="43.66103" lon="3.71958">
        <ele>100.787804</ele>
        <time>2021-04-17T09:41:01.201Z</time>
      </trkpt>
      <trkpt lat="43.66116" lon="3.71974">
        <ele>101.113747</ele>
        <time>2021-04-17T09:41:04.812Z</time>
      </trkpt>
      <trkpt lat="43.66123" lon="3.71954">
        <ele>101.274292</ele>
        <time>2021-04-17T09:41:07.852Z</time>
      </trkpt>
      <trkpt lat="43.66129" lon="3.71933">
        <ele>101.111977</ele>
        <time>2021-04-17T09:41:10.132Z</time>
      </trkpt>
      <trkpt lat="43.66136" lon="3.71909">
        <ele>101.087524</ele>
        <time>2021-04-17T09:41:13.286Z</time>
      </trkpt>
      <trkpt lat="43.6615" lon="3.71899">
        <ele>101.228951</ele>
        <time>2021-04-17T09:41:16.237Z</time>
      </trkpt>
      <trkpt lat="43.66166" lon="3.71898">
        <ele>101.512199</ele>
        <time>2021-04-17T09:41:19.521Z</time>
      </trkpt>
      <trkpt lat="43.66179" lon="3.71896">
        <ele>101.736763</ele>
        <time>2021-04-17T09:41:22.188Z</time>
      </trkpt>
      <trkpt lat="43.66188" lon="3.71897">
        <ele>101.986595</ele>
        <time>2021-04-17T09:41:24.267Z</time>
      </trkpt>
      <trkpt lat="43.66197" lon="3.71902">
        <ele>102.245476</ele>
        <time>2021-04-17T09:41:26.473Z</time>
      </trkpt>
      <trkpt lat="43.66211" lon="3.71908">
        <ele>102.414734</ele>
        <time>2021-04-17T09:41:29.290Z</time>
      </trkpt>
      <trkpt lat="43.66229" lon="3.71913">
        <ele>102.57682</ele>
        <time>2021-04-17T09:41:32.723Z</time>
      </trkpt>
      <trkpt lat="43.66248" lon="3.71917">
        <ele>102.859589</ele>
        <time>2021-04-17T09:41:36.540Z</time>
      </trkpt>
      <trkpt lat="43.66269" lon="3.71922">
        <ele>103.207741</ele>
        <time>2021-04-17T09:41:40.846Z</time>
      </trkpt>
      <trkpt lat="43.6629" lon="3.71929">
        <ele>103.364014</ele>
        <time>2021-04-17T09:41:44.822Z</time>
      </trkpt>
      <trkpt lat="43.66311" lon="3.71936">
        <ele>103.4589</ele>
        <time>2021-04-17T09:41:48.690Z</time>
      </trkpt>
      <trkpt lat="43.66331" lon="3.71943">
        <ele>103.571045</ele>
        <time>2021-04-17T09:41:52.421Z</time>
      </trkpt>
      <trkpt lat="43.66351" lon="3.7195">
        <ele>103.681236</ele>
        <time>2021-04-17T09:41:56.149Z</time>
      </trkpt>
      <trkpt lat="43.66369" lon="3.71956">
        <ele>103.759361</ele>
        <time>2021-04-17T09:41:59.459Z</time>
      </trkpt>
      <trkpt lat="43.66383" lon="3.71961">
        <ele>103.825684</ele>
        <time>2021-04-17T09:42:02.053Z</time>
      </trkpt>
      <trkpt lat="43.66393" lon="3.71965">
        <ele>104.01709</ele>
        <time>2021-04-17T09:42:04.204Z</time>
      </trkpt>
      <trkpt lat="43.66401" lon="3.71969">
        <ele>104.255127</ele>
        <time>2021-04-17T09:42:06.170Z</time>
      </trkpt>
      <trkpt lat="43.66409" lon="3.71974">
        <ele>104.436852</ele>
        <time>2021-04-17T09:42:08.031Z</time>
      </trkpt>
      <trkpt lat="43.66417" lon="3.71978">
        <ele>104.582031</ele>
        <time>2021-04-17T09:42:09.764Z</time>
      </trkpt>
      <trkpt lat="43.66425" lon="3.71979">
        <ele>104.76693</ele>
        <time>2021-04-17T09:42:11.513Z</time>
      </trkpt>
      <trkpt lat="43.66435" lon="3.7198">
        <ele>104.955727</ele>
        <time>2021-04-17T09:42:13.596Z</time>
      </trkpt>
      <trkpt lat="43.66443" lon="3.71982">
        <ele>105.237465</ele>
        <time>2021-04-17T09:42:15.642Z</time>
      </trkpt>
      <trkpt lat="43.66452" lon="3.71984">
        <ele>105.44442</ele>
        <time>2021-04-17T09:42:17.620Z</time>
      </trkpt>
      <trkpt lat="43.66466" lon="3.71989">
        <ele>105.670143</ele>
        <time>2021-04-17T09:42:20.520Z</time>
      </trkpt>
      <trkpt lat="43.6649" lon="3.71998">
        <ele>105.904724</ele>
        <time>2021-04-17T09:42:25.197Z</time>
      </trkpt>
      <trkpt lat="43.6652" lon="3.72003">
        <ele>106.347893</ele>
        <time>2021-04-17T09:42:31.196Z</time>
      </trkpt>
      <trkpt lat="43.66545" lon="3.72002">
        <ele>106.871147</ele>
        <time>2021-04-17T09:42:36.513Z</time>
      </trkpt>
      <trkpt lat="43.6656" lon="3.72001">
        <ele>107.377769</ele>
        <time>2021-04-17T09:42:40.248Z</time>
      </trkpt>
      <trkpt lat="43.66564" lon="3.71992">
        <ele>107.617592</ele>
        <time>2021-04-17T09:42:42.091Z</time>
      </trkpt>
      <trkpt lat="43.66569" lon="3.71978">
        <ele>107.691978</ele>
        <time>2021-04-17T09:42:44.156Z</time>
      </trkpt>
      <trkpt lat="43.66574" lon="3.71966">
        <ele>107.74691</ele>
        <time>2021-04-17T09:42:45.969Z</time>
      </trkpt>
      <trkpt lat="43.66576" lon="3.71956">
        <ele>107.832924</ele>
        <time>2021-04-17T09:42:47.410Z</time>
      </trkpt>
      <trkpt lat="43.66577" lon="3.71946">
        <ele>107.866325</ele>
        <time>2021-04-17T09:42:48.720Z</time>
      </trkpt>
      <trkpt lat="43.66578" lon="3.71936">
        <ele>107.881874</ele>
        <time>2021-04-17T09:42:49.999Z</time>
      </trkpt>
      <trkpt lat="43.66576" lon="3.71924">
        <ele>107.924232</ele>
        <time>2021-04-17T09:42:51.600Z</time>
      </trkpt>
      <trkpt lat="43.66572" lon="3.71905">
        <ele>107.935249</ele>
        <time>2021-04-17T09:42:54.077Z</time>
      </trkpt>
      <trkpt lat="43.66568" lon="3.71884">
        <ele>107.947136</ele>
        <time>2021-04-17T09:42:56.796Z</time>
      </trkpt>
      <trkpt lat="43.66566" lon="3.71866">
        <ele>108.061516</ele>
        <time>2021-04-17T09:42:59.255Z</time>
      </trkpt>
      <trkpt lat="43.66564" lon="3.71844">
        <ele>108.564125</ele>
        <time>2021-04-17T09:43:03.121Z</time>
      </trkpt>
      <trkpt lat="43.66563" lon="3.71822">
        <ele>108.934082</ele>
        <time>2021-04-17T09:43:06.601Z</time>
      </trkpt>
      <trkpt lat="43.66562" lon="3.71802">
        <ele>109.746094</ele>
        <time>2021-04-17T09:43:11.137Z</time>
      </trkpt>
      <trkpt lat="43.66557" lon="3.71782">
        <ele>110.317383</ele>
        <time>2021-04-17T09:43:15.134Z</time>
      </trkpt>
      <trkpt lat="43.6656" lon="3.71759">
        <ele>110.830566</ele>
        <time>2021-04-17T09:43:19.158Z</time>
      </trkpt>
      <trkpt lat="43.66563" lon="3.71743">
        <ele>111.443031</ele>
        <time>2021-04-17T09:43:22.780Z</time>
      </trkpt>
      <trkpt lat="43.66567" lon="3.71725">
        <ele>112.154137</ele>
        <time>2021-04-17T09:43:26.933Z</time>
      </trkpt>
      <trkpt lat="43.66572" lon="3.71707">
        <ele>112.680664</ele>
        <time>2021-04-17T09:43:30.597Z</time>
      </trkpt>
      <trkpt lat="43.66575" lon="3.71691">
        <ele>113.009277</ele>
        <time>2021-04-17T09:43:33.343Z</time>
      </trkpt>
      <trkpt lat="43.66578" lon="3.71672">
        <ele>113.618004</ele>
        <time>2021-04-17T09:43:37.348Z</time>
      </trkpt>
      <trkpt lat="43.66581" lon="3.71654">
        <ele>114.312584</ele>
        <time>2021-04-17T09:43:41.416Z</time>
      </trkpt>
      <trkpt lat="43.66589" lon="3.71651">
        <ele>114.930664</ele>
        <time>2021-04-17T09:43:44.384Z</time>
      </trkpt>
      <trkpt lat="43.66599" lon="3.71651">
        <ele>115.340118</ele>
        <time>2021-04-17T09:43:47.134Z</time>
      </trkpt>
      <trkpt lat="43.66608" lon="3.71653">
        <ele>115.418213</ele>
        <time>2021-04-17T09:43:48.834Z</time>
      </trkpt>
      <trkpt lat="43.66618" lon="3.71656">
        <ele>115.419914</ele>
        <time>2021-04-17T09:43:50.595Z</time>
      </trkpt>
      <trkpt lat="43.66629" lon="3.71661">
        <ele>115.41095</ele>
        <time>2021-04-17T09:43:52.562Z</time>
      </trkpt>
      <trkpt lat="43.66642" lon="3.71667">
        <ele>115.37513</ele>
        <time>2021-04-17T09:43:54.826Z</time>
      </trkpt>
      <trkpt lat="43.66651" lon="3.71676">
        <ele>115.288567</ele>
        <time>2021-04-17T09:43:56.422Z</time>
      </trkpt>
      <trkpt lat="43.66662" lon="3.71682">
        <ele>115.145905</ele>
        <time>2021-04-17T09:43:58.027Z</time>
      </trkpt>
      <trkpt lat="43.66673" lon="3.71687">
        <ele>114.993828</ele>
        <time>2021-04-17T09:43:59.577Z</time>
      </trkpt>
      <trkpt lat="43.66685" lon="3.71693">
        <ele>114.883369</ele>
        <time>2021-04-17T09:44:01.389Z</time>
      </trkpt>
      <trkpt lat="43.66696" lon="3.71699">
        <ele>114.61087</ele>
        <time>2021-04-17T09:44:02.795Z</time>
      </trkpt>
      <trkpt lat="43.66705" lon="3.71704">
        <ele>114.416138</ele>
        <time>2021-04-17T09:44:03.988Z</time>
      </trkpt>
      <trkpt lat="43.66716" lon="3.71712">
        <ele>114.252419</ele>
        <time>2021-04-17T09:44:05.651Z</time>
      </trkpt>
      <trkpt lat="43.66729" lon="3.71722">
        <ele>114.104271</ele>
        <time>2021-04-17T09:44:07.727Z</time>
      </trkpt>
      <trkpt lat="43.66742" lon="3.71731">
        <ele>113.970764</ele>
        <time>2021-04-17T09:44:09.777Z</time>
      </trkpt>
      <trkpt lat="43.66753" lon="3.71742">
        <ele>113.911461</ele>
        <time>2021-04-17T09:44:11.963Z</time>
      </trkpt>
      <trkpt lat="43.66763" lon="3.7175">
        <ele>113.758888</ele>
        <time>2021-04-17T09:44:13.509Z</time>
      </trkpt>
      <trkpt lat="43.66776" lon="3.71761">
        <ele>113.600105</ele>
        <time>2021-04-17T09:44:15.623Z</time>
      </trkpt>
      <trkpt lat="43.66787" lon="3.71773">
        <ele>113.455505</ele>
        <time>2021-04-17T09:44:17.569Z</time>
      </trkpt>
      <trkpt lat="43.66798" lon="3.71784">
        <ele>113.319794</ele>
        <time>2021-04-17T09:44:19.462Z</time>
      </trkpt>
      <trkpt lat="43.66807" lon="3.71796">
        <ele>113.419312</ele>
        <time>2021-04-17T09:44:21.780Z</time>
      </trkpt>
      <trkpt lat="43.66816" lon="3.71807">
        <ele>113.698181</ele>
        <time>2021-04-17T09:44:24.402Z</time>
      </trkpt>
      <trkpt lat="43.66825" lon="3.7182">
        <ele>114.078926</ele>
        <time>2021-04-17T09:44:27.457Z</time>
      </trkpt>
      <trkpt lat="43.66834" lon="3.71834">
        <ele>114.358147</ele>
        <time>2021-04-17T09:44:30.327Z</time>
      </trkpt>
      <trkpt lat="43.66842" lon="3.71848">
        <ele>114.651939</ele>
        <time>2021-04-17T09:44:33.129Z</time>
      </trkpt>
      <trkpt lat="43.6685" lon="3.71861">
        <ele>114.841713</ele>
        <time>2021-04-17T09:44:35.599Z</time>
      </trkpt>
      <trkpt lat="43.66857" lon="3.71873">
        <ele>115.080727</ele>
        <time>2021-04-17T09:44:37.983Z</time>
      </trkpt>
      <trkpt lat="43.66863" lon="3.71884">
        <ele>115.245155</ele>
        <time>2021-04-17T09:44:40.001Z</time>
      </trkpt>
      <trkpt lat="43.6687" lon="3.71899">
        <ele>115.411621</ele>
        <time>2021-04-17T09:44:42.517Z</time>
      </trkpt>
      <trkpt lat="43.6688" lon="3.71919">
        <ele>115.85437</ele>
        <time>2021-04-17T09:44:46.445Z</time>
      </trkpt>
      <trkpt lat="43.66889" lon="3.71942">
        <ele>116.448143</ele>
        <time>2021-04-17T09:44:51.007Z</time>
      </trkpt>
      <trkpt lat="43.66896" lon="3.71961">
        <ele>116.808876</ele>
        <time>2021-04-17T09:44:54.380Z</time>
      </trkpt>
      <trkpt lat="43.66902" lon="3.71977">
        <ele>117.087059</ele>
        <time>2021-04-17T09:44:57.165Z</time>
      </trkpt>
      <trkpt lat="43.6691" lon="3.71993">
        <ele>117.224068</ele>
        <time>2021-04-17T09:44:59.819Z</time>
      </trkpt>
      <trkpt lat="43.66918" lon="3.72011">
        <ele>117.398674</ele>
        <time>2021-04-17T09:45:02.753Z</time>
      </trkpt>
      <trkpt lat="43.66925" lon="3.72027">
        <ele>117.599174</ele>
        <time>2021-04-17T09:45:05.442Z</time>
      </trkpt>
      <trkpt lat="43.66931" lon="3.72044">
        <ele>117.692345</ele>
        <time>2021-04-17T09:45:07.950Z</time>
      </trkpt>
      <trkpt lat="43.66928" lon="3.72059">
        <ele>117.641357</ele>
        <time>2021-04-17T09:45:09.759Z</time>
      </trkpt>
      <trkpt lat="43.66927" lon="3.72079">
        <ele>117.113121</ele>
        <time>2021-04-17T09:45:11.256Z</time>
      </trkpt>
      <trkpt lat="43.66924" lon="3.72093">
        <ele>116.516579</ele>
        <time>2021-04-17T09:45:12.166Z</time>
      </trkpt>
      <trkpt lat="43.66934" lon="3.721">
        <ele>115.82666</ele>
        <time>2021-04-17T09:45:13.094Z</time>
      </trkpt>
      <trkpt lat="43.66942" lon="3.72089">
        <ele>116.16333</ele>
        <time>2021-04-17T09:45:15.762Z</time>
      </trkpt>
      <trkpt lat="43.66951" lon="3.72082">
        <ele>116.816925</ele>
        <time>2021-04-17T09:45:19.161Z</time>
      </trkpt>
      <trkpt lat="43.6696" lon="3.7209">
        <ele>117.840004</ele>
        <time>2021-04-17T09:45:23.747Z</time>
      </trkpt>
      <trkpt lat="43.66969" lon="3.72096">
        <ele>118.188637</ele>
        <time>2021-04-17T09:45:26.271Z</time>
      </trkpt>
      <trkpt lat="43.66978" lon="3.72101">
        <ele>118.687218</ele>
        <time>2021-04-17T09:45:29.212Z</time>
      </trkpt>
      <trkpt lat="43.6699" lon="3.72109">
        <ele>119.368553</ele>
        <time>2021-04-17T09:45:33.246Z</time>
      </trkpt>
      <trkpt lat="43.67001" lon="3.72117">
        <ele>120.017067</ele>
        <time>2021-04-17T09:45:37.035Z</time>
      </trkpt>
      <trkpt lat="43.67012" lon="3.72122">
        <ele>120.410736</ele>
        <time>2021-04-17T09:45:39.924Z</time>
      </trkpt>
      <trkpt lat="43.67029" lon="3.72129">
        <ele>120.823792</ele>
        <time>2021-04-17T09:45:43.799Z</time>
      </trkpt>
      <trkpt lat="43.67048" lon="3.7214">
        <ele>121.538033</ele>
        <time>2021-04-17T09:45:48.987Z</time>
      </trkpt>
      <trkpt lat="43.67065" lon="3.72151">
        <ele>122.050346</ele>
        <time>2021-04-17T09:45:53.287Z</time>
      </trkpt>
      <trkpt lat="43.67083" lon="3.72159">
        <ele>122.33622</ele>
        <time>2021-04-17T09:45:57.059Z</time>
      </trkpt>
      <trkpt lat="43.67103" lon="3.72164">
        <ele>122.517456</ele>
        <time>2021-04-17T09:46:00.862Z</time>
      </trkpt>
      <trkpt lat="43.67122" lon="3.72169">
        <ele>122.973022</ele>
        <time>2021-04-17T09:46:05.100Z</time>
      </trkpt>
      <trkpt lat="43.67141" lon="3.72174">
        <ele>123.335289</ele>
        <time>2021-04-17T09:46:09.113Z</time>
      </trkpt>
      <trkpt lat="43.67159" lon="3.72179">
        <ele>123.579552</ele>
        <time>2021-04-17T09:46:12.705Z</time>
      </trkpt>
      <trkpt lat="43.67158" lon="3.72186">
        <ele>123.682587</ele>
        <time>2021-04-17T09:46:13.791Z</time>
      </trkpt>
      <trkpt lat="43.67144" lon="3.72192">
        <ele>123.560455</ele>
        <time>2021-04-17T09:46:15.881Z</time>
      </trkpt>
      <trkpt lat="43.67129" lon="3.72219">
        <ele>122.994667</ele>
        <time>2021-04-17T09:46:18.810Z</time>
      </trkpt>
      <trkpt lat="43.67112" lon="3.72254">
        <ele>121.835022</ele>
        <time>2021-04-17T09:46:21.909Z</time>
      </trkpt>
      <trkpt lat="43.67094" lon="3.72284">
        <ele>120.450325</ele>
        <time>2021-04-17T09:46:24.496Z</time>
      </trkpt>
      <trkpt lat="43.67092" lon="3.72315">
        <ele>119.287148</ele>
        <time>2021-04-17T09:46:26.517Z</time>
      </trkpt>
      <trkpt lat="43.67094" lon="3.72346">
        <ele>118.521179</ele>
        <time>2021-04-17T09:46:28.897Z</time>
      </trkpt>
      <trkpt lat="43.67109" lon="3.72377">
        <ele>117.838226</ele>
        <time>2021-04-17T09:46:32.023Z</time>
      </trkpt>
      <trkpt lat="43.6713" lon="3.72411">
        <ele>115.950356</ele>
        <time>2021-04-17T09:46:34.768Z</time>
      </trkpt>
      <trkpt lat="43.67146" lon="3.72449">
        <ele>113.439613</ele>
        <time>2021-04-17T09:46:37.530Z</time>
      </trkpt>
      <trkpt lat="43.67167" lon="3.72475">
        <ele>112.629799</ele>
        <time>2021-04-17T09:46:40.678Z</time>
      </trkpt>
      <trkpt lat="43.67192" lon="3.72495">
        <ele>112.689888</ele>
        <time>2021-04-17T09:46:45.738Z</time>
      </trkpt>
      <trkpt lat="43.67215" lon="3.7252">
        <ele>112.569908</ele>
        <time>2021-04-17T09:46:50.469Z</time>
      </trkpt>
      <trkpt lat="43.67238" lon="3.72544">
        <ele>113.290108</ele>
        <time>2021-04-17T09:46:56.891Z</time>
      </trkpt>
      <trkpt lat="43.67262" lon="3.7257">
        <ele>114.856049</ele>
        <time>2021-04-17T09:47:06.135Z</time>
      </trkpt>
      <trkpt lat="43.67286" lon="3.726">
        <ele>115.233063</ele>
        <time>2021-04-17T09:47:12.360Z</time>
      </trkpt>
      <trkpt lat="43.67307" lon="3.72631">
        <ele>114.994164</ele>
        <time>2021-04-17T09:47:16.775Z</time>
      </trkpt>
      <trkpt lat="43.67315" lon="3.72656">
        <ele>113.774284</ele>
        <time>2021-04-17T09:47:18.409Z</time>
      </trkpt>
      <trkpt lat="43.67321" lon="3.72693">
        <ele>112.59864</ele>
        <time>2021-04-17T09:47:21.071Z</time>
      </trkpt>
      <trkpt lat="43.67331" lon="3.72732">
        <ele>112.032593</ele>
        <time>2021-04-17T09:47:24.803Z</time>
      </trkpt>
      <trkpt lat="43.67339" lon="3.7275">
        <ele>109.850838</ele>
        <time>2021-04-17T09:47:26.130Z</time>
      </trkpt>
      <trkpt lat="43.67337" lon="3.72767">
        <ele>106.420143</ele>
        <time>2021-04-17T09:47:27.212Z</time>
      </trkpt>
      <trkpt lat="43.67332" lon="3.7278">
        <ele>106.198914</ele>
        <time>2021-04-17T09:47:28.511Z</time>
      </trkpt>
      <trkpt lat="43.67321" lon="3.72799">
        <ele>106.211853</ele>
        <time>2021-04-17T09:47:31.557Z</time>
      </trkpt>
      <trkpt lat="43.67311" lon="3.72815">
        <ele>106.42868</ele>
        <time>2021-04-17T09:47:34.578Z</time>
      </trkpt>
      <trkpt lat="43.67303" lon="3.72827">
        <ele>106.69873</ele>
        <time>2021-04-17T09:47:37.144Z</time>
      </trkpt>
      <trkpt lat="43.67298" lon="3.72838">
        <ele>106.900993</ele>
        <time>2021-04-17T09:47:39.155Z</time>
      </trkpt>
      <trkpt lat="43.6729" lon="3.72847">
        <ele>106.814369</ele>
        <time>2021-04-17T09:47:40.625Z</time>
      </trkpt>
      <trkpt lat="43.67282" lon="3.72854">
        <ele>106.791077</ele>
        <time>2021-04-17T09:47:42.193Z</time>
      </trkpt>
      <trkpt lat="43.67275" lon="3.7286">
        <ele>107.238029</ele>
        <time>2021-04-17T09:47:44.739Z</time>
      </trkpt>
      <trkpt lat="43.6727" lon="3.72867">
        <ele>107.72644</ele>
        <time>2021-04-17T09:47:47.174Z</time>
      </trkpt>
      <trkpt lat="43.67266" lon="3.72873">
        <ele>108.009338</ele>
        <time>2021-04-17T09:47:48.924Z</time>
      </trkpt>
      <trkpt lat="43.67261" lon="3.72878">
        <ele>108.290833</ele>
        <time>2021-04-17T09:47:50.727Z</time>
      </trkpt>
      <trkpt lat="43.67257" lon="3.72884">
        <ele>108.475151</ele>
        <time>2021-04-17T09:47:52.147Z</time>
      </trkpt>
      <trkpt lat="43.67252" lon="3.7289">
        <ele>108.602684</ele>
        <time>2021-04-17T09:47:53.529Z</time>
      </trkpt>
      <trkpt lat="43.67248" lon="3.72895">
        <ele>108.724915</ele>
        <time>2021-04-17T09:47:54.698Z</time>
      </trkpt>
      <trkpt lat="43.67243" lon="3.72907">
        <ele>108.719551</ele>
        <time>2021-04-17T09:47:56.406Z</time>
      </trkpt>
      <trkpt lat="43.67243" lon="3.72911">
        <ele>108.651207</ele>
        <time>2021-04-17T09:47:56.747Z</time>
      </trkpt>
      <trkpt lat="43.67248" lon="3.72921">
        <ele>108.385864</ele>
        <time>2021-04-17T09:47:57.714Z</time>
      </trkpt>
      <trkpt lat="43.67252" lon="3.72923">
        <ele>108.343292</ele>
        <time>2021-04-17T09:47:58.307Z</time>
      </trkpt>
      <trkpt lat="43.67267" lon="3.72925">
        <ele>108.231194</ele>
        <time>2021-04-17T09:48:00.483Z</time>
      </trkpt>
      <trkpt lat="43.67275" lon="3.72925">
        <ele>108.207329</ele>
        <time>2021-04-17T09:48:01.798Z</time>
      </trkpt>
      <trkpt lat="43.67281" lon="3.72924">
        <ele>108.154915</ele>
        <time>2021-04-17T09:48:02.656Z</time>
      </trkpt>
      <trkpt lat="43.67288" lon="3.72925">
        <ele>108.083923</ele>
        <time>2021-04-17T09:48:03.636Z</time>
      </trkpt>
      <trkpt lat="43.67294" lon="3.72926">
        <ele>107.98819</ele>
        <time>2021-04-17T09:48:04.418Z</time>
      </trkpt>
      <trkpt lat="43.673" lon="3.72926">
        <ele>107.955788</ele>
        <time>2021-04-17T09:48:05.370Z</time>
      </trkpt>
      <trkpt lat="43.67305" lon="3.72928">
        <ele>107.94577</ele>
        <time>2021-04-17T09:48:06.239Z</time>
      </trkpt>
      <trkpt lat="43.67312" lon="3.72929">
        <ele>107.961189</ele>
        <time>2021-04-17T09:48:07.473Z</time>
      </trkpt>
      <trkpt lat="43.67317" lon="3.72932">
        <ele>107.989838</ele>
        <time>2021-04-17T09:48:08.457Z</time>
      </trkpt>
      <trkpt lat="43.67323" lon="3.72936">
        <ele>108.098854</ele>
        <time>2021-04-17T09:48:09.804Z</time>
      </trkpt>
      <trkpt lat="43.67329" lon="3.72941">
        <ele>108.331024</ele>
        <time>2021-04-17T09:48:11.533Z</time>
      </trkpt>
      <trkpt lat="43.67335" lon="3.72946">
        <ele>108.633827</ele>
        <time>2021-04-17T09:48:13.526Z</time>
      </trkpt>
      <trkpt lat="43.67341" lon="3.72951">
        <ele>108.993622</ele>
        <time>2021-04-17T09:48:15.650Z</time>
      </trkpt>
      <trkpt lat="43.67347" lon="3.72958">
        <ele>109.487083</ele>
        <time>2021-04-17T09:48:18.226Z</time>
      </trkpt>
      <trkpt lat="43.67353" lon="3.72963">
        <ele>109.940125</ele>
        <time>2021-04-17T09:48:20.555Z</time>
      </trkpt>
      <trkpt lat="43.67358" lon="3.72967">
        <ele>110.999214</ele>
        <time>2021-04-17T09:48:24.384Z</time>
      </trkpt>
      <trkpt lat="43.67367" lon="3.72971">
        <ele>111.778038</ele>
        <time>2021-04-17T09:48:27.989Z</time>
      </trkpt>
      <trkpt lat="43.67376" lon="3.72975">
        <ele>112.589989</ele>
        <time>2021-04-17T09:48:31.703Z</time>
      </trkpt>
      <trkpt lat="43.67384" lon="3.72981">
        <ele>113.533867</ele>
        <time>2021-04-17T09:48:35.923Z</time>
      </trkpt>
      <trkpt lat="43.67393" lon="3.72985">
        <ele>114.586555</ele>
        <time>2021-04-17T09:48:40.673Z</time>
      </trkpt>
      <trkpt lat="43.67402" lon="3.72989">
        <ele>115.643768</ele>
        <time>2021-04-17T09:48:45.449Z</time>
      </trkpt>
      <trkpt lat="43.67412" lon="3.72992">
        <ele>116.333008</ele>
        <time>2021-04-17T09:48:48.918Z</time>
      </trkpt>
      <trkpt lat="43.67423" lon="3.72996">
        <ele>116.912872</ele>
        <time>2021-04-17T09:48:52.358Z</time>
      </trkpt>
      <trkpt lat="43.67434" lon="3.73">
        <ele>117.519936</ele>
        <time>2021-04-17T09:48:55.853Z</time>
      </trkpt>
      <trkpt lat="43.67446" lon="3.73003">
        <ele>118.202553</ele>
        <time>2021-04-17T09:48:59.667Z</time>
      </trkpt>
      <trkpt lat="43.67458" lon="3.73008">
        <ele>118.866859</ele>
        <time>2021-04-17T09:49:03.508Z</time>
      </trkpt>
      <trkpt lat="43.67469" lon="3.73014">
        <ele>119.425621</ele>
        <time>2021-04-17T09:49:06.999Z</time>
      </trkpt>
      <trkpt lat="43.67481" lon="3.73022">
        <ele>120.001465</ele>
        <time>2021-04-17T09:49:10.789Z</time>
      </trkpt>
      <trkpt lat="43.67492" lon="3.7303">
        <ele>120.70945</ele>
        <time>2021-04-17T09:49:14.702Z</time>
      </trkpt>
      <trkpt lat="43.67501" lon="3.73038">
        <ele>121.651161</ele>
        <time>2021-04-17T09:49:18.984Z</time>
      </trkpt>
      <trkpt lat="43.67505" lon="3.7305">
        <ele>122.56031</ele>
        <time>2021-04-17T09:49:23.061Z</time>
      </trkpt>
      <trkpt lat="43.67506" lon="3.73064">
        <ele>122.901878</ele>
        <time>2021-04-17T09:49:25.586Z</time>
      </trkpt>
      <trkpt lat="43.67506" lon="3.73076">
        <ele>122.786415</ele>
        <time>2021-04-17T09:49:26.745Z</time>
      </trkpt>
      <trkpt lat="43.67503" lon="3.73084">
        <ele>122.152611</ele>
        <time>2021-04-17T09:49:27.311Z</time>
      </trkpt>
      <trkpt lat="43.67501" lon="3.73094">
        <ele>121.321808</ele>
        <time>2021-04-17T09:49:27.963Z</time>
      </trkpt>
      <trkpt lat="43.675" lon="3.73104">
        <ele>120.66748</ele>
        <time>2021-04-17T09:49:28.597Z</time>
      </trkpt>
      <trkpt lat="43.67499" lon="3.73114">
        <ele>119.776039</ele>
        <time>2021-04-17T09:49:29.231Z</time>
      </trkpt>
      <trkpt lat="43.67499" lon="3.73122">
        <ele>119.064644</ele>
        <time>2021-04-17T09:49:29.734Z</time>
      </trkpt>
      <trkpt lat="43.67498" lon="3.73131">
        <ele>118.568268</ele>
        <time>2021-04-17T09:49:30.306Z</time>
      </trkpt>
      <trkpt lat="43.67497" lon="3.7314">
        <ele>118.498085</ele>
        <time>2021-04-17T09:49:31.216Z</time>
      </trkpt>
      <trkpt lat="43.67495" lon="3.73148">
        <ele>118.575195</ele>
        <time>2021-04-17T09:49:32.405Z</time>
      </trkpt>
      <trkpt lat="43.67495" lon="3.73158">
        <ele>118.772949</ele>
        <time>2021-04-17T09:49:34.064Z</time>
      </trkpt>
      <trkpt lat="43.67495" lon="3.73165">
        <ele>119.108887</ele>
        <time>2021-04-17T09:49:35.768Z</time>
      </trkpt>
      <trkpt lat="43.67495" lon="3.73173">
        <ele>119.385094</ele>
        <time>2021-04-17T09:49:37.481Z</time>
      </trkpt>
      <trkpt lat="43.67494" lon="3.73182">
        <ele>119.657227</ele>
        <time>2021-04-17T09:49:39.302Z</time>
      </trkpt>
      <trkpt lat="43.67493" lon="3.7319">
        <ele>119.947105</ele>
        <time>2021-04-17T09:49:41.059Z</time>
      </trkpt>
      <trkpt lat="43.67493" lon="3.73198">
        <ele>120.15377</ele>
        <time>2021-04-17T09:49:42.537Z</time>
      </trkpt>
      <trkpt lat="43.6749" lon="3.73205">
        <ele>120.366455</ele>
        <time>2021-04-17T09:49:44.049Z</time>
      </trkpt>
      <trkpt lat="43.67491" lon="3.73213">
        <ele>120.448891</ele>
        <time>2021-04-17T09:49:45.207Z</time>
      </trkpt>
      <trkpt lat="43.67495" lon="3.73219">
        <ele>120.816643</ele>
        <time>2021-04-17T09:49:47.136Z</time>
      </trkpt>
      <trkpt lat="43.675" lon="3.73223">
        <ele>121.910561</ele>
        <time>2021-04-17T09:49:50.965Z</time>
      </trkpt>
      <trkpt lat="43.67508" lon="3.73227">
        <ele>122.963783</ele>
        <time>2021-04-17T09:49:55.915Z</time>
      </trkpt>
      <trkpt lat="43.67515" lon="3.7323">
        <ele>124.756905</ele>
        <time>2021-04-17T09:50:00.772Z</time>
      </trkpt>
      <trkpt lat="43.67515" lon="3.7323">
        <ele>124.756905</ele>
        <time>2021-04-17T09:50:00.772Z</time>
      </trkpt>
      <trkpt lat="43.67492" lon="3.73214">
        <ele>124.096497</ele>
        <time>2021-04-17T09:50:03.745Z</time>
      </trkpt>
      <trkpt lat="43.67491" lon="3.73194">
        <ele>122.585365</ele>
        <time>2021-04-17T09:50:05.004Z</time>
      </trkpt>
      <trkpt lat="43.67492" lon="3.73175">
        <ele>120.199211</ele>
        <time>2021-04-17T09:50:06.201Z</time>
      </trkpt>
      <trkpt lat="43.67495" lon="3.73153">
        <ele>119.387695</ele>
        <time>2021-04-17T09:50:07.674Z</time>
      </trkpt>
      <trkpt lat="43.67498" lon="3.73128">
        <ele>118.99292</ele>
        <time>2021-04-17T09:50:09.890Z</time>
      </trkpt>
      <trkpt lat="43.67501" lon="3.73096">
        <ele>118.724243</ele>
        <time>2021-04-17T09:50:13.081Z</time>
      </trkpt>
      <trkpt lat="43.67506" lon="3.73062">
        <ele>120.06765</ele>
        <time>2021-04-17T09:50:20.800Z</time>
      </trkpt>
      <trkpt lat="43.67495" lon="3.73035">
        <ele>122.308655</ele>
        <time>2021-04-17T09:50:30.815Z</time>
      </trkpt>
      <trkpt lat="43.67473" lon="3.73019">
        <ele>122.224403</ele>
        <time>2021-04-17T09:50:34.876Z</time>
      </trkpt>
      <trkpt lat="43.67452" lon="3.73008">
        <ele>120.414757</ele>
        <time>2021-04-17T09:50:36.826Z</time>
      </trkpt>
      <trkpt lat="43.67432" lon="3.73001">
        <ele>119.296387</ele>
        <time>2021-04-17T09:50:38.639Z</time>
      </trkpt>
      <trkpt lat="43.67415" lon="3.72994">
        <ele>118.170166</ele>
        <time>2021-04-17T09:50:40.085Z</time>
      </trkpt>
      <trkpt lat="43.67397" lon="3.72988">
        <ele>117.149483</ele>
        <time>2021-04-17T09:50:41.699Z</time>
      </trkpt>
      <trkpt lat="43.67381" lon="3.72979">
        <ele>116.18795</ele>
        <time>2021-04-17T09:50:43.198Z</time>
      </trkpt>
      <trkpt lat="43.67364" lon="3.72969">
        <ele>114.892845</ele>
        <time>2021-04-17T09:50:44.803Z</time>
      </trkpt>
      <trkpt lat="43.67346" lon="3.72955">
        <ele>112.515663</ele>
        <time>2021-04-17T09:50:46.596Z</time>
      </trkpt>
      <trkpt lat="43.67326" lon="3.72938">
        <ele>110.393211</ele>
        <time>2021-04-17T09:50:48.635Z</time>
      </trkpt>
      <trkpt lat="43.67305" lon="3.72928">
        <ele>108.646545</ele>
        <time>2021-04-17T09:50:50.564Z</time>
      </trkpt>
      <trkpt lat="43.6728" lon="3.72926">
        <ele>108.106514</ele>
        <time>2021-04-17T09:50:53.591Z</time>
      </trkpt>
      <trkpt lat="43.67255" lon="3.72924">
        <ele>108.059792</ele>
        <time>2021-04-17T09:50:57.775Z</time>
      </trkpt>
      <trkpt lat="43.67245" lon="3.72912">
        <ele>108.242493</ele>
        <time>2021-04-17T09:51:00.380Z</time>
      </trkpt>
      <trkpt lat="43.67248" lon="3.729">
        <ele>108.414574</ele>
        <time>2021-04-17T09:51:02.285Z</time>
      </trkpt>
      <trkpt lat="43.67257" lon="3.7289">
        <ele>108.628502</ele>
        <time>2021-04-17T09:51:04.675Z</time>
      </trkpt>
      <trkpt lat="43.67267" lon="3.72875">
        <ele>108.58062</ele>
        <time>2021-04-17T09:51:07.090Z</time>
      </trkpt>
      <trkpt lat="43.67283" lon="3.72857">
        <ele>108.234863</ele>
        <time>2021-04-17T09:51:09.730Z</time>
      </trkpt>
      <trkpt lat="43.67299" lon="3.72841">
        <ele>107.512245</ele>
        <time>2021-04-17T09:51:11.765Z</time>
      </trkpt>
      <trkpt lat="43.67296" lon="3.72832">
        <ele>106.926971</ele>
        <time>2021-04-17T09:51:12.387Z</time>
      </trkpt>
      <trkpt lat="43.67286" lon="3.72841">
        <ele>107.085625</ele>
        <time>2021-04-17T09:51:14.722Z</time>
      </trkpt>
      <trkpt lat="43.67277" lon="3.72852">
        <ele>107.471321</ele>
        <time>2021-04-17T09:51:17.646Z</time>
      </trkpt>
      <trkpt lat="43.67268" lon="3.72862">
        <ele>107.595238</ele>
        <time>2021-04-17T09:51:19.847Z</time>
      </trkpt>
      <trkpt lat="43.6726" lon="3.7287">
        <ele>108.131096</ele>
        <time>2021-04-17T09:51:22.899Z</time>
      </trkpt>
      <trkpt lat="43.67251" lon="3.72878">
        <ele>108.59967</ele>
        <time>2021-04-17T09:51:25.970Z</time>
      </trkpt>
      <trkpt lat="43.67243" lon="3.72887">
        <ele>108.874939</ele>
        <time>2021-04-17T09:51:28.316Z</time>
      </trkpt>
      <trkpt lat="43.67235" lon="3.72897">
        <ele>109.105019</ele>
        <time>2021-04-17T09:51:30.619Z</time>
      </trkpt>
      <trkpt lat="43.67228" lon="3.72906">
        <ele>109.147583</ele>
        <time>2021-04-17T09:51:32.332Z</time>
      </trkpt>
      <trkpt lat="43.67221" lon="3.72917">
        <ele>109.054474</ele>
        <time>2021-04-17T09:51:33.834Z</time>
      </trkpt>
      <trkpt lat="43.67218" lon="3.72931">
        <ele>108.851387</ele>
        <time>2021-04-17T09:51:35.146Z</time>
      </trkpt>
      <trkpt lat="43.67214" lon="3.72945">
        <ele>108.535469</ele>
        <time>2021-04-17T09:51:36.358Z</time>
      </trkpt>
      <trkpt lat="43.67202" lon="3.72971">
        <ele>108.240234</ele>
        <time>2021-04-17T09:51:39.341Z</time>
      </trkpt>
      <trkpt lat="43.67197" lon="3.73009">
        <ele>108.12085</ele>
        <time>2021-04-17T09:51:43.847Z</time>
      </trkpt>
      <trkpt lat="43.67193" lon="3.73044">
        <ele>108.388184</ele>
        <time>2021-04-17T09:51:48.716Z</time>
      </trkpt>
      <trkpt lat="43.67186" lon="3.73086">
        <ele>109.09095</ele>
        <time>2021-04-17T09:51:55.468Z</time>
      </trkpt>
      <trkpt lat="43.67178" lon="3.73128">
        <ele>111.605042</ele>
        <time>2021-04-17T09:52:07.220Z</time>
      </trkpt>
      <trkpt lat="43.67173" lon="3.73157">
        <ele>113.551201</ele>
        <time>2021-04-17T09:52:16.020Z</time>
      </trkpt>
      <trkpt lat="43.67169" lon="3.73176">
        <ele>113.70694</ele>
        <time>2021-04-17T09:52:18.752Z</time>
      </trkpt>
      <trkpt lat="43.67168" lon="3.73189">
        <ele>113.32209</ele>
        <time>2021-04-17T09:52:19.689Z</time>
      </trkpt>
      <trkpt lat="43.67168" lon="3.73202">
        <ele>112.734474</ele>
        <time>2021-04-17T09:52:20.462Z</time>
      </trkpt>
      <trkpt lat="43.67166" lon="3.73215">
        <ele>112.002174</ele>
        <time>2021-04-17T09:52:21.296Z</time>
      </trkpt>
      <trkpt lat="43.67165" lon="3.73228">
        <ele>111.351234</ele>
        <time>2021-04-17T09:52:22.118Z</time>
      </trkpt>
      <trkpt lat="43.67164" lon="3.73244">
        <ele>110.676094</ele>
        <time>2021-04-17T09:52:23.106Z</time>
      </trkpt>
      <trkpt lat="43.67161" lon="3.73261">
        <ele>109.627663</ele>
        <time>2021-04-17T09:52:24.205Z</time>
      </trkpt>
      <trkpt lat="43.67159" lon="3.73275">
        <ele>108.695427</ele>
        <time>2021-04-17T09:52:25.101Z</time>
      </trkpt>
      <trkpt lat="43.67157" lon="3.73288">
        <ele>107.944405</ele>
        <time>2021-04-17T09:52:25.936Z</time>
      </trkpt>
      <trkpt lat="43.67152" lon="3.73301">
        <ele>106.980011</ele>
        <time>2021-04-17T09:52:26.861Z</time>
      </trkpt>
      <trkpt lat="43.67146" lon="3.73312">
        <ele>105.854652</ele>
        <time>2021-04-17T09:52:27.727Z</time>
      </trkpt>
      <trkpt lat="43.67139" lon="3.7332">
        <ele>105.163231</ele>
        <time>2021-04-17T09:52:28.515Z</time>
      </trkpt>
      <trkpt lat="43.67132" lon="3.73331">
        <ele>104.198494</ele>
        <time>2021-04-17T09:52:29.436Z</time>
      </trkpt>
      <trkpt lat="43.67126" lon="3.7334">
        <ele>103.024071</ele>
        <time>2021-04-17T09:52:30.204Z</time>
      </trkpt>
      <trkpt lat="43.67119" lon="3.73351">
        <ele>102.299416</ele>
        <time>2021-04-17T09:52:31.125Z</time>
      </trkpt>
      <trkpt lat="43.6711" lon="3.73364">
        <ele>101.520531</ele>
        <time>2021-04-17T09:52:32.217Z</time>
      </trkpt>
      <trkpt lat="43.67098" lon="3.73379">
        <ele>100.733727</ele>
        <time>2021-04-17T09:52:33.708Z</time>
      </trkpt>
      <trkpt lat="43.67076" lon="3.73388">
        <ele>99.441063</ele>
        <time>2021-04-17T09:52:35.688Z</time>
      </trkpt>
      <trkpt lat="43.67019" lon="3.73391">
        <ele>96.935478</ele>
        <time>2021-04-17T09:52:41.171Z</time>
      </trkpt>
      <trkpt lat="43.66988" lon="3.73394">
        <ele>92.452698</ele>
        <time>2021-04-17T09:52:43.870Z</time>
      </trkpt>
      <trkpt lat="43.66975" lon="3.73393">
        <ele>91.836327</ele>
        <time>2021-04-17T09:52:45.084Z</time>
      </trkpt>
      <trkpt lat="43.66962" lon="3.73394">
        <ele>90.946297</ele>
        <time>2021-04-17T09:52:46.214Z</time>
      </trkpt>
      <trkpt lat="43.6695" lon="3.73397">
        <ele>90.573235</ele>
        <time>2021-04-17T09:52:47.550Z</time>
      </trkpt>
      <trkpt lat="43.66926" lon="3.73404">
        <ele>89.658562</ele>
        <time>2021-04-17T09:52:50.060Z</time>
      </trkpt>
      <trkpt lat="43.66918" lon="3.73408">
        <ele>89.729156</ele>
        <time>2021-04-17T09:52:51.642Z</time>
      </trkpt>
      <trkpt lat="43.66909" lon="3.73411">
        <ele>90.438507</ele>
        <time>2021-04-17T09:52:55.012Z</time>
      </trkpt>
      <trkpt lat="43.66901" lon="3.73417">
        <ele>91.182251</ele>
        <time>2021-04-17T09:52:58.464Z</time>
      </trkpt>
      <trkpt lat="43.66895" lon="3.73424">
        <ele>91.755775</ele>
        <time>2021-04-17T09:53:01.243Z</time>
      </trkpt>
      <trkpt lat="43.66896" lon="3.73403">
        <ele>92.288979</ele>
        <time>2021-04-17T09:53:05.095Z</time>
      </trkpt>
      <trkpt lat="43.66881" lon="3.73379">
        <ele>91.949074</ele>
        <time>2021-04-17T09:53:08.102Z</time>
      </trkpt>
      <trkpt lat="43.66868" lon="3.73336">
        <ele>91.998497</ele>
        <time>2021-04-17T09:53:13.974Z</time>
      </trkpt>
      <trkpt lat="43.66864" lon="3.73313">
        <ele>95.86132</ele>
        <time>2021-04-17T09:53:25.316Z</time>
      </trkpt>
      <trkpt lat="43.66869" lon="3.73301">
        <ele>105.193512</ele>
        <time>2021-04-17T09:53:31.956Z</time>
      </trkpt>
      <trkpt lat="43.66872" lon="3.73291">
        <ele>112.74192</ele>
        <time>2021-04-17T09:53:37.147Z</time>
      </trkpt>
      <trkpt lat="43.66861" lon="3.7329">
        <ele>114.363579</ele>
        <time>2021-04-17T09:53:44.454Z</time>
      </trkpt>
      <trkpt lat="43.6685" lon="3.73296">
        <ele>116.427071</ele>
        <time>2021-04-17T09:53:52.292Z</time>
      </trkpt>
      <trkpt lat="43.66837" lon="3.73303">
        <ele>118.811607</ele>
        <time>2021-04-17T09:54:01.540Z</time>
      </trkpt>
      <trkpt lat="43.66824" lon="3.73308">
        <ele>120.316467</ele>
        <time>2021-04-17T09:54:08.333Z</time>
      </trkpt>
      <trkpt lat="43.66811" lon="3.73313">
        <ele>122.26255</ele>
        <time>2021-04-17T09:54:17.277Z</time>
      </trkpt>
      <trkpt lat="43.66798" lon="3.73318">
        <ele>124.66317</ele>
        <time>2021-04-17T09:54:26.221Z</time>
      </trkpt>
      <trkpt lat="43.66788" lon="3.73322">
        <ele>126.89624</ele>
        <time>2021-04-17T09:54:33.122Z</time>
      </trkpt>
      <trkpt lat="43.66778" lon="3.73328">
        <ele>128.880692</ele>
        <time>2021-04-17T09:54:40.348Z</time>
      </trkpt>
      <trkpt lat="43.66768" lon="3.73336">
        <ele>130.870346</ele>
        <time>2021-04-17T09:54:48.006Z</time>
      </trkpt>
      <trkpt lat="43.66758" lon="3.73343">
        <ele>132.48056</ele>
        <time>2021-04-17T09:54:55.436Z</time>
      </trkpt>
      <trkpt lat="43.66748" lon="3.73352">
        <ele>134.210403</ele>
        <time>2021-04-17T09:55:03.345Z</time>
      </trkpt>
      <trkpt lat="43.66737" lon="3.7336">
        <ele>136.168045</ele>
        <time>2021-04-17T09:55:11.584Z</time>
      </trkpt>
      <trkpt lat="43.66726" lon="3.73368">
        <ele>138.769394</ele>
        <time>2021-04-17T09:55:19.822Z</time>
      </trkpt>
      <trkpt lat="43.66715" lon="3.73378">
        <ele>141.484177</ele>
        <time>2021-04-17T09:55:28.549Z</time>
      </trkpt>
      <trkpt lat="43.66705" lon="3.73387">
        <ele>143.034912</ele>
        <time>2021-04-17T09:55:36.080Z</time>
      </trkpt>
      <trkpt lat="43.66694" lon="3.73399">
        <ele>146.690857</ele>
        <time>2021-04-17T09:55:45.368Z</time>
      </trkpt>
      <trkpt lat="43.66682" lon="3.73411">
        <ele>149.495758</ele>
        <time>2021-04-17T09:55:55.185Z</time>
      </trkpt>
      <trkpt lat="43.66674" lon="3.73426">
        <ele>151.789215</ele>
        <time>2021-04-17T09:56:04.121Z</time>
      </trkpt>
      <trkpt lat="43.66668" lon="3.7345">
        <ele>152.19548</ele>
        <time>2021-04-17T09:56:08.080Z</time>
      </trkpt>
      <trkpt lat="43.66663" lon="3.73477">
        <ele>149.67601</ele>
        <time>2021-04-17T09:56:09.831Z</time>
      </trkpt>
      <trkpt lat="43.66654" lon="3.73504">
        <ele>144.451645</ele>
        <time>2021-04-17T09:56:11.698Z</time>
      </trkpt>
      <trkpt lat="43.66642" lon="3.73527">
        <ele>140.339737</ele>
        <time>2021-04-17T09:56:13.480Z</time>
      </trkpt>
      <trkpt lat="43.66629" lon="3.7355">
        <ele>138.009491</ele>
        <time>2021-04-17T09:56:15.313Z</time>
      </trkpt>
      <trkpt lat="43.6662" lon="3.73576">
        <ele>138.146606</ele>
        <time>2021-04-17T09:56:19.126Z</time>
      </trkpt>
      <trkpt lat="43.66612" lon="3.73603">
        <ele>138.202698</ele>
        <time>2021-04-17T09:56:22.844Z</time>
      </trkpt>
      <trkpt lat="43.66607" lon="3.73633">
        <ele>137.841095</ele>
        <time>2021-04-17T09:56:25.712Z</time>
      </trkpt>
      <trkpt lat="43.66602" lon="3.73663">
        <ele>136.499222</ele>
        <time>2021-04-17T09:56:27.574Z</time>
      </trkpt>
      <trkpt lat="43.66598" lon="3.73693">
        <ele>133.521805</ele>
        <time>2021-04-17T09:56:29.490Z</time>
      </trkpt>
      <trkpt lat="43.66591" lon="3.73722">
        <ele>130.056229</ele>
        <time>2021-04-17T09:56:31.411Z</time>
      </trkpt>
      <trkpt lat="43.66586" lon="3.73752">
        <ele>126.789299</ele>
        <time>2021-04-17T09:56:33.345Z</time>
      </trkpt>
      <trkpt lat="43.66578" lon="3.73782">
        <ele>123.567879</ele>
        <time>2021-04-17T09:56:35.354Z</time>
      </trkpt>
      <trkpt lat="43.66569" lon="3.73811">
        <ele>119.97068</ele>
        <time>2021-04-17T09:56:37.336Z</time>
      </trkpt>
      <trkpt lat="43.66557" lon="3.73836">
        <ele>115.352234</ele>
        <time>2021-04-17T09:56:39.221Z</time>
      </trkpt>
      <trkpt lat="43.66543" lon="3.73857">
        <ele>112.443504</ele>
        <time>2021-04-17T09:56:41.015Z</time>
      </trkpt>
      <trkpt lat="43.6653" lon="3.73879">
        <ele>111.208519</ele>
        <time>2021-04-17T09:56:42.735Z</time>
      </trkpt>
      <trkpt lat="43.66519" lon="3.73903">
        <ele>110.07531</ele>
        <time>2021-04-17T09:56:44.527Z</time>
      </trkpt>
      <trkpt lat="43.66513" lon="3.73932">
        <ele>108.468658</ele>
        <time>2021-04-17T09:56:46.422Z</time>
      </trkpt>
      <trkpt lat="43.6651" lon="3.73962">
        <ele>105.420479</ele>
        <time>2021-04-17T09:56:48.325Z</time>
      </trkpt>
      <trkpt lat="43.66506" lon="3.73991">
        <ele>102.8843</ele>
        <time>2021-04-17T09:56:50.179Z</time>
      </trkpt>
      <trkpt lat="43.66503" lon="3.74021">
        <ele>100.685631</ele>
        <time>2021-04-17T09:56:52.082Z</time>
      </trkpt>
      <trkpt lat="43.66499" lon="3.74052">
        <ele>98.442238</ele>
        <time>2021-04-17T09:56:54.060Z</time>
      </trkpt>
      <trkpt lat="43.66497" lon="3.74081">
        <ele>97.585747</ele>
        <time>2021-04-17T09:56:56.149Z</time>
      </trkpt>
      <trkpt lat="43.66493" lon="3.7411">
        <ele>96.598633</ele>
        <time>2021-04-17T09:56:58.159Z</time>
      </trkpt>
      <trkpt lat="43.66488" lon="3.74139">
        <ele>95.78788</ele>
        <time>2021-04-17T09:57:00.360Z</time>
      </trkpt>
      <trkpt lat="43.66478" lon="3.74169">
        <ele>95.214119</ele>
        <time>2021-04-17T09:57:03.169Z</time>
      </trkpt>
      <trkpt lat="43.66464" lon="3.74195">
        <ele>95.020409</ele>
        <time>2021-04-17T09:57:06.517Z</time>
      </trkpt>
      <trkpt lat="43.66449" lon="3.74219">
        <ele>95.040955</ele>
        <time>2021-04-17T09:57:10.492Z</time>
      </trkpt>
      <trkpt lat="43.66434" lon="3.74243">
        <ele>95.10556</ele>
        <time>2021-04-17T09:57:14.539Z</time>
      </trkpt>
      <trkpt lat="43.6642" lon="3.74269">
        <ele>95.740608</ele>
        <time>2021-04-17T09:57:19.898Z</time>
      </trkpt>
      <trkpt lat="43.66408" lon="3.74294">
        <ele>96.518471</ele>
        <time>2021-04-17T09:57:25.451Z</time>
      </trkpt>
      <trkpt lat="43.66395" lon="3.74319">
        <ele>97.113899</ele>
        <time>2021-04-17T09:57:30.519Z</time>
      </trkpt>
      <trkpt lat="43.66382" lon="3.74345">
        <ele>97.403687</ele>
        <time>2021-04-17T09:57:34.965Z</time>
      </trkpt>
      <trkpt lat="43.66367" lon="3.74372">
        <ele>97.871239</ele>
        <time>2021-04-17T09:57:40.088Z</time>
      </trkpt>
      <trkpt lat="43.66354" lon="3.74397">
        <ele>97.980042</ele>
        <time>2021-04-17T09:57:44.095Z</time>
      </trkpt>
      <trkpt lat="43.66339" lon="3.74421">
        <ele>97.899757</ele>
        <time>2021-04-17T09:57:47.837Z</time>
      </trkpt>
      <trkpt lat="43.66325" lon="3.74447">
        <ele>97.885597</ele>
        <time>2021-04-17T09:57:51.829Z</time>
      </trkpt>
      <trkpt lat="43.6631" lon="3.74477">
        <ele>97.843483</ele>
        <time>2021-04-17T09:57:56.255Z</time>
      </trkpt>
      <trkpt lat="43.66296" lon="3.74508">
        <ele>97.800049</ele>
        <time>2021-04-17T09:58:00.686Z</time>
      </trkpt>
      <trkpt lat="43.66285" lon="3.74544">
        <ele>97.992271</ele>
        <time>2021-04-17T09:58:05.867Z</time>
      </trkpt>
      <trkpt lat="43.66278" lon="3.74575">
        <ele>98.292397</ele>
        <time>2021-04-17T09:58:10.440Z</time>
      </trkpt>
      <trkpt lat="43.66273" lon="3.7461">
        <ele>98.463676</ele>
        <time>2021-04-17T09:58:15.162Z</time>
      </trkpt>
      <trkpt lat="43.66267" lon="3.74645">
        <ele>98.356964</ele>
        <time>2021-04-17T09:58:19.369Z</time>
      </trkpt>
      <trkpt lat="43.66262" lon="3.7468">
        <ele>97.763</ele>
        <time>2021-04-17T09:58:22.438Z</time>
      </trkpt>
      <trkpt lat="43.66258" lon="3.74715">
        <ele>96.939156</ele>
        <time>2021-04-17T09:58:25.200Z</time>
      </trkpt>
      <trkpt lat="43.66252" lon="3.74751">
        <ele>96.119759</ele>
        <time>2021-04-17T09:58:28.124Z</time>
      </trkpt>
      <trkpt lat="43.66248" lon="3.74783">
        <ele>94.743004</ele>
        <time>2021-04-17T09:58:30.115Z</time>
      </trkpt>
      <trkpt lat="43.66244" lon="3.74812">
        <ele>93.43045</ele>
        <time>2021-04-17T09:58:31.884Z</time>
      </trkpt>
      <trkpt lat="43.66237" lon="3.74844">
        <ele>92.384644</ele>
        <time>2021-04-17T09:58:34.223Z</time>
      </trkpt>
      <trkpt lat="43.66227" lon="3.74875">
        <ele>91.304634</ele>
        <time>2021-04-17T09:58:36.583Z</time>
      </trkpt>
      <trkpt lat="43.66214" lon="3.74902">
        <ele>90.673668</ele>
        <time>2021-04-17T09:58:39.255Z</time>
      </trkpt>
      <trkpt lat="43.662" lon="3.74932">
        <ele>90.220909</ele>
        <time>2021-04-17T09:58:42.529Z</time>
      </trkpt>
      <trkpt lat="43.66185" lon="3.74961">
        <ele>90.005737</ele>
        <time>2021-04-17T09:58:46.207Z</time>
      </trkpt>
      <trkpt lat="43.66173" lon="3.7499">
        <ele>89.999077</ele>
        <time>2021-04-17T09:58:50.343Z</time>
      </trkpt>
      <trkpt lat="43.66164" lon="3.75019">
        <ele>90.008293</ele>
        <time>2021-04-17T09:58:54.280Z</time>
      </trkpt>
      <trkpt lat="43.66159" lon="3.75049">
        <ele>90.142082</ele>
        <time>2021-04-17T09:58:58.330Z</time>
      </trkpt>
      <trkpt lat="43.66155" lon="3.75082">
        <ele>90.197151</ele>
        <time>2021-04-17T09:59:02.579Z</time>
      </trkpt>
      <trkpt lat="43.66151" lon="3.75116">
        <ele>90.222252</ele>
        <time>2021-04-17T09:59:06.901Z</time>
      </trkpt>
      <trkpt lat="43.66147" lon="3.75146">
        <ele>90.339943</ele>
        <time>2021-04-17T09:59:10.888Z</time>
      </trkpt>
      <trkpt lat="43.66143" lon="3.75174">
        <ele>90.947945</ele>
        <time>2021-04-17T09:59:15.747Z</time>
      </trkpt>
      <trkpt lat="43.66141" lon="3.752">
        <ele>91.477074</ele>
        <time>2021-04-17T09:59:20.117Z</time>
      </trkpt>
      <trkpt lat="43.66137" lon="3.75225">
        <ele>92.255096</ele>
        <time>2021-04-17T09:59:25.291Z</time>
      </trkpt>
      <trkpt lat="43.66134" lon="3.75254">
        <ele>92.844368</ele>
        <time>2021-04-17T09:59:30.178Z</time>
      </trkpt>
      <trkpt lat="43.66129" lon="3.75281">
        <ele>93.585258</ele>
        <time>2021-04-17T09:59:35.400Z</time>
      </trkpt>
      <trkpt lat="43.66126" lon="3.75307">
        <ele>94.972168</ele>
        <time>2021-04-17T09:59:42.130Z</time>
      </trkpt>
      <trkpt lat="43.66122" lon="3.75333">
        <ele>97.822136</ele>
        <time>2021-04-17T09:59:54.876Z</time>
      </trkpt>
      <trkpt lat="43.66124" lon="3.75357">
        <ele>100.576965</ele>
        <time>2021-04-17T10:00:06.461Z</time>
      </trkpt>
      <trkpt lat="43.66129" lon="3.75381">
        <ele>103.755211</ele>
        <time>2021-04-17T10:00:18.437Z</time>
      </trkpt>
      <trkpt lat="43.66135" lon="3.75399">
        <ele>105.107994</ele>
        <time>2021-04-17T10:00:24.510Z</time>
      </trkpt>
      <trkpt lat="43.6614" lon="3.75414">
        <ele>106.755287</ele>
        <time>2021-04-17T10:00:32.430Z</time>
      </trkpt>
      <trkpt lat="43.66168" lon="3.75434">
        <ele>107.196625</ele>
        <time>2021-04-17T10:00:38.643Z</time>
      </trkpt>
      <trkpt lat="43.66193" lon="3.75453">
        <ele>105.514771</ele>
        <time>2021-04-17T10:00:41.054Z</time>
      </trkpt>
      <trkpt lat="43.66211" lon="3.75481">
        <ele>100.89138</ele>
        <time>2021-04-17T10:00:43.407Z</time>
      </trkpt>
      <trkpt lat="43.66229" lon="3.7551">
        <ele>99.164825</ele>
        <time>2021-04-17T10:00:45.679Z</time>
      </trkpt>
      <trkpt lat="43.66243" lon="3.75539">
        <ele>98.495583</ele>
        <time>2021-04-17T10:00:48.563Z</time>
      </trkpt>
      <trkpt lat="43.66256" lon="3.75567">
        <ele>98.786339</ele>
        <time>2021-04-17T10:00:53.214Z</time>
      </trkpt>
      <trkpt lat="43.66267" lon="3.75594">
        <ele>100.193359</ele>
        <time>2021-04-17T10:01:00.564Z</time>
      </trkpt>
      <trkpt lat="43.66282" lon="3.75626">
        <ele>101.398918</ele>
        <time>2021-04-17T10:01:08.469Z</time>
      </trkpt>
      <trkpt lat="43.66299" lon="3.75663">
        <ele>101.854889</ele>
        <time>2021-04-17T10:01:14.745Z</time>
      </trkpt>
      <trkpt lat="43.66317" lon="3.75705">
        <ele>101.280357</ele>
        <time>2021-04-17T10:01:19.291Z</time>
      </trkpt>
      <trkpt lat="43.66337" lon="3.7575">
        <ele>99.974953</ele>
        <time>2021-04-17T10:01:23.324Z</time>
      </trkpt>
      <trkpt lat="43.66361" lon="3.75798">
        <ele>98.694817</ele>
        <time>2021-04-17T10:01:27.959Z</time>
      </trkpt>
      <trkpt lat="43.66395" lon="3.75837">
        <ele>97.601891</ele>
        <time>2021-04-17T10:01:33.112Z</time>
      </trkpt>
      <trkpt lat="43.66426" lon="3.7587">
        <ele>94.923218</ele>
        <time>2021-04-17T10:01:36.510Z</time>
      </trkpt>
      <trkpt lat="43.6645" lon="3.75897">
        <ele>92.741882</ele>
        <time>2021-04-17T10:01:39.197Z</time>
      </trkpt>
      <trkpt lat="43.66474" lon="3.75921">
        <ele>91.733681</ele>
        <time>2021-04-17T10:01:42.328Z</time>
      </trkpt>
      <trkpt lat="43.66497" lon="3.75946">
        <ele>91.398232</ele>
        <time>2021-04-17T10:01:46.330Z</time>
      </trkpt>
      <trkpt lat="43.66518" lon="3.75973">
        <ele>90.360291</ele>
        <time>2021-04-17T10:01:49.297Z</time>
      </trkpt>
      <trkpt lat="43.66536" lon="3.76002">
        <ele>90.269081</ele>
        <time>2021-04-17T10:01:53.819Z</time>
      </trkpt>
      <trkpt lat="43.66549" lon="3.76032">
        <ele>91.272514</ele>
        <time>2021-04-17T10:02:00.647Z</time>
      </trkpt>
      <trkpt lat="43.66558" lon="3.76065">
        <ele>92.158112</ele>
        <time>2021-04-17T10:02:07.075Z</time>
      </trkpt>
      <trkpt lat="43.66562" lon="3.76101">
        <ele>92.967567</ele>
        <time>2021-04-17T10:02:13.376Z</time>
      </trkpt>
      <trkpt lat="43.66563" lon="3.76136">
        <ele>93.799286</ele>
        <time>2021-04-17T10:02:19.603Z</time>
      </trkpt>
      <trkpt lat="43.66562" lon="3.76172">
        <ele>94.060783</ele>
        <time>2021-04-17T10:02:24.534Z</time>
      </trkpt>
      <trkpt lat="43.6656" lon="3.76209">
        <ele>93.899086</ele>
        <time>2021-04-17T10:02:28.757Z</time>
      </trkpt>
      <trkpt lat="43.66557" lon="3.76247">
        <ele>91.641457</ele>
        <time>2021-04-17T10:02:31.158Z</time>
      </trkpt>
      <trkpt lat="43.6655" lon="3.76281">
        <ele>89.653725</ele>
        <time>2021-04-17T10:02:33.379Z</time>
      </trkpt>
      <trkpt lat="43.66542" lon="3.76313">
        <ele>87.479004</ele>
        <time>2021-04-17T10:02:35.506Z</time>
      </trkpt>
      <trkpt lat="43.66533" lon="3.76347">
        <ele>86.647461</ele>
        <time>2021-04-17T10:02:38.340Z</time>
      </trkpt>
      <trkpt lat="43.66522" lon="3.7638">
        <ele>86.262856</ele>
        <time>2021-04-17T10:02:41.793Z</time>
      </trkpt>
      <trkpt lat="43.66507" lon="3.76413">
        <ele>85.927574</ele>
        <time>2021-04-17T10:02:45.628Z</time>
      </trkpt>
      <trkpt lat="43.66488" lon="3.76442">
        <ele>85.274925</ele>
        <time>2021-04-17T10:02:48.992Z</time>
      </trkpt>
      <trkpt lat="43.66468" lon="3.7647">
        <ele>83.972267</ele>
        <time>2021-04-17T10:02:51.683Z</time>
      </trkpt>
      <trkpt lat="43.66447" lon="3.76498">
        <ele>82.92981</ele>
        <time>2021-04-17T10:02:54.715Z</time>
      </trkpt>
      <trkpt lat="43.66427" lon="3.76526">
        <ele>81.698921</ele>
        <time>2021-04-17T10:02:57.468Z</time>
      </trkpt>
      <trkpt lat="43.66409" lon="3.76553">
        <ele>81.132484</ele>
        <time>2021-04-17T10:03:00.688Z</time>
      </trkpt>
      <trkpt lat="43.66389" lon="3.7658">
        <ele>81.000793</ele>
        <time>2021-04-17T10:03:05.169Z</time>
      </trkpt>
      <trkpt lat="43.6637" lon="3.76606">
        <ele>81.289185</ele>
        <time>2021-04-17T10:03:10.267Z</time>
      </trkpt>
      <trkpt lat="43.66354" lon="3.76633">
        <ele>82.397926</ele>
        <time>2021-04-17T10:03:17.525Z</time>
      </trkpt>
      <trkpt lat="43.66342" lon="3.76663">
        <ele>83.698875</ele>
        <time>2021-04-17T10:03:25.099Z</time>
      </trkpt>
      <trkpt lat="43.66333" lon="3.76696">
        <ele>84.881897</ele>
        <time>2021-04-17T10:03:32.587Z</time>
      </trkpt>
      <trkpt lat="43.66324" lon="3.76729">
        <ele>85.587273</ele>
        <time>2021-04-17T10:03:38.459Z</time>
      </trkpt>
      <trkpt lat="43.66316" lon="3.76764">
        <ele>85.58429</ele>
        <time>2021-04-17T10:03:43.014Z</time>
      </trkpt>
      <trkpt lat="43.66307" lon="3.76796">
        <ele>84.906708</ele>
        <time>2021-04-17T10:03:45.831Z</time>
      </trkpt>
      <trkpt lat="43.663" lon="3.76829">
        <ele>83.816017</ele>
        <time>2021-04-17T10:03:48.224Z</time>
      </trkpt>
      <trkpt lat="43.66292" lon="3.76861">
        <ele>82.919205</ele>
        <time>2021-04-17T10:03:50.748Z</time>
      </trkpt>
      <trkpt lat="43.66284" lon="3.76892">
        <ele>82.941788</ele>
        <time>2021-04-17T10:03:54.875Z</time>
      </trkpt>
      <trkpt lat="43.66276" lon="3.7692">
        <ele>83.379066</ele>
        <time>2021-04-17T10:03:59.461Z</time>
      </trkpt>
      <trkpt lat="43.66269" lon="3.76949">
        <ele>84.266266</ele>
        <time>2021-04-17T10:04:05.470Z</time>
      </trkpt>
      <trkpt lat="43.66262" lon="3.76975">
        <ele>85.30291</ele>
        <time>2021-04-17T10:04:11.566Z</time>
      </trkpt>
      <trkpt lat="43.66254" lon="3.77001">
        <ele>86.648216</ele>
        <time>2021-04-17T10:04:18.418Z</time>
      </trkpt>
      <trkpt lat="43.66246" lon="3.77025">
        <ele>87.736717</ele>
        <time>2021-04-17T10:04:24.436Z</time>
      </trkpt>
      <trkpt lat="43.66238" lon="3.77045">
        <ele>89.24308</ele>
        <time>2021-04-17T10:04:31.236Z</time>
      </trkpt>
      <trkpt lat="43.66233" lon="3.77063">
        <ele>90.636299</ele>
        <time>2021-04-17T10:04:37.462Z</time>
      </trkpt>
      <trkpt lat="43.66229" lon="3.77079">
        <ele>91.875237</ele>
        <time>2021-04-17T10:04:42.998Z</time>
      </trkpt>
      <trkpt lat="43.66228" lon="3.77095">
        <ele>93.292976</ele>
        <time>2021-04-17T10:04:49.609Z</time>
      </trkpt>
      <trkpt lat="43.66227" lon="3.77111">
        <ele>94.403961</ele>
        <time>2021-04-17T10:04:54.589Z</time>
      </trkpt>
      <trkpt lat="43.66228" lon="3.77126">
        <ele>95.025185</ele>
        <time>2021-04-17T10:04:58.021Z</time>
      </trkpt>
      <trkpt lat="43.66228" lon="3.77141">
        <ele>95.364044</ele>
        <time>2021-04-17T10:05:00.633Z</time>
      </trkpt>
      <trkpt lat="43.66227" lon="3.77155">
        <ele>95.538391</ele>
        <time>2021-04-17T10:05:02.707Z</time>
      </trkpt>
      <trkpt lat="43.66226" lon="3.77169">
        <ele>95.915344</ele>
        <time>2021-04-17T10:05:05.354Z</time>
      </trkpt>
      <trkpt lat="43.66224" lon="3.77182">
        <ele>96.164917</ele>
        <time>2021-04-17T10:05:07.522Z</time>
      </trkpt>
      <trkpt lat="43.66219" lon="3.77196">
        <ele>96.737114</ele>
        <time>2021-04-17T10:05:10.931Z</time>
      </trkpt>
      <trkpt lat="43.66217" lon="3.77211">
        <ele>97.655884</ele>
        <time>2021-04-17T10:05:15.171Z</time>
      </trkpt>
      <trkpt lat="43.66214" lon="3.77227">
        <ele>98.251305</ele>
        <time>2021-04-17T10:05:18.759Z</time>
      </trkpt>
      <trkpt lat="43.66212" lon="3.77243">
        <ele>98.775513</ele>
        <time>2021-04-17T10:05:22.168Z</time>
      </trkpt>
      <trkpt lat="43.66209" lon="3.77262">
        <ele>99.27697</ele>
        <time>2021-04-17T10:05:25.758Z</time>
      </trkpt>
      <trkpt lat="43.66207" lon="3.77279">
        <ele>99.632011</ele>
        <time>2021-04-17T10:05:28.655Z</time>
      </trkpt>
      <trkpt lat="43.66204" lon="3.77297">
        <ele>100.235901</ele>
        <time>2021-04-17T10:05:32.548Z</time>
      </trkpt>
      <trkpt lat="43.66201" lon="3.77313">
        <ele>100.725029</ele>
        <time>2021-04-17T10:05:35.834Z</time>
      </trkpt>
      <trkpt lat="43.66198" lon="3.77327">
        <ele>101.175392</ele>
        <time>2021-04-17T10:05:38.813Z</time>
      </trkpt>
      <trkpt lat="43.66194" lon="3.77341">
        <ele>101.598579</ele>
        <time>2021-04-17T10:05:41.718Z</time>
      </trkpt>
      <trkpt lat="43.66193" lon="3.77357">
        <ele>102.233833</ele>
        <time>2021-04-17T10:05:45.320Z</time>
      </trkpt>
      <trkpt lat="43.66191" lon="3.77372">
        <ele>102.441826</ele>
        <time>2021-04-17T10:05:47.612Z</time>
      </trkpt>
      <trkpt lat="43.66187" lon="3.77386">
        <ele>102.79818</ele>
        <time>2021-04-17T10:05:50.284Z</time>
      </trkpt>
      <trkpt lat="43.66181" lon="3.77399">
        <ele>103.26725</ele>
        <time>2021-04-17T10:05:53.402Z</time>
      </trkpt>
      <trkpt lat="43.66174" lon="3.7741">
        <ele>103.655334</ele>
        <time>2021-04-17T10:05:56.143Z</time>
      </trkpt>
      <trkpt lat="43.66166" lon="3.77418">
        <ele>104.350273</ele>
        <time>2021-04-17T10:05:59.567Z</time>
      </trkpt>
      <trkpt lat="43.66159" lon="3.77425">
        <ele>104.994804</ele>
        <time>2021-04-17T10:06:02.662Z</time>
      </trkpt>
      <trkpt lat="43.66152" lon="3.77433">
        <ele>105.575195</ele>
        <time>2021-04-17T10:06:05.665Z</time>
      </trkpt>
      <trkpt lat="43.66147" lon="3.7744">
        <ele>105.971672</ele>
        <time>2021-04-17T10:06:07.886Z</time>
      </trkpt>
      <trkpt lat="43.66143" lon="3.77448">
        <ele>106.364052</ele>
        <time>2021-04-17T10:06:10.083Z</time>
      </trkpt>
      <trkpt lat="43.66139" lon="3.77458">
        <ele>106.621681</ele>
        <time>2021-04-17T10:06:12.071Z</time>
      </trkpt>
      <trkpt lat="43.66135" lon="3.77466">
        <ele>106.729561</ele>
        <time>2021-04-17T10:06:13.478Z</time>
      </trkpt>
      <trkpt lat="43.6613" lon="3.77476">
        <ele>106.780945</ele>
        <time>2021-04-17T10:06:15.075Z</time>
      </trkpt>
      <trkpt lat="43.66127" lon="3.77486">
        <ele>106.801727</ele>
        <time>2021-04-17T10:06:16.454Z</time>
      </trkpt>
      <trkpt lat="43.66122" lon="3.77496">
        <ele>106.792259</ele>
        <time>2021-04-17T10:06:17.941Z</time>
      </trkpt>
      <trkpt lat="43.66117" lon="3.77504">
        <ele>106.744179</ele>
        <time>2021-04-17T10:06:19.140Z</time>
      </trkpt>
      <trkpt lat="43.66112" lon="3.7751">
        <ele>106.757195</ele>
        <time>2021-04-17T10:06:20.298Z</time>
      </trkpt>
      <trkpt lat="43.66098" lon="3.77524">
        <ele>106.834969</ele>
        <time>2021-04-17T10:06:23.395Z</time>
      </trkpt>
      <trkpt lat="43.66084" lon="3.77558">
        <ele>106.777954</ele>
        <time>2021-04-17T10:06:28.114Z</time>
      </trkpt>
      <trkpt lat="43.66074" lon="3.77582">
        <ele>105.839638</ele>
        <time>2021-04-17T10:06:29.990Z</time>
      </trkpt>
      <trkpt lat="43.66063" lon="3.77608">
        <ele>105.043526</ele>
        <time>2021-04-17T10:06:32.236Z</time>
      </trkpt>
      <trkpt lat="43.66049" lon="3.77638">
        <ele>102.96151</ele>
        <time>2021-04-17T10:06:34.479Z</time>
      </trkpt>
      <trkpt lat="43.66037" lon="3.77672">
        <ele>101.39315</ele>
        <time>2021-04-17T10:06:36.823Z</time>
      </trkpt>
      <trkpt lat="43.66019" lon="3.77712">
        <ele>100.438454</ele>
        <time>2021-04-17T10:06:40.658Z</time>
      </trkpt>
      <trkpt lat="43.66" lon="3.77757">
        <ele>98.170647</ele>
        <time>2021-04-17T10:06:43.812Z</time>
      </trkpt>
      <trkpt lat="43.6598" lon="3.77799">
        <ele>96.024254</ele>
        <time>2021-04-17T10:06:46.885Z</time>
      </trkpt>
      <trkpt lat="43.65956" lon="3.77837">
        <ele>94.560814</ele>
        <time>2021-04-17T10:06:50.520Z</time>
      </trkpt>
      <trkpt lat="43.65929" lon="3.77874">
        <ele>93.999962</ele>
        <time>2021-04-17T10:06:55.507Z</time>
      </trkpt>
      <trkpt lat="43.65902" lon="3.77908">
        <ele>93.970947</ele>
        <time>2021-04-17T10:07:01.709Z</time>
      </trkpt>
      <trkpt lat="43.65876" lon="3.77943">
        <ele>93.850769</ele>
        <time>2021-04-17T10:07:07.644Z</time>
      </trkpt>
      <trkpt lat="43.65856" lon="3.77979">
        <ele>93.358559</ele>
        <time>2021-04-17T10:07:11.939Z</time>
      </trkpt>
      <trkpt lat="43.65835" lon="3.78003">
        <ele>92.906738</ele>
        <time>2021-04-17T10:07:15.433Z</time>
      </trkpt>
      <trkpt lat="43.65823" lon="3.78031">
        <ele>92.696342</ele>
        <time>2021-04-17T10:07:18.764Z</time>
      </trkpt>
      <trkpt lat="43.65808" lon="3.78061">
        <ele>92.30481</ele>
        <time>2021-04-17T10:07:22.221Z</time>
      </trkpt>
      <trkpt lat="43.65791" lon="3.78088">
        <ele>90.719566</ele>
        <time>2021-04-17T10:07:24.370Z</time>
      </trkpt>
      <trkpt lat="43.65776" lon="3.78114">
        <ele>89.703453</ele>
        <time>2021-04-17T10:07:26.719Z</time>
      </trkpt>
      <trkpt lat="43.65759" lon="3.78138">
        <ele>89.182808</ele>
        <time>2021-04-17T10:07:29.661Z</time>
      </trkpt>
      <trkpt lat="43.65751" lon="3.78153">
        <ele>88.977547</ele>
        <time>2021-04-17T10:07:31.419Z</time>
      </trkpt>
      <trkpt lat="43.65732" lon="3.78171">
        <ele>88.664711</ele>
        <time>2021-04-17T10:07:34.486Z</time>
      </trkpt>
      <trkpt lat="43.65712" lon="3.78187">
        <ele>88.204872</ele>
        <time>2021-04-17T10:07:37.334Z</time>
      </trkpt>
      <trkpt lat="43.65695" lon="3.78207">
        <ele>87.94088</ele>
        <time>2021-04-17T10:07:40.373Z</time>
      </trkpt>
      <trkpt lat="43.6568" lon="3.78232">
        <ele>87.91851</ele>
        <time>2021-04-17T10:07:44.353Z</time>
      </trkpt>
      <trkpt lat="43.65668" lon="3.78258">
        <ele>87.291351</ele>
        <time>2021-04-17T10:07:46.862Z</time>
      </trkpt>
      <trkpt lat="43.65655" lon="3.78281">
        <ele>86.080658</ele>
        <time>2021-04-17T10:07:48.670Z</time>
      </trkpt>
      <trkpt lat="43.65638" lon="3.783">
        <ele>85.02243</ele>
        <time>2021-04-17T10:07:50.688Z</time>
      </trkpt>
      <trkpt lat="43.65614" lon="3.78325">
        <ele>82.553398</ele>
        <time>2021-04-17T10:07:53.298Z</time>
      </trkpt>
      <trkpt lat="43.65581" lon="3.78345">
        <ele>81.271545</ele>
        <time>2021-04-17T10:07:57.049Z</time>
      </trkpt>
      <trkpt lat="43.65546" lon="3.78349">
        <ele>78.436119</ele>
        <time>2021-04-17T10:08:00.099Z</time>
      </trkpt>
      <trkpt lat="43.65519" lon="3.7835">
        <ele>75.118034</ele>
        <time>2021-04-17T10:08:02.444Z</time>
      </trkpt>
      <trkpt lat="43.65495" lon="3.78379">
        <ele>74.524055</ele>
        <time>2021-04-17T10:08:06.433Z</time>
      </trkpt>
      <trkpt lat="43.6547" lon="3.78418">
        <ele>74.238884</ele>
        <time>2021-04-17T10:08:11.866Z</time>
      </trkpt>
      <trkpt lat="43.65447" lon="3.78464">
        <ele>74.247711</ele>
        <time>2021-04-17T10:08:18.832Z</time>
      </trkpt>
      <trkpt lat="43.65429" lon="3.78511">
        <ele>74.929688</ele>
        <time>2021-04-17T10:08:26.726Z</time>
      </trkpt>
      <trkpt lat="43.65431" lon="3.78558">
        <ele>74.776527</ele>
        <time>2021-04-17T10:08:32.202Z</time>
      </trkpt>
      <trkpt lat="43.65432" lon="3.78606">
        <ele>73.359314</ele>
        <time>2021-04-17T10:08:35.641Z</time>
      </trkpt>
      <trkpt lat="43.65402" lon="3.78631">
        <ele>71.482857</ele>
        <time>2021-04-17T10:08:38.735Z</time>
      </trkpt>
      <trkpt lat="43.65373" lon="3.78644">
        <ele>70.729851</ele>
        <time>2021-04-17T10:08:42.292Z</time>
      </trkpt>
      <trkpt lat="43.65351" lon="3.78658">
        <ele>70.676514</ele>
        <time>2021-04-17T10:08:46.318Z</time>
      </trkpt>
      <trkpt lat="43.65334" lon="3.78673">
        <ele>70.707588</ele>
        <time>2021-04-17T10:08:49.834Z</time>
      </trkpt>
      <trkpt lat="43.65315" lon="3.78688">
        <ele>70.973274</ele>
        <time>2021-04-17T10:08:54.065Z</time>
      </trkpt>
      <trkpt lat="43.65294" lon="3.78702">
        <ele>71.223877</ele>
        <time>2021-04-17T10:08:58.509Z</time>
      </trkpt>
      <trkpt lat="43.65271" lon="3.78713">
        <ele>71.818275</ele>
        <time>2021-04-17T10:09:03.897Z</time>
      </trkpt>
      <trkpt lat="43.65248" lon="3.78723">
        <ele>72.447174</ele>
        <time>2021-04-17T10:09:09.341Z</time>
      </trkpt>
      <trkpt lat="43.65226" lon="3.78739">
        <ele>73.031136</ele>
        <time>2021-04-17T10:09:14.784Z</time>
      </trkpt>
      <trkpt lat="43.65217" lon="3.78759">
        <ele>73.384094</ele>
        <time>2021-04-17T10:09:18.399Z</time>
      </trkpt>
      <trkpt lat="43.65203" lon="3.78777">
        <ele>73.436981</ele>
        <time>2021-04-17T10:09:21.770Z</time>
      </trkpt>
      <trkpt lat="43.65184" lon="3.78792">
        <ele>73.385742</ele>
        <time>2021-04-17T10:09:25.400Z</time>
      </trkpt>
      <trkpt lat="43.65162" lon="3.78807">
        <ele>73.950127</ele>
        <time>2021-04-17T10:09:30.741Z</time>
      </trkpt>
      <trkpt lat="43.65148" lon="3.78823">
        <ele>74.595512</ele>
        <time>2021-04-17T10:09:35.369Z</time>
      </trkpt>
      <trkpt lat="43.65148" lon="3.78847">
        <ele>74.602699</ele>
        <time>2021-04-17T10:09:38.365Z</time>
      </trkpt>
      <trkpt lat="43.65133" lon="3.78868">
        <ele>73.541977</ele>
        <time>2021-04-17T10:09:40.315Z</time>
      </trkpt>
      <trkpt lat="43.65115" lon="3.78884">
        <ele>73.221344</ele>
        <time>2021-04-17T10:09:43.114Z</time>
      </trkpt>
      <trkpt lat="43.65097" lon="3.78904">
        <ele>74.109261</ele>
        <time>2021-04-17T10:09:49.240Z</time>
      </trkpt>
      <trkpt lat="43.65084" lon="3.78931">
        <ele>74.952515</ele>
        <time>2021-04-17T10:09:55.251Z</time>
      </trkpt>
      <trkpt lat="43.65073" lon="3.78945">
        <ele>73.858231</ele>
        <time>2021-04-17T10:09:56.550Z</time>
      </trkpt>
      <trkpt lat="43.6506" lon="3.78962">
        <ele>73.079918</ele>
        <time>2021-04-17T10:09:58.277Z</time>
      </trkpt>
      <trkpt lat="43.65044" lon="3.78975">
        <ele>72.732819</ele>
        <time>2021-04-17T10:10:00.598Z</time>
      </trkpt>
      <trkpt lat="43.65025" lon="3.78984">
        <ele>72.71563</ele>
        <time>2021-04-17T10:10:04.004Z</time>
      </trkpt>
      <trkpt lat="43.65009" lon="3.78986">
        <ele>73.353699</ele>
        <time>2021-04-17T10:10:08.344Z</time>
      </trkpt>
      <trkpt lat="43.64991" lon="3.78986">
        <ele>74.089996</ele>
        <time>2021-04-17T10:10:13.291Z</time>
      </trkpt>
      <trkpt lat="43.64971" lon="3.78993">
        <ele>75.932732</ele>
        <time>2021-04-17T10:10:21.641Z</time>
      </trkpt>
      <trkpt lat="43.64949" lon="3.79001">
        <ele>77.386955</ele>
        <time>2021-04-17T10:10:29.164Z</time>
      </trkpt>
      <trkpt lat="43.64934" lon="3.79012">
        <ele>79.479271</ele>
        <time>2021-04-17T10:10:38.971Z</time>
      </trkpt>
      <trkpt lat="43.64919" lon="3.79021">
        <ele>80.042229</ele>
        <time>2021-04-17T10:10:43.075Z</time>
      </trkpt>
      <trkpt lat="43.64902" lon="3.7903">
        <ele>81.03817</ele>
        <time>2021-04-17T10:10:48.720Z</time>
      </trkpt>
      <trkpt lat="43.64883" lon="3.79047">
        <ele>82.07296</ele>
        <time>2021-04-17T10:10:55.335Z</time>
      </trkpt>
      <trkpt lat="43.64863" lon="3.79065">
        <ele>83.370865</ele>
        <time>2021-04-17T10:11:02.719Z</time>
      </trkpt>
      <trkpt lat="43.64845" lon="3.79078">
        <ele>84.803276</ele>
        <time>2021-04-17T10:11:09.770Z</time>
      </trkpt>
      <trkpt lat="43.64831" lon="3.79098">
        <ele>87.004265</ele>
        <time>2021-04-17T10:11:19.667Z</time>
      </trkpt>
      <trkpt lat="43.64813" lon="3.79115">
        <ele>87.510551</ele>
        <time>2021-04-17T10:11:24.425Z</time>
      </trkpt>
      <trkpt lat="43.64798" lon="3.79127">
        <ele>88.282867</ele>
        <time>2021-04-17T10:11:29.454Z</time>
      </trkpt>
      <trkpt lat="43.64784" lon="3.79135">
        <ele>89.137825</ele>
        <time>2021-04-17T10:11:34.207Z</time>
      </trkpt>
      <trkpt lat="43.64769" lon="3.79143">
        <ele>90.809242</ele>
        <time>2021-04-17T10:11:41.680Z</time>
      </trkpt>
      <trkpt lat="43.64753" lon="3.79155">
        <ele>92.035889</ele>
        <time>2021-04-17T10:11:47.853Z</time>
      </trkpt>
      <trkpt lat="43.64738" lon="3.79169">
        <ele>92.919136</ele>
        <time>2021-04-17T10:11:53.250Z</time>
      </trkpt>
      <trkpt lat="43.64724" lon="3.79179">
        <ele>93.174538</ele>
        <time>2021-04-17T10:11:56.430Z</time>
      </trkpt>
      <trkpt lat="43.64713" lon="3.79183">
        <ele>93.535744</ele>
        <time>2021-04-17T10:11:59.187Z</time>
      </trkpt>
      <trkpt lat="43.64704" lon="3.79191">
        <ele>95.12262</ele>
        <time>2021-04-17T10:12:06.280Z</time>
      </trkpt>
      <trkpt lat="43.647" lon="3.79201">
        <ele>95.725677</ele>
        <time>2021-04-17T10:12:09.204Z</time>
      </trkpt>
      <trkpt lat="43.647" lon="3.79216">
        <ele>94.887909</ele>
        <time>2021-04-17T10:12:10.146Z</time>
      </trkpt>
      <trkpt lat="43.64704" lon="3.79228">
        <ele>92.593903</ele>
        <time>2021-04-17T10:12:10.977Z</time>
      </trkpt>
      <trkpt lat="43.64704" lon="3.79247">
        <ele>89.174522</ele>
        <time>2021-04-17T10:12:12.171Z</time>
      </trkpt>
      <trkpt lat="43.64699" lon="3.79263">
        <ele>86.717903</ele>
        <time>2021-04-17T10:12:13.266Z</time>
      </trkpt>
      <trkpt lat="43.64685" lon="3.79274">
        <ele>85.196968</ele>
        <time>2021-04-17T10:12:14.664Z</time>
      </trkpt>
      <trkpt lat="43.64675" lon="3.79277">
        <ele>85.802063</ele>
        <time>2021-04-17T10:12:17.935Z</time>
      </trkpt>
      <trkpt lat="43.64666" lon="3.79289">
        <ele>87.609306</ele>
        <time>2021-04-17T10:12:26.224Z</time>
      </trkpt>
      <trkpt lat="43.6466" lon="3.79302">
        <ele>88.630653</ele>
        <time>2021-04-17T10:12:30.831Z</time>
      </trkpt>
      <trkpt lat="43.64654" lon="3.7932">
        <ele>88.64724</ele>
        <time>2021-04-17T10:12:33.322Z</time>
      </trkpt>
      <trkpt lat="43.64648" lon="3.79344">
        <ele>88.282799</ele>
        <time>2021-04-17T10:12:35.588Z</time>
      </trkpt>
      <trkpt lat="43.6464" lon="3.79369">
        <ele>86.706703</ele>
        <time>2021-04-17T10:12:37.306Z</time>
      </trkpt>
      <trkpt lat="43.64626" lon="3.79392">
        <ele>85.199738</ele>
        <time>2021-04-17T10:12:39.194Z</time>
      </trkpt>
      <trkpt lat="43.64612" lon="3.79417">
        <ele>84.320496</ele>
        <time>2021-04-17T10:12:41.510Z</time>
      </trkpt>
      <trkpt lat="43.64603" lon="3.79436">
        <ele>83.25901</ele>
        <time>2021-04-17T10:12:42.838Z</time>
      </trkpt>
      <trkpt lat="43.64595" lon="3.79447">
        <ele>82.043518</ele>
        <time>2021-04-17T10:12:43.818Z</time>
      </trkpt>
      <trkpt lat="43.64596" lon="3.79454">
        <ele>80.997459</ele>
        <time>2021-04-17T10:12:44.266Z</time>
      </trkpt>
      <trkpt lat="43.646" lon="3.79463">
        <ele>79.169121</ele>
        <time>2021-04-17T10:12:44.930Z</time>
      </trkpt>
      <trkpt lat="43.64596" lon="3.79484">
        <ele>76.699982</ele>
        <time>2021-04-17T10:12:46.295Z</time>
      </trkpt>
      <trkpt lat="43.64585" lon="3.79511">
        <ele>74.63279</ele>
        <time>2021-04-17T10:12:48.242Z</time>
      </trkpt>
      <trkpt lat="43.64576" lon="3.79538">
        <ele>69.244118</ele>
        <time>2021-04-17T10:12:50.110Z</time>
      </trkpt>
      <trkpt lat="43.6457" lon="3.79566">
        <ele>67.315964</ele>
        <time>2021-04-17T10:12:51.945Z</time>
      </trkpt>
      <trkpt lat="43.64564" lon="3.79592">
        <ele>62.572617</ele>
        <time>2021-04-17T10:12:53.660Z</time>
      </trkpt>
      <trkpt lat="43.64553" lon="3.7962">
        <ele>58.51115</ele>
        <time>2021-04-17T10:12:55.662Z</time>
      </trkpt>
      <trkpt lat="43.64545" lon="3.79644">
        <ele>57.358841</ele>
        <time>2021-04-17T10:12:57.261Z</time>
      </trkpt>
      <trkpt lat="43.64531" lon="3.79669">
        <ele>57.003971</ele>
        <time>2021-04-17T10:13:00.234Z</time>
      </trkpt>
      <trkpt lat="43.64516" lon="3.79697">
        <ele>56.602123</ele>
        <time>2021-04-17T10:13:03.492Z</time>
      </trkpt>
      <trkpt lat="43.64507" lon="3.7972">
        <ele>56.613987</ele>
        <time>2021-04-17T10:13:06.763Z</time>
      </trkpt>
      <trkpt lat="43.64491" lon="3.79745">
        <ele>56.981129</ele>
        <time>2021-04-17T10:13:11.584Z</time>
      </trkpt>
      <trkpt lat="43.64473" lon="3.79761">
        <ele>57.434555</ele>
        <time>2021-04-17T10:13:16.148Z</time>
      </trkpt>
      <trkpt lat="43.64459" lon="3.79776">
        <ele>57.878128</ele>
        <time>2021-04-17T10:13:20.098Z</time>
      </trkpt>
      <trkpt lat="43.64443" lon="3.79784">
        <ele>57.993359</ele>
        <time>2021-04-17T10:13:23.216Z</time>
      </trkpt>
      <trkpt lat="43.64423" lon="3.79784">
        <ele>58.115467</ele>
        <time>2021-04-17T10:13:26.856Z</time>
      </trkpt>
      <trkpt lat="43.64404" lon="3.79778">
        <ele>58.311207</ele>
        <time>2021-04-17T10:13:30.545Z</time>
      </trkpt>
      <trkpt lat="43.64377" lon="3.7978">
        <ele>58.541615</ele>
        <time>2021-04-17T10:13:35.585Z</time>
      </trkpt>
      <trkpt lat="43.64351" lon="3.7979">
        <ele>59.269032</ele>
        <time>2021-04-17T10:13:41.743Z</time>
      </trkpt>
      <trkpt lat="43.6433" lon="3.79801">
        <ele>59.924664</ele>
        <time>2021-04-17T10:13:47.011Z</time>
      </trkpt>
      <trkpt lat="43.6431" lon="3.79811">
        <ele>60.029541</ele>
        <time>2021-04-17T10:13:50.839Z</time>
      </trkpt>
      <trkpt lat="43.64289" lon="3.79818">
        <ele>60.645035</ele>
        <time>2021-04-17T10:13:55.862Z</time>
      </trkpt>
      <trkpt lat="43.64266" lon="3.79833">
        <ele>62.205372</ele>
        <time>2021-04-17T10:14:04.119Z</time>
      </trkpt>
      <trkpt lat="43.64245" lon="3.79846">
        <ele>64.908478</ele>
        <time>2021-04-17T10:14:16.512Z</time>
      </trkpt>
      <trkpt lat="43.64226" lon="3.79862">
        <ele>66.288933</ele>
        <time>2021-04-17T10:14:23.771Z</time>
      </trkpt>
      <trkpt lat="43.64217" lon="3.79893">
        <ele>68.085625</ele>
        <time>2021-04-17T10:14:32.411Z</time>
      </trkpt>
      <trkpt lat="43.64199" lon="3.79893">
        <ele>68.525627</ele>
        <time>2021-04-17T10:14:36.397Z</time>
      </trkpt>
      <trkpt lat="43.64175" lon="3.79908">
        <ele>70.160767</ele>
        <time>2021-04-17T10:14:44.992Z</time>
      </trkpt>
      <trkpt lat="43.64152" lon="3.79924">
        <ele>71.903603</ele>
        <time>2021-04-17T10:14:53.744Z</time>
      </trkpt>
      <trkpt lat="43.64129" lon="3.79936">
        <ele>72.980644</ele>
        <time>2021-04-17T10:15:00.800Z</time>
      </trkpt>
      <trkpt lat="43.64105" lon="3.79953">
        <ele>73.536278</ele>
        <time>2021-04-17T10:15:06.513Z</time>
      </trkpt>
      <trkpt lat="43.64083" lon="3.79973">
        <ele>73.481117</ele>
        <time>2021-04-17T10:15:10.898Z</time>
      </trkpt>
      <trkpt lat="43.64061" lon="3.7999">
        <ele>72.183525</ele>
        <time>2021-04-17T10:15:13.164Z</time>
      </trkpt>
      <trkpt lat="43.6404" lon="3.80006">
        <ele>70.432159</ele>
        <time>2021-04-17T10:15:15.247Z</time>
      </trkpt>
      <trkpt lat="43.6402" lon="3.80023">
        <ele>69.770973</ele>
        <time>2021-04-17T10:15:17.885Z</time>
      </trkpt>
      <trkpt lat="43.64002" lon="3.80037">
        <ele>69.075539</ele>
        <time>2021-04-17T10:15:20.076Z</time>
      </trkpt>
      <trkpt lat="43.63986" lon="3.80053">
        <ele>68.165878</ele>
        <time>2021-04-17T10:15:21.939Z</time>
      </trkpt>
      <trkpt lat="43.63969" lon="3.80063">
        <ele>66.778847</ele>
        <time>2021-04-17T10:15:23.543Z</time>
      </trkpt>
      <trkpt lat="43.63951" lon="3.80073">
        <ele>65.268867</ele>
        <time>2021-04-17T10:15:25.228Z</time>
      </trkpt>
      <trkpt lat="43.63933" lon="3.80082">
        <ele>64.91217</ele>
        <time>2021-04-17T10:15:27.623Z</time>
      </trkpt>
      <trkpt lat="43.63915" lon="3.80091">
        <ele>64.388397</ele>
        <time>2021-04-17T10:15:29.792Z</time>
      </trkpt>
      <trkpt lat="43.63897" lon="3.80096">
        <ele>63.574085</ele>
        <time>2021-04-17T10:15:31.550Z</time>
      </trkpt>
      <trkpt lat="43.6388" lon="3.80105">
        <ele>63.625782</ele>
        <time>2021-04-17T10:15:34.762Z</time>
      </trkpt>
      <trkpt lat="43.63874" lon="3.80106">
        <ele>64.419617</ele>
        <time>2021-04-17T10:15:38.651Z</time>
      </trkpt>
      <trkpt lat="43.6387" lon="3.80118">
        <ele>64.701103</ele>
        <time>2021-04-17T10:15:40.901Z</time>
      </trkpt>
      <trkpt lat="43.63859" lon="3.8013">
        <ele>64.251465</ele>
        <time>2021-04-17T10:15:42.412Z</time>
      </trkpt>
      <trkpt lat="43.63842" lon="3.80142">
        <ele>64.305824</ele>
        <time>2021-04-17T10:15:45.780Z</time>
      </trkpt>
      <trkpt lat="43.63826" lon="3.80156">
        <ele>65.570518</ele>
        <time>2021-04-17T10:15:52.174Z</time>
      </trkpt>
      <trkpt lat="43.63809" lon="3.80172">
        <ele>67.369209</ele>
        <time>2021-04-17T10:16:00.364Z</time>
      </trkpt>
      <trkpt lat="43.63795" lon="3.80193">
        <ele>68.609459</ele>
        <time>2021-04-17T10:16:07.010Z</time>
      </trkpt>
      <trkpt lat="43.63788" lon="3.80218">
        <ele>70.53231</ele>
        <time>2021-04-17T10:16:15.605Z</time>
      </trkpt>
      <trkpt lat="43.63785" lon="3.80246">
        <ele>73.011635</ele>
        <time>2021-04-17T10:16:27.120Z</time>
      </trkpt>
      <trkpt lat="43.63789" lon="3.80275">
        <ele>73.750084</ele>
        <time>2021-04-17T10:16:32.492Z</time>
      </trkpt>
      <trkpt lat="43.63798" lon="3.80298">
        <ele>75.181641</ele>
        <time>2021-04-17T10:16:39.327Z</time>
      </trkpt>
      <trkpt lat="43.63807" lon="3.80318">
        <ele>75.495918</ele>
        <time>2021-04-17T10:16:42.851Z</time>
      </trkpt>
      <trkpt lat="43.63819" lon="3.80339">
        <ele>75.343933</ele>
        <time>2021-04-17T10:16:45.631Z</time>
      </trkpt>
      <trkpt lat="43.63836" lon="3.8035">
        <ele>75.137779</ele>
        <time>2021-04-17T10:16:48.216Z</time>
      </trkpt>
      <trkpt lat="43.63842" lon="3.80371">
        <ele>72.598381</ele>
        <time>2021-04-17T10:16:49.635Z</time>
      </trkpt>
      <trkpt lat="43.63851" lon="3.80395">
        <ele>68.917862</ele>
        <time>2021-04-17T10:16:51.333Z</time>
      </trkpt>
      <trkpt lat="43.63866" lon="3.80414">
        <ele>68.580711</ele>
        <time>2021-04-17T10:16:53.943Z</time>
      </trkpt>
      <trkpt lat="43.63879" lon="3.80435">
        <ele>66.752052</ele>
        <time>2021-04-17T10:16:55.680Z</time>
      </trkpt>
      <trkpt lat="43.63893" lon="3.80456">
        <ele>63.901047</ele>
        <time>2021-04-17T10:16:57.475Z</time>
      </trkpt>
      <trkpt lat="43.63906" lon="3.8047">
        <ele>61.467426</ele>
        <time>2021-04-17T10:16:58.906Z</time>
      </trkpt>
      <trkpt lat="43.63912" lon="3.80486">
        <ele>59.857319</ele>
        <time>2021-04-17T10:17:00.039Z</time>
      </trkpt>
      <trkpt lat="43.63911" lon="3.80505">
        <ele>59.768475</ele>
        <time>2021-04-17T10:17:02.195Z</time>
      </trkpt>
      <trkpt lat="43.6391" lon="3.8053">
        <ele>59.983547</ele>
        <time>2021-04-17T10:17:05.689Z</time>
      </trkpt>
      <trkpt lat="43.63909" lon="3.80558">
        <ele>60.048798</ele>
        <time>2021-04-17T10:17:09.281Z</time>
      </trkpt>
      <trkpt lat="43.63912" lon="3.8059">
        <ele>60.004742</ele>
        <time>2021-04-17T10:17:13.181Z</time>
      </trkpt>
      <trkpt lat="43.63911" lon="3.80623">
        <ele>59.041164</ele>
        <time>2021-04-17T10:17:15.558Z</time>
      </trkpt>
      <trkpt lat="43.63908" lon="3.80656">
        <ele>58.147724</ele>
        <time>2021-04-17T10:17:18.025Z</time>
      </trkpt>
      <trkpt lat="43.63905" lon="3.8069">
        <ele>57.581741</ele>
        <time>2021-04-17T10:17:20.979Z</time>
      </trkpt>
      <trkpt lat="43.63894" lon="3.80717">
        <ele>57.486008</ele>
        <time>2021-04-17T10:17:24.596Z</time>
      </trkpt>
      <trkpt lat="43.63888" lon="3.80718">
        <ele>57.613384</ele>
        <time>2021-04-17T10:17:25.883Z</time>
      </trkpt>
      <trkpt lat="43.63875" lon="3.8072">
        <ele>59.029175</ele>
        <time>2021-04-17T10:17:32.238Z</time>
      </trkpt>
      <trkpt lat="43.63872" lon="3.80724">
        <ele>59.090733</ele>
        <time>2021-04-17T10:17:33.067Z</time>
      </trkpt>
      <trkpt lat="43.63866" lon="3.80739">
        <ele>59.145512</ele>
        <time>2021-04-17T10:17:35.288Z</time>
      </trkpt>
      <trkpt lat="43.63866" lon="3.80747">
        <ele>59.093033</ele>
        <time>2021-04-17T10:17:36.106Z</time>
      </trkpt>
      <trkpt lat="43.63862" lon="3.80759">
        <ele>59.092056</ele>
        <time>2021-04-17T10:17:37.746Z</time>
      </trkpt>
      <trkpt lat="43.63857" lon="3.8077">
        <ele>59.191723</ele>
        <time>2021-04-17T10:17:39.536Z</time>
      </trkpt>
      <trkpt lat="43.63853" lon="3.80779">
        <ele>59.284695</ele>
        <time>2021-04-17T10:17:41.014Z</time>
      </trkpt>
      <trkpt lat="43.63845" lon="3.80791">
        <ele>59.263016</ele>
        <time>2021-04-17T10:17:42.987Z</time>
      </trkpt>
      <trkpt lat="43.63841" lon="3.80794">
        <ele>58.918804</ele>
        <time>2021-04-17T10:17:43.383Z</time>
      </trkpt>
      <trkpt lat="43.63836" lon="3.80812">
        <ele>57.926468</ele>
        <time>2021-04-17T10:17:44.595Z</time>
      </trkpt>
      <trkpt lat="43.6383" lon="3.80824">
        <ele>58.281651</ele>
        <time>2021-04-17T10:17:47.217Z</time>
      </trkpt>
      <trkpt lat="43.63821" lon="3.80829">
        <ele>58.569241</ele>
        <time>2021-04-17T10:17:49.505Z</time>
      </trkpt>
      <trkpt lat="43.63812" lon="3.80834">
        <ele>58.741089</ele>
        <time>2021-04-17T10:17:51.495Z</time>
      </trkpt>
      <trkpt lat="43.638" lon="3.80837">
        <ele>58.547146</ele>
        <time>2021-04-17T10:17:53.072Z</time>
      </trkpt>
      <trkpt lat="43.63786" lon="3.80841">
        <ele>57.882458</ele>
        <time>2021-04-17T10:17:54.415Z</time>
      </trkpt>
      <trkpt lat="43.63772" lon="3.80844">
        <ele>57.030701</ele>
        <time>2021-04-17T10:17:55.601Z</time>
      </trkpt>
      <trkpt lat="43.63757" lon="3.80849">
        <ele>56.436188</ele>
        <time>2021-04-17T10:17:57.161Z</time>
      </trkpt>
      <trkpt lat="43.63741" lon="3.8085">
        <ele>56.404339</ele>
        <time>2021-04-17T10:17:59.832Z</time>
      </trkpt>
      <trkpt lat="43.63722" lon="3.80848">
        <ele>56.536991</ele>
        <time>2021-04-17T10:18:03.330Z</time>
      </trkpt>
      <trkpt lat="43.63704" lon="3.80849">
        <ele>56.93037</ele>
        <time>2021-04-17T10:18:07.199Z</time>
      </trkpt>
      <trkpt lat="43.63686" lon="3.8085">
        <ele>57.40538</ele>
        <time>2021-04-17T10:18:11.281Z</time>
      </trkpt>
      <trkpt lat="43.6367" lon="3.8086">
        <ele>58.181194</ele>
        <time>2021-04-17T10:18:16.350Z</time>
      </trkpt>
      <trkpt lat="43.63654" lon="3.80867">
        <ele>59.482773</ele>
        <time>2021-04-17T10:18:22.504Z</time>
      </trkpt>
      <trkpt lat="43.63641" lon="3.80868">
        <ele>60.482151</ele>
        <time>2021-04-17T10:18:27.248Z</time>
      </trkpt>
      <trkpt lat="43.63627" lon="3.80868">
        <ele>61.334854</ele>
        <time>2021-04-17T10:18:31.779Z</time>
      </trkpt>
      <trkpt lat="43.63615" lon="3.80863">
        <ele>61.323833</ele>
        <time>2021-04-17T10:18:33.904Z</time>
      </trkpt>
      <trkpt lat="43.63594" lon="3.80856">
        <ele>60.411713</ele>
        <time>2021-04-17T10:18:36.014Z</time>
      </trkpt>
      <trkpt lat="43.63575" lon="3.80839">
        <ele>58.298126</ele>
        <time>2021-04-17T10:18:37.980Z</time>
      </trkpt>
      <trkpt lat="43.63557" lon="3.80819">
        <ele>55.887177</ele>
        <time>2021-04-17T10:18:39.986Z</time>
      </trkpt>
      <trkpt lat="43.63539" lon="3.80801">
        <ele>53.490906</ele>
        <time>2021-04-17T10:18:41.915Z</time>
      </trkpt>
      <trkpt lat="43.63522" lon="3.80786">
        <ele>52.865265</ele>
        <time>2021-04-17T10:18:44.114Z</time>
      </trkpt>
      <trkpt lat="43.63502" lon="3.80778">
        <ele>52.929035</ele>
        <time>2021-04-17T10:18:47.796Z</time>
      </trkpt>
      <trkpt lat="43.6348" lon="3.8078">
        <ele>52.932453</ele>
        <time>2021-04-17T10:18:51.590Z</time>
      </trkpt>
      <trkpt lat="43.6346" lon="3.80791">
        <ele>54.770954</ele>
        <time>2021-04-17T10:19:00.012Z</time>
      </trkpt>
      <trkpt lat="43.63456" lon="3.80817">
        <ele>56.128796</ele>
        <time>2021-04-17T10:19:06.694Z</time>
      </trkpt>
      <trkpt lat="43.63455" lon="3.80846">
        <ele>57.012157</ele>
        <time>2021-04-17T10:19:12.566Z</time>
      </trkpt>
      <trkpt lat="43.63451" lon="3.80876">
        <ele>58.888836</ele>
        <time>2021-04-17T10:19:21.175Z</time>
      </trkpt>
      <trkpt lat="43.63448" lon="3.80895">
        <ele>60.866375</ele>
        <time>2021-04-17T10:19:30.504Z</time>
      </trkpt>
      <trkpt lat="43.63447" lon="3.80916">
        <ele>63.211948</ele>
        <time>2021-04-17T10:19:40.600Z</time>
      </trkpt>
      <trkpt lat="43.63448" lon="3.80941">
        <ele>64.587608</ele>
        <time>2021-04-17T10:19:47.159Z</time>
      </trkpt>
      <trkpt lat="43.63448" lon="3.80967">
        <ele>66.070244</ele>
        <time>2021-04-17T10:19:54.128Z</time>
      </trkpt>
      <trkpt lat="43.63447" lon="3.80995">
        <ele>66.070244</ele>
        <time>2021-04-17T10:19:57.615Z</time>
      </trkpt>
      <trkpt lat="43.63448" lon="3.81036">
        <ele>66.33387</ele>
        <time>2021-04-17T10:20:03.169Z</time>
      </trkpt>
      <trkpt lat="43.63454" lon="3.8108">
        <ele>66.223961</ele>
        <time>2021-04-17T10:20:08.463Z</time>
      </trkpt>
      <trkpt lat="43.63458" lon="3.81119">
        <ele>63.793911</ele>
        <time>2021-04-17T10:20:10.939Z</time>
      </trkpt>
      <trkpt lat="43.6346" lon="3.81153">
        <ele>62.458515</ele>
        <time>2021-04-17T10:20:13.110Z</time>
      </trkpt>
      <trkpt lat="43.63462" lon="3.81186">
        <ele>61.616337</ele>
        <time>2021-04-17T10:20:15.616Z</time>
      </trkpt>
      <trkpt lat="43.63462" lon="3.81221">
        <ele>60.876339</ele>
        <time>2021-04-17T10:20:18.430Z</time>
      </trkpt>
      <trkpt lat="43.63461" lon="3.8125">
        <ele>60.757603</ele>
        <time>2021-04-17T10:20:21.753Z</time>
      </trkpt>
      <trkpt lat="43.63457" lon="3.81282">
        <ele>61.459476</ele>
        <time>2021-04-17T10:20:27.313Z</time>
      </trkpt>
      <trkpt lat="43.63445" lon="3.81318">
        <ele>62.791805</ele>
        <time>2021-04-17T10:20:35.737Z</time>
      </trkpt>
      <trkpt lat="43.6343" lon="3.8134">
        <ele>63.652309</ele>
        <time>2021-04-17T10:20:41.613Z</time>
      </trkpt>
      <trkpt lat="43.63411" lon="3.81357">
        <ele>63.849018</ele>
        <time>2021-04-17T10:20:45.840Z</time>
      </trkpt>
      <trkpt lat="43.6339" lon="3.81372">
        <ele>63.836872</ele>
        <time>2021-04-17T10:20:49.870Z</time>
      </trkpt>
      <trkpt lat="43.63368" lon="3.81389">
        <ele>63.607952</ele>
        <time>2021-04-17T10:20:53.429Z</time>
      </trkpt>
      <trkpt lat="43.63347" lon="3.8141">
        <ele>62.139359</ele>
        <time>2021-04-17T10:20:55.661Z</time>
      </trkpt>
      <trkpt lat="43.63329" lon="3.81429">
        <ele>60.339489</ele>
        <time>2021-04-17T10:20:57.628Z</time>
      </trkpt>
      <trkpt lat="43.63316" lon="3.81445">
        <ele>59.475952</ele>
        <time>2021-04-17T10:20:59.219Z</time>
      </trkpt>
      <trkpt lat="43.63303" lon="3.81468">
        <ele>58.329243</ele>
        <time>2021-04-17T10:21:01.073Z</time>
      </trkpt>
      <trkpt lat="43.63288" lon="3.81487">
        <ele>58.033218</ele>
        <time>2021-04-17T10:21:03.750Z</time>
      </trkpt>
      <trkpt lat="43.6327" lon="3.81507">
        <ele>57.701832</ele>
        <time>2021-04-17T10:21:06.795Z</time>
      </trkpt>
      <trkpt lat="43.63252" lon="3.81532">
        <ele>55.653278</ele>
        <time>2021-04-17T10:21:09.012Z</time>
      </trkpt>
      <trkpt lat="43.63232" lon="3.81551">
        <ele>55.653278</ele>
        <time>2021-04-17T10:21:13.183Z</time>
      </trkpt>
      <trkpt lat="43.63215" lon="3.81576">
        <ele>55.184635</ele>
        <time>2021-04-17T10:21:16.280Z</time>
      </trkpt>
      <trkpt lat="43.63195" lon="3.81598">
        <ele>54.282135</ele>
        <time>2021-04-17T10:21:18.948Z</time>
      </trkpt>
      <trkpt lat="43.63173" lon="3.81621">
        <ele>54.300064</ele>
        <time>2021-04-17T10:21:23.717Z</time>
      </trkpt>
      <trkpt lat="43.63154" lon="3.81632">
        <ele>54.288509</ele>
        <time>2021-04-17T10:21:27.228Z</time>
      </trkpt>
      <trkpt lat="43.63143" lon="3.81638">
        <ele>54.029369</ele>
        <time>2021-04-17T10:21:28.651Z</time>
      </trkpt>
      <trkpt lat="43.6313" lon="3.81645">
        <ele>54.001873</ele>
        <time>2021-04-17T10:21:30.979Z</time>
      </trkpt>
      <trkpt lat="43.63112" lon="3.81647">
        <ele>54.224442</ele>
        <time>2021-04-17T10:21:34.477Z</time>
      </trkpt>
      <trkpt lat="43.63097" lon="3.8165">
        <ele>54.213566</ele>
        <time>2021-04-17T10:21:37.053Z</time>
      </trkpt>
      <trkpt lat="43.63085" lon="3.81645">
        <ele>54.164845</ele>
        <time>2021-04-17T10:21:39.086Z</time>
      </trkpt>
      <trkpt lat="43.6306" lon="3.81639">
        <ele>53.708157</ele>
        <time>2021-04-17T10:21:42.285Z</time>
      </trkpt>
      <trkpt lat="43.63032" lon="3.81636">
        <ele>53.11031</ele>
        <time>2021-04-17T10:21:45.691Z</time>
      </trkpt>
      <trkpt lat="43.63004" lon="3.81638">
        <ele>52.343262</ele>
        <time>2021-04-17T10:21:48.868Z</time>
      </trkpt>
      <trkpt lat="43.62979" lon="3.81638">
        <ele>52.057037</ele>
        <time>2021-04-17T10:21:52.289Z</time>
      </trkpt>
      <trkpt lat="43.62962" lon="3.81635">
        <ele>52.028126</ele>
        <time>2021-04-17T10:21:55.159Z</time>
      </trkpt>
      <trkpt lat="43.62941" lon="3.81627">
        <ele>51.972851</ele>
        <time>2021-04-17T10:21:58.763Z</time>
      </trkpt>
      <trkpt lat="43.62924" lon="3.8161">
        <ele>51.789616</ele>
        <time>2021-04-17T10:22:01.740Z</time>
      </trkpt>
      <trkpt lat="43.62907" lon="3.81599">
        <ele>51.736408</ele>
        <time>2021-04-17T10:22:04.831Z</time>
      </trkpt>
      <trkpt lat="43.62895" lon="3.81589">
        <ele>51.767971</ele>
        <time>2021-04-17T10:22:07.290Z</time>
      </trkpt>
      <trkpt lat="43.62883" lon="3.81578">
        <ele>51.828705</ele>
        <time>2021-04-17T10:22:09.865Z</time>
      </trkpt>
      <trkpt lat="43.62867" lon="3.81565">
        <ele>51.892746</ele>
        <time>2021-04-17T10:22:13.159Z</time>
      </trkpt>
      <trkpt lat="43.6285" lon="3.81546">
        <ele>51.932953</ele>
        <time>2021-04-17T10:22:16.981Z</time>
      </trkpt>
      <trkpt lat="43.62834" lon="3.81526">
        <ele>52.210384</ele>
        <time>2021-04-17T10:22:21.184Z</time>
      </trkpt>
      <trkpt lat="43.62823" lon="3.81506">
        <ele>52.359005</ele>
        <time>2021-04-17T10:22:24.561Z</time>
      </trkpt>
      <trkpt lat="43.62812" lon="3.81487">
        <ele>53.33316</ele>
        <time>2021-04-17T10:22:30.044Z</time>
      </trkpt>
      <trkpt lat="43.62796" lon="3.8146">
        <ele>53.33316</ele>
        <time>2021-04-17T10:22:34.384Z</time>
      </trkpt>
      <trkpt lat="43.62782" lon="3.81435">
        <ele>53.270191</ele>
        <time>2021-04-17T10:22:38.157Z</time>
      </trkpt>
      <trkpt lat="43.62767" lon="3.81419">
        <ele>53.270191</ele>
        <time>2021-04-17T10:22:41.414Z</time>
      </trkpt>
      <trkpt lat="43.62754" lon="3.81405">
        <ele>52.276012</ele>
        <time>2021-04-17T10:22:42.792Z</time>
      </trkpt>
      <trkpt lat="43.62745" lon="3.81382">
        <ele>52.276012</ele>
        <time>2021-04-17T10:22:46.044Z</time>
      </trkpt>
      <trkpt lat="43.62734" lon="3.81359">
        <ele>51.302441</ele>
        <time>2021-04-17T10:22:47.880Z</time>
      </trkpt>
      <trkpt lat="43.62727" lon="3.81344">
        <ele>50.62801</ele>
        <time>2021-04-17T10:22:49.034Z</time>
      </trkpt>
      <trkpt lat="43.62718" lon="3.81325">
        <ele>50.37199</ele>
        <time>2021-04-17T10:22:51.168Z</time>
      </trkpt>
      <trkpt lat="43.62703" lon="3.81304">
        <ele>49.604412</ele>
        <time>2021-04-17T10:22:53.383Z</time>
      </trkpt>
      <trkpt lat="43.62689" lon="3.81284">
        <ele>49.356365</ele>
        <time>2021-04-17T10:22:56.108Z</time>
      </trkpt>
      <trkpt lat="43.62672" lon="3.81263">
        <ele>48.794922</ele>
        <time>2021-04-17T10:22:58.771Z</time>
      </trkpt>
      <trkpt lat="43.62656" lon="3.81244">
        <ele>48.340088</ele>
        <time>2021-04-17T10:23:01.322Z</time>
      </trkpt>
      <trkpt lat="43.62644" lon="3.81227">
        <ele>47.560627</ele>
        <time>2021-04-17T10:23:02.953Z</time>
      </trkpt>
      <trkpt lat="43.62632" lon="3.81213">
        <ele>46.806232</ele>
        <time>2021-04-17T10:23:04.408Z</time>
      </trkpt>
      <trkpt lat="43.62618" lon="3.81193">
        <ele>46.806232</ele>
        <time>2021-04-17T10:23:07.869Z</time>
      </trkpt>
      <trkpt lat="43.62602" lon="3.81174">
        <ele>46.423828</ele>
        <time>2021-04-17T10:23:10.524Z</time>
      </trkpt>
      <trkpt lat="43.62584" lon="3.81161">
        <ele>46.423828</ele>
        <time>2021-04-17T10:23:14.015Z</time>
      </trkpt>
      <trkpt lat="43.62567" lon="3.81152">
        <ele>46.488384</ele>
        <time>2021-04-17T10:23:17.249Z</time>
      </trkpt>
      <trkpt lat="43.62548" lon="3.81153">
        <ele>46.488384</ele>
        <time>2021-04-17T10:23:20.516Z</time>
      </trkpt>
      <trkpt lat="43.62533" lon="3.81153">
        <ele>46.849079</ele>
        <time>2021-04-17T10:23:23.822Z</time>
      </trkpt>
      <trkpt lat="43.62518" lon="3.81145">
        <ele>46.952679</ele>
        <time>2021-04-17T10:23:26.758Z</time>
      </trkpt>
      <trkpt lat="43.62502" lon="3.8114">
        <ele>46.952679</ele>
        <time>2021-04-17T10:23:29.577Z</time>
      </trkpt>
      <trkpt lat="43.62487" lon="3.81138">
        <ele>46.726612</ele>
        <time>2021-04-17T10:23:31.548Z</time>
      </trkpt>
      <trkpt lat="43.6247" lon="3.81137">
        <ele>46.726612</ele>
        <time>2021-04-17T10:23:34.472Z</time>
      </trkpt>
      <trkpt lat="43.62454" lon="3.81148">
        <ele>46.289097</ele>
        <time>2021-04-17T10:23:36.562Z</time>
      </trkpt>
      <trkpt lat="43.62437" lon="3.81156">
        <ele>45.980137</ele>
        <time>2021-04-17T10:23:38.848Z</time>
      </trkpt>
      <trkpt lat="43.62424" lon="3.81149">
        <ele>45.980137</ele>
        <time>2021-04-17T10:23:41.246Z</time>
      </trkpt>
      <trkpt lat="43.62409" lon="3.81137">
        <ele>45.824566</ele>
        <time>2021-04-17T10:23:43.697Z</time>
      </trkpt>
      <trkpt lat="43.62387" lon="3.81138">
        <ele>45.612503</ele>
        <time>2021-04-17T10:23:46.781Z</time>
      </trkpt>
      <trkpt lat="43.62368" lon="3.81141">
        <ele>45.674763</ele>
        <time>2021-04-17T10:23:50.169Z</time>
      </trkpt>
      <trkpt lat="43.62349" lon="3.81157">
        <ele>46.615479</ele>
        <time>2021-04-17T10:23:56.409Z</time>
      </trkpt>
      <trkpt lat="43.62334" lon="3.81179">
        <ele>47.885334</ele>
        <time>2021-04-17T10:24:03.349Z</time>
      </trkpt>
      <trkpt lat="43.62319" lon="3.812">
        <ele>48.97757</ele>
        <time>2021-04-17T10:24:09.815Z</time>
      </trkpt>
      <trkpt lat="43.62309" lon="3.81213">
        <ele>49.514511</ele>
        <time>2021-04-17T10:24:13.491Z</time>
      </trkpt>
      <trkpt lat="43.62294" lon="3.81236">
        <ele>50.08189</ele>
        <time>2021-04-17T10:24:18.505Z</time>
      </trkpt>
      <trkpt lat="43.62279" lon="3.81264">
        <ele>50.395931</ele>
        <time>2021-04-17T10:24:23.396Z</time>
      </trkpt>
      <trkpt lat="43.62264" lon="3.81289">
        <ele>50.672607</ele>
        <time>2021-04-17T10:24:27.924Z</time>
      </trkpt>
      <trkpt lat="43.62248" lon="3.81318">
        <ele>50.774414</ele>
        <time>2021-04-17T10:24:32.626Z</time>
      </trkpt>
      <trkpt lat="43.62232" lon="3.81345">
        <ele>50.203171</ele>
        <time>2021-04-17T10:24:35.643Z</time>
      </trkpt>
      <trkpt lat="43.62217" lon="3.81371">
        <ele>49.27977</ele>
        <time>2021-04-17T10:24:38.081Z</time>
      </trkpt>
      <trkpt lat="43.62201" lon="3.81397">
        <ele>48.829685</ele>
        <time>2021-04-17T10:24:41.187Z</time>
      </trkpt>
      <trkpt lat="43.62185" lon="3.81423">
        <ele>48.581028</ele>
        <time>2021-04-17T10:24:44.629Z</time>
      </trkpt>
      <trkpt lat="43.6217" lon="3.81451">
        <ele>47.797466</ele>
        <time>2021-04-17T10:24:47.376Z</time>
      </trkpt>
      <trkpt lat="43.62154" lon="3.81477">
        <ele>46.870129</ele>
        <time>2021-04-17T10:24:49.898Z</time>
      </trkpt>
      <trkpt lat="43.62137" lon="3.815">
        <ele>46.821033</ele>
        <time>2021-04-17T10:24:53.862Z</time>
      </trkpt>
      <trkpt lat="43.62121" lon="3.81526">
        <ele>46.826218</ele>
        <time>2021-04-17T10:24:58.116Z</time>
      </trkpt>
      <trkpt lat="43.62106" lon="3.81552">
        <ele>46.62788</ele>
        <time>2021-04-17T10:25:01.552Z</time>
      </trkpt>
      <trkpt lat="43.6209" lon="3.81575">
        <ele>45.661972</ele>
        <time>2021-04-17T10:25:03.816Z</time>
      </trkpt>
      <trkpt lat="43.62071" lon="3.81588">
        <ele>45.370911</ele>
        <time>2021-04-17T10:25:06.633Z</time>
      </trkpt>
      <trkpt lat="43.62063" lon="3.81612">
        <ele>44.855389</ele>
        <time>2021-04-17T10:25:08.810Z</time>
      </trkpt>
      <trkpt lat="43.62058" lon="3.8163">
        <ele>43.844788</ele>
        <time>2021-04-17T10:25:10.022Z</time>
      </trkpt>
      <trkpt lat="43.62054" lon="3.81646">
        <ele>42.634762</ele>
        <time>2021-04-17T10:25:11.086Z</time>
      </trkpt>
      <trkpt lat="43.62041" lon="3.81659">
        <ele>42.193539</ele>
        <time>2021-04-17T10:25:12.902Z</time>
      </trkpt>
      <trkpt lat="43.62028" lon="3.81675">
        <ele>42.193539</ele>
        <time>2021-04-17T10:25:15.895Z</time>
      </trkpt>
      <trkpt lat="43.62015" lon="3.81688">
        <ele>41.882004</ele>
        <time>2021-04-17T10:25:17.884Z</time>
      </trkpt>
      <trkpt lat="43.62005" lon="3.81698">
        <ele>41.834961</ele>
        <time>2021-04-17T10:25:19.888Z</time>
      </trkpt>
      <trkpt lat="43.61995" lon="3.81707">
        <ele>41.835938</ele>
        <time>2021-04-17T10:25:21.941Z</time>
      </trkpt>
      <trkpt lat="43.61985" lon="3.81719">
        <ele>41.854816</ele>
        <time>2021-04-17T10:25:24.248Z</time>
      </trkpt>
      <trkpt lat="43.61971" lon="3.81721">
        <ele>41.948456</ele>
        <time>2021-04-17T10:25:26.823Z</time>
      </trkpt>
      <trkpt lat="43.61955" lon="3.81725">
        <ele>42.110493</ele>
        <time>2021-04-17T10:25:29.898Z</time>
      </trkpt>
      <trkpt lat="43.61941" lon="3.81736">
        <ele>42.261242</ele>
        <time>2021-04-17T10:25:32.926Z</time>
      </trkpt>
      <trkpt lat="43.61927" lon="3.81746">
        <ele>42.354752</ele>
        <time>2021-04-17T10:25:35.790Z</time>
      </trkpt>
      <trkpt lat="43.61914" lon="3.81755">
        <ele>42.352684</ele>
        <time>2021-04-17T10:25:38.283Z</time>
      </trkpt>
      <trkpt lat="43.61901" lon="3.81762">
        <ele>42.285988</ele>
        <time>2021-04-17T10:25:40.517Z</time>
      </trkpt>
      <trkpt lat="43.61887" lon="3.81774">
        <ele>42.107708</ele>
        <time>2021-04-17T10:25:42.790Z</time>
      </trkpt>
      <trkpt lat="43.61871" lon="3.81789">
        <ele>41.619644</ele>
        <time>2021-04-17T10:25:45.033Z</time>
      </trkpt>
      <trkpt lat="43.61853" lon="3.81806">
        <ele>41.552547</ele>
        <time>2021-04-17T10:25:48.611Z</time>
      </trkpt>
      <trkpt lat="43.61835" lon="3.81826">
        <ele>41.452961</ele>
        <time>2021-04-17T10:25:52.335Z</time>
      </trkpt>
      <trkpt lat="43.61816" lon="3.81847">
        <ele>41.205078</ele>
        <time>2021-04-17T10:25:55.720Z</time>
      </trkpt>
      <trkpt lat="43.61799" lon="3.81867">
        <ele>41.051678</ele>
        <time>2021-04-17T10:25:59.192Z</time>
      </trkpt>
      <trkpt lat="43.6178" lon="3.81885">
        <ele>41.370361</ele>
        <time>2021-04-17T10:26:03.726Z</time>
      </trkpt>
      <trkpt lat="43.61763" lon="3.81903">
        <ele>41.425293</ele>
        <time>2021-04-17T10:26:07.496Z</time>
      </trkpt>
      <trkpt lat="43.61746" lon="3.81923">
        <ele>41.425293</ele>
        <time>2021-04-17T10:26:11.333Z</time>
      </trkpt>
      <trkpt lat="43.61728" lon="3.81941">
        <ele>41.775146</ele>
        <time>2021-04-17T10:26:15.795Z</time>
      </trkpt>
      <trkpt lat="43.61708" lon="3.81955">
        <ele>42.390869</ele>
        <time>2021-04-17T10:26:20.944Z</time>
      </trkpt>
      <trkpt lat="43.61686" lon="3.81967">
        <ele>42.605225</ele>
        <time>2021-04-17T10:26:25.376Z</time>
      </trkpt>
      <trkpt lat="43.61665" lon="3.81977">
        <ele>42.77702</ele>
        <time>2021-04-17T10:26:29.485Z</time>
      </trkpt>
      <trkpt lat="43.61643" lon="3.81987">
        <ele>42.927246</ele>
        <time>2021-04-17T10:26:33.716Z</time>
      </trkpt>
      <trkpt lat="43.61623" lon="3.81998">
        <ele>43.088459</ele>
        <time>2021-04-17T10:26:37.688Z</time>
      </trkpt>
      <trkpt lat="43.61601" lon="3.82008">
        <ele>43.382477</ele>
        <time>2021-04-17T10:26:42.192Z</time>
      </trkpt>
      <trkpt lat="43.61581" lon="3.82021">
        <ele>43.549789</ele>
        <time>2021-04-17T10:26:46.273Z</time>
      </trkpt>
      <trkpt lat="43.61564" lon="3.82035">
        <ele>43.629185</ele>
        <time>2021-04-17T10:26:49.804Z</time>
      </trkpt>
      <trkpt lat="43.61559" lon="3.82055">
        <ele>43.543293</ele>
        <time>2021-04-17T10:26:52.229Z</time>
      </trkpt>
      <trkpt lat="43.61555" lon="3.82073">
        <ele>43.543491</ele>
        <time>2021-04-17T10:26:54.572Z</time>
      </trkpt>
      <trkpt lat="43.61549" lon="3.82093">
        <ele>44.072754</ele>
        <time>2021-04-17T10:26:58.471Z</time>
      </trkpt>
      <trkpt lat="43.61549" lon="3.82115">
        <ele>44.361328</ele>
        <time>2021-04-17T10:27:01.753Z</time>
      </trkpt>
      <trkpt lat="43.61546" lon="3.82138">
        <ele>44.361328</ele>
        <time>2021-04-17T10:27:04.661Z</time>
      </trkpt>
      <trkpt lat="43.61546" lon="3.8216">
        <ele>44.981304</ele>
        <time>2021-04-17T10:27:08.914Z</time>
      </trkpt>
      <trkpt lat="43.61542" lon="3.82179">
        <ele>44.981304</ele>
        <time>2021-04-17T10:27:11.376Z</time>
      </trkpt>
      <trkpt lat="43.61538" lon="3.82196">
        <ele>46.279156</ele>
        <time>2021-04-17T10:27:17.176Z</time>
      </trkpt>
      <trkpt lat="43.61538" lon="3.82207">
        <ele>47.381805</ele>
        <time>2021-04-17T10:27:22.455Z</time>
      </trkpt>
      <trkpt lat="43.61533" lon="3.82225">
        <ele>47.702229</ele>
        <time>2021-04-17T10:27:25.492Z</time>
      </trkpt>
      <trkpt lat="43.61529" lon="3.82242">
        <ele>49.377975</ele>
        <time>2021-04-17T10:27:33.607Z</time>
      </trkpt>
      <trkpt lat="43.61527" lon="3.8226">
        <ele>50.083267</ele>
        <time>2021-04-17T10:27:37.662Z</time>
      </trkpt>
      <trkpt lat="43.61524" lon="3.82279">
        <ele>50.083267</ele>
        <time>2021-04-17T10:27:40.081Z</time>
      </trkpt>
      <trkpt lat="43.61522" lon="3.82299">
        <ele>51.113644</ele>
        <time>2021-04-17T10:27:45.155Z</time>
      </trkpt>
      <trkpt lat="43.61519" lon="3.82318">
        <ele>52.150394</ele>
        <time>2021-04-17T10:27:50.161Z</time>
      </trkpt>
      <trkpt lat="43.61517" lon="3.82337">
        <ele>52.473145</ele>
        <time>2021-04-17T10:27:53.195Z</time>
      </trkpt>
      <trkpt lat="43.61515" lon="3.82356">
        <ele>53.18742</ele>
        <time>2021-04-17T10:27:57.410Z</time>
      </trkpt>
      <trkpt lat="43.61513" lon="3.82375">
        <ele>53.737629</ele>
        <time>2021-04-17T10:28:01.157Z</time>
      </trkpt>
      <trkpt lat="43.61511" lon="3.82393">
        <ele>53.997478</ele>
        <time>2021-04-17T10:28:03.922Z</time>
      </trkpt>
      <trkpt lat="43.61509" lon="3.82411">
        <ele>54.870121</ele>
        <time>2021-04-17T10:28:08.354Z</time>
      </trkpt>
      <trkpt lat="43.61507" lon="3.82428">
        <ele>55.313828</ele>
        <time>2021-04-17T10:28:11.533Z</time>
      </trkpt>
      <trkpt lat="43.61505" lon="3.82446">
        <ele>55.558117</ele>
        <time>2021-04-17T10:28:14.262Z</time>
      </trkpt>
      <trkpt lat="43.61504" lon="3.82463">
        <ele>56.678143</ele>
        <time>2021-04-17T10:28:19.322Z</time>
      </trkpt>
      <trkpt lat="43.61504" lon="3.82478">
        <ele>57.611965</ele>
        <time>2021-04-17T10:28:23.592Z</time>
      </trkpt>
      <trkpt lat="43.61505" lon="3.82495">
        <ele>57.611965</ele>
        <time>2021-04-17T10:28:25.714Z</time>
      </trkpt>
      <trkpt lat="43.61504" lon="3.82512">
        <ele>58.393921</ele>
        <time>2021-04-17T10:28:29.780Z</time>
      </trkpt>
      <trkpt lat="43.61505" lon="3.8253">
        <ele>59.425293</ele>
        <time>2021-04-17T10:28:34.625Z</time>
      </trkpt>
      <trkpt lat="43.61506" lon="3.82547">
        <ele>59.425293</ele>
        <time>2021-04-17T10:28:36.747Z</time>
      </trkpt>
      <trkpt lat="43.61507" lon="3.82561">
        <ele>59.645344</ele>
        <time>2021-04-17T10:28:38.929Z</time>
      </trkpt>
      <trkpt lat="43.61507" lon="3.82571">
        <ele>60.869831</ele>
        <time>2021-04-17T10:28:43.728Z</time>
      </trkpt>
      <trkpt lat="43.61502" lon="3.82594">
        <ele>62.210552</ele>
        <time>2021-04-17T10:28:50.081Z</time>
      </trkpt>
      <trkpt lat="43.61494" lon="3.82617">
        <ele>62.593372</ele>
        <time>2021-04-17T10:28:54.000Z</time>
      </trkpt>
      <trkpt lat="43.61491" lon="3.82641">
        <ele>63.071045</ele>
        <time>2021-04-17T10:28:58.030Z</time>
      </trkpt>
      <trkpt lat="43.61489" lon="3.82665">
        <ele>63.071045</ele>
        <time>2021-04-17T10:29:01.036Z</time>
      </trkpt>
      <trkpt lat="43.61486" lon="3.82687">
        <ele>63.307781</ele>
        <time>2021-04-17T10:29:04.251Z</time>
      </trkpt>
      <trkpt lat="43.61482" lon="3.82707">
        <ele>64.379326</ele>
        <time>2021-04-17T10:29:09.498Z</time>
      </trkpt>
      <trkpt lat="43.61477" lon="3.82728">
        <ele>65.102074</ele>
        <time>2021-04-17T10:29:14.160Z</time>
      </trkpt>
      <trkpt lat="43.61472" lon="3.82747">
        <ele>65.421211</ele>
        <time>2021-04-17T10:29:17.303Z</time>
      </trkpt>
      <trkpt lat="43.61469" lon="3.82767">
        <ele>65.603844</ele>
        <time>2021-04-17T10:29:20.168Z</time>
      </trkpt>
      <trkpt lat="43.61466" lon="3.82786">
        <ele>65.706787</ele>
        <time>2021-04-17T10:29:22.761Z</time>
      </trkpt>
      <trkpt lat="43.61462" lon="3.82806">
        <ele>65.754707</ele>
        <time>2021-04-17T10:29:25.421Z</time>
      </trkpt>
      <trkpt lat="43.6146" lon="3.8283">
        <ele>65.809196</ele>
        <time>2021-04-17T10:29:28.515Z</time>
      </trkpt>
      <trkpt lat="43.61459" lon="3.82854">
        <ele>66.069252</ele>
        <time>2021-04-17T10:29:31.980Z</time>
      </trkpt>
      <trkpt lat="43.61456" lon="3.82871">
        <ele>66.268883</ele>
        <time>2021-04-17T10:29:34.524Z</time>
      </trkpt>
      <trkpt lat="43.61456" lon="3.82886">
        <ele>66.769531</ele>
        <time>2021-04-17T10:29:37.706Z</time>
      </trkpt>
      <trkpt lat="43.61449" lon="3.82881">
        <ele>66.75106</ele>
        <time>2021-04-17T10:29:39.013Z</time>
      </trkpt>
      <trkpt lat="43.61434" lon="3.82882">
        <ele>66.54232</ele>
        <time>2021-04-17T10:29:41.005Z</time>
      </trkpt>
      <trkpt lat="43.61417" lon="3.82885">
        <ele>66.132355</ele>
        <time>2021-04-17T10:29:43.022Z</time>
      </trkpt>
      <trkpt lat="43.61396" lon="3.82899">
        <ele>66.132355</ele>
        <time>2021-04-17T10:29:47.029Z</time>
      </trkpt>
      <trkpt lat="43.61375" lon="3.82926">
        <ele>66.038979</ele>
        <time>2021-04-17T10:29:51.725Z</time>
      </trkpt>
      <trkpt lat="43.61355" lon="3.82928">
        <ele>65.403236</ele>
        <time>2021-04-17T10:29:53.896Z</time>
      </trkpt>
      <trkpt lat="43.61337" lon="3.82919">
        <ele>63.945984</ele>
        <time>2021-04-17T10:29:55.558Z</time>
      </trkpt>
      <trkpt lat="43.61317" lon="3.82913">
        <ele>63.656818</ele>
        <time>2021-04-17T10:29:58.264Z</time>
      </trkpt>
      <trkpt lat="43.61292" lon="3.82918">
        <ele>63.656818</ele>
        <time>2021-04-17T10:30:02.605Z</time>
      </trkpt>
      <trkpt lat="43.61266" lon="3.82932">
        <ele>63.593914</ele>
        <time>2021-04-17T10:30:07.240Z</time>
      </trkpt>
      <trkpt lat="43.61242" lon="3.82942">
        <ele>63.197277</ele>
        <time>2021-04-17T10:30:10.485Z</time>
      </trkpt>
      <trkpt lat="43.61218" lon="3.82951">
        <ele>63.010914</ele>
        <time>2021-04-17T10:30:14.073Z</time>
      </trkpt>
      <trkpt lat="43.61193" lon="3.82954">
        <ele>63.386883</ele>
        <time>2021-04-17T10:30:19.071Z</time>
      </trkpt>
      <trkpt lat="43.6119" lon="3.82931">
        <ele>64.030357</ele>
        <time>2021-04-17T10:30:23.533Z</time>
      </trkpt>
      <trkpt lat="43.61186" lon="3.82908">
        <ele>64.025475</ele>
        <time>2021-04-17T10:30:26.464Z</time>
      </trkpt>
      <trkpt lat="43.61172" lon="3.8289">
        <ele>63.871094</ele>
        <time>2021-04-17T10:30:29.201Z</time>
      </trkpt>
      <trkpt lat="43.61159" lon="3.82883">
        <ele>63.871094</ele>
        <time>2021-04-17T10:30:31.599Z</time>
      </trkpt>
    </trkseg>
  </trk>
</gpx>